GFSSW_prec_precacc24_024.txt.gz
Total_Precipitation_Accumulation
0.00 0.00 0.00 0.00 0.00 0.00 0.00 0.00 0.00 0.01 0.05 0.10 0.13 0.11 0.20 0.24 0.14 0.04 0.00 0.00 0.00 0.00 0.00 0.00 0.00 0.00 0.00 0.00 0.00 0.00 0.00 0.00 0.00 0.00 0.00 0.00 0.00 0.00 0.00 0.00 0.00 0.00 0.00 0.00 0.00
0.00 0.00 0.00 0.00 0.00 0.00 0.00 0.00 0.00 0.00 0.00 0.01 0.03 0.06 0.10 0.10 0.07 0.09 0.01 0.00 0.00 0.00 0.00 0.00 0.00 0.01 0.00 0.00 0.00 0.00 0.00 0.00 0.00 0.00 0.00 0.00 0.00 0.00 0.00 0.00 0.00 0.00 0.00 0.00 0.00
0.01 0.00 0.00 0.00 0.00 0.00 0.00 0.01 0.01 0.00 0.00 0.01 0.03 0.04 0.10 0.05 0.06 0.02 0.00 0.00 0.01 0.04 0.00 0.00 0.01 0.05 0.04 0.00 0.00 0.00 0.00 0.00 0.00 0.00 0.00 0.00 0.00 0.00 0.00 0.00 0.00 0.00 0.00 0.00 0.00
0.03 0.01 0.00 0.00 0.00 0.00 0.00 0.00 0.01 0.02 0.01 0.00 0.02 0.06 0.10 0.06 0.02 0.01 0.00 0.00 0.00 0.06 0.01 0.01 0.02 0.04 0.04 0.01 0.00 0.00 0.00 0.00 0.00 0.00 0.00 0.00 0.00 0.00 0.00 0.00 0.00 0.00 0.00 0.00 0.00
0.06 0.06 0.03 0.00 0.01 0.00 0.00 0.00 0.00 0.00 0.01 0.01 0.04 0.09 0.08 0.06 0.02 0.00 0.00 0.00 0.00 0.02 0.02 0.03 0.04 0.02 0.02 0.00 0.01 0.00 0.00 0.00 0.00 0.00 0.00 0.00 0.00 0.00 0.00 0.00 0.00 0.00 0.00 0.00 0.00
0.06 0.05 0.05 0.02 0.00 0.01 0.00 0.00 0.00 0.00 0.03 0.07 0.10 0.11 0.03 0.03 0.00 0.00 0.00 0.00 0.00 0.01 0.02 0.05 0.04 0.01 0.01 0.00 0.02 0.00 0.00 0.00 0.00 0.00 0.00 0.00 0.00 0.00 0.00 0.00 0.00 0.00 0.00 0.00 0.00
0.07 0.07 0.05 0.04 0.01 0.00 0.00 0.01 0.00 0.00 0.04 0.11 0.19 0.11 0.04 0.00 0.00 0.00 0.00 0.00 0.00 0.00 0.01 0.02 0.05 0.15 0.09 0.06 0.00 0.01 0.01 0.00 0.00 0.00 0.00 0.00 0.00 0.00 0.00 0.00 0.00 0.00 0.00 0.00 0.00
0.11 0.10 0.11 0.09 0.06 0.02 0.01 0.02 0.04 0.03 0.06 0.12 0.13 0.13 0.05 0.00 0.00 0.00 0.00 0.00 0.00 0.00 0.00 0.01 0.14 0.13 0.12 0.08 0.04 0.04 0.06 0.02 0.00 0.00 0.00 0.00 0.00 0.00 0.00 0.00 0.00 0.00 0.00 0.00 0.00
0.17 0.14 0.11 0.11 0.09 0.05 0.06 0.08 0.10 0.15 0.17 0.12 0.05 0.10 0.03 0.00 0.00 0.00 0.00 0.00 0.00 0.00 0.00 0.03 0.17 0.19 0.11 0.15 0.16 0.11 0.04 0.01 0.00 0.00 0.00 0.00 0.00 0.00 0.00 0.00 0.00 0.00 0.00 0.00 0.00
0.15 0.16 0.12 0.12 0.13 0.09 0.15 0.23 0.24 0.21 0.15 0.09 0.05 0.06 0.00 0.00 0.00 0.00 0.00 0.00 0.04 0.08 0.06 0.08 0.20 0.23 0.16 0.21 0.14 0.04 0.02 0.01 0.00 0.00 0.00 0.00 0.00 0.00 0.00 0.00 0.00 0.00 0.00 0.00 0.00
0.17 0.22 0.22 0.17 0.16 0.14 0.25 0.59 0.26 0.14 0.11 0.01 0.02 0.00 0.00 0.00 0.00 0.00 0.00 0.00 0.03 0.14 0.09 0.10 0.21 0.19 0.10 0.04 0.03 0.02 0.05 0.02 0.00 0.00 0.01 0.00 0.00 0.00 0.00 0.00 0.00 0.00 0.00 0.00 0.00
0.15 0.20 0.25 0.26 0.25 0.26 0.39 0.34 0.08 0.05 0.13 0.04 0.01 0.00 0.00 0.02 0.03 0.01 0.00 0.01 0.05 0.13 0.10 0.23 0.19 0.04 0.09 0.06 0.05 0.06 0.06 0.04 0.01 0.02 0.04 0.00 0.00 0.00 0.00 0.00 0.00 0.00 0.00 0.00 0.00
0.21 0.24 0.31 0.35 0.41 0.39 0.32 0.20 0.14 0.15 0.49 0.24 0.04 0.03 0.01 0.02 0.03 0.07 0.00 0.03 0.05 0.12 0.18 0.22 0.18 0.05 0.14 0.13 0.09 0.07 0.07 0.04 0.03 0.05 0.04 0.02 0.00 0.00 0.00 0.00 0.00 0.00 0.00 0.00 0.00
0.28 0.32 0.38 0.54 0.72 0.42 0.44 0.35 0.36 0.49 1.15 0.24 0.04 0.08 0.09 0.18 0.12 0.02 0.00 0.05 0.09 0.12 0.16 0.22 0.19 0.18 0.17 0.25 0.09 0.06 0.03 0.04 0.07 0.16 0.05 0.07 0.03 0.00 0.00 0.00 0.00 0.00 0.00 0.00 0.00
0.35 0.37 0.45 0.78 0.67 0.36 0.29 0.46 0.52 0.86 0.89 0.04 0.03 0.02 0.04 0.15 0.12 0.03 0.01 0.15 0.17 0.14 0.38 0.45 0.24 0.31 0.19 0.28 0.09 0.09 0.02 0.04 0.08 0.22 0.33 0.07 0.07 0.01 0.00 0.00 0.00 0.00 0.00 0.00 0.00
0.42 0.46 0.62 0.79 0.56 0.34 0.36 0.51 0.62 0.82 0.37 0.06 0.07 0.06 0.09 0.08 0.15 0.17 0.05 0.14 0.33 0.49 0.46 0.27 0.18 0.30 0.19 0.17 0.16 0.10 0.13 0.13 0.21 0.30 0.47 0.34 0.09 0.02 0.00 0.00 0.00 0.00 0.00 0.00 0.00
0.57 0.67 0.91 0.71 0.59 0.35 0.48 0.53 0.67 0.39 0.16 0.27 0.17 0.18 0.11 0.05 0.13 0.19 0.16 0.22 0.88 0.79 0.78 0.87 0.58 0.48 0.23 0.35 0.50 0.39 0.51 0.74 0.65 0.66 0.33 0.07 0.24 0.11 0.00 0.00 0.00 0.00 0.00 0.00 0.00
0.60 0.92 0.99 0.70 0.62 0.37 0.53 0.52 0.40 0.13 0.21 0.24 0.16 0.22 0.29 0.10 0.17 0.14 0.31 0.16 0.48 0.41 0.59 0.77 0.66 0.52 0.30 0.46 0.77 0.59 0.50 0.71 0.36 0.29 0.13 0.05 0.07 0.03 0.00 0.00 0.00 0.00 0.00 0.00 0.00
0.86 1.18 1.32 0.81 0.78 0.51 0.68 0.61 0.20 0.17 0.23 0.21 0.23 0.24 0.27 0.12 0.18 0.16 0.18 0.13 0.17 0.16 0.43 0.46 0.52 0.31 0.19 0.22 0.51 0.66 0.69 0.46 0.42 0.17 0.25 0.09 0.02 0.00 0.00 0.00 0.00 0.00 0.00 0.00 0.00
1.44 1.56 1.49 0.70 0.80 0.72 0.94 0.54 0.31 0.39 0.32 0.17 0.12 0.05 0.04 0.08 0.19 0.11 0.08 0.05 0.09 0.03 0.19 0.33 0.57 0.53 0.49 0.40 0.58 0.53 0.34 0.49 0.95 0.41 0.15 0.11 0.06 0.00 0.00 0.00 0.00 0.00 0.00 0.00 0.00
1.43 1.68 1.27 0.96 1.21 1.20 0.85 0.47 0.30 0.26 0.22 0.18 0.06 0.05 0.02 0.02 0.19 0.05 0.04 0.03 0.05 0.02 0.13 0.44 0.61 0.62 0.87 0.75 0.53 0.55 0.57 0.44 0.48 0.24 0.11 0.05 0.08 0.01 0.00 0.00 0.02 0.01 0.01 0.00 0.00
1.28 1.40 1.04 1.56 1.62 0.91 0.47 0.60 0.37 0.18 0.17 0.17 0.07 0.02 0.01 0.01 0.12 0.05 0.03 0.02 0.01 0.03 0.16 0.38 0.54 0.69 0.54 0.20 0.16 0.23 0.25 0.11 0.46 0.30 0.11 0.06 0.01 0.01 0.01 0.00 0.02 0.03 0.03 0.02 0.01
1.16 1.20 1.78 1.04 0.89 0.48 0.38 0.62 0.39 0.15 0.17 0.20 0.05 0.01 0.00 0.01 0.02 0.01 0.02 0.00 0.00 0.01 0.15 0.29 0.72 0.74 0.68 0.47 0.45 0.53 0.31 0.13 0.26 0.57 0.23 0.14 0.01 0.00 0.01 0.01 0.01 0.01 0.02 0.01 0.00
1.12 1.32 2.35 1.76 0.36 0.28 0.54 0.66 0.53 0.20 0.17 0.22 0.08 0.04 0.04 0.01 0.00 0.00 0.04 0.00 0.00 0.01 0.18 0.66 0.60 0.73 0.69 0.66 0.55 0.28 0.21 0.24 0.34 0.58 0.24 0.10 0.02 0.01 0.01 0.03 0.02 0.01 0.02 0.05 0.02
0.70 0.46 0.57 0.68 0.25 0.06 0.52 0.73 0.78 0.64 0.43 0.27 0.12 0.03 0.05 0.02 0.01 0.00 0.01 0.00 0.00 0.01 0.21 0.73 0.92 1.18 0.70 0.32 0.72 0.32 0.16 0.19 0.36 0.36 0.25 0.08 0.07 0.02 0.01 0.03 0.06 0.03 0.03 0.02 0.01
0.44 0.14 0.07 0.04 0.02 0.02 0.32 0.76 0.86 0.76 0.60 0.31 0.14 0.05 0.05 0.02 0.01 0.00 0.00 0.00 0.00 0.01 0.11 0.45 0.76 0.93 0.53 0.15 0.20 0.17 0.10 0.11 0.13 0.28 0.35 0.16 0.21 0.05 0.02 0.08 0.18 0.07 0.02 0.02 0.00
0.42 0.07 0.04 0.08 0.04 0.03 0.08 0.39 0.62 0.63 0.49 0.27 0.18 0.16 0.04 0.02 0.01 0.00 0.00 0.00 0.00 0.01 0.09 0.25 0.40 0.65 0.57 0.35 0.15 0.24 0.13 0.09 0.12 0.16 0.27 0.25 0.18 0.07 0.05 0.12 0.07 0.01 0.00 0.00 0.00

GFSSW_prec_precacc24_027.txt.gz
Total_Precipitation_Accumulation
0.02 0.01 0.00 0.00 0.00 0.00 0.00 0.00 0.00 0.00 0.03 0.06 0.09 0.10 0.17 0.25 0.18 0.05 0.00 0.00 0.00 0.00 0.00 0.00 0.00 0.00 0.00 0.00 0.00 0.00 0.00 0.00 0.00 0.00 0.00 0.00 0.00 0.00 0.00 0.00 0.00 0.00 0.00 0.00 0.00
0.03 0.02 0.01 0.00 0.00 0.00 0.00 0.00 0.00 0.00 0.00 0.00 0.01 0.04 0.08 0.10 0.10 0.11 0.01 0.00 0.01 0.00 0.00 0.00 0.00 0.00 0.00 0.00 0.00 0.00 0.00 0.00 0.00 0.00 0.00 0.00 0.00 0.00 0.00 0.00 0.00 0.00 0.00 0.00 0.00
0.04 0.03 0.02 0.00 0.00 0.00 0.00 0.00 0.00 0.00 0.00 0.00 0.00 0.00 0.05 0.03 0.05 0.02 0.00 0.01 0.07 0.10 0.00 0.00 0.01 0.03 0.03 0.00 0.00 0.00 0.00 0.00 0.00 0.00 0.00 0.00 0.00 0.00 0.00 0.00 0.00 0.00 0.00 0.00 0.00
0.05 0.05 0.04 0.03 0.01 0.00 0.00 0.00 0.00 0.01 0.01 0.00 0.00 0.01 0.04 0.04 0.02 0.01 0.00 0.00 0.00 0.10 0.01 0.00 0.01 0.03 0.04 0.01 0.00 0.00 0.00 0.00 0.00 0.00 0.00 0.00 0.00 0.00 0.00 0.00 0.00 0.00 0.00 0.00 0.00
0.12 0.09 0.08 0.07 0.04 0.01 0.00 0.00 0.00 0.00 0.01 0.01 0.02 0.04 0.04 0.04 0.02 0.00 0.00 0.00 0.00 0.03 0.02 0.01 0.02 0.02 0.02 0.00 0.01 0.00 0.00 0.00 0.00 0.00 0.00 0.00 0.00 0.00 0.00 0.00 0.00 0.00 0.00 0.00 0.00
0.09 0.09 0.08 0.07 0.06 0.02 0.00 0.00 0.00 0.00 0.01 0.03 0.06 0.05 0.02 0.02 0.00 0.00 0.00 0.00 0.00 0.01 0.02 0.03 0.02 0.01 0.01 0.00 0.02 0.00 0.00 0.00 0.00 0.00 0.00 0.00 0.00 0.00 0.00 0.00 0.00 0.00 0.00 0.00 0.00
0.11 0.11 0.09 0.06 0.07 0.05 0.01 0.00 0.00 0.00 0.01 0.06 0.12 0.05 0.04 0.00 0.00 0.00 0.00 0.00 0.00 0.00 0.01 0.02 0.04 0.15 0.09 0.06 0.00 0.01 0.01 0.00 0.00 0.00 0.00 0.00 0.00 0.00 0.00 0.00 0.00 0.00 0.00 0.00 0.00
0.12 0.14 0.15 0.12 0.11 0.08 0.03 0.02 0.03 0.03 0.03 0.05 0.03 0.06 0.05 0.00 0.00 0.00 0.00 0.00 0.00 0.00 0.00 0.00 0.05 0.13 0.12 0.08 0.04 0.04 0.06 0.02 0.00 0.00 0.00 0.00 0.00 0.00 0.00 0.00 0.00 0.00 0.00 0.00 0.00
0.17 0.16 0.16 0.17 0.15 0.12 0.08 0.08 0.09 0.13 0.15 0.06 0.01 0.05 0.02 0.00 0.00 0.00 0.00 0.00 0.00 0.00 0.00 0.00 0.04 0.12 0.10 0.15 0.15 0.10 0.04 0.01 0.00 0.00 0.00 0.00 0.00 0.00 0.00 0.00 0.00 0.00 0.00 0.00 0.00
0.15 0.17 0.19 0.20 0.19 0.16 0.16 0.19 0.21 0.18 0.12 0.08 0.05 0.04 0.00 0.00 0.00 0.00 0.00 0.00 0.02 0.07 0.06 0.04 0.10 0.16 0.13 0.19 0.12 0.03 0.02 0.01 0.00 0.00 0.00 0.00 0.00 0.00 0.00 0.00 0.00 0.00 0.00 0.00 0.00
0.18 0.22 0.25 0.27 0.29 0.22 0.14 0.30 0.21 0.13 0.10 0.01 0.01 0.00 0.00 0.00 0.00 0.00 0.00 0.00 0.01 0.12 0.08 0.05 0.13 0.14 0.09 0.04 0.03 0.02 0.05 0.02 0.00 0.00 0.01 0.00 0.00 0.00 0.00 0.00 0.00 0.00 0.00 0.00 0.00
0.17 0.20 0.26 0.33 0.35 0.44 0.32 0.20 0.06 0.04 0.12 0.04 0.00 0.00 0.00 0.00 0.02 0.01 0.00 0.00 0.01 0.12 0.09 0.15 0.13 0.03 0.09 0.05 0.05 0.06 0.06 0.04 0.01 0.02 0.04 0.00 0.00 0.00 0.00 0.00 0.00 0.00 0.00 0.00 0.00
0.24 0.26 0.30 0.33 0.55 0.71 0.34 0.16 0.11 0.14 0.47 0.24 0.04 0.03 0.01 0.02 0.02 0.06 0.00 0.00 0.02 0.12 0.18 0.18 0.10 0.04 0.14 0.12 0.09 0.07 0.07 0.04 0.03 0.05 0.04 0.02 0.00 0.00 0.00 0.00 0.00 0.00 0.00 0.00 0.00
0.29 0.34 0.38 0.46 0.75 0.81 0.55 0.26 0.21 0.40 1.04 0.23 0.04 0.08 0.09 0.16 0.11 0.01 0.00 0.02 0.07 0.12 0.16 0.18 0.13 0.17 0.16 0.25 0.09 0.06 0.03 0.04 0.07 0.16 0.05 0.07 0.03 0.00 0.00 0.00 0.00 0.00 0.00 0.00 0.00
0.36 0.38 0.44 0.72 0.81 0.70 0.57 0.29 0.27 0.64 0.71 0.04 0.03 0.02 0.05 0.14 0.10 0.01 0.01 0.13 0.15 0.14 0.36 0.34 0.19 0.25 0.17 0.28 0.09 0.09 0.02 0.04 0.08 0.22 0.33 0.07 0.07 0.01 0.00 0.00 0.00 0.00 0.00 0.00 0.00
0.42 0.47 0.61 0.72 0.64 0.44 0.50 0.37 0.37 0.59 0.27 0.05 0.06 0.06 0.11 0.09 0.11 0.14 0.05 0.12 0.28 0.49 0.45 0.19 0.16 0.25 0.13 0.17 0.16 0.10 0.13 0.12 0.22 0.32 0.50 0.34 0.09 0.02 0.00 0.00 0.00 0.00 0.00 0.00 0.00
0.62 0.68 0.91 0.72 0.67 0.54 0.54 0.51 0.51 0.30 0.08 0.22 0.16 0.18 0.11 0.06 0.08 0.17 0.16 0.20 0.66 0.76 0.75 0.77 0.55 0.47 0.16 0.33 0.49 0.39 0.56 0.73 0.67 0.72 0.35 0.07 0.24 0.11 0.00 0.00 0.00 0.00 0.00 0.00 0.00
0.65 0.94 0.99 0.71 0.65 1.06 0.60 0.43 0.31 0.08 0.12 0.19 0.16 0.21 0.27 0.10 0.12 0.12 0.30 0.15 0.37 0.41 0.60 0.73 0.59 0.51 0.27 0.41 0.76 0.57 0.51 0.76 0.38 0.30 0.13 0.05 0.07 0.03 0.00 0.00 0.00 0.00 0.00 0.00 0.00
0.93 1.21 1.32 0.83 0.85 1.09 0.74 0.50 0.13 0.14 0.17 0.18 0.22 0.23 0.24 0.09 0.11 0.14 0.17 0.11 0.11 0.16 0.44 0.46 0.51 0.31 0.19 0.22 0.51 0.64 0.70 0.47 0.47 0.20 0.30 0.10 0.02 0.00 0.00 0.00 0.00 0.00 0.00 0.00 0.00
1.47 1.58 1.50 0.72 0.93 1.24 0.92 0.38 0.13 0.23 0.30 0.17 0.12 0.05 0.03 0.02 0.09 0.06 0.06 0.01 0.01 0.02 0.19 0.33 0.57 0.53 0.49 0.41 0.58 0.53 0.34 0.51 1.02 0.47 0.19 0.11 0.06 0.00 0.00 0.00 0.00 0.00 0.00 0.00 0.00
1.46 1.72 1.31 1.05 1.33 1.45 0.85 0.28 0.15 0.18 0.22 0.18 0.06 0.05 0.01 0.00 0.07 0.01 0.02 0.01 0.01 0.01 0.13 0.44 0.61 0.63 0.88 0.76 0.53 0.56 0.58 0.46 0.50 0.26 0.12 0.05 0.08 0.01 0.00 0.00 0.02 0.01 0.01 0.00 0.00
1.36 1.42 1.10 1.81 1.90 1.06 0.29 0.30 0.28 0.18 0.16 0.16 0.07 0.02 0.01 0.00 0.03 0.02 0.01 0.02 0.01 0.03 0.16 0.38 0.55 0.69 0.54 0.20 0.16 0.24 0.26 0.15 0.52 0.31 0.13 0.07 0.01 0.01 0.01 0.00 0.02 0.03 0.03 0.02 0.01
1.31 1.23 1.93 1.14 0.91 0.40 0.17 0.41 0.33 0.14 0.15 0.19 0.05 0.01 0.00 0.01 0.01 0.00 0.00 0.00 0.00 0.01 0.15 0.29 0.73 0.75 0.68 0.47 0.46 0.59 0.33 0.24 0.43 0.73 0.29 0.15 0.01 0.00 0.01 0.01 0.01 0.01 0.02 0.01 0.00
1.15 1.43 2.85 1.86 0.41 0.18 0.38 0.50 0.45 0.15 0.13 0.21 0.08 0.04 0.04 0.02 0.00 0.00 0.00 0.00 0.00 0.01 0.18 0.66 0.60 0.74 0.72 0.72 0.74 0.47 0.26 0.35 0.56 0.79 0.27 0.11 0.02 0.01 0.01 0.03 0.02 0.02 0.03 0.06 0.02
0.71 0.58 0.75 0.81 0.32 0.05 0.42 0.53 0.63 0.44 0.28 0.25 0.12 0.04 0.05 0.02 0.01 0.00 0.00 0.00 0.00 0.01 0.21 0.73 0.93 1.21 0.74 0.38 0.92 0.50 0.26 0.29 0.52 0.41 0.26 0.09 0.07 0.02 0.01 0.03 0.06 0.05 0.10 0.04 0.02
0.47 0.22 0.10 0.05 0.02 0.02 0.26 0.51 0.68 0.62 0.50 0.30 0.14 0.05 0.05 0.03 0.01 0.00 0.00 0.00 0.00 0.01 0.11 0.47 0.78 0.95 0.55 0.17 0.32 0.27 0.13 0.15 0.15 0.28 0.35 0.16 0.21 0.05 0.02 0.08 0.20 0.12 0.17 0.04 0.01
0.51 0.15 0.05 0.10 0.05 0.03 0.07 0.28 0.48 0.56 0.42 0.27 0.18 0.16 0.04 0.02 0.01 0.00 0.00 0.00 0.00 0.01 0.09 0.26 0.43 0.74 0.61 0.37 0.23 0.33 0.15 0.11 0.12 0.16 0.27 0.25 0.18 0.07 0.06 0.25 0.24 0.15 0.11 0.01 0.00

GFSSW_prec_precacc24_030.txt.gz
Total_Precipitation_Accumulation
0.04 0.05 0.04 0.01 0.00 0.00 0.00 0.00 0.00 0.00 0.02 0.05 0.05 0.07 0.15 0.23 0.21 0.07 0.00 0.00 0.00 0.00 0.00 0.00 0.00 0.00 0.00 0.00 0.00 0.00 0.00 0.00 0.00 0.00 0.00 0.00 0.00 0.00 0.00 0.00 0.00 0.00 0.00 0.00 0.00
0.04 0.03 0.04 0.04 0.01 0.00 0.00 0.00 0.00 0.00 0.00 0.00 0.00 0.02 0.05 0.08 0.11 0.12 0.01 0.00 0.01 0.01 0.00 0.00 0.00 0.00 0.00 0.00 0.00 0.00 0.00 0.00 0.00 0.00 0.00 0.00 0.00 0.00 0.00 0.00 0.00 0.00 0.00 0.00 0.00
0.05 0.05 0.05 0.06 0.05 0.01 0.00 0.00 0.00 0.00 0.00 0.00 0.00 0.00 0.02 0.02 0.04 0.01 0.00 0.02 0.12 0.15 0.01 0.00 0.00 0.01 0.02 0.00 0.00 0.00 0.00 0.00 0.00 0.00 0.00 0.00 0.00 0.00 0.00 0.00 0.00 0.00 0.00 0.00 0.00
0.07 0.08 0.08 0.08 0.08 0.06 0.00 0.00 0.00 0.00 0.00 0.00 0.00 0.00 0.01 0.02 0.02 0.00 0.00 0.00 0.03 0.17 0.02 0.00 0.00 0.02 0.02 0.01 0.00 0.00 0.00 0.00 0.00 0.00 0.00 0.00 0.00 0.00 0.00 0.00 0.00 0.00 0.00 0.00 0.00
0.12 0.12 0.11 0.09 0.10 0.10 0.03 0.00 0.00 0.00 0.00 0.01 0.01 0.02 0.02 0.03 0.01 0.00 0.00 0.00 0.00 0.05 0.03 0.01 0.00 0.01 0.01 0.00 0.01 0.00 0.00 0.00 0.00 0.00 0.00 0.00 0.00 0.00 0.00 0.00 0.00 0.00 0.00 0.00 0.00
0.09 0.09 0.09 0.09 0.09 0.09 0.06 0.00 0.00 0.00 0.00 0.01 0.04 0.04 0.02 0.02 0.00 0.00 0.00 0.00 0.00 0.01 0.03 0.03 0.01 0.00 0.01 0.00 0.02 0.00 0.00 0.00 0.00 0.00 0.00 0.00 0.00 0.00 0.00 0.00 0.00 0.00 0.00 0.00 0.00
0.11 0.12 0.09 0.08 0.09 0.10 0.08 0.02 0.00 0.00 0.00 0.02 0.05 0.03 0.03 0.00 0.00 0.00 0.00 0.00 0.00 0.01 0.03 0.03 0.03 0.11 0.08 0.02 0.00 0.01 0.01 0.00 0.00 0.00 0.00 0.00 0.00 0.00 0.00 0.00 0.00 0.00 0.00 0.00 0.00
0.13 0.14 0.15 0.14 0.15 0.12 0.11 0.08 0.04 0.03 0.02 0.01 0.01 0.04 0.04 0.00 0.00 0.00 0.00 0.00 0.00 0.00 0.01 0.02 0.04 0.08 0.11 0.06 0.03 0.03 0.05 0.01 0.00 0.00 0.00 0.00 0.00 0.00 0.00 0.00 0.00 0.00 0.00 0.00 0.00
0.18 0.16 0.16 0.17 0.20 0.18 0.14 0.19 0.11 0.11 0.11 0.05 0.01 0.04 0.01 0.00 0.00 0.00 0.00 0.00 0.00 0.00 0.00 0.00 0.02 0.06 0.06 0.12 0.12 0.08 0.03 0.01 0.00 0.00 0.00 0.00 0.00 0.00 0.00 0.00 0.00 0.00 0.00 0.00 0.00
0.16 0.18 0.19 0.19 0.24 0.24 0.27 0.29 0.20 0.16 0.11 0.09 0.05 0.03 0.00 0.00 0.00 0.00 0.00 0.00 0.00 0.01 0.02 0.02 0.04 0.06 0.07 0.16 0.10 0.03 0.02 0.01 0.00 0.00 0.00 0.00 0.00 0.00 0.00 0.00 0.00 0.00 0.00 0.00 0.00
0.20 0.24 0.27 0.27 0.33 0.35 0.47 0.67 0.22 0.11 0.09 0.01 0.01 0.00 0.00 0.00 0.00 0.00 0.00 0.00 0.00 0.03 0.04 0.03 0.07 0.04 0.04 0.02 0.03 0.02 0.05 0.02 0.00 0.00 0.01 0.00 0.00 0.00 0.00 0.00 0.00 0.00 0.00 0.00 0.00
0.20 0.22 0.26 0.32 0.36 0.60 0.82 0.47 0.05 0.01 0.06 0.03 0.00 0.00 0.00 0.00 0.00 0.00 0.00 0.00 0.01 0.01 0.05 0.12 0.07 0.00 0.04 0.04 0.05 0.06 0.06 0.04 0.01 0.02 0.04 0.00 0.00 0.00 0.00 0.00 0.00 0.00 0.00 0.00 0.00
0.27 0.27 0.30 0.33 0.54 0.77 0.72 0.30 0.02 0.07 0.32 0.18 0.03 0.02 0.01 0.02 0.01 0.01 0.00 0.00 0.00 0.01 0.09 0.14 0.04 0.01 0.08 0.10 0.07 0.07 0.07 0.04 0.03 0.05 0.04 0.02 0.00 0.00 0.00 0.00 0.00 0.00 0.00 0.00 0.00
0.33 0.35 0.38 0.48 0.74 0.82 0.69 0.31 0.13 0.27 0.72 0.16 0.03 0.07 0.08 0.15 0.10 0.00 0.00 0.01 0.03 0.03 0.11 0.16 0.02 0.09 0.13 0.23 0.08 0.06 0.03 0.04 0.07 0.16 0.05 0.07 0.03 0.00 0.00 0.00 0.00 0.00 0.00 0.00 0.00
0.40 0.41 0.44 0.75 0.82 0.72 0.82 0.40 0.30 0.47 0.51 0.02 0.02 0.02 0.05 0.14 0.09 0.01 0.01 0.12 0.11 0.10 0.27 0.24 0.03 0.12 0.13 0.27 0.09 0.08 0.02 0.04 0.08 0.22 0.34 0.07 0.08 0.01 0.00 0.00 0.00 0.00 0.00 0.00 0.00
0.58 0.56 0.63 0.72 0.65 0.39 0.62 0.73 0.57 0.46 0.18 0.03 0.04 0.06 0.11 0.09 0.08 0.08 0.04 0.12 0.23 0.48 0.44 0.12 0.06 0.14 0.12 0.17 0.15 0.10 0.13 0.13 0.22 0.33 0.52 0.34 0.10 0.02 0.00 0.00 0.00 0.00 0.00 0.00 0.00
0.75 0.76 0.96 0.74 0.66 0.53 0.61 0.94 0.76 0.23 0.04 0.15 0.10 0.13 0.08 0.06 0.08 0.14 0.16 0.20 0.40 0.71 0.63 0.51 0.38 0.29 0.15 0.30 0.46 0.39 0.57 0.72 0.67 0.75 0.35 0.07 0.24 0.11 0.00 0.00 0.00 0.00 0.00 0.00 0.00
0.68 0.96 1.02 0.73 0.64 1.19 0.84 0.71 0.46 0.05 0.06 0.13 0.14 0.19 0.25 0.10 0.10 0.11 0.30 0.16 0.19 0.40 0.57 0.44 0.39 0.33 0.25 0.38 0.70 0.56 0.52 0.76 0.37 0.30 0.13 0.05 0.07 0.03 0.00 0.00 0.00 0.00 0.00 0.00 0.00
0.95 1.22 1.35 0.84 0.82 1.26 1.09 0.63 0.16 0.08 0.10 0.12 0.20 0.21 0.22 0.09 0.07 0.12 0.17 0.11 0.04 0.16 0.41 0.33 0.35 0.25 0.18 0.17 0.50 0.61 0.70 0.48 0.50 0.21 0.31 0.10 0.02 0.00 0.00 0.00 0.00 0.00 0.00 0.00 0.00
1.53 1.61 1.52 0.77 0.91 1.40 1.16 0.45 0.07 0.11 0.23 0.17 0.12 0.05 0.03 0.02 0.04 0.05 0.05 0.01 0.00 0.02 0.18 0.31 0.52 0.52 0.48 0.35 0.54 0.52 0.32 0.53 1.07 0.48 0.20 0.11 0.06 0.00 0.00 0.00 0.00 0.00 0.00 0.00 0.00
1.61 1.86 1.38 1.09 1.28 1.60 0.94 0.25 0.08 0.11 0.19 0.18 0.06 0.05 0.01 0.00 0.00 0.01 0.02 0.00 0.00 0.01 0.13 0.44 0.61 0.62 0.87 0.73 0.50 0.56 0.56 0.48 0.55 0.27 0.13 0.06 0.08 0.01 0.00 0.00 0.02 0.01 0.01 0.00 0.00
1.50 1.61 1.15 1.79 1.96 1.16 0.31 0.15 0.15 0.14 0.16 0.16 0.07 0.02 0.01 0.00 0.00 0.01 0.00 0.01 0.00 0.03 0.16 0.38 0.55 0.69 0.53 0.20 0.16 0.24 0.26 0.19 0.70 0.38 0.21 0.11 0.03 0.01 0.01 0.00 0.02 0.03 0.03 0.02 0.01
1.52 1.37 1.91 1.10 0.94 0.43 0.15 0.16 0.22 0.13 0.14 0.17 0.05 0.01 0.00 0.01 0.00 0.00 0.00 0.00 0.00 0.01 0.15 0.29 0.73 0.75 0.67 0.47 0.47 0.60 0.33 0.28 0.56 0.93 0.48 0.23 0.03 0.00 0.01 0.01 0.01 0.01 0.02 0.01 0.00
1.21 1.51 2.84 1.85 0.43 0.14 0.15 0.18 0.28 0.13 0.11 0.16 0.08 0.04 0.04 0.02 0.00 0.00 0.00 0.00 0.00 0.01 0.18 0.66 0.60 0.74 0.72 0.72 0.78 0.55 0.30 0.46 0.77 1.02 0.32 0.15 0.03 0.01 0.01 0.03 0.02 0.02 0.03 0.06 0.02
0.72 0.60 0.79 0.81 0.33 0.05 0.23 0.26 0.39 0.36 0.17 0.19 0.10 0.04 0.05 0.02 0.01 0.00 0.00 0.00 0.00 0.01 0.21 0.73 0.94 1.21 0.74 0.38 0.93 0.53 0.29 0.37 0.71 0.47 0.32 0.11 0.07 0.02 0.01 0.03 0.06 0.05 0.10 0.04 0.02
0.49 0.27 0.13 0.06 0.03 0.02 0.14 0.24 0.39 0.46 0.32 0.20 0.12 0.05 0.05 0.03 0.01 0.00 0.00 0.00 0.00 0.01 0.11 0.47 0.78 0.95 0.56 0.17 0.33 0.34 0.15 0.18 0.17 0.29 0.36 0.16 0.21 0.05 0.02 0.08 0.20 0.12 0.17 0.05 0.02
0.53 0.26 0.08 0.11 0.05 0.03 0.04 0.13 0.28 0.41 0.29 0.20 0.16 0.16 0.04 0.02 0.01 0.01 0.00 0.00 0.00 0.01 0.09 0.27 0.44 0.77 0.62 0.37 0.24 0.39 0.20 0.12 0.13 0.16 0.27 0.25 0.18 0.07 0.06 0.25 0.24 0.23 0.21 0.02 0.01

GFSSW_prec_precacc24_033.txt.gz
Total_Precipitation_Accumulation
0.05 0.05 0.07 0.05 0.03 0.01 0.00 0.00 0.00 0.00 0.01 0.04 0.03 0.04 0.13 0.20 0.20 0.08 0.01 0.00 0.00 0.00 0.00 0.00 0.00 0.00 0.00 0.00 0.00 0.00 0.00 0.00 0.00 0.00 0.00 0.00 0.00 0.00 0.00 0.00 0.00 0.00 0.00 0.00 0.00
0.04 0.03 0.05 0.07 0.06 0.04 0.00 0.00 0.00 0.00 0.00 0.00 0.00 0.02 0.04 0.06 0.12 0.11 0.01 0.00 0.02 0.01 0.00 0.00 0.00 0.00 0.00 0.00 0.00 0.00 0.00 0.00 0.00 0.00 0.00 0.00 0.00 0.00 0.00 0.00 0.00 0.00 0.00 0.00 0.00
0.05 0.05 0.05 0.07 0.09 0.09 0.04 0.00 0.00 0.00 0.00 0.00 0.00 0.00 0.01 0.01 0.03 0.01 0.00 0.02 0.16 0.18 0.01 0.00 0.00 0.00 0.00 0.00 0.00 0.00 0.00 0.00 0.00 0.00 0.00 0.00 0.00 0.00 0.00 0.00 0.00 0.00 0.00 0.00 0.00
0.07 0.08 0.08 0.08 0.09 0.10 0.09 0.02 0.00 0.00 0.00 0.00 0.00 0.00 0.00 0.00 0.01 0.00 0.00 0.00 0.06 0.27 0.04 0.00 0.00 0.00 0.00 0.00 0.00 0.00 0.00 0.00 0.00 0.00 0.00 0.00 0.00 0.00 0.00 0.00 0.00 0.00 0.00 0.00 0.00
0.12 0.12 0.11 0.09 0.10 0.10 0.09 0.06 0.02 0.00 0.00 0.00 0.01 0.01 0.00 0.00 0.00 0.00 0.00 0.00 0.00 0.09 0.06 0.01 0.00 0.00 0.00 0.00 0.00 0.00 0.00 0.00 0.00 0.00 0.00 0.00 0.00 0.00 0.00 0.00 0.00 0.00 0.00 0.00 0.00
0.09 0.09 0.09 0.09 0.09 0.09 0.08 0.10 0.05 0.00 0.00 0.00 0.00 0.02 0.01 0.01 0.00 0.00 0.00 0.00 0.00 0.02 0.06 0.04 0.02 0.00 0.00 0.00 0.01 0.00 0.00 0.00 0.00 0.00 0.00 0.00 0.00 0.00 0.00 0.00 0.00 0.00 0.00 0.00 0.00
0.11 0.12 0.10 0.08 0.10 0.10 0.10 0.10 0.10 0.03 0.00 0.00 0.00 0.02 0.02 0.00 0.00 0.00 0.00 0.00 0.00 0.02 0.04 0.05 0.03 0.06 0.04 0.01 0.00 0.01 0.01 0.00 0.00 0.00 0.00 0.00 0.00 0.00 0.00 0.00 0.00 0.00 0.00 0.00 0.00
0.13 0.14 0.15 0.14 0.14 0.13 0.13 0.16 0.15 0.07 0.01 0.01 0.01 0.01 0.02 0.00 0.00 0.00 0.00 0.00 0.00 0.00 0.03 0.05 0.04 0.07 0.06 0.03 0.01 0.02 0.03 0.01 0.00 0.00 0.00 0.00 0.00 0.00 0.00 0.00 0.00 0.00 0.00 0.00 0.00
0.18 0.17 0.16 0.17 0.19 0.17 0.15 0.24 0.37 0.25 0.10 0.05 0.00 0.01 0.01 0.00 0.00 0.00 0.00 0.00 0.00 0.00 0.00 0.02 0.05 0.02 0.02 0.06 0.06 0.04 0.02 0.00 0.00 0.00 0.00 0.00 0.00 0.00 0.00 0.00 0.00 0.00 0.00 0.00 0.00
0.16 0.19 0.19 0.19 0.23 0.24 0.29 0.34 0.54 0.41 0.16 0.10 0.04 0.02 0.00 0.00 0.00 0.00 0.00 0.00 0.00 0.00 0.00 0.00 0.01 0.02 0.01 0.06 0.05 0.01 0.01 0.00 0.00 0.00 0.00 0.00 0.00 0.00 0.00 0.00 0.00 0.00 0.00 0.00 0.00
0.21 0.25 0.29 0.31 0.35 0.36 0.51 0.92 0.97 0.57 0.17 0.02 0.01 0.00 0.00 0.00 0.00 0.00 0.00 0.00 0.00 0.00 0.00 0.01 0.03 0.02 0.00 0.00 0.00 0.01 0.03 0.02 0.00 0.00 0.01 0.00 0.00 0.00 0.00 0.00 0.00 0.00 0.00 0.00 0.00
0.23 0.24 0.29 0.36 0.35 0.59 0.86 0.82 0.48 0.15 0.06 0.01 0.00 0.00 0.00 0.00 0.00 0.00 0.00 0.00 0.00 0.01 0.00 0.03 0.03 0.00 0.00 0.00 0.01 0.02 0.05 0.03 0.01 0.02 0.04 0.00 0.00 0.00 0.00 0.00 0.00 0.00 0.00 0.00 0.00
0.29 0.29 0.33 0.35 0.55 0.76 0.75 0.48 0.17 0.18 0.20 0.07 0.01 0.00 0.00 0.01 0.00 0.00 0.00 0.00 0.00 0.00 0.00 0.02 0.01 0.00 0.00 0.00 0.02 0.03 0.06 0.04 0.02 0.05 0.04 0.02 0.00 0.00 0.00 0.00 0.00 0.00 0.00 0.00 0.00
0.33 0.39 0.43 0.50 0.75 0.83 0.70 0.42 0.39 0.39 0.40 0.06 0.01 0.02 0.01 0.06 0.05 0.00 0.00 0.01 0.02 0.01 0.02 0.04 0.01 0.06 0.05 0.02 0.03 0.02 0.02 0.04 0.07 0.15 0.04 0.07 0.03 0.00 0.00 0.00 0.00 0.00 0.00 0.00 0.00
0.43 0.51 0.59 0.86 0.85 0.73 0.84 0.61 0.72 0.48 0.35 0.02 0.02 0.02 0.03 0.06 0.07 0.01 0.01 0.11 0.09 0.02 0.07 0.08 0.00 0.01 0.07 0.02 0.04 0.05 0.02 0.04 0.07 0.21 0.33 0.07 0.08 0.01 0.00 0.00 0.00 0.00 0.00 0.00 0.00
0.63 0.66 0.76 0.82 0.70 0.39 0.63 1.05 0.99 0.71 0.16 0.02 0.02 0.05 0.09 0.06 0.07 0.06 0.03 0.11 0.21 0.33 0.34 0.06 0.02 0.03 0.01 0.02 0.04 0.06 0.11 0.11 0.21 0.33 0.53 0.34 0.10 0.02 0.00 0.00 0.00 0.00 0.00 0.00 0.00
0.80 0.76 1.02 0.78 0.67 0.53 0.67 1.37 1.08 0.38 0.02 0.05 0.03 0.06 0.03 0.04 0.08 0.10 0.14 0.18 0.34 0.46 0.49 0.36 0.14 0.13 0.05 0.11 0.19 0.28 0.50 0.68 0.66 0.76 0.35 0.07 0.24 0.11 0.00 0.00 0.00 0.00 0.00 0.00 0.00
0.71 0.90 1.07 0.77 0.62 1.18 0.87 0.96 0.63 0.08 0.02 0.05 0.07 0.08 0.09 0.06 0.10 0.09 0.27 0.14 0.15 0.32 0.46 0.30 0.16 0.15 0.07 0.16 0.37 0.42 0.45 0.75 0.36 0.29 0.13 0.05 0.07 0.03 0.00 0.00 0.00 0.00 0.00 0.00 0.00
1.02 1.20 1.39 0.91 0.81 1.28 1.08 0.67 0.31 0.03 0.04 0.07 0.15 0.15 0.12 0.06 0.07 0.09 0.14 0.10 0.02 0.09 0.30 0.24 0.13 0.04 0.04 0.11 0.42 0.55 0.68 0.48 0.50 0.22 0.32 0.10 0.02 0.00 0.00 0.00 0.00 0.00 0.00 0.00 0.00
1.66 1.62 1.55 0.81 0.90 1.40 1.11 0.37 0.10 0.06 0.10 0.13 0.10 0.04 0.01 0.01 0.03 0.04 0.04 0.01 0.00 0.01 0.08 0.16 0.22 0.15 0.24 0.31 0.43 0.48 0.32 0.53 1.09 0.49 0.20 0.11 0.06 0.00 0.00 0.00 0.00 0.00 0.00 0.00 0.00
1.73 1.97 1.50 1.12 1.25 1.60 0.97 0.21 0.05 0.06 0.11 0.16 0.06 0.05 0.01 0.00 0.00 0.00 0.01 0.00 0.00 0.00 0.06 0.26 0.25 0.27 0.77 0.69 0.39 0.47 0.55 0.49 0.57 0.29 0.14 0.06 0.08 0.01 0.00 0.00 0.02 0.01 0.01 0.00 0.00
1.59 1.91 1.23 1.79 1.94 1.17 0.38 0.10 0.09 0.08 0.12 0.16 0.07 0.02 0.01 0.00 0.00 0.00 0.00 0.01 0.00 0.02 0.12 0.32 0.35 0.49 0.50 0.20 0.15 0.23 0.26 0.20 0.76 0.39 0.26 0.16 0.05 0.01 0.01 0.00 0.02 0.03 0.03 0.02 0.01
1.61 1.46 1.86 1.09 0.93 0.43 0.19 0.10 0.12 0.11 0.14 0.17 0.05 0.01 0.00 0.01 0.00 0.00 0.00 0.00 0.00 0.01 0.13 0.28 0.68 0.65 0.64 0.47 0.47 0.58 0.33 0.28 0.60 1.04 0.57 0.28 0.06 0.00 0.01 0.01 0.01 0.01 0.02 0.01 0.00
1.26 1.61 2.82 1.75 0.43 0.11 0.09 0.11 0.14 0.12 0.11 0.16 0.08 0.04 0.04 0.02 0.00 0.00 0.00 0.00 0.00 0.01 0.17 0.65 0.60 0.74 0.71 0.72 0.78 0.55 0.30 0.48 0.94 1.19 0.35 0.16 0.03 0.01 0.01 0.03 0.02 0.02 0.03 0.06 0.02
0.73 0.60 0.79 0.80 0.34 0.05 0.11 0.13 0.17 0.27 0.16 0.17 0.09 0.04 0.05 0.02 0.01 0.00 0.00 0.00 0.00 0.01 0.21 0.73 0.94 1.21 0.74 0.38 0.93 0.53 0.29 0.37 0.80 0.56 0.41 0.13 0.07 0.02 0.01 0.03 0.06 0.05 0.10 0.04 0.02
0.49 0.28 0.14 0.06 0.03 0.03 0.04 0.09 0.19 0.33 0.30 0.17 0.09 0.05 0.05 0.03 0.01 0.00 0.00 0.00 0.00 0.00 0.11 0.47 0.79 0.96 0.56 0.17 0.33 0.34 0.15 0.19 0.19 0.31 0.40 0.16 0.21 0.05 0.02 0.08 0.20 0.12 0.17 0.05 0.02
0.53 0.26 0.09 0.11 0.06 0.04 0.01 0.02 0.12 0.29 0.22 0.17 0.14 0.14 0.04 0.02 0.01 0.01 0.00 0.00 0.00 0.01 0.10 0.27 0.44 0.78 0.63 0.37 0.24 0.41 0.26 0.15 0.14 0.18 0.30 0.26 0.18 0.07 0.06 0.25 0.24 0.23 0.22 0.02 0.01

GFSSW_prec_precacc24_036.txt.gz
Total_Precipitation_Accumulation
0.05 0.05 0.07 0.06 0.05 0.06 0.04 0.01 0.00 0.00 0.00 0.01 0.03 0.04 0.11 0.17 0.19 0.08 0.01 0.00 0.00 0.00 0.00 0.00 0.00 0.00 0.00 0.00 0.00 0.00 0.00 0.00 0.00 0.00 0.00 0.00 0.00 0.00 0.00 0.00 0.00 0.00 0.00 0.00 0.00
0.04 0.03 0.05 0.07 0.07 0.06 0.06 0.03 0.00 0.00 0.00 0.00 0.00 0.02 0.04 0.06 0.12 0.10 0.01 0.01 0.02 0.01 0.00 0.00 0.00 0.00 0.00 0.00 0.00 0.00 0.00 0.00 0.00 0.00 0.00 0.00 0.00 0.00 0.00 0.00 0.00 0.00 0.00 0.00 0.00
0.05 0.05 0.05 0.07 0.09 0.10 0.07 0.05 0.03 0.00 0.00 0.00 0.00 0.00 0.00 0.01 0.02 0.01 0.00 0.02 0.16 0.18 0.01 0.00 0.00 0.00 0.00 0.00 0.00 0.00 0.00 0.00 0.00 0.00 0.00 0.00 0.00 0.00 0.00 0.00 0.00 0.00 0.00 0.00 0.00
0.07 0.08 0.08 0.08 0.09 0.11 0.09 0.06 0.05 0.03 0.00 0.00 0.00 0.00 0.00 0.00 0.01 0.00 0.00 0.02 0.11 0.31 0.04 0.00 0.00 0.00 0.00 0.00 0.00 0.00 0.00 0.00 0.00 0.00 0.00 0.00 0.00 0.00 0.00 0.00 0.00 0.00 0.00 0.00 0.00
0.12 0.11 0.10 0.10 0.10 0.11 0.09 0.07 0.10 0.09 0.02 0.00 0.00 0.01 0.00 0.00 0.00 0.00 0.00 0.00 0.00 0.16 0.08 0.01 0.00 0.00 0.00 0.00 0.00 0.00 0.00 0.00 0.00 0.00 0.00 0.00 0.00 0.00 0.00 0.00 0.00 0.00 0.00 0.00 0.00
0.10 0.09 0.09 0.09 0.09 0.10 0.08 0.10 0.10 0.14 0.06 0.00 0.00 0.02 0.01 0.00 0.00 0.00 0.00 0.00 0.00 0.04 0.11 0.05 0.01 0.00 0.00 0.00 0.00 0.00 0.00 0.00 0.00 0.00 0.00 0.00 0.00 0.00 0.00 0.00 0.00 0.00 0.00 0.00 0.00
0.11 0.12 0.09 0.09 0.10 0.10 0.10 0.10 0.13 0.12 0.07 0.01 0.00 0.01 0.01 0.00 0.00 0.00 0.00 0.00 0.00 0.02 0.09 0.07 0.03 0.05 0.05 0.01 0.00 0.00 0.01 0.00 0.00 0.00 0.00 0.00 0.00 0.00 0.00 0.00 0.00 0.00 0.00 0.00 0.00
0.13 0.14 0.15 0.14 0.15 0.13 0.13 0.15 0.15 0.16 0.15 0.04 0.01 0.01 0.01 0.00 0.00 0.00 0.00 0.00 0.00 0.01 0.05 0.09 0.05 0.07 0.06 0.02 0.00 0.01 0.01 0.00 0.00 0.00 0.00 0.00 0.00 0.00 0.00 0.00 0.00 0.00 0.00 0.00 0.00
0.18 0.17 0.16 0.17 0.18 0.18 0.15 0.24 0.37 0.32 0.33 0.13 0.01 0.01 0.00 0.00 0.00 0.00 0.00 0.00 0.00 0.00 0.01 0.07 0.07 0.01 0.02 0.05 0.03 0.01 0.01 0.00 0.00 0.00 0.00 0.00 0.00 0.00 0.00 0.00 0.00 0.00 0.00 0.00 0.00
0.18 0.20 0.20 0.20 0.24 0.25 0.29 0.35 0.53 0.62 0.57 0.23 0.05 0.01 0.00 0.00 0.00 0.00 0.00 0.00 0.00 0.00 0.02 0.06 0.02 0.00 0.00 0.03 0.02 0.00 0.00 0.00 0.00 0.00 0.00 0.00 0.00 0.00 0.00 0.00 0.00 0.00 0.00 0.00 0.00
0.24 0.26 0.29 0.33 0.39 0.39 0.55 0.93 1.01 0.98 0.67 0.16 0.02 0.00 0.00 0.00 0.00 0.00 0.00 0.00 0.00 0.01 0.00 0.01 0.01 0.00 0.00 0.00 0.00 0.00 0.00 0.00 0.00 0.00 0.01 0.00 0.00 0.00 0.00 0.00 0.00 0.00 0.00 0.00 0.00
0.27 0.25 0.30 0.37 0.39 0.61 0.88 0.83 0.58 0.51 0.41 0.05 0.00 0.00 0.00 0.00 0.00 0.00 0.00 0.00 0.00 0.01 0.00 0.01 0.01 0.00 0.00 0.00 0.00 0.00 0.01 0.00 0.00 0.01 0.03 0.00 0.00 0.00 0.00 0.00 0.00 0.00 0.00 0.00 0.00
0.31 0.30 0.36 0.40 0.57 0.75 0.74 0.49 0.22 0.50 0.47 0.12 0.00 0.00 0.00 0.00 0.00 0.00 0.00 0.00 0.00 0.00 0.00 0.00 0.00 0.00 0.00 0.00 0.00 0.00 0.00 0.00 0.00 0.03 0.03 0.02 0.00 0.00 0.00 0.00 0.00 0.00 0.00 0.00 0.00
0.34 0.40 0.49 0.63 0.79 0.86 0.71 0.45 0.47 0.74 0.47 0.17 0.05 0.02 0.01 0.02 0.01 0.00 0.00 0.00 0.01 0.01 0.01 0.02 0.00 0.00 0.00 0.00 0.00 0.00 0.00 0.00 0.00 0.06 0.02 0.07 0.03 0.00 0.00 0.00 0.00 0.00 0.00 0.00 0.00
0.44 0.54 0.64 0.99 1.00 0.75 0.93 0.68 0.94 0.82 0.41 0.09 0.04 0.01 0.03 0.02 0.01 0.00 0.00 0.07 0.07 0.01 0.03 0.05 0.00 0.00 0.00 0.00 0.00 0.00 0.00 0.00 0.02 0.16 0.27 0.05 0.08 0.01 0.00 0.00 0.00 0.00 0.00 0.00 0.00
0.63 0.68 0.81 0.88 0.77 0.40 0.66 1.19 1.44 1.01 0.34 0.11 0.04 0.05 0.07 0.04 0.03 0.02 0.02 0.08 0.18 0.29 0.27 0.04 0.00 0.01 0.00 0.00 0.01 0.01 0.02 0.03 0.09 0.27 0.48 0.30 0.10 0.02 0.00 0.00 0.00 0.00 0.00 0.00 0.00
0.79 0.68 1.00 0.82 0.69 0.53 0.72 1.55 1.46 0.54 0.12 0.03 0.02 0.05 0.02 0.02 0.04 0.04 0.10 0.16 0.31 0.43 0.45 0.27 0.06 0.01 0.00 0.02 0.02 0.06 0.22 0.26 0.33 0.65 0.33 0.07 0.24 0.11 0.00 0.00 0.00 0.00 0.00 0.00 0.00
0.72 0.84 1.04 0.79 0.63 1.19 0.89 1.07 0.83 0.17 0.05 0.01 0.02 0.04 0.03 0.01 0.05 0.06 0.21 0.13 0.14 0.31 0.33 0.20 0.11 0.04 0.01 0.01 0.03 0.04 0.12 0.34 0.16 0.23 0.13 0.05 0.07 0.03 0.00 0.00 0.00 0.00 0.00 0.00 0.00
1.04 1.17 1.39 0.99 0.80 1.27 1.08 0.68 0.53 0.09 0.01 0.02 0.08 0.12 0.06 0.02 0.05 0.08 0.11 0.09 0.02 0.08 0.11 0.07 0.06 0.01 0.00 0.00 0.10 0.18 0.32 0.31 0.47 0.22 0.32 0.10 0.02 0.00 0.00 0.00 0.00 0.00 0.00 0.00 0.00
1.65 1.57 1.59 0.88 0.81 1.33 1.08 0.37 0.26 0.06 0.01 0.05 0.08 0.05 0.01 0.01 0.03 0.03 0.02 0.01 0.00 0.00 0.01 0.01 0.13 0.11 0.13 0.09 0.12 0.14 0.13 0.45 1.04 0.48 0.19 0.11 0.06 0.00 0.00 0.00 0.00 0.00 0.00 0.00 0.00
1.70 1.93 1.54 1.15 1.15 1.50 0.94 0.20 0.07 0.06 0.03 0.07 0.05 0.05 0.00 0.00 0.00 0.00 0.00 0.00 0.00 0.00 0.00 0.04 0.12 0.12 0.42 0.35 0.13 0.13 0.30 0.47 0.54 0.27 0.13 0.06 0.08 0.01 0.00 0.00 0.02 0.01 0.01 0.01 0.01
1.56 1.89 1.25 1.81 1.91 1.19 0.39 0.10 0.09 0.08 0.05 0.09 0.07 0.02 0.01 0.00 0.00 0.00 0.00 0.00 0.00 0.00 0.02 0.07 0.15 0.15 0.14 0.12 0.09 0.10 0.16 0.19 0.77 0.39 0.26 0.17 0.06 0.01 0.01 0.00 0.02 0.03 0.03 0.02 0.01
1.60 1.42 1.78 1.13 0.93 0.46 0.29 0.13 0.06 0.05 0.09 0.15 0.05 0.01 0.00 0.01 0.00 0.00 0.00 0.00 0.00 0.00 0.04 0.12 0.34 0.28 0.27 0.39 0.36 0.45 0.29 0.28 0.62 1.11 0.61 0.30 0.07 0.00 0.01 0.01 0.01 0.01 0.03 0.01 0.00
1.24 1.55 2.68 1.62 0.43 0.16 0.20 0.10 0.03 0.06 0.10 0.16 0.08 0.04 0.04 0.02 0.00 0.00 0.00 0.00 0.00 0.01 0.13 0.50 0.45 0.40 0.59 0.70 0.74 0.52 0.30 0.48 1.00 1.30 0.37 0.16 0.03 0.01 0.01 0.03 0.02 0.02 0.03 0.06 0.02
0.72 0.59 0.77 0.77 0.36 0.10 0.11 0.08 0.05 0.13 0.14 0.17 0.09 0.03 0.05 0.02 0.01 0.00 0.00 0.00 0.00 0.01 0.20 0.66 0.87 1.10 0.72 0.38 0.93 0.53 0.29 0.37 0.85 0.60 0.51 0.16 0.07 0.02 0.01 0.03 0.06 0.05 0.10 0.04 0.02
0.47 0.29 0.12 0.05 0.03 0.04 0.05 0.06 0.03 0.12 0.20 0.17 0.08 0.05 0.05 0.03 0.01 0.00 0.00 0.00 0.00 0.00 0.11 0.47 0.79 0.96 0.56 0.17 0.33 0.34 0.15 0.20 0.19 0.31 0.41 0.17 0.22 0.05 0.02 0.09 0.21 0.12 0.17 0.05 0.02
0.52 0.26 0.10 0.10 0.04 0.03 0.01 0.01 0.01 0.10 0.14 0.16 0.13 0.13 0.04 0.02 0.01 0.01 0.00 0.00 0.00 0.01 0.09 0.28 0.44 0.78 0.63 0.37 0.24 0.42 0.26 0.15 0.14 0.20 0.32 0.29 0.19 0.07 0.06 0.26 0.27 0.26 0.23 0.02 0.01

GFSSW_prec_precacc24_039.txt.gz
Total_Precipitation_Accumulation
0.05 0.05 0.07 0.06 0.05 0.06 0.05 0.04 0.04 0.01 0.00 0.00 0.00 0.02 0.10 0.16 0.18 0.09 0.02 0.00 0.00 0.00 0.00 0.00 0.00 0.00 0.00 0.00 0.00 0.00 0.00 0.00 0.00 0.00 0.00 0.00 0.00 0.00 0.00 0.00 0.00 0.00 0.00 0.00 0.00
0.04 0.03 0.05 0.07 0.07 0.06 0.06 0.05 0.04 0.03 0.00 0.00 0.00 0.00 0.02 0.06 0.12 0.10 0.01 0.01 0.02 0.01 0.00 0.00 0.00 0.00 0.00 0.00 0.00 0.00 0.00 0.00 0.00 0.00 0.00 0.00 0.00 0.00 0.00 0.00 0.00 0.00 0.00 0.00 0.00
0.05 0.05 0.05 0.07 0.09 0.10 0.07 0.05 0.04 0.05 0.03 0.00 0.00 0.00 0.00 0.01 0.02 0.01 0.00 0.02 0.16 0.18 0.01 0.00 0.00 0.00 0.00 0.00 0.00 0.00 0.00 0.00 0.00 0.00 0.00 0.00 0.00 0.00 0.00 0.00 0.00 0.00 0.00 0.00 0.00
0.07 0.08 0.08 0.08 0.09 0.11 0.09 0.06 0.05 0.07 0.08 0.03 0.00 0.00 0.00 0.00 0.01 0.00 0.00 0.02 0.13 0.33 0.03 0.00 0.00 0.00 0.00 0.00 0.00 0.00 0.00 0.00 0.00 0.00 0.00 0.00 0.00 0.00 0.00 0.00 0.00 0.00 0.00 0.00 0.00
0.13 0.12 0.11 0.10 0.10 0.11 0.09 0.07 0.11 0.11 0.09 0.05 0.01 0.01 0.00 0.00 0.00 0.00 0.00 0.02 0.05 0.21 0.10 0.02 0.00 0.00 0.00 0.00 0.00 0.00 0.00 0.00 0.00 0.00 0.00 0.00 0.00 0.00 0.00 0.00 0.00 0.00 0.00 0.00 0.00
0.11 0.10 0.10 0.09 0.09 0.10 0.09 0.10 0.10 0.15 0.13 0.09 0.01 0.00 0.00 0.00 0.00 0.00 0.00 0.00 0.00 0.05 0.13 0.08 0.01 0.00 0.00 0.00 0.00 0.00 0.00 0.00 0.00 0.00 0.00 0.00 0.00 0.00 0.00 0.00 0.00 0.00 0.00 0.00 0.00
0.13 0.12 0.10 0.09 0.10 0.10 0.10 0.10 0.13 0.12 0.13 0.16 0.04 0.00 0.00 0.00 0.00 0.00 0.00 0.00 0.00 0.02 0.12 0.11 0.04 0.04 0.04 0.01 0.00 0.00 0.00 0.00 0.00 0.00 0.00 0.00 0.00 0.00 0.00 0.00 0.00 0.00 0.00 0.00 0.00
0.15 0.15 0.15 0.15 0.15 0.13 0.13 0.15 0.15 0.17 0.20 0.19 0.07 0.00 0.00 0.00 0.00 0.00 0.00 0.00 0.00 0.01 0.06 0.16 0.07 0.06 0.05 0.02 0.00 0.00 0.00 0.00 0.00 0.00 0.00 0.00 0.00 0.00 0.00 0.00 0.00 0.00 0.00 0.00 0.00
0.22 0.18 0.16 0.20 0.20 0.18 0.15 0.24 0.37 0.32 0.35 0.42 0.13 0.01 0.00 0.00 0.00 0.00 0.00 0.00 0.00 0.00 0.01 0.14 0.14 0.03 0.02 0.04 0.02 0.00 0.00 0.00 0.00 0.00 0.00 0.00 0.00 0.00 0.00 0.00 0.00 0.00 0.00 0.00 0.00
0.22 0.22 0.22 0.22 0.25 0.26 0.30 0.35 0.53 0.62 0.62 0.70 0.25 0.04 0.00 0.00 0.00 0.00 0.00 0.00 0.00 0.01 0.04 0.14 0.05 0.03 0.01 0.03 0.02 0.00 0.00 0.00 0.00 0.00 0.00 0.00 0.00 0.00 0.00 0.00 0.00 0.00 0.00 0.00 0.00
0.25 0.29 0.30 0.33 0.41 0.42 0.57 0.94 1.02 0.99 0.78 0.49 0.15 0.01 0.00 0.00 0.00 0.00 0.00 0.00 0.00 0.01 0.01 0.05 0.02 0.01 0.00 0.00 0.00 0.00 0.00 0.00 0.00 0.00 0.00 0.00 0.00 0.00 0.00 0.00 0.00 0.00 0.00 0.00 0.00
0.28 0.26 0.30 0.39 0.41 0.61 0.88 0.84 0.59 0.55 0.57 0.17 0.04 0.00 0.00 0.00 0.00 0.00 0.00 0.00 0.01 0.01 0.01 0.01 0.01 0.00 0.00 0.00 0.00 0.00 0.00 0.00 0.00 0.00 0.01 0.00 0.00 0.00 0.00 0.00 0.00 0.00 0.00 0.00 0.00
0.29 0.29 0.36 0.42 0.58 0.75 0.74 0.49 0.23 0.56 0.67 0.30 0.11 0.01 0.00 0.00 0.00 0.00 0.00 0.00 0.00 0.00 0.00 0.00 0.00 0.00 0.00 0.00 0.00 0.00 0.00 0.00 0.00 0.00 0.00 0.00 0.00 0.00 0.00 0.00 0.00 0.00 0.00 0.00 0.00
0.30 0.39 0.51 0.67 0.83 0.89 0.73 0.47 0.48 0.86 0.64 0.33 0.21 0.04 0.01 0.01 0.00 0.00 0.00 0.00 0.01 0.00 0.00 0.02 0.00 0.00 0.00 0.00 0.00 0.00 0.00 0.00 0.00 0.01 0.00 0.03 0.02 0.00 0.00 0.00 0.00 0.00 0.00 0.00 0.00
0.40 0.54 0.66 1.05 1.11 0.78 0.98 0.74 0.97 1.01 0.54 0.19 0.13 0.02 0.03 0.02 0.00 0.00 0.00 0.01 0.02 0.00 0.02 0.04 0.00 0.00 0.00 0.00 0.00 0.00 0.00 0.00 0.01 0.02 0.04 0.01 0.06 0.01 0.00 0.00 0.00 0.00 0.00 0.00 0.00
0.60 0.68 0.84 0.90 0.79 0.41 0.67 1.24 1.55 1.23 0.50 0.32 0.12 0.05 0.06 0.04 0.02 0.02 0.02 0.05 0.08 0.18 0.17 0.03 0.00 0.00 0.00 0.00 0.00 0.01 0.02 0.02 0.05 0.11 0.13 0.00 0.04 0.02 0.00 0.00 0.00 0.00 0.00 0.00 0.00
0.76 0.68 1.02 0.87 0.71 0.54 0.73 1.56 1.56 0.68 0.31 0.11 0.05 0.05 0.02 0.02 0.03 0.03 0.04 0.10 0.15 0.24 0.33 0.24 0.06 0.01 0.00 0.01 0.00 0.05 0.19 0.21 0.18 0.21 0.06 0.00 0.02 0.07 0.00 0.00 0.00 0.00 0.00 0.00 0.00
0.67 0.81 0.99 0.80 0.63 1.19 0.90 1.09 0.90 0.27 0.17 0.03 0.02 0.03 0.03 0.01 0.04 0.03 0.06 0.06 0.08 0.24 0.31 0.19 0.11 0.04 0.01 0.00 0.02 0.03 0.08 0.21 0.07 0.01 0.00 0.01 0.02 0.02 0.00 0.00 0.00 0.00 0.00 0.00 0.00
0.98 1.04 1.33 1.03 0.80 1.26 1.08 0.68 0.72 0.29 0.04 0.03 0.05 0.07 0.05 0.02 0.02 0.04 0.05 0.02 0.01 0.07 0.11 0.07 0.02 0.00 0.00 0.00 0.06 0.15 0.24 0.12 0.21 0.16 0.19 0.02 0.01 0.00 0.00 0.00 0.00 0.00 0.00 0.00 0.00
1.53 1.42 1.53 0.92 0.78 1.25 1.04 0.40 0.41 0.25 0.02 0.01 0.06 0.04 0.02 0.01 0.02 0.02 0.01 0.00 0.00 0.00 0.01 0.00 0.01 0.00 0.02 0.03 0.04 0.07 0.07 0.15 0.52 0.30 0.11 0.07 0.06 0.00 0.00 0.00 0.00 0.00 0.00 0.00 0.00
1.60 1.82 1.44 1.10 0.97 1.35 0.89 0.23 0.24 0.16 0.03 0.01 0.01 0.02 0.00 0.00 0.00 0.00 0.00 0.00 0.00 0.00 0.00 0.01 0.03 0.02 0.09 0.22 0.07 0.04 0.18 0.17 0.16 0.08 0.09 0.05 0.08 0.01 0.00 0.00 0.02 0.01 0.01 0.01 0.01
1.48 1.81 1.18 1.65 1.70 1.09 0.39 0.12 0.27 0.19 0.02 0.03 0.02 0.01 0.01 0.00 0.00 0.00 0.00 0.00 0.00 0.00 0.00 0.00 0.07 0.08 0.06 0.03 0.08 0.05 0.04 0.10 0.35 0.16 0.21 0.17 0.06 0.01 0.01 0.00 0.02 0.03 0.03 0.02 0.01
1.52 1.30 1.61 1.12 0.87 0.45 0.30 0.18 0.14 0.04 0.04 0.07 0.03 0.01 0.00 0.01 0.00 0.00 0.00 0.00 0.00 0.00 0.01 0.03 0.23 0.22 0.20 0.34 0.28 0.31 0.08 0.17 0.39 0.86 0.59 0.30 0.07 0.00 0.01 0.01 0.01 0.01 0.03 0.01 0.00
1.21 1.45 2.43 1.43 0.42 0.28 0.27 0.23 0.17 0.04 0.05 0.10 0.06 0.04 0.04 0.02 0.00 0.00 0.00 0.00 0.00 0.00 0.05 0.22 0.29 0.25 0.37 0.60 0.70 0.43 0.15 0.30 0.80 1.23 0.37 0.17 0.03 0.01 0.01 0.03 0.02 0.02 0.03 0.06 0.02
0.69 0.54 0.73 0.72 0.38 0.18 0.14 0.09 0.04 0.03 0.06 0.12 0.08 0.03 0.05 0.02 0.01 0.00 0.00 0.00 0.00 0.01 0.12 0.44 0.51 0.61 0.47 0.33 0.92 0.51 0.20 0.28 0.81 0.60 0.56 0.17 0.07 0.02 0.01 0.04 0.08 0.07 0.11 0.04 0.02
0.45 0.26 0.10 0.04 0.03 0.04 0.07 0.08 0.03 0.01 0.07 0.11 0.07 0.05 0.05 0.03 0.01 0.00 0.00 0.00 0.00 0.00 0.11 0.44 0.63 0.75 0.46 0.16 0.31 0.32 0.11 0.20 0.19 0.31 0.41 0.17 0.22 0.05 0.02 0.11 0.28 0.16 0.21 0.07 0.03
0.50 0.25 0.08 0.07 0.02 0.02 0.01 0.01 0.01 0.01 0.04 0.06 0.11 0.13 0.03 0.02 0.01 0.01 0.00 0.00 0.00 0.01 0.09 0.27 0.41 0.72 0.61 0.36 0.24 0.41 0.26 0.15 0.14 0.20 0.33 0.30 0.19 0.07 0.07 0.27 0.29 0.30 0.30 0.07 0.01

GFSSW_prec_precacc24_042.txt.gz
Total_Precipitation_Accumulation
0.05 0.05 0.07 0.06 0.05 0.06 0.05 0.05 0.05 0.05 0.05 0.01 0.00 0.02 0.07 0.13 0.17 0.09 0.02 0.00 0.00 0.00 0.00 0.00 0.00 0.00 0.00 0.00 0.00 0.00 0.00 0.00 0.00 0.00 0.00 0.00 0.00 0.00 0.00 0.00 0.00 0.00 0.00 0.00 0.00
0.05 0.04 0.05 0.07 0.07 0.06 0.06 0.05 0.04 0.05 0.07 0.05 0.00 0.00 0.01 0.04 0.12 0.10 0.01 0.01 0.02 0.01 0.00 0.00 0.00 0.00 0.00 0.00 0.00 0.00 0.00 0.00 0.00 0.00 0.00 0.00 0.00 0.00 0.00 0.00 0.00 0.00 0.00 0.00 0.00
0.05 0.05 0.05 0.07 0.09 0.10 0.07 0.05 0.04 0.05 0.06 0.10 0.05 0.00 0.00 0.00 0.02 0.01 0.00 0.02 0.16 0.18 0.01 0.00 0.00 0.00 0.00 0.00 0.00 0.00 0.00 0.00 0.00 0.00 0.00 0.00 0.00 0.00 0.00 0.00 0.00 0.00 0.00 0.00 0.00
0.08 0.09 0.09 0.09 0.10 0.11 0.10 0.06 0.05 0.07 0.08 0.11 0.11 0.01 0.00 0.00 0.01 0.00 0.00 0.02 0.13 0.32 0.03 0.00 0.00 0.00 0.00 0.00 0.00 0.00 0.00 0.00 0.00 0.00 0.00 0.00 0.00 0.00 0.00 0.00 0.00 0.00 0.00 0.00 0.00
0.16 0.15 0.13 0.11 0.11 0.11 0.09 0.07 0.11 0.11 0.10 0.08 0.17 0.06 0.00 0.00 0.00 0.00 0.00 0.03 0.08 0.24 0.10 0.01 0.00 0.00 0.00 0.00 0.00 0.00 0.00 0.00 0.00 0.00 0.00 0.00 0.00 0.00 0.00 0.00 0.00 0.00 0.00 0.00 0.00
0.14 0.14 0.12 0.11 0.10 0.11 0.09 0.10 0.10 0.15 0.13 0.11 0.15 0.09 0.01 0.00 0.00 0.00 0.00 0.03 0.05 0.09 0.13 0.08 0.01 0.00 0.00 0.00 0.00 0.00 0.00 0.00 0.00 0.00 0.00 0.00 0.00 0.00 0.00 0.00 0.00 0.00 0.00 0.00 0.00
0.14 0.14 0.12 0.12 0.13 0.11 0.10 0.11 0.13 0.13 0.13 0.17 0.24 0.08 0.01 0.00 0.00 0.00 0.00 0.02 0.02 0.05 0.12 0.11 0.04 0.03 0.02 0.01 0.00 0.00 0.00 0.00 0.00 0.00 0.00 0.00 0.00 0.00 0.00 0.00 0.00 0.00 0.00 0.00 0.00
0.17 0.16 0.15 0.18 0.18 0.14 0.13 0.15 0.15 0.17 0.20 0.20 0.32 0.16 0.01 0.00 0.00 0.00 0.00 0.00 0.00 0.01 0.07 0.21 0.09 0.06 0.05 0.02 0.00 0.00 0.00 0.00 0.00 0.00 0.00 0.00 0.00 0.00 0.00 0.00 0.00 0.00 0.00 0.00 0.00
0.24 0.18 0.16 0.24 0.25 0.18 0.14 0.23 0.37 0.32 0.35 0.44 0.47 0.13 0.01 0.00 0.00 0.00 0.00 0.00 0.00 0.00 0.03 0.20 0.22 0.06 0.02 0.03 0.01 0.00 0.00 0.00 0.00 0.00 0.00 0.00 0.00 0.00 0.00 0.00 0.00 0.00 0.00 0.00 0.00
0.23 0.21 0.23 0.25 0.27 0.27 0.28 0.34 0.53 0.62 0.62 0.78 0.69 0.18 0.00 0.00 0.00 0.00 0.00 0.00 0.00 0.03 0.11 0.22 0.19 0.17 0.03 0.02 0.01 0.00 0.00 0.00 0.00 0.00 0.00 0.00 0.00 0.00 0.00 0.00 0.00 0.00 0.00 0.00 0.00
0.24 0.25 0.27 0.32 0.43 0.43 0.58 0.94 1.02 1.00 0.78 0.59 0.34 0.08 0.00 0.00 0.00 0.00 0.00 0.00 0.01 0.06 0.02 0.08 0.04 0.05 0.05 0.01 0.00 0.00 0.00 0.00 0.00 0.00 0.00 0.00 0.00 0.00 0.00 0.00 0.00 0.00 0.00 0.00 0.00
0.25 0.23 0.27 0.38 0.43 0.61 0.90 0.84 0.59 0.56 0.57 0.25 0.18 0.03 0.00 0.00 0.00 0.00 0.00 0.00 0.01 0.02 0.01 0.02 0.02 0.00 0.01 0.00 0.00 0.00 0.00 0.00 0.00 0.00 0.00 0.00 0.00 0.00 0.00 0.00 0.00 0.00 0.00 0.00 0.00
0.25 0.23 0.32 0.43 0.61 0.75 0.76 0.49 0.23 0.56 0.68 0.33 0.30 0.08 0.00 0.00 0.00 0.00 0.00 0.00 0.00 0.01 0.00 0.00 0.00 0.00 0.00 0.00 0.00 0.00 0.00 0.00 0.00 0.00 0.00 0.00 0.00 0.00 0.00 0.00 0.00 0.00 0.00 0.00 0.00
0.23 0.31 0.48 0.69 0.85 0.91 0.75 0.49 0.48 0.87 0.68 0.38 0.41 0.11 0.00 0.01 0.00 0.00 0.00 0.00 0.00 0.01 0.00 0.01 0.00 0.00 0.00 0.00 0.00 0.00 0.00 0.00 0.00 0.01 0.00 0.00 0.00 0.00 0.00 0.00 0.00 0.00 0.00 0.00 0.00
0.31 0.46 0.64 1.09 1.17 0.81 1.04 0.77 0.99 1.03 0.61 0.24 0.27 0.09 0.03 0.01 0.00 0.01 0.00 0.00 0.01 0.00 0.01 0.02 0.00 0.00 0.00 0.00 0.00 0.00 0.00 0.00 0.01 0.01 0.02 0.00 0.02 0.00 0.00 0.00 0.00 0.00 0.00 0.00 0.00
0.48 0.61 0.85 0.94 0.82 0.43 0.69 1.27 1.57 1.31 0.67 0.50 0.29 0.12 0.07 0.04 0.02 0.01 0.02 0.03 0.03 0.06 0.06 0.01 0.00 0.00 0.00 0.00 0.00 0.01 0.01 0.02 0.04 0.07 0.10 0.00 0.01 0.00 0.00 0.00 0.00 0.00 0.00 0.00 0.00
0.58 0.63 1.07 0.93 0.78 0.55 0.73 1.58 1.58 0.77 0.57 0.28 0.14 0.06 0.03 0.03 0.03 0.02 0.03 0.05 0.06 0.10 0.12 0.10 0.04 0.00 0.00 0.00 0.00 0.04 0.17 0.19 0.17 0.19 0.05 0.00 0.00 0.00 0.00 0.00 0.00 0.00 0.00 0.00 0.00
0.45 0.73 0.95 0.85 0.64 1.19 0.90 1.09 0.94 0.44 0.36 0.11 0.02 0.04 0.03 0.02 0.03 0.03 0.04 0.04 0.03 0.11 0.17 0.10 0.04 0.03 0.01 0.00 0.01 0.02 0.08 0.20 0.07 0.01 0.00 0.00 0.00 0.00 0.00 0.00 0.00 0.00 0.00 0.00 0.00
0.67 0.74 1.15 1.01 0.76 1.22 1.08 0.69 0.84 0.55 0.20 0.07 0.08 0.09 0.07 0.02 0.02 0.03 0.03 0.01 0.00 0.02 0.06 0.05 0.01 0.00 0.00 0.00 0.05 0.13 0.21 0.12 0.19 0.14 0.16 0.01 0.00 0.00 0.00 0.00 0.00 0.00 0.00 0.00 0.00
0.91 1.01 1.39 0.90 0.71 1.15 1.02 0.46 0.49 0.43 0.08 0.01 0.10 0.05 0.03 0.01 0.02 0.02 0.01 0.00 0.00 0.00 0.00 0.00 0.01 0.00 0.00 0.02 0.04 0.05 0.04 0.14 0.47 0.23 0.09 0.00 0.00 0.00 0.00 0.00 0.00 0.00 0.00 0.00 0.00
0.80 1.29 1.31 0.96 0.84 1.16 0.83 0.31 0.33 0.24 0.13 0.02 0.00 0.00 0.00 0.00 0.00 0.00 0.00 0.00 0.00 0.00 0.00 0.01 0.03 0.01 0.01 0.02 0.01 0.03 0.13 0.15 0.14 0.06 0.03 0.01 0.00 0.00 0.00 0.00 0.00 0.00 0.01 0.01 0.01
0.81 1.35 1.03 1.35 1.43 0.92 0.39 0.22 0.45 0.33 0.03 0.00 0.00 0.00 0.00 0.00 0.00 0.00 0.00 0.00 0.00 0.00 0.00 0.00 0.05 0.03 0.01 0.00 0.01 0.02 0.02 0.09 0.33 0.09 0.16 0.14 0.06 0.00 0.01 0.00 0.01 0.02 0.03 0.02 0.01
1.03 1.04 1.41 0.97 0.69 0.42 0.32 0.23 0.19 0.05 0.02 0.01 0.00 0.01 0.00 0.01 0.00 0.00 0.00 0.00 0.00 0.00 0.00 0.01 0.15 0.15 0.12 0.16 0.17 0.25 0.07 0.16 0.37 0.58 0.40 0.17 0.06 0.00 0.00 0.01 0.01 0.01 0.03 0.01 0.00
0.79 1.30 2.19 1.14 0.35 0.27 0.41 0.45 0.25 0.05 0.02 0.01 0.02 0.03 0.04 0.02 0.00 0.00 0.00 0.00 0.00 0.00 0.00 0.10 0.19 0.18 0.25 0.49 0.64 0.42 0.14 0.29 0.70 0.82 0.16 0.08 0.01 0.00 0.01 0.03 0.02 0.03 0.04 0.06 0.02
0.43 0.49 0.68 0.63 0.33 0.18 0.16 0.10 0.04 0.02 0.01 0.03 0.04 0.03 0.05 0.02 0.01 0.00 0.00 0.00 0.00 0.00 0.04 0.26 0.30 0.33 0.35 0.29 0.83 0.51 0.19 0.24 0.58 0.27 0.35 0.12 0.06 0.01 0.01 0.04 0.09 0.08 0.11 0.06 0.03
0.32 0.25 0.10 0.04 0.03 0.04 0.06 0.08 0.03 0.00 0.02 0.02 0.03 0.04 0.05 0.03 0.01 0.00 0.00 0.00 0.00 0.00 0.09 0.30 0.31 0.40 0.35 0.16 0.30 0.31 0.08 0.11 0.07 0.04 0.08 0.06 0.18 0.05 0.02 0.12 0.29 0.17 0.22 0.11 0.06
0.47 0.24 0.08 0.06 0.02 0.02 0.01 0.00 0.01 0.00 0.00 0.01 0.04 0.08 0.03 0.02 0.01 0.01 0.00 0.00 0.00 0.01 0.08 0.21 0.28 0.50 0.49 0.27 0.16 0.29 0.15 0.06 0.03 0.06 0.10 0.16 0.16 0.07 0.07 0.29 0.31 0.31 0.30 0.09 0.03

GFSSW_prec_precacc24_045.txt.gz
Total_Precipitation_Accumulation
0.05 0.06 0.07 0.06 0.05 0.06 0.05 0.05 0.05 0.05 0.07 0.09 0.08 0.03 0.04 0.09 0.16 0.09 0.03 0.00 0.00 0.00 0.00 0.00 0.00 0.00 0.00 0.00 0.00 0.00 0.00 0.00 0.00 0.00 0.00 0.00 0.00 0.00 0.00 0.00 0.00 0.00 0.00 0.00 0.00
0.05 0.05 0.06 0.08 0.08 0.07 0.06 0.05 0.04 0.05 0.07 0.07 0.08 0.06 0.02 0.04 0.13 0.10 0.01 0.01 0.02 0.01 0.00 0.00 0.00 0.00 0.00 0.00 0.00 0.00 0.00 0.00 0.00 0.00 0.00 0.00 0.00 0.00 0.00 0.00 0.00 0.00 0.00 0.00 0.00
0.07 0.07 0.08 0.10 0.12 0.11 0.08 0.06 0.04 0.05 0.06 0.11 0.14 0.09 0.02 0.00 0.03 0.01 0.00 0.02 0.16 0.17 0.01 0.00 0.00 0.00 0.00 0.00 0.00 0.00 0.00 0.00 0.00 0.00 0.00 0.00 0.00 0.00 0.00 0.00 0.00 0.00 0.00 0.00 0.00
0.10 0.11 0.12 0.12 0.11 0.12 0.11 0.07 0.06 0.07 0.08 0.11 0.17 0.32 0.10 0.01 0.01 0.00 0.00 0.02 0.13 0.32 0.04 0.00 0.00 0.00 0.00 0.00 0.00 0.00 0.00 0.00 0.00 0.00 0.00 0.00 0.00 0.00 0.00 0.00 0.00 0.00 0.00 0.00 0.00
0.14 0.16 0.15 0.13 0.13 0.14 0.11 0.08 0.11 0.11 0.10 0.08 0.18 0.28 0.16 0.00 0.00 0.00 0.00 0.03 0.08 0.26 0.10 0.01 0.00 0.00 0.00 0.00 0.00 0.00 0.00 0.00 0.00 0.00 0.00 0.00 0.00 0.00 0.00 0.00 0.00 0.00 0.00 0.00 0.00
0.12 0.13 0.14 0.17 0.15 0.14 0.10 0.11 0.11 0.15 0.13 0.11 0.16 0.35 0.10 0.00 0.00 0.00 0.01 0.06 0.06 0.11 0.14 0.08 0.01 0.00 0.00 0.00 0.00 0.00 0.00 0.00 0.00 0.00 0.00 0.00 0.00 0.00 0.00 0.00 0.00 0.00 0.00 0.00 0.00
0.14 0.13 0.13 0.16 0.17 0.14 0.11 0.13 0.15 0.13 0.13 0.17 0.25 0.24 0.13 0.02 0.00 0.00 0.01 0.08 0.11 0.11 0.12 0.11 0.04 0.01 0.01 0.00 0.00 0.00 0.00 0.00 0.00 0.00 0.00 0.00 0.00 0.00 0.00 0.00 0.00 0.00 0.00 0.00 0.00
0.19 0.14 0.12 0.19 0.21 0.17 0.14 0.16 0.14 0.16 0.20 0.20 0.33 0.36 0.09 0.00 0.00 0.00 0.00 0.01 0.08 0.14 0.14 0.23 0.11 0.04 0.03 0.01 0.00 0.00 0.00 0.00 0.00 0.00 0.00 0.00 0.00 0.00 0.00 0.00 0.00 0.00 0.00 0.00 0.00
0.24 0.16 0.14 0.23 0.28 0.20 0.14 0.22 0.36 0.34 0.36 0.43 0.49 0.27 0.05 0.00 0.00 0.00 0.00 0.00 0.01 0.03 0.09 0.29 0.29 0.08 0.02 0.02 0.00 0.00 0.00 0.00 0.00 0.00 0.00 0.00 0.00 0.00 0.00 0.00 0.00 0.00 0.00 0.00 0.00
0.22 0.18 0.21 0.22 0.25 0.30 0.29 0.31 0.51 0.62 0.62 0.77 0.72 0.36 0.04 0.00 0.00 0.00 0.00 0.00 0.00 0.07 0.16 0.30 0.31 0.21 0.04 0.02 0.01 0.00 0.00 0.00 0.00 0.00 0.00 0.00 0.00 0.00 0.00 0.00 0.00 0.00 0.00 0.00 0.00
0.18 0.21 0.19 0.26 0.42 0.45 0.59 0.92 1.03 1.01 0.77 0.59 0.37 0.15 0.01 0.00 0.00 0.00 0.00 0.00 0.03 0.14 0.03 0.12 0.16 0.17 0.08 0.01 0.00 0.00 0.00 0.00 0.00 0.00 0.00 0.00 0.00 0.00 0.00 0.00 0.00 0.00 0.00 0.00 0.00
0.18 0.17 0.21 0.31 0.42 0.64 0.92 0.84 0.59 0.56 0.57 0.25 0.21 0.08 0.01 0.00 0.00 0.00 0.00 0.00 0.02 0.06 0.03 0.05 0.04 0.04 0.07 0.03 0.01 0.00 0.00 0.00 0.00 0.00 0.00 0.00 0.00 0.00 0.00 0.00 0.00 0.00 0.00 0.00 0.00
0.12 0.12 0.24 0.38 0.58 0.73 0.76 0.49 0.23 0.56 0.68 0.33 0.36 0.21 0.03 0.00 0.00 0.00 0.00 0.00 0.01 0.03 0.01 0.00 0.01 0.01 0.02 0.01 0.02 0.00 0.00 0.00 0.00 0.00 0.00 0.00 0.00 0.00 0.00 0.00 0.00 0.00 0.00 0.00 0.00
0.09 0.14 0.36 0.60 0.82 0.93 0.78 0.50 0.48 0.87 0.68 0.40 0.53 0.29 0.03 0.01 0.00 0.00 0.00 0.00 0.00 0.02 0.01 0.00 0.00 0.01 0.00 0.00 0.00 0.00 0.00 0.00 0.00 0.00 0.00 0.00 0.00 0.00 0.00 0.00 0.00 0.00 0.00 0.00 0.00
0.13 0.27 0.47 1.08 1.23 0.88 1.12 0.78 0.99 1.04 0.61 0.26 0.39 0.27 0.06 0.01 0.00 0.02 0.02 0.00 0.00 0.00 0.00 0.00 0.00 0.00 0.00 0.00 0.00 0.00 0.00 0.00 0.00 0.00 0.01 0.00 0.02 0.00 0.00 0.00 0.00 0.00 0.00 0.00 0.00
0.31 0.35 0.59 0.96 0.92 0.46 0.70 1.29 1.57 1.32 0.69 0.56 0.47 0.34 0.11 0.04 0.01 0.02 0.03 0.03 0.01 0.02 0.02 0.00 0.00 0.00 0.00 0.00 0.00 0.00 0.00 0.01 0.02 0.05 0.09 0.00 0.01 0.00 0.00 0.00 0.00 0.00 0.00 0.00 0.00
0.39 0.29 0.70 0.91 0.97 0.58 0.74 1.60 1.58 0.78 0.63 0.39 0.27 0.11 0.04 0.03 0.04 0.04 0.04 0.04 0.03 0.05 0.06 0.03 0.01 0.00 0.00 0.00 0.00 0.03 0.14 0.15 0.14 0.16 0.04 0.00 0.00 0.00 0.00 0.00 0.00 0.00 0.00 0.00 0.00
0.26 0.24 0.46 0.76 0.63 1.19 0.89 1.09 0.98 0.53 0.45 0.18 0.07 0.05 0.04 0.02 0.04 0.04 0.03 0.03 0.02 0.03 0.06 0.04 0.01 0.00 0.00 0.00 0.00 0.01 0.06 0.15 0.05 0.00 0.00 0.00 0.00 0.00 0.00 0.00 0.00 0.00 0.00 0.00 0.00
0.39 0.17 0.55 0.90 0.72 1.22 1.08 0.73 0.97 0.75 0.46 0.13 0.11 0.11 0.11 0.02 0.03 0.03 0.02 0.00 0.00 0.01 0.03 0.03 0.01 0.00 0.00 0.00 0.01 0.05 0.10 0.07 0.16 0.12 0.14 0.01 0.00 0.00 0.00 0.00 0.00 0.00 0.00 0.00 0.00
0.33 0.18 0.60 0.86 0.70 1.11 0.98 0.58 0.74 0.66 0.16 0.02 0.15 0.08 0.04 0.02 0.02 0.02 0.01 0.00 0.00 0.00 0.00 0.00 0.01 0.00 0.00 0.01 0.02 0.04 0.03 0.10 0.33 0.19 0.09 0.00 0.00 0.00 0.00 0.00 0.00 0.00 0.00 0.00 0.00
0.36 0.47 0.65 0.83 0.79 1.02 0.71 0.40 0.45 0.33 0.15 0.02 0.00 0.00 0.00 0.00 0.00 0.00 0.00 0.00 0.00 0.00 0.00 0.01 0.02 0.01 0.01 0.01 0.00 0.03 0.12 0.13 0.13 0.06 0.02 0.01 0.00 0.00 0.00 0.00 0.00 0.00 0.00 0.00 0.01
0.40 0.68 0.60 1.10 1.12 0.76 0.36 0.30 0.55 0.35 0.03 0.00 0.00 0.00 0.00 0.00 0.00 0.00 0.00 0.00 0.00 0.00 0.00 0.00 0.03 0.02 0.00 0.00 0.00 0.01 0.02 0.09 0.32 0.09 0.16 0.11 0.05 0.00 0.01 0.00 0.00 0.00 0.00 0.00 0.00
0.59 0.49 0.91 0.82 0.52 0.36 0.32 0.24 0.20 0.05 0.02 0.01 0.00 0.00 0.00 0.01 0.00 0.00 0.00 0.00 0.00 0.00 0.00 0.00 0.05 0.05 0.04 0.06 0.08 0.16 0.06 0.16 0.37 0.57 0.40 0.16 0.06 0.00 0.00 0.00 0.01 0.01 0.01 0.00 0.00
0.26 0.74 1.54 0.80 0.28 0.30 0.46 0.46 0.25 0.05 0.01 0.00 0.00 0.01 0.03 0.02 0.00 0.00 0.00 0.00 0.00 0.00 0.00 0.01 0.05 0.07 0.12 0.19 0.43 0.39 0.14 0.29 0.70 0.81 0.16 0.06 0.01 0.00 0.00 0.02 0.01 0.02 0.04 0.06 0.02
0.11 0.30 0.50 0.47 0.26 0.17 0.15 0.10 0.04 0.02 0.00 0.00 0.02 0.02 0.04 0.02 0.01 0.00 0.00 0.00 0.00 0.00 0.00 0.05 0.11 0.11 0.15 0.17 0.56 0.41 0.19 0.24 0.57 0.26 0.33 0.09 0.00 0.00 0.01 0.04 0.09 0.08 0.11 0.06 0.03
0.14 0.19 0.10 0.04 0.03 0.04 0.06 0.08 0.03 0.00 0.01 0.00 0.00 0.04 0.04 0.03 0.01 0.00 0.00 0.00 0.00 0.00 0.03 0.11 0.13 0.14 0.14 0.13 0.25 0.27 0.08 0.11 0.06 0.03 0.06 0.01 0.01 0.00 0.01 0.12 0.29 0.17 0.22 0.11 0.06
0.32 0.23 0.08 0.06 0.02 0.01 0.01 0.00 0.01 0.00 0.00 0.00 0.00 0.05 0.02 0.02 0.01 0.01 0.00 0.00 0.00 0.01 0.03 0.09 0.13 0.29 0.22 0.18 0.11 0.20 0.14 0.06 0.02 0.04 0.06 0.06 0.01 0.04 0.07 0.29 0.31 0.31 0.30 0.09 0.03

GFSSW_prec_precacc24_048.txt.gz
Total_Precipitation_Accumulation
0.07 0.07 0.08 0.08 0.06 0.07 0.06 0.05 0.05 0.05 0.07 0.09 0.13 0.15 0.11 0.06 0.12 0.08 0.03 0.00 0.00 0.00 0.00 0.00 0.00 0.00 0.00 0.00 0.00 0.00 0.00 0.00 0.00 0.00 0.00 0.00 0.00 0.00 0.00 0.00 0.00 0.00 0.00 0.00 0.00
0.06 0.06 0.08 0.10 0.11 0.10 0.10 0.07 0.05 0.05 0.07 0.07 0.08 0.13 0.16 0.07 0.10 0.08 0.00 0.01 0.02 0.01 0.00 0.00 0.00 0.00 0.00 0.00 0.00 0.00 0.00 0.00 0.00 0.00 0.00 0.00 0.00 0.00 0.00 0.00 0.00 0.00 0.00 0.00 0.00
0.07 0.08 0.09 0.11 0.14 0.14 0.10 0.09 0.06 0.05 0.06 0.11 0.14 0.12 0.15 0.11 0.03 0.01 0.00 0.02 0.16 0.15 0.02 0.00 0.00 0.00 0.00 0.00 0.00 0.00 0.00 0.00 0.00 0.00 0.00 0.00 0.00 0.00 0.00 0.00 0.00 0.00 0.00 0.00 0.00
0.09 0.11 0.13 0.12 0.13 0.15 0.14 0.10 0.08 0.07 0.08 0.11 0.17 0.33 0.34 0.12 0.01 0.00 0.00 0.02 0.13 0.30 0.06 0.01 0.00 0.00 0.00 0.00 0.00 0.00 0.00 0.00 0.00 0.00 0.00 0.00 0.00 0.00 0.00 0.00 0.00 0.00 0.00 0.00 0.00
0.12 0.13 0.13 0.13 0.16 0.16 0.15 0.11 0.13 0.12 0.10 0.08 0.18 0.28 0.40 0.18 0.01 0.01 0.00 0.03 0.08 0.26 0.11 0.02 0.00 0.00 0.00 0.00 0.00 0.00 0.00 0.00 0.00 0.00 0.00 0.00 0.00 0.00 0.00 0.00 0.00 0.00 0.00 0.00 0.00
0.11 0.11 0.10 0.16 0.17 0.17 0.14 0.16 0.15 0.16 0.14 0.12 0.16 0.36 0.32 0.07 0.01 0.00 0.01 0.06 0.06 0.11 0.14 0.08 0.01 0.00 0.00 0.00 0.00 0.00 0.00 0.00 0.00 0.00 0.00 0.00 0.00 0.00 0.00 0.00 0.00 0.00 0.00 0.00 0.00
0.13 0.11 0.11 0.15 0.18 0.16 0.14 0.19 0.22 0.14 0.14 0.18 0.26 0.28 0.26 0.07 0.00 0.00 0.02 0.13 0.13 0.12 0.13 0.11 0.03 0.00 0.00 0.00 0.00 0.00 0.00 0.00 0.00 0.00 0.00 0.00 0.00 0.00 0.00 0.00 0.00 0.00 0.00 0.00 0.00
0.12 0.13 0.10 0.15 0.17 0.18 0.17 0.19 0.16 0.16 0.20 0.20 0.34 0.43 0.15 0.01 0.02 0.00 0.00 0.10 0.20 0.29 0.23 0.26 0.11 0.04 0.02 0.01 0.00 0.00 0.00 0.00 0.00 0.00 0.00 0.00 0.00 0.00 0.00 0.00 0.00 0.00 0.00 0.00 0.00
0.14 0.11 0.12 0.19 0.23 0.19 0.16 0.22 0.34 0.32 0.36 0.43 0.50 0.38 0.12 0.00 0.03 0.00 0.00 0.06 0.10 0.17 0.24 0.41 0.36 0.09 0.02 0.01 0.00 0.00 0.00 0.00 0.00 0.00 0.00 0.00 0.00 0.00 0.00 0.00 0.00 0.00 0.00 0.00 0.00
0.16 0.10 0.16 0.17 0.18 0.26 0.29 0.29 0.48 0.61 0.62 0.78 0.72 0.46 0.10 0.00 0.02 0.00 0.00 0.01 0.03 0.15 0.32 0.39 0.40 0.24 0.04 0.01 0.00 0.00 0.00 0.00 0.00 0.00 0.00 0.00 0.00 0.00 0.00 0.00 0.00 0.00 0.00 0.00 0.00
0.17 0.14 0.11 0.20 0.34 0.42 0.60 0.90 1.01 1.02 0.79 0.59 0.37 0.18 0.02 0.00 0.03 0.01 0.00 0.01 0.07 0.20 0.34 0.35 0.22 0.20 0.08 0.01 0.00 0.00 0.00 0.00 0.00 0.00 0.00 0.00 0.00 0.00 0.00 0.00 0.00 0.00 0.00 0.00 0.00
0.17 0.09 0.10 0.22 0.33 0.63 0.93 0.84 0.59 0.56 0.57 0.25 0.21 0.09 0.03 0.01 0.05 0.01 0.00 0.00 0.05 0.09 0.19 0.39 0.09 0.13 0.09 0.03 0.01 0.00 0.00 0.00 0.00 0.00 0.00 0.00 0.00 0.00 0.00 0.00 0.00 0.00 0.00 0.00 0.00
0.14 0.08 0.11 0.20 0.38 0.63 0.76 0.49 0.23 0.56 0.68 0.33 0.38 0.23 0.07 0.03 0.05 0.00 0.00 0.00 0.03 0.06 0.04 0.07 0.03 0.04 0.10 0.05 0.04 0.01 0.00 0.00 0.00 0.00 0.00 0.00 0.00 0.00 0.00 0.00 0.00 0.00 0.00 0.00 0.00
0.12 0.14 0.22 0.33 0.38 0.73 0.74 0.56 0.49 0.87 0.68 0.40 0.54 0.35 0.11 0.02 0.08 0.00 0.00 0.01 0.02 0.07 0.04 0.01 0.00 0.04 0.08 0.05 0.02 0.03 0.00 0.00 0.00 0.00 0.00 0.00 0.00 0.00 0.00 0.00 0.00 0.00 0.00 0.00 0.00
0.14 0.27 0.37 0.61 0.82 0.81 1.09 0.77 0.99 1.04 0.61 0.26 0.42 0.44 0.16 0.01 0.05 0.03 0.03 0.01 0.01 0.01 0.03 0.01 0.00 0.01 0.08 0.02 0.00 0.00 0.00 0.00 0.00 0.00 0.01 0.00 0.01 0.00 0.00 0.00 0.00 0.00 0.00 0.00 0.00
0.32 0.34 0.40 0.44 0.68 0.47 0.70 1.29 1.57 1.32 0.69 0.58 0.52 0.65 0.16 0.04 0.02 0.03 0.05 0.02 0.01 0.01 0.02 0.01 0.00 0.00 0.00 0.00 0.00 0.00 0.00 0.01 0.02 0.04 0.07 0.00 0.00 0.00 0.00 0.00 0.00 0.00 0.00 0.00 0.00
0.39 0.25 0.46 0.33 0.60 0.51 0.74 1.60 1.58 0.79 0.67 0.48 0.47 0.30 0.05 0.04 0.05 0.06 0.05 0.03 0.02 0.03 0.04 0.01 0.00 0.00 0.00 0.00 0.00 0.02 0.09 0.07 0.08 0.11 0.03 0.00 0.00 0.00 0.00 0.00 0.00 0.00 0.00 0.00 0.00
0.24 0.20 0.25 0.22 0.24 1.11 0.88 1.09 0.99 0.54 0.59 0.33 0.28 0.11 0.08 0.04 0.06 0.06 0.03 0.02 0.01 0.01 0.03 0.01 0.00 0.00 0.00 0.00 0.00 0.01 0.04 0.07 0.02 0.00 0.00 0.00 0.00 0.00 0.00 0.00 0.00 0.00 0.00 0.00 0.00
0.35 0.12 0.30 0.34 0.30 1.12 1.08 0.73 0.99 0.82 0.66 0.36 0.17 0.16 0.15 0.03 0.05 0.07 0.02 0.00 0.00 0.01 0.01 0.01 0.00 0.00 0.00 0.00 0.00 0.02 0.04 0.02 0.08 0.05 0.07 0.00 0.00 0.00 0.00 0.00 0.00 0.00 0.00 0.00 0.00
0.31 0.14 0.29 0.34 0.32 1.04 0.99 0.62 0.80 0.73 0.24 0.05 0.19 0.10 0.05 0.03 0.02 0.02 0.01 0.00 0.00 0.00 0.00 0.00 0.00 0.00 0.00 0.00 0.01 0.02 0.01 0.05 0.14 0.09 0.05 0.00 0.00 0.00 0.00 0.00 0.00 0.00 0.00 0.00 0.00
0.32 0.35 0.35 0.32 0.41 0.89 0.70 0.47 0.55 0.38 0.17 0.02 0.00 0.00 0.00 0.01 0.00 0.00 0.00 0.00 0.00 0.00 0.00 0.00 0.01 0.01 0.01 0.00 0.00 0.01 0.05 0.08 0.09 0.04 0.02 0.00 0.00 0.00 0.00 0.00 0.00 0.00 0.00 0.00 0.01
0.33 0.56 0.28 0.42 0.70 0.62 0.34 0.30 0.55 0.35 0.03 0.00 0.00 0.00 0.00 0.00 0.00 0.00 0.00 0.00 0.00 0.00 0.00 0.00 0.02 0.01 0.00 0.00 0.00 0.01 0.01 0.08 0.31 0.09 0.16 0.11 0.05 0.00 0.00 0.00 0.00 0.00 0.00 0.00 0.00
0.48 0.33 0.43 0.34 0.33 0.27 0.31 0.24 0.20 0.05 0.02 0.01 0.00 0.00 0.00 0.00 0.00 0.00 0.00 0.00 0.00 0.00 0.00 0.00 0.02 0.01 0.00 0.01 0.03 0.07 0.03 0.15 0.36 0.56 0.39 0.16 0.06 0.00 0.00 0.00 0.00 0.00 0.00 0.00 0.00
0.15 0.35 0.74 0.26 0.17 0.29 0.46 0.46 0.25 0.05 0.01 0.00 0.00 0.00 0.00 0.01 0.00 0.00 0.00 0.00 0.00 0.00 0.00 0.00 0.00 0.01 0.04 0.06 0.24 0.28 0.09 0.24 0.66 0.78 0.15 0.06 0.01 0.00 0.00 0.00 0.00 0.01 0.02 0.01 0.00
0.05 0.16 0.25 0.17 0.16 0.17 0.15 0.10 0.04 0.02 0.00 0.00 0.01 0.00 0.01 0.01 0.01 0.00 0.00 0.00 0.00 0.00 0.00 0.00 0.02 0.03 0.04 0.05 0.21 0.21 0.13 0.18 0.50 0.25 0.33 0.09 0.00 0.00 0.00 0.01 0.03 0.05 0.08 0.04 0.02
0.06 0.16 0.08 0.02 0.02 0.03 0.05 0.08 0.03 0.00 0.00 0.00 0.00 0.00 0.00 0.01 0.00 0.00 0.00 0.00 0.00 0.00 0.00 0.02 0.03 0.03 0.02 0.03 0.14 0.17 0.05 0.09 0.06 0.03 0.06 0.01 0.01 0.00 0.00 0.04 0.10 0.11 0.20 0.09 0.06
0.11 0.19 0.07 0.04 0.01 0.01 0.01 0.00 0.01 0.00 0.00 0.00 0.00 0.00 0.00 0.00 0.01 0.01 0.00 0.00 0.00 0.00 0.01 0.03 0.05 0.13 0.06 0.02 0.09 0.17 0.13 0.06 0.02 0.04 0.06 0.05 0.00 0.00 0.02 0.17 0.24 0.29 0.30 0.09 0.03

GFSSW_prec_precacc24_051.txt.gz
Total_Precipitation_Accumulation
0.05 0.06 0.09 0.09 0.08 0.09 0.08 0.08 0.07 0.06 0.07 0.09 0.13 0.15 0.15 0.13 0.13 0.08 0.04 0.00 0.00 0.00 0.00 0.00 0.00 0.00 0.00 0.00 0.00 0.00 0.00 0.00 0.00 0.00 0.00 0.00 0.00 0.00 0.00 0.00 0.00 0.00 0.00 0.00 0.00
0.04 0.06 0.09 0.11 0.11 0.11 0.11 0.09 0.08 0.07 0.08 0.07 0.08 0.13 0.18 0.17 0.12 0.06 0.00 0.00 0.01 0.01 0.00 0.00 0.00 0.00 0.00 0.00 0.00 0.00 0.00 0.00 0.00 0.00 0.00 0.00 0.00 0.00 0.00 0.00 0.00 0.00 0.00 0.00 0.00
0.05 0.06 0.08 0.12 0.15 0.15 0.11 0.09 0.09 0.08 0.07 0.11 0.14 0.12 0.16 0.22 0.11 0.01 0.00 0.01 0.10 0.09 0.02 0.01 0.00 0.00 0.00 0.00 0.00 0.00 0.00 0.00 0.00 0.00 0.00 0.00 0.00 0.00 0.00 0.00 0.00 0.00 0.00 0.00 0.00
0.07 0.09 0.11 0.10 0.13 0.16 0.15 0.11 0.10 0.12 0.12 0.12 0.17 0.33 0.35 0.18 0.11 0.02 0.02 0.02 0.13 0.26 0.07 0.02 0.00 0.00 0.00 0.00 0.00 0.00 0.00 0.00 0.00 0.00 0.00 0.00 0.00 0.00 0.00 0.00 0.00 0.00 0.00 0.00 0.00
0.08 0.11 0.09 0.08 0.14 0.17 0.16 0.12 0.18 0.15 0.12 0.09 0.19 0.28 0.44 0.27 0.05 0.04 0.01 0.04 0.08 0.25 0.11 0.03 0.00 0.00 0.00 0.00 0.00 0.00 0.00 0.00 0.00 0.00 0.00 0.00 0.00 0.00 0.00 0.00 0.00 0.00 0.00 0.00 0.00
0.09 0.09 0.08 0.12 0.12 0.16 0.15 0.19 0.17 0.18 0.15 0.14 0.19 0.39 0.35 0.14 0.02 0.02 0.01 0.07 0.06 0.11 0.14 0.09 0.01 0.00 0.00 0.00 0.00 0.00 0.00 0.00 0.00 0.00 0.00 0.00 0.00 0.00 0.00 0.00 0.00 0.00 0.00 0.00 0.00
0.11 0.08 0.09 0.12 0.13 0.13 0.16 0.24 0.23 0.14 0.16 0.20 0.28 0.31 0.30 0.09 0.00 0.01 0.02 0.15 0.14 0.12 0.12 0.11 0.02 0.00 0.00 0.00 0.00 0.00 0.00 0.00 0.00 0.00 0.00 0.00 0.00 0.00 0.00 0.00 0.00 0.00 0.00 0.00 0.00
0.13 0.09 0.07 0.13 0.14 0.13 0.16 0.20 0.17 0.20 0.21 0.22 0.34 0.47 0.17 0.02 0.03 0.00 0.02 0.15 0.25 0.38 0.28 0.31 0.09 0.02 0.01 0.01 0.00 0.00 0.00 0.00 0.00 0.00 0.00 0.00 0.00 0.00 0.00 0.00 0.00 0.00 0.00 0.00 0.00
0.16 0.10 0.09 0.15 0.18 0.12 0.12 0.20 0.36 0.34 0.34 0.44 0.51 0.40 0.15 0.02 0.04 0.01 0.01 0.14 0.22 0.30 0.38 0.58 0.42 0.11 0.02 0.01 0.00 0.00 0.00 0.00 0.00 0.00 0.00 0.00 0.00 0.00 0.00 0.00 0.00 0.00 0.00 0.00 0.00
0.17 0.12 0.11 0.10 0.11 0.18 0.22 0.25 0.47 0.58 0.61 0.78 0.73 0.49 0.11 0.01 0.04 0.02 0.00 0.10 0.13 0.24 0.48 0.53 0.46 0.26 0.05 0.01 0.00 0.00 0.00 0.00 0.00 0.00 0.00 0.00 0.00 0.00 0.00 0.00 0.00 0.00 0.00 0.00 0.00
0.20 0.17 0.09 0.09 0.19 0.34 0.55 0.87 1.00 1.02 0.80 0.59 0.38 0.20 0.07 0.03 0.08 0.08 0.01 0.07 0.17 0.35 0.60 0.41 0.24 0.21 0.09 0.01 0.00 0.00 0.00 0.00 0.00 0.00 0.00 0.00 0.00 0.00 0.00 0.00 0.00 0.00 0.00 0.00 0.00
0.21 0.12 0.11 0.12 0.18 0.38 0.78 0.83 0.59 0.56 0.57 0.25 0.21 0.12 0.09 0.10 0.12 0.10 0.01 0.08 0.12 0.24 0.67 0.69 0.11 0.13 0.09 0.04 0.01 0.00 0.00 0.00 0.00 0.00 0.00 0.00 0.00 0.00 0.00 0.00 0.00 0.00 0.00 0.00 0.00
0.16 0.11 0.16 0.19 0.14 0.14 0.56 0.48 0.23 0.56 0.68 0.33 0.38 0.25 0.14 0.09 0.08 0.03 0.01 0.02 0.08 0.19 0.41 0.57 0.26 0.09 0.13 0.06 0.05 0.01 0.00 0.00 0.00 0.00 0.00 0.00 0.00 0.00 0.00 0.00 0.00 0.00 0.00 0.00 0.00
0.11 0.14 0.26 0.34 0.17 0.20 0.46 0.52 0.50 0.87 0.68 0.40 0.54 0.38 0.17 0.11 0.11 0.00 0.00 0.04 0.07 0.16 0.21 0.23 0.22 0.18 0.16 0.10 0.04 0.04 0.00 0.00 0.00 0.00 0.00 0.00 0.00 0.00 0.00 0.00 0.00 0.00 0.00 0.00 0.00
0.14 0.27 0.38 0.52 0.50 0.36 0.70 0.69 0.99 1.04 0.61 0.26 0.43 0.48 0.24 0.11 0.07 0.03 0.03 0.04 0.04 0.03 0.06 0.02 0.07 0.07 0.16 0.11 0.04 0.01 0.00 0.00 0.00 0.00 0.01 0.00 0.01 0.00 0.00 0.00 0.00 0.00 0.00 0.00 0.00
0.32 0.35 0.40 0.42 0.43 0.19 0.39 1.14 1.56 1.32 0.69 0.58 0.55 0.75 0.28 0.07 0.05 0.03 0.07 0.04 0.04 0.03 0.04 0.01 0.01 0.00 0.08 0.08 0.06 0.00 0.00 0.00 0.01 0.02 0.03 0.00 0.00 0.00 0.00 0.00 0.00 0.00 0.00 0.00 0.00
0.34 0.24 0.45 0.28 0.34 0.08 0.43 1.39 1.55 0.79 0.68 0.50 0.57 0.54 0.09 0.07 0.08 0.06 0.09 0.03 0.03 0.07 0.15 0.06 0.01 0.00 0.00 0.03 0.01 0.01 0.03 0.02 0.03 0.06 0.01 0.00 0.00 0.00 0.00 0.00 0.00 0.00 0.00 0.00 0.00
0.19 0.17 0.23 0.20 0.07 0.20 0.53 0.98 0.99 0.57 0.69 0.40 0.50 0.18 0.10 0.07 0.08 0.07 0.06 0.02 0.00 0.01 0.02 0.02 0.01 0.00 0.00 0.00 0.00 0.01 0.01 0.01 0.00 0.00 0.00 0.00 0.00 0.00 0.00 0.00 0.00 0.00 0.00 0.00 0.00
0.27 0.10 0.29 0.31 0.10 0.31 0.68 0.65 1.00 0.87 0.74 0.48 0.30 0.18 0.16 0.04 0.07 0.11 0.04 0.00 0.00 0.00 0.00 0.01 0.00 0.00 0.00 0.00 0.00 0.01 0.02 0.01 0.04 0.01 0.02 0.00 0.00 0.00 0.00 0.00 0.00 0.00 0.00 0.00 0.00
0.28 0.11 0.28 0.31 0.09 0.35 0.68 0.60 0.83 0.78 0.32 0.11 0.25 0.12 0.06 0.04 0.04 0.05 0.02 0.00 0.00 0.00 0.00 0.00 0.00 0.00 0.00 0.00 0.00 0.01 0.01 0.03 0.08 0.02 0.01 0.00 0.00 0.00 0.00 0.00 0.00 0.00 0.00 0.00 0.00
0.28 0.31 0.31 0.19 0.09 0.40 0.47 0.46 0.55 0.38 0.17 0.02 0.00 0.00 0.00 0.01 0.00 0.00 0.00 0.00 0.00 0.00 0.00 0.00 0.00 0.00 0.00 0.00 0.00 0.00 0.02 0.04 0.07 0.03 0.02 0.00 0.00 0.00 0.00 0.00 0.00 0.00 0.00 0.00 0.01
0.26 0.53 0.21 0.10 0.24 0.28 0.30 0.30 0.55 0.35 0.03 0.00 0.00 0.00 0.00 0.00 0.00 0.00 0.00 0.00 0.00 0.00 0.00 0.00 0.01 0.01 0.00 0.00 0.00 0.00 0.00 0.05 0.25 0.08 0.14 0.11 0.05 0.00 0.00 0.00 0.00 0.00 0.00 0.00 0.00
0.33 0.30 0.24 0.20 0.16 0.15 0.29 0.24 0.20 0.05 0.02 0.01 0.00 0.00 0.00 0.00 0.00 0.00 0.00 0.00 0.00 0.00 0.00 0.00 0.01 0.00 0.00 0.00 0.01 0.01 0.00 0.04 0.19 0.40 0.33 0.16 0.06 0.00 0.00 0.00 0.00 0.00 0.00 0.00 0.00
0.13 0.24 0.20 0.12 0.10 0.26 0.45 0.46 0.25 0.05 0.01 0.00 0.00 0.00 0.00 0.00 0.00 0.00 0.00 0.00 0.00 0.00 0.00 0.00 0.00 0.00 0.00 0.00 0.05 0.08 0.04 0.14 0.44 0.57 0.12 0.06 0.01 0.00 0.00 0.00 0.00 0.00 0.00 0.00 0.00
0.04 0.05 0.06 0.04 0.09 0.17 0.15 0.10 0.04 0.02 0.00 0.00 0.00 0.00 0.00 0.00 0.00 0.00 0.00 0.00 0.00 0.00 0.00 0.00 0.01 0.00 0.00 0.00 0.00 0.03 0.03 0.09 0.35 0.20 0.32 0.09 0.00 0.00 0.00 0.01 0.03 0.03 0.02 0.01 0.01
0.03 0.08 0.06 0.01 0.02 0.03 0.05 0.08 0.03 0.00 0.00 0.00 0.00 0.00 0.00 0.00 0.00 0.00 0.00 0.00 0.00 0.00 0.00 0.01 0.01 0.01 0.00 0.00 0.01 0.07 0.02 0.05 0.04 0.03 0.06 0.01 0.01 0.00 0.00 0.04 0.09 0.05 0.05 0.07 0.05
0.03 0.12 0.06 0.01 0.01 0.01 0.01 0.00 0.01 0.00 0.00 0.00 0.00 0.00 0.00 0.00 0.00 0.00 0.00 0.00 0.00 0.00 0.00 0.01 0.02 0.05 0.02 0.00 0.01 0.09 0.11 0.04 0.02 0.04 0.06 0.05 0.00 0.00 0.01 0.04 0.07 0.16 0.19 0.07 0.02

GFSSW_prec_precacc24_054.txt.gz
Total_Precipitation_Accumulation
0.04 0.04 0.06 0.09 0.09 0.10 0.09 0.08 0.08 0.08 0.09 0.10 0.13 0.15 0.14 0.13 0.10 0.08 0.04 0.00 0.00 0.00 0.01 0.00 0.01 0.02 0.00 0.00 0.00 0.00 0.00 0.00 0.00 0.00 0.00 0.00 0.00 0.00 0.00 0.00 0.00 0.00 0.00 0.00 0.00
0.03 0.05 0.06 0.08 0.11 0.13 0.13 0.11 0.08 0.08 0.09 0.09 0.09 0.12 0.18 0.17 0.11 0.05 0.00 0.00 0.00 0.00 0.01 0.00 0.01 0.03 0.00 0.00 0.00 0.00 0.00 0.00 0.00 0.00 0.00 0.00 0.00 0.00 0.00 0.00 0.00 0.00 0.00 0.00 0.00
0.05 0.05 0.06 0.08 0.12 0.15 0.13 0.10 0.09 0.09 0.09 0.14 0.16 0.12 0.16 0.22 0.13 0.02 0.00 0.00 0.04 0.04 0.02 0.01 0.01 0.02 0.00 0.00 0.00 0.00 0.00 0.00 0.00 0.00 0.00 0.00 0.00 0.00 0.00 0.00 0.00 0.00 0.00 0.00 0.00
0.06 0.06 0.09 0.07 0.06 0.11 0.15 0.11 0.10 0.13 0.14 0.14 0.20 0.34 0.35 0.19 0.14 0.03 0.02 0.02 0.10 0.19 0.06 0.03 0.01 0.03 0.00 0.00 0.00 0.00 0.00 0.00 0.00 0.00 0.00 0.00 0.00 0.00 0.00 0.00 0.00 0.00 0.00 0.00 0.00
0.09 0.11 0.08 0.06 0.09 0.10 0.13 0.13 0.18 0.16 0.13 0.10 0.20 0.31 0.46 0.28 0.06 0.07 0.06 0.04 0.09 0.24 0.11 0.04 0.01 0.01 0.00 0.00 0.00 0.00 0.00 0.00 0.00 0.00 0.00 0.00 0.00 0.00 0.00 0.00 0.00 0.00 0.00 0.00 0.00
0.12 0.11 0.09 0.12 0.11 0.10 0.11 0.21 0.18 0.19 0.15 0.15 0.21 0.46 0.39 0.14 0.02 0.03 0.05 0.07 0.07 0.10 0.14 0.10 0.01 0.00 0.00 0.00 0.00 0.00 0.00 0.00 0.00 0.00 0.00 0.00 0.00 0.00 0.00 0.00 0.00 0.00 0.00 0.00 0.00
0.15 0.10 0.10 0.13 0.14 0.10 0.11 0.23 0.24 0.16 0.16 0.21 0.31 0.35 0.31 0.10 0.01 0.02 0.03 0.15 0.15 0.11 0.12 0.12 0.03 0.00 0.00 0.00 0.00 0.00 0.00 0.00 0.00 0.00 0.00 0.00 0.00 0.00 0.00 0.00 0.00 0.00 0.00 0.00 0.00
0.16 0.13 0.10 0.14 0.12 0.10 0.09 0.14 0.16 0.27 0.23 0.23 0.38 0.51 0.17 0.02 0.04 0.00 0.02 0.16 0.27 0.38 0.30 0.39 0.10 0.02 0.01 0.00 0.00 0.00 0.00 0.00 0.00 0.00 0.00 0.00 0.00 0.00 0.00 0.00 0.00 0.00 0.00 0.00 0.00
0.20 0.15 0.13 0.16 0.14 0.06 0.05 0.06 0.32 0.36 0.33 0.48 0.55 0.42 0.16 0.06 0.06 0.02 0.04 0.17 0.27 0.33 0.48 0.78 0.52 0.15 0.02 0.01 0.00 0.00 0.00 0.00 0.00 0.00 0.00 0.00 0.00 0.00 0.00 0.00 0.00 0.00 0.00 0.00 0.00
0.21 0.18 0.16 0.12 0.07 0.10 0.10 0.08 0.37 0.53 0.59 0.79 0.78 0.51 0.11 0.03 0.08 0.04 0.06 0.13 0.19 0.31 0.67 0.75 0.64 0.33 0.07 0.01 0.00 0.00 0.00 0.00 0.00 0.00 0.00 0.00 0.00 0.00 0.00 0.00 0.00 0.00 0.00 0.00 0.00
0.21 0.20 0.12 0.13 0.19 0.20 0.21 0.30 0.84 0.98 0.79 0.59 0.38 0.20 0.12 0.11 0.16 0.14 0.04 0.14 0.27 0.45 0.69 0.51 0.42 0.23 0.09 0.01 0.00 0.00 0.00 0.00 0.00 0.00 0.00 0.00 0.00 0.00 0.00 0.00 0.00 0.00 0.00 0.00 0.00
0.20 0.12 0.14 0.19 0.21 0.20 0.18 0.42 0.55 0.56 0.57 0.25 0.21 0.12 0.10 0.16 0.20 0.21 0.03 0.37 0.20 0.34 0.80 0.79 0.16 0.14 0.09 0.04 0.01 0.00 0.00 0.00 0.00 0.00 0.00 0.00 0.00 0.00 0.00 0.00 0.00 0.00 0.00 0.00 0.00
0.13 0.11 0.17 0.25 0.16 0.04 0.08 0.22 0.23 0.57 0.69 0.34 0.39 0.29 0.21 0.14 0.10 0.07 0.02 0.33 0.17 0.38 0.62 0.70 0.28 0.10 0.13 0.06 0.05 0.01 0.00 0.00 0.00 0.00 0.00 0.00 0.00 0.00 0.00 0.00 0.00 0.00 0.00 0.00 0.00
0.08 0.14 0.27 0.34 0.16 0.13 0.17 0.28 0.43 0.87 0.68 0.42 0.61 0.53 0.36 0.19 0.12 0.01 0.03 0.38 0.26 0.47 0.52 0.54 0.33 0.23 0.17 0.10 0.04 0.04 0.00 0.00 0.00 0.00 0.00 0.00 0.00 0.00 0.00 0.00 0.00 0.00 0.00 0.00 0.00
0.10 0.24 0.37 0.48 0.49 0.29 0.36 0.42 0.79 0.99 0.62 0.31 0.55 0.68 0.34 0.14 0.08 0.04 0.06 0.21 0.16 0.36 0.31 0.24 0.29 0.29 0.25 0.14 0.05 0.01 0.00 0.00 0.00 0.00 0.00 0.00 0.00 0.00 0.00 0.00 0.00 0.00 0.00 0.00 0.00
0.16 0.26 0.38 0.41 0.42 0.19 0.10 0.61 1.17 1.21 0.70 0.59 0.57 0.81 0.35 0.07 0.05 0.03 0.09 0.06 0.11 0.14 0.07 0.11 0.30 0.15 0.25 0.21 0.10 0.01 0.00 0.00 0.00 0.01 0.01 0.00 0.00 0.00 0.00 0.00 0.00 0.00 0.00 0.00 0.00
0.19 0.16 0.39 0.26 0.34 0.06 0.16 0.76 1.09 0.74 0.69 0.51 0.59 0.59 0.10 0.08 0.09 0.07 0.16 0.04 0.08 0.09 0.20 0.13 0.06 0.05 0.14 0.18 0.10 0.01 0.01 0.00 0.01 0.02 0.00 0.00 0.00 0.00 0.00 0.00 0.00 0.00 0.00 0.00 0.00
0.13 0.13 0.20 0.18 0.07 0.04 0.12 0.56 0.75 0.58 0.73 0.42 0.55 0.21 0.11 0.10 0.11 0.10 0.22 0.01 0.00 0.03 0.10 0.11 0.07 0.03 0.07 0.02 0.02 0.01 0.00 0.00 0.00 0.00 0.00 0.00 0.00 0.00 0.00 0.00 0.00 0.00 0.00 0.00 0.00
0.22 0.08 0.25 0.30 0.10 0.08 0.13 0.33 0.92 0.88 0.77 0.64 0.36 0.20 0.20 0.05 0.08 0.15 0.09 0.00 0.00 0.01 0.01 0.03 0.01 0.00 0.00 0.00 0.00 0.00 0.00 0.00 0.01 0.00 0.00 0.00 0.00 0.00 0.00 0.00 0.00 0.00 0.00 0.00 0.00
0.21 0.08 0.25 0.26 0.07 0.10 0.22 0.37 0.82 0.78 0.33 0.13 0.25 0.13 0.06 0.04 0.04 0.06 0.02 0.00 0.00 0.00 0.00 0.00 0.00 0.00 0.00 0.00 0.00 0.00 0.00 0.01 0.03 0.01 0.00 0.00 0.00 0.00 0.00 0.00 0.00 0.00 0.00 0.00 0.00
0.14 0.16 0.24 0.14 0.03 0.14 0.21 0.36 0.55 0.38 0.17 0.02 0.00 0.00 0.00 0.01 0.00 0.00 0.00 0.00 0.00 0.00 0.00 0.00 0.00 0.01 0.00 0.00 0.00 0.00 0.01 0.01 0.02 0.01 0.01 0.00 0.00 0.00 0.00 0.00 0.00 0.00 0.00 0.00 0.01
0.12 0.35 0.14 0.07 0.09 0.12 0.18 0.28 0.55 0.35 0.03 0.00 0.00 0.00 0.00 0.00 0.00 0.00 0.00 0.00 0.00 0.00 0.00 0.00 0.00 0.01 0.00 0.00 0.00 0.00 0.00 0.01 0.07 0.01 0.06 0.07 0.03 0.00 0.00 0.00 0.00 0.00 0.00 0.00 0.00
0.12 0.13 0.13 0.17 0.10 0.07 0.21 0.23 0.20 0.05 0.02 0.01 0.00 0.00 0.00 0.00 0.00 0.00 0.00 0.00 0.00 0.00 0.00 0.00 0.00 0.00 0.00 0.00 0.00 0.00 0.00 0.00 0.06 0.20 0.14 0.08 0.04 0.00 0.00 0.00 0.00 0.00 0.00 0.00 0.00
0.06 0.14 0.10 0.04 0.07 0.24 0.43 0.46 0.25 0.05 0.01 0.00 0.00 0.00 0.00 0.00 0.00 0.00 0.00 0.00 0.00 0.00 0.00 0.00 0.00 0.00 0.00 0.00 0.01 0.00 0.00 0.02 0.23 0.33 0.07 0.02 0.00 0.00 0.00 0.00 0.00 0.00 0.00 0.00 0.00
0.04 0.02 0.02 0.02 0.08 0.16 0.14 0.09 0.04 0.02 0.00 0.00 0.00 0.00 0.00 0.00 0.00 0.00 0.00 0.00 0.00 0.00 0.00 0.00 0.01 0.00 0.00 0.00 0.00 0.00 0.00 0.00 0.16 0.13 0.26 0.07 0.00 0.00 0.00 0.01 0.03 0.03 0.01 0.01 0.01
0.01 0.03 0.02 0.01 0.02 0.03 0.05 0.08 0.03 0.00 0.00 0.00 0.00 0.00 0.00 0.00 0.00 0.00 0.00 0.00 0.00 0.00 0.00 0.01 0.01 0.00 0.00 0.00 0.00 0.00 0.00 0.02 0.02 0.02 0.05 0.01 0.01 0.00 0.00 0.04 0.09 0.05 0.04 0.06 0.04
0.00 0.01 0.04 0.01 0.00 0.01 0.01 0.00 0.01 0.00 0.00 0.00 0.00 0.00 0.00 0.00 0.00 0.00 0.00 0.00 0.00 0.00 0.00 0.01 0.01 0.01 0.00 0.00 0.00 0.03 0.06 0.03 0.01 0.04 0.06 0.05 0.00 0.00 0.01 0.04 0.07 0.08 0.09 0.06 0.02

GFSSW_prec_precacc24_057.txt.gz
Total_Precipitation_Accumulation
0.04 0.03 0.04 0.06 0.07 0.10 0.10 0.09 0.10 0.11 0.11 0.10 0.14 0.16 0.14 0.12 0.08 0.07 0.04 0.02 0.00 0.00 0.01 0.00 0.01 0.03 0.00 0.00 0.00 0.00 0.00 0.00 0.00 0.00 0.00 0.00 0.00 0.00 0.00 0.00 0.00 0.00 0.00 0.00 0.00
0.04 0.05 0.06 0.05 0.07 0.09 0.13 0.12 0.09 0.09 0.10 0.10 0.11 0.14 0.18 0.17 0.08 0.03 0.00 0.00 0.00 0.00 0.02 0.00 0.01 0.04 0.00 0.00 0.00 0.00 0.00 0.00 0.00 0.00 0.00 0.00 0.00 0.00 0.00 0.00 0.00 0.00 0.00 0.00 0.00
0.06 0.06 0.07 0.08 0.08 0.07 0.09 0.10 0.09 0.09 0.10 0.14 0.18 0.15 0.17 0.22 0.11 0.01 0.00 0.00 0.00 0.01 0.02 0.01 0.01 0.05 0.00 0.00 0.00 0.00 0.00 0.00 0.00 0.00 0.00 0.00 0.00 0.00 0.00 0.00 0.00 0.00 0.00 0.00 0.00
0.08 0.09 0.10 0.07 0.06 0.08 0.07 0.09 0.10 0.14 0.15 0.14 0.21 0.37 0.38 0.19 0.14 0.04 0.02 0.02 0.06 0.09 0.05 0.03 0.02 0.05 0.01 0.00 0.00 0.00 0.00 0.00 0.00 0.00 0.00 0.00 0.00 0.00 0.00 0.00 0.00 0.00 0.00 0.00 0.00
0.11 0.14 0.09 0.08 0.10 0.11 0.10 0.08 0.17 0.17 0.15 0.12 0.23 0.34 0.47 0.29 0.06 0.10 0.07 0.07 0.15 0.24 0.08 0.04 0.01 0.03 0.01 0.00 0.00 0.00 0.00 0.00 0.00 0.00 0.00 0.00 0.00 0.00 0.00 0.00 0.00 0.00 0.00 0.00 0.00
0.15 0.14 0.10 0.13 0.13 0.12 0.10 0.13 0.15 0.21 0.18 0.20 0.27 0.50 0.40 0.15 0.02 0.03 0.10 0.09 0.12 0.15 0.11 0.09 0.01 0.01 0.01 0.00 0.00 0.00 0.00 0.00 0.00 0.00 0.00 0.00 0.00 0.00 0.00 0.00 0.00 0.00 0.00 0.00 0.00
0.18 0.13 0.13 0.15 0.15 0.11 0.11 0.17 0.15 0.15 0.20 0.24 0.40 0.40 0.33 0.10 0.01 0.03 0.10 0.18 0.16 0.14 0.10 0.11 0.03 0.01 0.01 0.01 0.00 0.00 0.00 0.00 0.00 0.00 0.00 0.00 0.00 0.00 0.00 0.00 0.00 0.00 0.00 0.00 0.00
0.20 0.16 0.15 0.19 0.16 0.11 0.09 0.08 0.06 0.24 0.27 0.25 0.42 0.58 0.19 0.02 0.04 0.01 0.09 0.23 0.29 0.42 0.28 0.38 0.11 0.02 0.01 0.00 0.00 0.00 0.00 0.00 0.00 0.00 0.00 0.00 0.00 0.00 0.00 0.00 0.00 0.00 0.00 0.00 0.00
0.24 0.17 0.17 0.23 0.19 0.06 0.04 0.02 0.05 0.21 0.32 0.51 0.61 0.46 0.16 0.06 0.07 0.02 0.07 0.22 0.30 0.38 0.50 0.85 0.62 0.19 0.03 0.01 0.01 0.00 0.00 0.00 0.00 0.00 0.00 0.00 0.00 0.00 0.00 0.00 0.00 0.00 0.00 0.00 0.00
0.23 0.19 0.20 0.17 0.13 0.09 0.08 0.02 0.00 0.23 0.51 0.83 0.84 0.54 0.12 0.05 0.11 0.08 0.08 0.16 0.27 0.35 0.75 0.89 0.82 0.43 0.10 0.02 0.01 0.00 0.00 0.00 0.00 0.00 0.00 0.00 0.00 0.00 0.00 0.00 0.00 0.00 0.00 0.00 0.00
0.20 0.20 0.12 0.15 0.20 0.18 0.16 0.02 0.06 0.50 0.70 0.61 0.39 0.22 0.17 0.18 0.29 0.24 0.08 0.20 0.41 0.48 0.73 0.60 0.73 0.31 0.09 0.01 0.00 0.00 0.00 0.00 0.00 0.00 0.00 0.00 0.00 0.00 0.00 0.00 0.00 0.00 0.00 0.00 0.00
0.18 0.11 0.12 0.18 0.20 0.17 0.12 0.03 0.11 0.43 0.53 0.25 0.21 0.12 0.11 0.26 0.51 0.41 0.06 0.51 0.33 0.35 0.83 0.86 0.39 0.20 0.10 0.04 0.01 0.00 0.00 0.00 0.00 0.00 0.00 0.00 0.00 0.00 0.00 0.00 0.00 0.00 0.00 0.00 0.00
0.13 0.09 0.16 0.25 0.14 0.03 0.03 0.01 0.07 0.40 0.62 0.34 0.39 0.30 0.24 0.34 0.37 0.20 0.08 0.55 0.28 0.38 0.63 0.72 0.33 0.20 0.16 0.07 0.05 0.01 0.00 0.00 0.00 0.00 0.00 0.00 0.00 0.00 0.00 0.00 0.00 0.00 0.00 0.00 0.00
0.08 0.10 0.21 0.31 0.14 0.12 0.15 0.16 0.12 0.57 0.58 0.43 0.63 0.60 0.48 0.35 0.39 0.10 0.13 0.62 0.33 0.48 0.55 0.58 0.35 0.30 0.19 0.11 0.04 0.04 0.00 0.00 0.00 0.00 0.00 0.00 0.00 0.00 0.00 0.00 0.00 0.00 0.00 0.00 0.00
0.07 0.14 0.21 0.38 0.45 0.27 0.34 0.19 0.28 0.70 0.59 0.44 0.77 0.89 0.57 0.32 0.27 0.17 0.31 0.49 0.20 0.40 0.44 0.31 0.36 0.35 0.26 0.15 0.05 0.02 0.00 0.00 0.00 0.00 0.00 0.00 0.00 0.00 0.00 0.00 0.00 0.00 0.00 0.00 0.00
0.11 0.15 0.25 0.30 0.36 0.18 0.08 0.25 0.62 0.74 0.71 0.71 0.70 0.93 0.42 0.13 0.09 0.17 0.36 0.26 0.20 0.32 0.29 0.20 0.47 0.23 0.28 0.22 0.10 0.01 0.00 0.00 0.00 0.00 0.00 0.00 0.00 0.00 0.00 0.00 0.00 0.00 0.00 0.00 0.00
0.07 0.10 0.32 0.21 0.33 0.05 0.08 0.27 0.57 0.50 0.72 0.58 0.66 0.60 0.10 0.09 0.10 0.19 0.39 0.16 0.17 0.22 0.38 0.36 0.33 0.21 0.26 0.23 0.12 0.00 0.00 0.01 0.00 0.01 0.00 0.00 0.00 0.00 0.00 0.00 0.00 0.00 0.00 0.00 0.00
0.06 0.09 0.13 0.15 0.06 0.02 0.03 0.16 0.44 0.53 0.74 0.44 0.55 0.20 0.11 0.11 0.12 0.11 0.24 0.02 0.00 0.03 0.16 0.22 0.22 0.20 0.35 0.15 0.09 0.01 0.01 0.01 0.00 0.00 0.00 0.00 0.00 0.00 0.00 0.00 0.00 0.00 0.00 0.00 0.00
0.11 0.04 0.17 0.23 0.08 0.03 0.05 0.14 0.72 0.87 0.77 0.66 0.36 0.19 0.20 0.05 0.08 0.19 0.12 0.00 0.00 0.01 0.04 0.07 0.05 0.08 0.16 0.11 0.06 0.02 0.00 0.00 0.00 0.00 0.00 0.00 0.00 0.00 0.00 0.00 0.00 0.00 0.00 0.00 0.00
0.07 0.05 0.20 0.21 0.05 0.04 0.16 0.33 0.76 0.78 0.33 0.13 0.25 0.13 0.06 0.04 0.04 0.07 0.03 0.00 0.00 0.00 0.00 0.00 0.02 0.01 0.02 0.02 0.03 0.00 0.00 0.00 0.01 0.00 0.00 0.00 0.00 0.00 0.00 0.00 0.00 0.00 0.00 0.00 0.00
0.01 0.04 0.12 0.10 0.02 0.06 0.10 0.29 0.54 0.38 0.17 0.02 0.00 0.00 0.00 0.01 0.00 0.00 0.00 0.00 0.00 0.00 0.00 0.00 0.00 0.01 0.00 0.00 0.00 0.00 0.00 0.00 0.00 0.00 0.00 0.00 0.00 0.00 0.00 0.00 0.00 0.00 0.00 0.00 0.01
0.02 0.03 0.05 0.05 0.06 0.07 0.09 0.22 0.54 0.35 0.03 0.00 0.00 0.00 0.00 0.00 0.00 0.00 0.00 0.00 0.00 0.00 0.00 0.00 0.00 0.01 0.00 0.00 0.00 0.00 0.00 0.00 0.01 0.00 0.01 0.02 0.01 0.00 0.00 0.00 0.00 0.00 0.00 0.00 0.00
0.02 0.02 0.06 0.12 0.07 0.06 0.15 0.18 0.19 0.05 0.02 0.01 0.00 0.00 0.00 0.00 0.00 0.00 0.00 0.00 0.00 0.00 0.00 0.00 0.00 0.00 0.00 0.00 0.00 0.00 0.00 0.00 0.02 0.09 0.05 0.02 0.01 0.00 0.00 0.00 0.00 0.00 0.00 0.00 0.00
0.01 0.01 0.01 0.01 0.06 0.23 0.39 0.41 0.25 0.04 0.01 0.00 0.00 0.00 0.00 0.00 0.00 0.00 0.00 0.00 0.00 0.00 0.00 0.00 0.00 0.00 0.00 0.00 0.00 0.00 0.00 0.00 0.06 0.16 0.04 0.01 0.00 0.00 0.00 0.00 0.00 0.00 0.00 0.00 0.00
0.02 0.01 0.00 0.00 0.06 0.14 0.12 0.06 0.03 0.02 0.00 0.00 0.00 0.00 0.00 0.00 0.00 0.00 0.00 0.00 0.00 0.00 0.00 0.00 0.00 0.00 0.00 0.00 0.00 0.00 0.00 0.00 0.07 0.05 0.17 0.05 0.00 0.00 0.00 0.01 0.03 0.03 0.01 0.01 0.01
0.00 0.03 0.01 0.00 0.01 0.02 0.05 0.05 0.02 0.00 0.00 0.00 0.00 0.00 0.00 0.00 0.00 0.00 0.00 0.00 0.00 0.00 0.00 0.00 0.00 0.00 0.00 0.00 0.00 0.00 0.00 0.00 0.00 0.00 0.01 0.00 0.01 0.00 0.00 0.04 0.09 0.05 0.04 0.06 0.04
0.00 0.00 0.03 0.00 0.00 0.00 0.01 0.00 0.01 0.00 0.00 0.00 0.00 0.00 0.00 0.00 0.00 0.00 0.00 0.00 0.00 0.00 0.00 0.00 0.00 0.00 0.00 0.00 0.00 0.00 0.00 0.00 0.00 0.02 0.03 0.04 0.00 0.00 0.01 0.04 0.07 0.08 0.08 0.06 0.02

GFSSW_prec_precacc24_060.txt.gz
Total_Precipitation_Accumulation
0.06 0.04 0.05 0.07 0.06 0.06 0.05 0.09 0.10 0.12 0.13 0.12 0.15 0.18 0.16 0.12 0.07 0.05 0.04 0.02 0.00 0.01 0.01 0.00 0.01 0.03 0.01 0.00 0.00 0.00 0.00 0.00 0.00 0.00 0.00 0.00 0.00 0.00 0.00 0.00 0.00 0.00 0.00 0.00 0.00
0.05 0.06 0.08 0.07 0.07 0.08 0.07 0.08 0.09 0.09 0.11 0.11 0.11 0.16 0.21 0.19 0.08 0.02 0.00 0.00 0.00 0.02 0.02 0.00 0.01 0.05 0.01 0.00 0.00 0.00 0.00 0.00 0.00 0.00 0.00 0.00 0.00 0.00 0.00 0.00 0.00 0.00 0.00 0.00 0.00
0.06 0.07 0.08 0.09 0.09 0.07 0.07 0.06 0.07 0.10 0.10 0.15 0.18 0.16 0.20 0.24 0.11 0.01 0.00 0.00 0.02 0.05 0.02 0.01 0.01 0.06 0.02 0.00 0.00 0.00 0.00 0.00 0.00 0.00 0.00 0.00 0.00 0.00 0.00 0.00 0.00 0.00 0.00 0.00 0.00
0.09 0.11 0.12 0.09 0.07 0.09 0.08 0.06 0.06 0.12 0.16 0.15 0.21 0.38 0.40 0.21 0.15 0.05 0.02 0.00 0.03 0.09 0.06 0.05 0.02 0.06 0.02 0.00 0.00 0.00 0.00 0.00 0.00 0.00 0.00 0.00 0.00 0.00 0.00 0.00 0.00 0.00 0.00 0.00 0.00
0.14 0.16 0.12 0.10 0.11 0.13 0.12 0.08 0.10 0.10 0.16 0.14 0.25 0.38 0.49 0.32 0.06 0.10 0.09 0.08 0.17 0.26 0.07 0.05 0.01 0.03 0.01 0.00 0.00 0.00 0.00 0.00 0.00 0.00 0.00 0.00 0.00 0.00 0.00 0.00 0.00 0.00 0.00 0.00 0.00
0.17 0.16 0.14 0.17 0.16 0.16 0.13 0.14 0.11 0.09 0.20 0.30 0.36 0.56 0.41 0.16 0.02 0.03 0.11 0.14 0.22 0.23 0.08 0.08 0.01 0.01 0.01 0.01 0.00 0.00 0.00 0.00 0.00 0.00 0.00 0.00 0.00 0.00 0.00 0.00 0.00 0.00 0.00 0.00 0.00
0.20 0.16 0.16 0.20 0.22 0.19 0.14 0.18 0.13 0.07 0.14 0.24 0.43 0.42 0.35 0.10 0.01 0.04 0.10 0.19 0.25 0.25 0.07 0.09 0.03 0.02 0.02 0.03 0.00 0.00 0.00 0.00 0.00 0.00 0.00 0.00 0.00 0.00 0.00 0.00 0.00 0.00 0.00 0.00 0.00
0.22 0.18 0.18 0.25 0.22 0.19 0.11 0.08 0.05 0.14 0.12 0.23 0.47 0.62 0.20 0.02 0.04 0.01 0.09 0.24 0.31 0.47 0.31 0.34 0.10 0.02 0.02 0.02 0.01 0.00 0.00 0.00 0.00 0.00 0.00 0.00 0.00 0.00 0.00 0.00 0.00 0.00 0.00 0.00 0.00
0.25 0.18 0.20 0.27 0.24 0.10 0.04 0.01 0.05 0.12 0.05 0.42 0.63 0.50 0.16 0.06 0.07 0.02 0.11 0.33 0.32 0.45 0.55 0.81 0.64 0.22 0.05 0.03 0.03 0.01 0.00 0.00 0.00 0.00 0.00 0.00 0.00 0.00 0.00 0.00 0.00 0.00 0.00 0.00 0.00
0.22 0.18 0.21 0.19 0.15 0.08 0.07 0.01 0.00 0.00 0.08 0.70 0.90 0.59 0.15 0.05 0.12 0.08 0.11 0.38 0.40 0.48 0.84 0.88 0.93 0.52 0.15 0.05 0.02 0.00 0.00 0.00 0.00 0.00 0.00 0.00 0.00 0.00 0.00 0.00 0.00 0.00 0.00 0.00 0.00
0.19 0.19 0.12 0.12 0.16 0.13 0.13 0.02 0.04 0.12 0.21 0.50 0.40 0.23 0.21 0.18 0.32 0.25 0.15 0.47 0.79 0.72 0.78 0.63 0.78 0.33 0.10 0.01 0.00 0.00 0.00 0.00 0.00 0.00 0.00 0.00 0.00 0.00 0.00 0.00 0.00 0.00 0.00 0.00 0.00
0.14 0.10 0.12 0.17 0.16 0.15 0.09 0.01 0.02 0.07 0.18 0.21 0.21 0.12 0.11 0.27 0.52 0.47 0.21 0.84 0.94 0.60 0.84 0.93 0.40 0.21 0.10 0.04 0.01 0.00 0.00 0.00 0.00 0.00 0.00 0.00 0.00 0.00 0.00 0.00 0.00 0.00 0.00 0.00 0.00
0.11 0.09 0.14 0.20 0.11 0.03 0.03 0.01 0.01 0.07 0.25 0.26 0.40 0.30 0.25 0.41 0.55 0.44 0.16 0.75 0.67 0.50 0.64 0.75 0.35 0.21 0.19 0.07 0.05 0.01 0.00 0.00 0.00 0.00 0.00 0.00 0.00 0.00 0.00 0.00 0.00 0.00 0.00 0.00 0.00
0.08 0.09 0.16 0.18 0.10 0.09 0.13 0.13 0.03 0.15 0.30 0.29 0.59 0.63 0.55 0.64 0.72 0.28 0.19 0.74 0.54 0.49 0.57 0.62 0.38 0.38 0.29 0.13 0.04 0.04 0.00 0.00 0.00 0.00 0.00 0.00 0.00 0.00 0.00 0.00 0.00 0.00 0.00 0.00 0.00
0.07 0.12 0.16 0.24 0.31 0.25 0.25 0.12 0.06 0.24 0.41 0.38 0.78 0.93 0.72 0.66 0.44 0.25 0.34 0.61 0.27 0.41 0.45 0.33 0.38 0.42 0.46 0.20 0.06 0.02 0.00 0.00 0.00 0.00 0.00 0.00 0.00 0.00 0.00 0.00 0.00 0.00 0.00 0.00 0.00
0.10 0.12 0.19 0.23 0.30 0.17 0.04 0.11 0.14 0.38 0.61 0.82 0.94 1.14 0.66 0.30 0.16 0.24 0.48 0.34 0.22 0.32 0.29 0.20 0.47 0.29 0.42 0.33 0.12 0.02 0.00 0.00 0.00 0.00 0.00 0.00 0.00 0.00 0.00 0.00 0.00 0.00 0.00 0.00 0.00
0.07 0.09 0.30 0.17 0.31 0.05 0.02 0.07 0.14 0.30 0.64 0.69 0.85 0.83 0.30 0.25 0.22 0.43 0.57 0.20 0.17 0.27 0.44 0.38 0.36 0.27 0.39 0.28 0.13 0.01 0.01 0.02 0.01 0.00 0.00 0.00 0.00 0.00 0.00 0.00 0.00 0.00 0.00 0.00 0.00
0.04 0.09 0.06 0.11 0.03 0.01 0.00 0.02 0.18 0.43 0.71 0.45 0.56 0.22 0.16 0.19 0.28 0.31 0.38 0.05 0.03 0.06 0.27 0.32 0.31 0.33 0.52 0.17 0.09 0.01 0.01 0.02 0.00 0.00 0.00 0.00 0.00 0.00 0.00 0.00 0.00 0.00 0.00 0.00 0.00
0.06 0.02 0.12 0.12 0.03 0.02 0.03 0.10 0.47 0.78 0.77 0.65 0.35 0.19 0.21 0.05 0.08 0.22 0.16 0.01 0.02 0.05 0.12 0.12 0.11 0.18 0.30 0.14 0.09 0.04 0.01 0.00 0.00 0.00 0.00 0.00 0.00 0.00 0.00 0.00 0.00 0.00 0.00 0.00 0.00
0.02 0.04 0.14 0.10 0.03 0.04 0.15 0.31 0.58 0.73 0.33 0.12 0.24 0.12 0.06 0.04 0.04 0.07 0.03 0.00 0.00 0.00 0.00 0.01 0.07 0.11 0.10 0.14 0.11 0.02 0.00 0.00 0.00 0.00 0.00 0.00 0.00 0.00 0.00 0.00 0.00 0.00 0.00 0.00 0.00
0.00 0.02 0.05 0.04 0.00 0.03 0.08 0.29 0.48 0.33 0.17 0.02 0.00 0.00 0.00 0.00 0.00 0.00 0.00 0.00 0.00 0.00 0.00 0.00 0.01 0.04 0.03 0.07 0.10 0.03 0.01 0.00 0.00 0.00 0.00 0.00 0.00 0.00 0.00 0.00 0.00 0.00 0.00 0.00 0.00
0.00 0.00 0.01 0.01 0.01 0.01 0.07 0.20 0.47 0.28 0.03 0.00 0.00 0.00 0.00 0.00 0.00 0.00 0.00 0.00 0.00 0.00 0.00 0.00 0.00 0.01 0.01 0.00 0.00 0.01 0.00 0.00 0.00 0.00 0.00 0.00 0.00 0.00 0.00 0.00 0.00 0.00 0.00 0.00 0.00
0.00 0.00 0.01 0.05 0.03 0.02 0.04 0.11 0.15 0.04 0.02 0.01 0.00 0.00 0.00 0.00 0.00 0.00 0.00 0.00 0.00 0.00 0.00 0.00 0.00 0.00 0.00 0.00 0.00 0.00 0.00 0.00 0.00 0.02 0.01 0.00 0.00 0.00 0.00 0.00 0.00 0.00 0.00 0.00 0.00
0.00 0.00 0.00 0.01 0.03 0.17 0.27 0.37 0.24 0.04 0.01 0.00 0.00 0.00 0.00 0.00 0.00 0.00 0.00 0.00 0.00 0.00 0.00 0.00 0.00 0.00 0.00 0.00 0.00 0.00 0.00 0.00 0.00 0.05 0.01 0.00 0.00 0.00 0.00 0.00 0.00 0.00 0.00 0.00 0.00
0.00 0.00 0.00 0.00 0.04 0.08 0.06 0.03 0.02 0.01 0.00 0.00 0.00 0.00 0.00 0.00 0.00 0.00 0.00 0.00 0.00 0.00 0.00 0.00 0.00 0.00 0.00 0.00 0.00 0.00 0.00 0.00 0.01 0.01 0.07 0.02 0.00 0.00 0.00 0.01 0.03 0.03 0.01 0.01 0.01
0.00 0.02 0.01 0.00 0.00 0.01 0.03 0.03 0.01 0.00 0.00 0.00 0.00 0.00 0.00 0.00 0.00 0.00 0.00 0.00 0.00 0.00 0.00 0.00 0.00 0.00 0.00 0.00 0.00 0.00 0.00 0.00 0.00 0.00 0.00 0.00 0.00 0.00 0.00 0.03 0.08 0.05 0.04 0.06 0.04
0.00 0.01 0.02 0.00 0.00 0.00 0.01 0.00 0.01 0.00 0.00 0.00 0.00 0.00 0.00 0.00 0.00 0.00 0.00 0.00 0.00 0.00 0.00 0.00 0.00 0.00 0.00 0.00 0.00 0.00 0.00 0.00 0.00 0.00 0.01 0.01 0.00 0.00 0.01 0.02 0.03 0.05 0.07 0.06 0.02

GFSSW_prec_precacc24_063.txt.gz
Total_Precipitation_Accumulation
0.07 0.06 0.06 0.09 0.09 0.07 0.06 0.06 0.07 0.12 0.13 0.12 0.15 0.18 0.17 0.15 0.08 0.04 0.03 0.02 0.00 0.02 0.01 0.00 0.01 0.04 0.02 0.01 0.00 0.02 0.27 0.07 0.00 0.00 0.00 0.00 0.00 0.00 0.00 0.00 0.00 0.00 0.00 0.00 0.01
0.06 0.07 0.10 0.10 0.09 0.09 0.09 0.08 0.06 0.06 0.10 0.11 0.12 0.16 0.22 0.21 0.09 0.02 0.00 0.00 0.00 0.06 0.03 0.00 0.01 0.05 0.04 0.02 0.01 0.00 0.05 0.08 0.00 0.00 0.00 0.00 0.00 0.00 0.00 0.00 0.00 0.00 0.00 0.00 0.00
0.07 0.09 0.11 0.12 0.12 0.09 0.08 0.07 0.06 0.06 0.08 0.15 0.18 0.17 0.21 0.25 0.12 0.01 0.00 0.00 0.03 0.14 0.07 0.02 0.01 0.07 0.06 0.02 0.01 0.00 0.00 0.00 0.00 0.01 0.00 0.00 0.00 0.00 0.00 0.00 0.00 0.00 0.00 0.00 0.00
0.10 0.13 0.14 0.13 0.11 0.12 0.12 0.08 0.06 0.10 0.10 0.13 0.22 0.41 0.46 0.25 0.16 0.05 0.02 0.00 0.01 0.12 0.14 0.07 0.02 0.07 0.03 0.00 0.00 0.00 0.00 0.00 0.00 0.01 0.00 0.00 0.00 0.00 0.00 0.00 0.00 0.00 0.00 0.00 0.00
0.14 0.16 0.14 0.14 0.15 0.18 0.19 0.12 0.12 0.11 0.10 0.11 0.29 0.48 0.56 0.35 0.07 0.10 0.09 0.06 0.13 0.33 0.10 0.05 0.01 0.03 0.01 0.00 0.00 0.00 0.00 0.00 0.00 0.00 0.00 0.00 0.00 0.00 0.00 0.00 0.00 0.00 0.00 0.00 0.00
0.17 0.16 0.14 0.18 0.19 0.22 0.19 0.17 0.12 0.12 0.19 0.30 0.37 0.56 0.42 0.16 0.02 0.03 0.11 0.15 0.25 0.39 0.18 0.06 0.01 0.01 0.01 0.01 0.00 0.00 0.00 0.00 0.00 0.00 0.00 0.00 0.00 0.00 0.00 0.00 0.00 0.00 0.00 0.00 0.00
0.19 0.17 0.17 0.21 0.25 0.22 0.20 0.20 0.14 0.09 0.14 0.11 0.39 0.42 0.35 0.10 0.03 0.07 0.11 0.20 0.29 0.35 0.14 0.05 0.01 0.02 0.02 0.03 0.00 0.00 0.00 0.00 0.00 0.00 0.00 0.00 0.00 0.00 0.00 0.00 0.00 0.00 0.00 0.00 0.00
0.21 0.17 0.18 0.24 0.23 0.21 0.13 0.07 0.05 0.14 0.07 0.09 0.44 0.62 0.20 0.02 0.04 0.02 0.10 0.25 0.34 0.52 0.40 0.31 0.08 0.02 0.03 0.03 0.02 0.01 0.00 0.00 0.00 0.00 0.00 0.00 0.00 0.00 0.00 0.00 0.00 0.00 0.00 0.00 0.00
0.21 0.17 0.20 0.25 0.22 0.09 0.04 0.01 0.05 0.11 0.02 0.13 0.52 0.51 0.16 0.06 0.07 0.02 0.11 0.33 0.34 0.51 0.63 0.78 0.59 0.22 0.06 0.05 0.06 0.05 0.00 0.00 0.00 0.00 0.00 0.00 0.00 0.00 0.00 0.00 0.00 0.00 0.00 0.00 0.00
0.18 0.16 0.19 0.17 0.13 0.06 0.04 0.00 0.00 0.00 0.03 0.23 0.74 0.60 0.16 0.06 0.12 0.08 0.11 0.38 0.41 0.61 0.96 0.95 0.95 0.53 0.16 0.08 0.03 0.01 0.00 0.00 0.00 0.00 0.00 0.00 0.00 0.00 0.00 0.00 0.00 0.00 0.00 0.00 0.00
0.16 0.15 0.11 0.12 0.14 0.10 0.10 0.01 0.04 0.12 0.10 0.20 0.30 0.23 0.22 0.18 0.32 0.26 0.16 0.48 0.84 1.02 1.04 0.63 0.80 0.34 0.10 0.01 0.00 0.00 0.00 0.00 0.00 0.00 0.00 0.00 0.00 0.00 0.00 0.00 0.00 0.00 0.00 0.00 0.00
0.13 0.09 0.12 0.15 0.14 0.14 0.07 0.01 0.01 0.03 0.02 0.09 0.16 0.12 0.11 0.27 0.52 0.49 0.25 0.91 1.01 0.90 1.10 0.97 0.40 0.21 0.10 0.04 0.01 0.00 0.00 0.00 0.00 0.00 0.00 0.00 0.00 0.00 0.00 0.00 0.00 0.00 0.00 0.00 0.00
0.11 0.09 0.14 0.18 0.10 0.02 0.03 0.01 0.01 0.01 0.05 0.08 0.30 0.29 0.25 0.41 0.55 0.45 0.39 0.96 0.95 0.71 0.77 0.76 0.35 0.21 0.19 0.07 0.05 0.01 0.00 0.00 0.00 0.00 0.00 0.00 0.00 0.00 0.00 0.00 0.00 0.00 0.00 0.00 0.00
0.08 0.09 0.13 0.14 0.07 0.05 0.11 0.10 0.02 0.02 0.13 0.17 0.49 0.64 0.56 0.64 0.73 0.41 0.49 1.10 1.07 0.62 0.61 0.63 0.39 0.38 0.30 0.13 0.04 0.04 0.00 0.00 0.00 0.00 0.00 0.00 0.00 0.00 0.00 0.00 0.00 0.00 0.00 0.00 0.00
0.06 0.11 0.14 0.19 0.19 0.22 0.19 0.06 0.02 0.05 0.31 0.30 0.69 0.93 0.76 0.75 0.52 0.64 0.53 1.00 0.58 0.50 0.46 0.34 0.39 0.43 0.47 0.20 0.07 0.03 0.00 0.00 0.00 0.00 0.00 0.00 0.00 0.00 0.00 0.00 0.00 0.00 0.00 0.00 0.00
0.09 0.11 0.16 0.21 0.27 0.16 0.04 0.06 0.03 0.16 0.59 0.84 0.94 1.22 0.78 0.38 0.30 0.31 0.55 0.60 0.29 0.35 0.30 0.24 0.50 0.29 0.44 0.37 0.13 0.03 0.00 0.00 0.00 0.00 0.00 0.00 0.00 0.00 0.00 0.00 0.00 0.00 0.00 0.00 0.00
0.06 0.07 0.26 0.13 0.29 0.04 0.02 0.06 0.03 0.16 0.48 0.77 1.10 0.91 0.31 0.25 0.23 0.44 0.62 0.25 0.18 0.27 0.45 0.42 0.39 0.28 0.43 0.48 0.16 0.02 0.01 0.02 0.02 0.01 0.00 0.00 0.00 0.00 0.00 0.00 0.00 0.00 0.00 0.00 0.00
0.03 0.06 0.04 0.07 0.02 0.00 0.00 0.01 0.11 0.34 0.59 0.42 0.57 0.24 0.19 0.26 0.41 0.39 0.42 0.06 0.03 0.06 0.27 0.33 0.32 0.35 0.59 0.37 0.16 0.03 0.01 0.02 0.00 0.00 0.00 0.00 0.00 0.00 0.00 0.00 0.00 0.00 0.00 0.00 0.00
0.01 0.01 0.02 0.02 0.00 0.01 0.02 0.08 0.29 0.59 0.73 0.62 0.33 0.16 0.22 0.07 0.17 0.28 0.18 0.02 0.03 0.07 0.15 0.13 0.12 0.19 0.35 0.29 0.12 0.06 0.01 0.00 0.00 0.00 0.00 0.00 0.00 0.00 0.00 0.00 0.00 0.00 0.00 0.00 0.00
0.00 0.03 0.02 0.03 0.01 0.03 0.11 0.27 0.43 0.54 0.31 0.12 0.21 0.10 0.05 0.03 0.04 0.07 0.03 0.00 0.00 0.02 0.01 0.01 0.08 0.14 0.13 0.25 0.15 0.02 0.00 0.00 0.00 0.00 0.00 0.00 0.00 0.00 0.00 0.00 0.00 0.00 0.00 0.00 0.00
0.00 0.01 0.01 0.00 0.00 0.01 0.07 0.26 0.31 0.22 0.14 0.01 0.00 0.00 0.00 0.00 0.00 0.00 0.00 0.00 0.00 0.00 0.00 0.00 0.02 0.09 0.06 0.17 0.15 0.04 0.01 0.00 0.00 0.00 0.00 0.00 0.00 0.00 0.00 0.00 0.00 0.00 0.00 0.00 0.00
0.00 0.00 0.00 0.00 0.00 0.00 0.06 0.18 0.28 0.16 0.01 0.00 0.00 0.00 0.00 0.00 0.00 0.00 0.00 0.00 0.00 0.00 0.00 0.00 0.00 0.02 0.04 0.00 0.01 0.02 0.00 0.00 0.00 0.00 0.00 0.00 0.00 0.00 0.00 0.00 0.00 0.00 0.00 0.00 0.00
0.00 0.00 0.00 0.00 0.01 0.01 0.04 0.06 0.06 0.01 0.01 0.00 0.00 0.00 0.00 0.00 0.00 0.00 0.00 0.00 0.00 0.00 0.00 0.00 0.00 0.00 0.01 0.00 0.00 0.00 0.00 0.00 0.00 0.00 0.00 0.00 0.00 0.00 0.00 0.00 0.00 0.00 0.00 0.00 0.00
0.00 0.00 0.00 0.00 0.01 0.05 0.19 0.23 0.09 0.01 0.00 0.00 0.00 0.00 0.00 0.00 0.00 0.00 0.00 0.00 0.00 0.00 0.00 0.00 0.00 0.00 0.00 0.00 0.00 0.00 0.00 0.00 0.00 0.01 0.00 0.00 0.00 0.00 0.00 0.00 0.00 0.00 0.00 0.00 0.00
0.00 0.00 0.00 0.00 0.00 0.00 0.02 0.01 0.00 0.00 0.00 0.00 0.00 0.00 0.00 0.00 0.00 0.00 0.00 0.00 0.00 0.00 0.00 0.00 0.00 0.00 0.00 0.00 0.00 0.00 0.00 0.00 0.00 0.00 0.01 0.00 0.00 0.00 0.00 0.00 0.02 0.01 0.01 0.01 0.01
0.00 0.02 0.01 0.00 0.00 0.00 0.00 0.00 0.00 0.00 0.00 0.00 0.00 0.00 0.00 0.00 0.00 0.00 0.00 0.00 0.00 0.00 0.00 0.00 0.00 0.00 0.00 0.00 0.00 0.00 0.00 0.00 0.00 0.00 0.00 0.00 0.00 0.00 0.00 0.01 0.01 0.01 0.01 0.04 0.04
0.00 0.01 0.02 0.00 0.00 0.00 0.01 0.01 0.00 0.00 0.00 0.00 0.00 0.00 0.00 0.00 0.00 0.00 0.00 0.00 0.00 0.00 0.00 0.00 0.00 0.00 0.00 0.00 0.00 0.00 0.00 0.00 0.00 0.00 0.00 0.00 0.00 0.00 0.00 0.02 0.01 0.01 0.01 0.01 0.02

GFSSW_prec_precacc24_066.txt.gz
Total_Precipitation_Accumulation
0.08 0.07 0.07 0.10 0.11 0.10 0.07 0.07 0.07 0.08 0.08 0.11 0.16 0.19 0.19 0.16 0.09 0.04 0.03 0.02 0.00 0.02 0.02 0.00 0.01 0.04 0.03 0.01 0.01 0.08 0.42 0.13 0.01 0.00 0.00 0.00 0.00 0.00 0.00 0.00 0.00 0.00 0.00 0.00 0.01
0.06 0.09 0.11 0.12 0.12 0.11 0.11 0.13 0.07 0.05 0.04 0.06 0.11 0.16 0.22 0.22 0.08 0.02 0.00 0.00 0.00 0.07 0.05 0.00 0.01 0.06 0.06 0.04 0.02 0.05 0.22 0.16 0.00 0.00 0.02 0.02 0.00 0.00 0.00 0.00 0.00 0.00 0.00 0.00 0.02
0.08 0.10 0.12 0.14 0.16 0.11 0.15 0.18 0.11 0.07 0.06 0.05 0.14 0.17 0.22 0.27 0.12 0.01 0.00 0.00 0.03 0.15 0.15 0.02 0.01 0.08 0.10 0.06 0.02 0.00 0.02 0.00 0.00 0.01 0.06 0.03 0.00 0.00 0.00 0.00 0.00 0.00 0.00 0.00 0.01
0.10 0.12 0.14 0.14 0.14 0.15 0.19 0.16 0.14 0.11 0.10 0.07 0.13 0.43 0.50 0.26 0.16 0.05 0.02 0.00 0.01 0.11 0.22 0.11 0.02 0.08 0.04 0.01 0.00 0.00 0.00 0.00 0.00 0.08 0.09 0.03 0.00 0.00 0.00 0.00 0.00 0.00 0.00 0.00 0.00
0.12 0.14 0.13 0.14 0.15 0.20 0.20 0.22 0.21 0.14 0.10 0.12 0.13 0.44 0.56 0.35 0.07 0.10 0.09 0.05 0.10 0.30 0.13 0.08 0.02 0.04 0.01 0.00 0.00 0.00 0.00 0.00 0.00 0.01 0.02 0.01 0.02 0.00 0.00 0.00 0.00 0.00 0.00 0.00 0.00
0.14 0.14 0.13 0.17 0.19 0.22 0.19 0.24 0.19 0.14 0.20 0.30 0.27 0.48 0.41 0.16 0.02 0.03 0.11 0.12 0.20 0.37 0.21 0.09 0.01 0.01 0.02 0.01 0.00 0.00 0.00 0.00 0.01 0.00 0.00 0.02 0.01 0.00 0.00 0.00 0.00 0.00 0.00 0.00 0.00
0.17 0.14 0.15 0.18 0.23 0.22 0.20 0.22 0.13 0.09 0.14 0.09 0.20 0.34 0.34 0.10 0.04 0.08 0.10 0.19 0.28 0.36 0.17 0.11 0.03 0.03 0.02 0.04 0.01 0.00 0.02 0.02 0.00 0.00 0.00 0.00 0.00 0.00 0.00 0.00 0.00 0.00 0.00 0.00 0.00
0.18 0.15 0.18 0.21 0.19 0.20 0.13 0.07 0.05 0.14 0.07 0.08 0.18 0.46 0.19 0.02 0.04 0.02 0.10 0.25 0.36 0.55 0.43 0.33 0.13 0.03 0.05 0.04 0.05 0.05 0.01 0.02 0.00 0.00 0.00 0.00 0.00 0.00 0.00 0.00 0.00 0.00 0.00 0.00 0.00
0.18 0.16 0.19 0.20 0.17 0.08 0.04 0.01 0.05 0.11 0.02 0.11 0.17 0.39 0.16 0.06 0.07 0.02 0.11 0.33 0.35 0.53 0.69 0.77 0.61 0.19 0.06 0.07 0.10 0.10 0.01 0.00 0.00 0.00 0.00 0.00 0.00 0.00 0.00 0.00 0.00 0.00 0.00 0.00 0.00
0.16 0.17 0.16 0.14 0.11 0.04 0.04 0.00 0.00 0.00 0.02 0.15 0.30 0.45 0.16 0.06 0.12 0.08 0.12 0.39 0.44 0.65 1.13 1.00 0.90 0.39 0.14 0.08 0.04 0.01 0.00 0.00 0.00 0.00 0.00 0.00 0.00 0.00 0.00 0.00 0.00 0.00 0.00 0.00 0.00
0.14 0.14 0.11 0.11 0.12 0.09 0.09 0.01 0.04 0.11 0.09 0.10 0.09 0.16 0.22 0.18 0.32 0.27 0.17 0.48 0.88 1.07 1.41 0.79 0.81 0.30 0.05 0.00 0.00 0.00 0.00 0.00 0.00 0.00 0.00 0.00 0.00 0.00 0.00 0.00 0.00 0.00 0.00 0.00 0.00
0.12 0.09 0.12 0.14 0.11 0.13 0.06 0.01 0.01 0.02 0.02 0.02 0.03 0.08 0.11 0.27 0.52 0.50 0.26 0.91 1.11 1.03 1.44 1.08 0.39 0.21 0.09 0.03 0.01 0.00 0.00 0.00 0.00 0.00 0.00 0.00 0.00 0.00 0.00 0.00 0.00 0.00 0.00 0.00 0.00
0.10 0.09 0.13 0.16 0.06 0.02 0.00 0.00 0.01 0.01 0.06 0.09 0.11 0.22 0.24 0.41 0.55 0.47 0.40 0.96 1.05 0.85 1.07 0.78 0.35 0.21 0.19 0.07 0.05 0.01 0.00 0.00 0.00 0.00 0.00 0.00 0.00 0.00 0.00 0.00 0.00 0.00 0.00 0.00 0.00
0.08 0.08 0.12 0.11 0.04 0.04 0.08 0.08 0.02 0.00 0.12 0.28 0.33 0.58 0.56 0.64 0.74 0.42 0.49 1.10 1.13 0.79 0.82 0.67 0.39 0.38 0.30 0.13 0.04 0.04 0.00 0.00 0.00 0.00 0.00 0.00 0.00 0.00 0.00 0.00 0.00 0.00 0.00 0.00 0.00
0.06 0.11 0.14 0.14 0.13 0.19 0.14 0.03 0.01 0.02 0.30 0.29 0.57 0.87 0.78 0.81 0.57 0.75 0.58 1.02 0.62 0.74 0.68 0.40 0.39 0.43 0.47 0.20 0.07 0.03 0.00 0.00 0.00 0.00 0.00 0.00 0.00 0.00 0.00 0.00 0.00 0.00 0.00 0.00 0.00
0.09 0.11 0.12 0.16 0.25 0.14 0.02 0.02 0.01 0.09 0.56 0.76 0.80 1.17 0.80 0.49 0.53 0.51 0.68 0.84 0.39 0.55 0.33 0.25 0.50 0.30 0.44 0.37 0.13 0.03 0.00 0.00 0.00 0.00 0.00 0.00 0.00 0.00 0.00 0.00 0.00 0.00 0.00 0.00 0.00
0.05 0.05 0.17 0.06 0.22 0.03 0.02 0.03 0.01 0.07 0.25 0.69 1.06 0.91 0.35 0.35 0.31 0.58 0.90 0.54 0.25 0.40 0.49 0.43 0.39 0.28 0.43 0.49 0.16 0.02 0.01 0.02 0.03 0.02 0.00 0.00 0.00 0.00 0.00 0.00 0.00 0.00 0.00 0.00 0.00
0.01 0.01 0.01 0.01 0.01 0.00 0.00 0.01 0.07 0.17 0.40 0.35 0.58 0.26 0.21 0.28 0.43 0.46 0.51 0.10 0.03 0.06 0.27 0.35 0.35 0.37 0.59 0.37 0.16 0.03 0.01 0.02 0.01 0.00 0.00 0.00 0.00 0.00 0.00 0.00 0.00 0.00 0.00 0.00 0.00
0.00 0.00 0.00 0.00 0.00 0.00 0.01 0.06 0.17 0.33 0.57 0.59 0.30 0.15 0.26 0.12 0.20 0.30 0.18 0.02 0.03 0.07 0.15 0.13 0.13 0.20 0.36 0.31 0.16 0.07 0.01 0.00 0.00 0.00 0.00 0.00 0.00 0.00 0.00 0.00 0.00 0.00 0.00 0.00 0.00
0.00 0.00 0.00 0.00 0.00 0.01 0.05 0.18 0.35 0.36 0.25 0.11 0.16 0.08 0.04 0.04 0.05 0.07 0.03 0.00 0.00 0.02 0.01 0.01 0.08 0.14 0.14 0.30 0.22 0.03 0.00 0.00 0.00 0.00 0.00 0.00 0.00 0.00 0.00 0.00 0.00 0.00 0.00 0.00 0.00
0.00 0.00 0.00 0.00 0.00 0.00 0.04 0.17 0.22 0.15 0.04 0.00 0.00 0.00 0.00 0.00 0.00 0.00 0.00 0.00 0.00 0.00 0.00 0.00 0.02 0.10 0.07 0.20 0.20 0.06 0.01 0.00 0.00 0.00 0.00 0.00 0.00 0.00 0.00 0.00 0.00 0.00 0.00 0.00 0.00
0.00 0.00 0.00 0.00 0.00 0.00 0.03 0.08 0.10 0.02 0.00 0.00 0.00 0.00 0.00 0.00 0.00 0.00 0.00 0.00 0.00 0.00 0.00 0.00 0.00 0.04 0.05 0.00 0.01 0.02 0.00 0.00 0.00 0.00 0.00 0.00 0.00 0.00 0.00 0.00 0.00 0.00 0.00 0.00 0.00
0.00 0.00 0.00 0.00 0.00 0.01 0.01 0.01 0.00 0.00 0.00 0.00 0.00 0.00 0.00 0.00 0.00 0.00 0.00 0.00 0.00 0.00 0.00 0.00 0.00 0.01 0.03 0.01 0.00 0.02 0.00 0.00 0.00 0.00 0.00 0.00 0.00 0.00 0.00 0.00 0.00 0.00 0.00 0.00 0.00
0.00 0.00 0.00 0.00 0.00 0.03 0.05 0.02 0.00 0.00 0.00 0.00 0.00 0.00 0.00 0.00 0.00 0.00 0.00 0.00 0.00 0.00 0.00 0.00 0.00 0.00 0.00 0.00 0.00 0.00 0.00 0.00 0.00 0.00 0.00 0.00 0.00 0.00 0.00 0.00 0.00 0.00 0.00 0.00 0.00
0.00 0.00 0.00 0.00 0.00 0.00 0.00 0.00 0.00 0.00 0.00 0.00 0.00 0.00 0.00 0.00 0.00 0.00 0.00 0.00 0.00 0.00 0.00 0.00 0.00 0.00 0.00 0.00 0.00 0.00 0.00 0.00 0.00 0.00 0.00 0.00 0.00 0.00 0.00 0.00 0.00 0.01 0.00 0.00 0.00
0.00 0.01 0.01 0.00 0.00 0.00 0.00 0.00 0.00 0.00 0.00 0.00 0.00 0.00 0.00 0.00 0.00 0.00 0.00 0.00 0.00 0.00 0.00 0.00 0.00 0.00 0.00 0.00 0.00 0.00 0.00 0.00 0.00 0.00 0.00 0.00 0.00 0.00 0.00 0.00 0.00 0.00 0.00 0.00 0.00
0.00 0.01 0.02 0.00 0.00 0.00 0.01 0.01 0.00 0.00 0.00 0.00 0.00 0.00 0.00 0.00 0.00 0.00 0.00 0.00 0.00 0.00 0.00 0.00 0.00 0.00 0.00 0.00 0.00 0.00 0.00 0.00 0.00 0.00 0.00 0.00 0.00 0.00 0.00 0.00 0.00 0.00 0.00 0.00 0.00

GFSSW_prec_precacc24_069.txt.gz
Total_Precipitation_Accumulation
0.08 0.08 0.08 0.12 0.13 0.13 0.13 0.12 0.16 0.15 0.09 0.03 0.08 0.17 0.19 0.17 0.10 0.06 0.03 0.02 0.00 0.02 0.07 0.00 0.01 0.05 0.04 0.02 0.02 0.09 0.42 0.13 0.01 0.00 0.00 0.00 0.00 0.00 0.00 0.00 0.00 0.00 0.00 0.00 0.01
0.06 0.09 0.12 0.13 0.13 0.11 0.12 0.20 0.18 0.12 0.06 0.04 0.03 0.11 0.22 0.22 0.08 0.02 0.00 0.00 0.00 0.08 0.09 0.01 0.01 0.06 0.09 0.05 0.04 0.10 0.25 0.16 0.00 0.00 0.02 0.02 0.00 0.00 0.00 0.00 0.00 0.00 0.00 0.00 0.02
0.07 0.09 0.11 0.12 0.14 0.12 0.15 0.20 0.20 0.16 0.14 0.05 0.05 0.08 0.20 0.27 0.12 0.01 0.00 0.00 0.03 0.15 0.16 0.03 0.01 0.08 0.12 0.08 0.03 0.04 0.04 0.00 0.00 0.03 0.08 0.03 0.00 0.00 0.00 0.00 0.00 0.00 0.00 0.00 0.02
0.09 0.11 0.12 0.12 0.13 0.15 0.19 0.16 0.21 0.21 0.19 0.10 0.08 0.12 0.40 0.26 0.16 0.05 0.02 0.00 0.02 0.11 0.22 0.14 0.02 0.08 0.06 0.02 0.00 0.01 0.00 0.00 0.00 0.16 0.15 0.04 0.00 0.00 0.00 0.00 0.00 0.03 0.02 0.01 0.00
0.11 0.13 0.11 0.12 0.13 0.18 0.19 0.22 0.23 0.18 0.15 0.15 0.13 0.23 0.41 0.34 0.07 0.11 0.09 0.05 0.10 0.27 0.12 0.12 0.02 0.04 0.02 0.00 0.00 0.00 0.00 0.00 0.02 0.18 0.08 0.08 0.09 0.00 0.00 0.00 0.00 0.01 0.01 0.01 0.00
0.14 0.13 0.11 0.12 0.15 0.18 0.18 0.23 0.19 0.15 0.20 0.30 0.26 0.22 0.32 0.15 0.02 0.03 0.10 0.09 0.19 0.34 0.21 0.12 0.02 0.01 0.02 0.01 0.01 0.00 0.00 0.01 0.03 0.03 0.02 0.14 0.13 0.03 0.00 0.00 0.00 0.02 0.00 0.00 0.00
0.16 0.14 0.15 0.14 0.18 0.19 0.19 0.20 0.12 0.09 0.15 0.09 0.19 0.17 0.22 0.08 0.04 0.08 0.10 0.13 0.20 0.31 0.17 0.13 0.06 0.03 0.02 0.04 0.02 0.01 0.04 0.04 0.01 0.00 0.01 0.02 0.11 0.16 0.00 0.00 0.00 0.02 0.01 0.00 0.00
0.16 0.15 0.17 0.18 0.16 0.17 0.12 0.06 0.04 0.14 0.07 0.08 0.19 0.26 0.12 0.02 0.04 0.02 0.10 0.24 0.29 0.44 0.37 0.33 0.16 0.03 0.05 0.05 0.06 0.08 0.04 0.03 0.00 0.01 0.01 0.02 0.05 0.02 0.00 0.00 0.00 0.00 0.00 0.00 0.00
0.16 0.16 0.18 0.18 0.13 0.06 0.03 0.01 0.05 0.10 0.02 0.12 0.17 0.25 0.11 0.06 0.07 0.02 0.11 0.35 0.36 0.53 0.66 0.76 0.66 0.18 0.07 0.08 0.11 0.14 0.03 0.00 0.00 0.00 0.00 0.00 0.00 0.00 0.00 0.00 0.00 0.00 0.00 0.00 0.00
0.14 0.16 0.16 0.13 0.10 0.01 0.03 0.00 0.00 0.00 0.03 0.15 0.26 0.27 0.13 0.06 0.12 0.08 0.12 0.40 0.44 0.63 1.14 1.05 1.09 0.37 0.14 0.09 0.04 0.01 0.00 0.00 0.00 0.00 0.00 0.00 0.00 0.00 0.00 0.00 0.00 0.00 0.00 0.00 0.00
0.13 0.14 0.10 0.11 0.10 0.06 0.06 0.01 0.04 0.10 0.09 0.09 0.06 0.09 0.21 0.18 0.32 0.29 0.18 0.48 0.89 1.08 1.50 0.95 1.09 0.19 0.01 0.00 0.00 0.00 0.00 0.00 0.00 0.00 0.00 0.00 0.00 0.00 0.00 0.00 0.00 0.00 0.00 0.00 0.00
0.12 0.09 0.12 0.14 0.08 0.09 0.03 0.01 0.01 0.02 0.02 0.01 0.00 0.04 0.09 0.27 0.52 0.52 0.27 0.91 1.15 1.17 1.57 1.32 0.57 0.17 0.03 0.01 0.00 0.00 0.00 0.00 0.00 0.00 0.00 0.00 0.00 0.00 0.00 0.00 0.00 0.00 0.00 0.00 0.00
0.10 0.09 0.13 0.13 0.04 0.01 0.00 0.00 0.01 0.01 0.06 0.10 0.05 0.09 0.21 0.41 0.55 0.47 0.41 0.96 1.10 1.06 1.28 0.95 0.38 0.20 0.17 0.07 0.03 0.01 0.00 0.00 0.00 0.00 0.00 0.00 0.00 0.00 0.00 0.00 0.00 0.00 0.00 0.00 0.00
0.07 0.08 0.12 0.10 0.02 0.01 0.04 0.07 0.02 0.00 0.15 0.33 0.23 0.39 0.54 0.64 0.74 0.43 0.49 1.11 1.18 0.97 1.01 0.80 0.40 0.38 0.30 0.13 0.04 0.04 0.00 0.00 0.00 0.00 0.00 0.00 0.00 0.00 0.00 0.00 0.00 0.00 0.00 0.00 0.00
0.04 0.07 0.13 0.08 0.06 0.12 0.05 0.01 0.00 0.02 0.32 0.30 0.47 0.72 0.78 0.83 0.58 0.74 0.57 1.03 0.65 0.88 0.93 0.54 0.39 0.43 0.47 0.20 0.07 0.03 0.00 0.00 0.00 0.00 0.00 0.00 0.00 0.00 0.00 0.00 0.00 0.00 0.00 0.00 0.00
0.02 0.04 0.04 0.05 0.14 0.11 0.01 0.00 0.00 0.08 0.56 0.74 0.65 0.96 0.78 0.50 0.55 0.51 0.69 0.86 0.46 0.72 0.48 0.28 0.50 0.31 0.44 0.37 0.13 0.03 0.00 0.00 0.00 0.00 0.00 0.00 0.00 0.00 0.00 0.00 0.00 0.00 0.00 0.00 0.00
0.01 0.00 0.01 0.00 0.02 0.00 0.01 0.01 0.01 0.06 0.18 0.59 1.01 0.95 0.41 0.38 0.32 0.61 0.93 0.59 0.38 0.65 0.70 0.46 0.39 0.28 0.43 0.49 0.17 0.02 0.01 0.02 0.04 0.02 0.00 0.00 0.00 0.00 0.00 0.00 0.00 0.00 0.00 0.00 0.00
0.00 0.00 0.00 0.00 0.00 0.00 0.00 0.00 0.03 0.08 0.31 0.29 0.61 0.31 0.23 0.31 0.50 0.54 0.61 0.16 0.06 0.15 0.33 0.37 0.37 0.37 0.59 0.37 0.17 0.04 0.01 0.02 0.01 0.00 0.00 0.00 0.00 0.00 0.00 0.00 0.00 0.00 0.00 0.00 0.00
0.00 0.00 0.00 0.00 0.00 0.00 0.00 0.01 0.03 0.13 0.31 0.53 0.27 0.15 0.23 0.13 0.27 0.33 0.22 0.04 0.03 0.09 0.15 0.13 0.13 0.20 0.36 0.31 0.16 0.07 0.01 0.00 0.00 0.00 0.00 0.00 0.00 0.00 0.00 0.00 0.00 0.00 0.00 0.00 0.00
0.00 0.00 0.00 0.00 0.00 0.00 0.01 0.05 0.10 0.13 0.18 0.10 0.11 0.05 0.03 0.04 0.04 0.06 0.03 0.01 0.00 0.02 0.01 0.01 0.08 0.14 0.14 0.30 0.23 0.03 0.00 0.00 0.00 0.00 0.00 0.00 0.00 0.00 0.00 0.00 0.00 0.00 0.00 0.00 0.00
0.00 0.00 0.00 0.00 0.00 0.00 0.02 0.07 0.10 0.05 0.02 0.00 0.00 0.00 0.00 0.00 0.00 0.00 0.00 0.00 0.00 0.00 0.00 0.00 0.02 0.10 0.08 0.20 0.21 0.08 0.02 0.00 0.00 0.00 0.00 0.00 0.00 0.00 0.00 0.00 0.00 0.00 0.00 0.00 0.00
0.00 0.00 0.00 0.00 0.00 0.00 0.00 0.00 0.00 0.00 0.00 0.00 0.00 0.00 0.00 0.00 0.00 0.00 0.00 0.00 0.00 0.00 0.00 0.00 0.00 0.04 0.06 0.00 0.01 0.02 0.00 0.00 0.00 0.00 0.00 0.00 0.00 0.00 0.00 0.00 0.00 0.00 0.00 0.00 0.00
0.00 0.00 0.00 0.00 0.00 0.00 0.00 0.00 0.00 0.00 0.00 0.00 0.00 0.00 0.00 0.00 0.00 0.00 0.00 0.00 0.00 0.00 0.00 0.00 0.00 0.02 0.04 0.02 0.01 0.05 0.01 0.00 0.00 0.00 0.00 0.00 0.00 0.00 0.00 0.00 0.00 0.00 0.00 0.00 0.00
0.00 0.00 0.00 0.00 0.00 0.00 0.00 0.00 0.00 0.00 0.00 0.00 0.00 0.00 0.00 0.00 0.00 0.00 0.00 0.00 0.00 0.00 0.00 0.00 0.00 0.00 0.00 0.00 0.00 0.00 0.00 0.00 0.00 0.00 0.00 0.00 0.00 0.00 0.00 0.00 0.00 0.00 0.00 0.00 0.00
0.00 0.00 0.00 0.00 0.00 0.00 0.00 0.00 0.00 0.00 0.00 0.00 0.00 0.00 0.00 0.00 0.00 0.00 0.00 0.00 0.00 0.00 0.00 0.00 0.00 0.00 0.00 0.00 0.00 0.00 0.00 0.00 0.00 0.00 0.00 0.00 0.00 0.00 0.00 0.00 0.00 0.00 0.00 0.00 0.00
0.00 0.01 0.01 0.00 0.00 0.00 0.00 0.00 0.00 0.00 0.00 0.00 0.00 0.00 0.00 0.00 0.00 0.00 0.00 0.00 0.00 0.00 0.00 0.00 0.00 0.00 0.00 0.00 0.00 0.00 0.00 0.00 0.00 0.00 0.00 0.00 0.00 0.00 0.00 0.00 0.00 0.00 0.00 0.00 0.00
0.00 0.01 0.02 0.00 0.00 0.00 0.01 0.01 0.00 0.00 0.00 0.00 0.00 0.00 0.00 0.00 0.00 0.00 0.00 0.00 0.00 0.00 0.00 0.00 0.00 0.00 0.00 0.00 0.00 0.00 0.00 0.00 0.00 0.00 0.00 0.00 0.00 0.00 0.00 0.00 0.00 0.00 0.00 0.00 0.00

GFSSW_prec_precacc24_072.txt.gz
Total_Precipitation_Accumulation
0.08 0.08 0.08 0.11 0.12 0.13 0.12 0.13 0.18 0.19 0.15 0.08 0.05 0.05 0.10 0.17 0.10 0.06 0.04 0.02 0.00 0.03 0.15 0.00 0.01 0.05 0.05 0.02 0.05 0.11 0.43 0.14 0.01 0.00 0.00 0.00 0.00 0.00 0.00 0.00 0.00 0.00 0.00 0.00 0.01
0.07 0.08 0.10 0.12 0.11 0.09 0.09 0.19 0.18 0.13 0.14 0.12 0.04 0.05 0.08 0.18 0.08 0.02 0.00 0.00 0.00 0.08 0.13 0.03 0.01 0.06 0.10 0.06 0.07 0.15 0.28 0.16 0.00 0.00 0.02 0.02 0.00 0.00 0.00 0.00 0.01 0.01 0.00 0.00 0.02
0.07 0.09 0.10 0.12 0.14 0.10 0.14 0.18 0.19 0.17 0.20 0.11 0.07 0.07 0.08 0.16 0.11 0.01 0.00 0.00 0.03 0.15 0.16 0.06 0.02 0.08 0.14 0.08 0.04 0.11 0.06 0.00 0.00 0.03 0.08 0.03 0.00 0.00 0.00 0.00 0.00 0.03 0.03 0.02 0.03
0.08 0.11 0.11 0.13 0.12 0.13 0.16 0.14 0.19 0.22 0.24 0.13 0.09 0.12 0.16 0.16 0.15 0.06 0.02 0.00 0.02 0.13 0.20 0.15 0.02 0.08 0.06 0.03 0.00 0.03 0.03 0.00 0.00 0.16 0.15 0.04 0.00 0.00 0.00 0.00 0.00 0.06 0.11 0.09 0.06
0.11 0.13 0.12 0.12 0.11 0.16 0.15 0.19 0.21 0.18 0.17 0.15 0.13 0.22 0.16 0.17 0.05 0.11 0.09 0.06 0.13 0.28 0.11 0.12 0.02 0.04 0.02 0.01 0.01 0.00 0.00 0.00 0.05 0.21 0.09 0.08 0.09 0.00 0.00 0.00 0.00 0.02 0.06 0.07 0.05
0.13 0.13 0.12 0.12 0.12 0.15 0.14 0.19 0.15 0.13 0.19 0.29 0.26 0.21 0.10 0.09 0.01 0.03 0.10 0.09 0.19 0.34 0.20 0.12 0.03 0.01 0.03 0.02 0.02 0.00 0.00 0.03 0.14 0.07 0.03 0.16 0.14 0.04 0.00 0.00 0.00 0.03 0.03 0.05 0.06
0.15 0.14 0.14 0.14 0.16 0.17 0.16 0.14 0.05 0.08 0.14 0.09 0.18 0.14 0.10 0.03 0.04 0.08 0.09 0.08 0.18 0.29 0.17 0.13 0.10 0.03 0.03 0.06 0.05 0.02 0.05 0.06 0.04 0.05 0.05 0.05 0.16 0.22 0.00 0.00 0.00 0.02 0.03 0.01 0.02
0.15 0.14 0.16 0.17 0.16 0.15 0.09 0.03 0.01 0.13 0.07 0.08 0.18 0.19 0.06 0.00 0.02 0.02 0.09 0.15 0.16 0.29 0.28 0.31 0.23 0.03 0.05 0.05 0.10 0.13 0.07 0.04 0.00 0.02 0.04 0.10 0.12 0.06 0.01 0.00 0.00 0.00 0.00 0.00 0.00
0.15 0.14 0.17 0.18 0.13 0.06 0.01 0.00 0.04 0.08 0.01 0.12 0.16 0.14 0.04 0.05 0.04 0.02 0.11 0.29 0.27 0.42 0.52 0.67 0.73 0.17 0.08 0.09 0.12 0.15 0.03 0.00 0.00 0.00 0.01 0.05 0.01 0.03 0.05 0.00 0.00 0.00 0.00 0.00 0.00
0.13 0.15 0.16 0.13 0.10 0.02 0.01 0.00 0.00 0.00 0.03 0.13 0.25 0.17 0.07 0.06 0.10 0.08 0.12 0.41 0.45 0.59 1.02 1.05 1.33 0.36 0.13 0.09 0.04 0.01 0.00 0.00 0.00 0.00 0.00 0.00 0.00 0.01 0.06 0.02 0.00 0.00 0.00 0.00 0.00
0.11 0.13 0.11 0.12 0.10 0.04 0.04 0.01 0.04 0.08 0.07 0.09 0.06 0.06 0.20 0.18 0.29 0.29 0.20 0.54 0.89 1.06 1.22 0.78 1.51 0.23 0.01 0.00 0.00 0.00 0.00 0.00 0.00 0.00 0.00 0.00 0.00 0.00 0.03 0.05 0.00 0.00 0.00 0.00 0.00
0.11 0.09 0.12 0.14 0.07 0.04 0.01 0.01 0.01 0.02 0.02 0.01 0.00 0.03 0.08 0.26 0.47 0.53 0.30 0.95 1.16 1.18 1.45 1.04 0.79 0.13 0.01 0.01 0.00 0.00 0.00 0.00 0.00 0.00 0.00 0.00 0.02 0.01 0.01 0.02 0.00 0.00 0.00 0.00 0.00
0.08 0.08 0.12 0.13 0.03 0.00 0.00 0.00 0.01 0.01 0.06 0.10 0.04 0.07 0.17 0.38 0.50 0.48 0.43 0.98 1.09 1.09 1.32 0.92 0.45 0.21 0.09 0.03 0.01 0.00 0.00 0.00 0.00 0.00 0.00 0.00 0.01 0.02 0.00 0.00 0.00 0.00 0.00 0.00 0.00
0.03 0.05 0.09 0.07 0.01 0.00 0.01 0.01 0.01 0.00 0.16 0.38 0.23 0.34 0.47 0.63 0.67 0.43 0.50 1.10 1.17 0.95 1.01 0.83 0.44 0.37 0.22 0.09 0.01 0.01 0.00 0.00 0.00 0.00 0.00 0.00 0.00 0.00 0.00 0.00 0.00 0.00 0.00 0.00 0.00
0.02 0.03 0.03 0.01 0.01 0.05 0.02 0.01 0.00 0.02 0.35 0.35 0.44 0.55 0.67 0.83 0.53 0.74 0.56 1.04 0.66 0.95 0.97 0.59 0.43 0.46 0.41 0.19 0.06 0.03 0.00 0.00 0.00 0.00 0.00 0.00 0.00 0.00 0.00 0.00 0.00 0.00 0.00 0.00 0.00
0.00 0.02 0.01 0.00 0.00 0.04 0.00 0.00 0.00 0.08 0.56 0.82 0.62 0.68 0.73 0.52 0.55 0.50 0.68 0.87 0.48 0.86 0.66 0.33 0.52 0.33 0.44 0.37 0.13 0.03 0.00 0.00 0.00 0.00 0.00 0.00 0.00 0.00 0.00 0.00 0.00 0.00 0.00 0.00 0.00
0.00 0.00 0.00 0.00 0.00 0.00 0.00 0.01 0.00 0.05 0.15 0.54 0.94 0.79 0.43 0.41 0.34 0.61 0.93 0.60 0.42 0.86 0.99 0.56 0.46 0.31 0.43 0.49 0.17 0.02 0.01 0.03 0.04 0.03 0.00 0.00 0.00 0.00 0.00 0.00 0.00 0.00 0.00 0.00 0.00
0.00 0.00 0.00 0.00 0.00 0.00 0.00 0.00 0.01 0.07 0.17 0.14 0.41 0.27 0.25 0.34 0.51 0.52 0.60 0.17 0.12 0.45 0.53 0.47 0.45 0.38 0.59 0.37 0.17 0.04 0.01 0.02 0.01 0.00 0.00 0.00 0.00 0.00 0.00 0.00 0.00 0.00 0.00 0.00 0.00
0.00 0.00 0.00 0.00 0.00 0.00 0.00 0.00 0.02 0.05 0.11 0.30 0.21 0.10 0.20 0.15 0.27 0.30 0.23 0.04 0.05 0.16 0.16 0.14 0.14 0.20 0.36 0.31 0.16 0.08 0.01 0.00 0.00 0.00 0.00 0.00 0.00 0.00 0.00 0.00 0.00 0.00 0.00 0.00 0.00
0.00 0.00 0.00 0.00 0.00 0.00 0.00 0.01 0.04 0.05 0.10 0.08 0.07 0.02 0.03 0.03 0.04 0.06 0.04 0.01 0.00 0.03 0.01 0.01 0.09 0.14 0.14 0.30 0.23 0.03 0.00 0.00 0.00 0.00 0.00 0.00 0.00 0.00 0.00 0.00 0.00 0.00 0.00 0.00 0.00
0.00 0.00 0.00 0.00 0.00 0.00 0.00 0.01 0.00 0.00 0.00 0.00 0.00 0.00 0.00 0.00 0.00 0.00 0.00 0.00 0.00 0.00 0.00 0.00 0.02 0.10 0.08 0.20 0.21 0.08 0.02 0.00 0.00 0.00 0.00 0.00 0.00 0.00 0.00 0.00 0.00 0.00 0.00 0.00 0.00
0.00 0.00 0.00 0.00 0.00 0.00 0.00 0.00 0.00 0.00 0.00 0.00 0.00 0.00 0.00 0.00 0.00 0.00 0.00 0.00 0.00 0.00 0.00 0.00 0.00 0.04 0.06 0.00 0.01 0.02 0.00 0.00 0.00 0.00 0.00 0.00 0.00 0.00 0.00 0.00 0.00 0.00 0.00 0.00 0.00
0.00 0.00 0.00 0.00 0.00 0.00 0.00 0.00 0.00 0.00 0.00 0.00 0.00 0.00 0.00 0.00 0.00 0.00 0.00 0.00 0.00 0.00 0.00 0.00 0.00 0.02 0.05 0.02 0.01 0.05 0.01 0.00 0.00 0.00 0.00 0.00 0.00 0.00 0.00 0.00 0.00 0.00 0.00 0.00 0.00
0.00 0.00 0.00 0.00 0.00 0.00 0.00 0.00 0.00 0.00 0.00 0.00 0.00 0.00 0.00 0.00 0.00 0.00 0.00 0.00 0.00 0.00 0.00 0.00 0.00 0.00 0.00 0.00 0.00 0.00 0.01 0.00 0.00 0.00 0.00 0.00 0.00 0.00 0.00 0.00 0.00 0.00 0.00 0.00 0.00
0.00 0.00 0.00 0.00 0.00 0.00 0.00 0.00 0.00 0.00 0.00 0.00 0.00 0.00 0.00 0.00 0.00 0.00 0.00 0.00 0.00 0.00 0.00 0.00 0.00 0.00 0.00 0.00 0.00 0.00 0.00 0.00 0.00 0.00 0.00 0.00 0.00 0.00 0.00 0.00 0.00 0.00 0.00 0.00 0.00
0.00 0.01 0.00 0.00 0.00 0.00 0.00 0.00 0.00 0.00 0.00 0.00 0.00 0.00 0.00 0.00 0.00 0.00 0.00 0.00 0.00 0.00 0.00 0.00 0.00 0.00 0.00 0.00 0.00 0.00 0.00 0.00 0.00 0.00 0.00 0.00 0.00 0.00 0.00 0.00 0.00 0.00 0.00 0.00 0.00
0.00 0.01 0.02 0.00 0.00 0.00 0.01 0.01 0.00 0.00 0.00 0.00 0.00 0.00 0.00 0.00 0.00 0.00 0.00 0.00 0.00 0.00 0.00 0.00 0.00 0.00 0.00 0.00 0.00 0.00 0.00 0.00 0.00 0.00 0.00 0.00 0.00 0.00 0.00 0.00 0.00 0.00 0.00 0.00 0.00

GFSSW_prec_precacc24_075.txt.gz
Total_Precipitation_Accumulation
0.08 0.08 0.08 0.10 0.11 0.11 0.12 0.12 0.17 0.19 0.16 0.12 0.13 0.09 0.08 0.07 0.04 0.06 0.05 0.03 0.00 0.04 0.16 0.00 0.00 0.04 0.07 0.04 0.08 0.16 0.46 0.14 0.01 0.00 0.00 0.00 0.00 0.00 0.00 0.00 0.00 0.00 0.00 0.00 0.01
0.07 0.07 0.10 0.11 0.10 0.09 0.09 0.17 0.16 0.11 0.14 0.14 0.11 0.09 0.08 0.06 0.03 0.01 0.00 0.03 0.05 0.09 0.13 0.03 0.01 0.06 0.11 0.06 0.11 0.24 0.33 0.17 0.00 0.00 0.02 0.02 0.00 0.00 0.00 0.00 0.01 0.02 0.01 0.01 0.02
0.06 0.09 0.10 0.10 0.12 0.09 0.13 0.17 0.17 0.14 0.19 0.13 0.11 0.09 0.09 0.06 0.03 0.01 0.01 0.01 0.06 0.19 0.16 0.07 0.02 0.08 0.14 0.09 0.05 0.13 0.10 0.00 0.00 0.03 0.08 0.03 0.00 0.00 0.00 0.00 0.00 0.03 0.05 0.05 0.09
0.08 0.11 0.10 0.12 0.11 0.11 0.16 0.14 0.17 0.18 0.20 0.13 0.11 0.14 0.18 0.09 0.05 0.05 0.01 0.01 0.05 0.21 0.19 0.15 0.05 0.08 0.07 0.04 0.00 0.04 0.04 0.01 0.01 0.16 0.15 0.04 0.00 0.00 0.00 0.00 0.00 0.06 0.12 0.12 0.14
0.10 0.11 0.11 0.12 0.09 0.15 0.14 0.18 0.16 0.15 0.15 0.14 0.12 0.22 0.12 0.08 0.02 0.09 0.08 0.09 0.20 0.37 0.10 0.13 0.05 0.04 0.03 0.01 0.01 0.00 0.01 0.02 0.07 0.22 0.09 0.08 0.09 0.00 0.00 0.00 0.00 0.02 0.06 0.10 0.12
0.12 0.12 0.11 0.12 0.12 0.15 0.14 0.16 0.13 0.12 0.18 0.27 0.22 0.18 0.07 0.02 0.00 0.01 0.10 0.11 0.20 0.37 0.19 0.11 0.05 0.01 0.04 0.03 0.03 0.00 0.00 0.05 0.17 0.10 0.04 0.16 0.14 0.04 0.00 0.00 0.00 0.03 0.03 0.07 0.09
0.14 0.13 0.13 0.14 0.16 0.16 0.15 0.10 0.03 0.07 0.12 0.07 0.16 0.10 0.06 0.00 0.04 0.06 0.09 0.07 0.18 0.29 0.16 0.12 0.13 0.03 0.03 0.07 0.07 0.03 0.06 0.08 0.05 0.12 0.11 0.06 0.16 0.22 0.00 0.00 0.00 0.02 0.03 0.01 0.02
0.13 0.12 0.14 0.16 0.16 0.15 0.08 0.03 0.01 0.09 0.07 0.07 0.17 0.15 0.03 0.00 0.02 0.02 0.08 0.10 0.13 0.20 0.23 0.26 0.28 0.06 0.06 0.06 0.13 0.17 0.08 0.05 0.00 0.04 0.16 0.16 0.16 0.06 0.01 0.00 0.00 0.00 0.00 0.00 0.00
0.12 0.12 0.15 0.17 0.14 0.06 0.02 0.00 0.02 0.03 0.00 0.10 0.15 0.11 0.01 0.03 0.02 0.01 0.10 0.21 0.16 0.31 0.40 0.53 0.82 0.19 0.09 0.10 0.12 0.16 0.03 0.00 0.00 0.00 0.02 0.10 0.03 0.03 0.06 0.00 0.00 0.00 0.00 0.00 0.00
0.11 0.13 0.14 0.13 0.11 0.02 0.01 0.00 0.00 0.00 0.02 0.13 0.24 0.14 0.06 0.05 0.08 0.06 0.12 0.33 0.34 0.53 0.94 0.98 1.57 0.41 0.13 0.09 0.04 0.01 0.00 0.00 0.00 0.00 0.00 0.00 0.00 0.01 0.06 0.03 0.00 0.00 0.00 0.00 0.00
0.08 0.10 0.10 0.12 0.11 0.01 0.02 0.01 0.04 0.08 0.06 0.09 0.06 0.04 0.15 0.16 0.24 0.22 0.20 0.48 0.79 0.94 1.02 0.76 1.83 0.38 0.01 0.00 0.00 0.00 0.00 0.00 0.00 0.00 0.00 0.00 0.00 0.01 0.03 0.07 0.01 0.00 0.00 0.00 0.00
0.06 0.06 0.08 0.12 0.07 0.00 0.00 0.01 0.01 0.02 0.02 0.01 0.00 0.00 0.02 0.16 0.40 0.45 0.30 0.89 1.13 1.12 0.98 0.78 0.92 0.19 0.01 0.00 0.00 0.00 0.00 0.00 0.00 0.00 0.00 0.00 0.02 0.01 0.02 0.04 0.03 0.00 0.00 0.00 0.00
0.04 0.04 0.06 0.11 0.03 0.00 0.00 0.00 0.00 0.01 0.06 0.10 0.03 0.05 0.11 0.32 0.47 0.47 0.45 0.98 1.14 1.05 0.96 0.44 0.29 0.27 0.07 0.03 0.00 0.00 0.00 0.00 0.00 0.00 0.00 0.00 0.01 0.02 0.01 0.00 0.02 0.00 0.00 0.00 0.00
0.02 0.03 0.03 0.03 0.01 0.00 0.01 0.01 0.00 0.00 0.16 0.39 0.22 0.31 0.41 0.53 0.64 0.47 0.53 1.09 1.19 0.89 0.85 0.65 0.27 0.30 0.14 0.05 0.00 0.00 0.00 0.00 0.00 0.00 0.00 0.00 0.01 0.00 0.00 0.00 0.00 0.00 0.00 0.00 0.00
0.01 0.03 0.02 0.00 0.01 0.01 0.01 0.01 0.00 0.02 0.36 0.38 0.44 0.51 0.58 0.74 0.51 0.74 0.56 1.01 0.63 0.93 0.97 0.62 0.41 0.44 0.33 0.11 0.02 0.01 0.00 0.00 0.00 0.00 0.00 0.00 0.00 0.00 0.00 0.00 0.00 0.00 0.00 0.00 0.00
0.00 0.02 0.01 0.00 0.00 0.00 0.00 0.00 0.00 0.08 0.57 0.88 0.63 0.58 0.59 0.48 0.52 0.50 0.65 0.85 0.45 0.83 0.64 0.34 0.53 0.41 0.38 0.30 0.07 0.03 0.00 0.00 0.00 0.00 0.01 0.00 0.00 0.00 0.00 0.00 0.00 0.00 0.00 0.00 0.00
0.00 0.00 0.00 0.00 0.00 0.00 0.00 0.01 0.00 0.04 0.14 0.55 0.92 0.59 0.40 0.39 0.31 0.61 0.88 0.59 0.41 0.83 0.89 0.55 0.50 0.37 0.44 0.48 0.17 0.02 0.01 0.03 0.05 0.04 0.01 0.00 0.00 0.00 0.00 0.00 0.00 0.00 0.00 0.00 0.00
0.00 0.00 0.00 0.00 0.00 0.00 0.00 0.00 0.00 0.04 0.07 0.07 0.20 0.25 0.35 0.37 0.53 0.52 0.57 0.17 0.13 0.51 0.56 0.53 0.65 0.44 0.60 0.38 0.17 0.04 0.01 0.02 0.01 0.01 0.00 0.00 0.00 0.00 0.00 0.00 0.00 0.00 0.00 0.00 0.00
0.00 0.00 0.00 0.00 0.00 0.00 0.00 0.00 0.00 0.00 0.03 0.18 0.09 0.08 0.23 0.16 0.26 0.26 0.21 0.04 0.15 0.35 0.22 0.17 0.26 0.22 0.36 0.31 0.16 0.08 0.01 0.00 0.00 0.00 0.00 0.00 0.00 0.00 0.00 0.00 0.00 0.00 0.00 0.00 0.00
0.00 0.00 0.00 0.00 0.00 0.00 0.00 0.00 0.01 0.00 0.01 0.01 0.01 0.00 0.02 0.03 0.03 0.05 0.04 0.01 0.09 0.14 0.02 0.01 0.11 0.15 0.14 0.30 0.23 0.03 0.00 0.00 0.00 0.00 0.00 0.00 0.00 0.00 0.00 0.00 0.00 0.00 0.00 0.00 0.00
0.00 0.00 0.00 0.00 0.00 0.00 0.00 0.00 0.00 0.00 0.00 0.00 0.00 0.00 0.00 0.00 0.00 0.00 0.00 0.00 0.01 0.03 0.00 0.00 0.02 0.11 0.08 0.20 0.21 0.08 0.02 0.00 0.00 0.00 0.00 0.00 0.00 0.00 0.00 0.00 0.00 0.00 0.00 0.00 0.00
0.00 0.00 0.00 0.00 0.00 0.00 0.00 0.00 0.00 0.00 0.00 0.00 0.00 0.00 0.00 0.00 0.00 0.00 0.00 0.00 0.00 0.00 0.00 0.00 0.00 0.04 0.06 0.00 0.01 0.02 0.00 0.00 0.00 0.00 0.00 0.00 0.00 0.00 0.00 0.00 0.00 0.00 0.00 0.00 0.00
0.00 0.00 0.00 0.00 0.00 0.00 0.00 0.00 0.00 0.00 0.00 0.00 0.00 0.00 0.00 0.00 0.00 0.00 0.00 0.00 0.00 0.00 0.00 0.00 0.00 0.02 0.05 0.02 0.01 0.05 0.01 0.00 0.00 0.00 0.00 0.00 0.00 0.00 0.00 0.00 0.00 0.00 0.00 0.00 0.00
0.00 0.00 0.00 0.00 0.00 0.00 0.00 0.00 0.00 0.00 0.00 0.00 0.00 0.00 0.00 0.00 0.00 0.00 0.00 0.00 0.00 0.00 0.00 0.00 0.00 0.00 0.00 0.00 0.00 0.00 0.01 0.00 0.00 0.00 0.00 0.00 0.00 0.00 0.00 0.00 0.00 0.00 0.00 0.00 0.00
0.00 0.00 0.00 0.00 0.00 0.00 0.00 0.00 0.00 0.00 0.00 0.00 0.00 0.00 0.00 0.00 0.00 0.00 0.00 0.00 0.00 0.00 0.00 0.00 0.00 0.00 0.00 0.00 0.00 0.00 0.00 0.00 0.00 0.00 0.00 0.00 0.00 0.00 0.00 0.00 0.00 0.00 0.00 0.00 0.00
0.00 0.01 0.00 0.00 0.00 0.00 0.00 0.00 0.00 0.00 0.00 0.00 0.00 0.00 0.00 0.00 0.00 0.00 0.00 0.00 0.00 0.00 0.00 0.00 0.00 0.00 0.00 0.00 0.00 0.00 0.00 0.00 0.00 0.00 0.00 0.00 0.00 0.00 0.00 0.00 0.00 0.00 0.00 0.00 0.00
0.00 0.00 0.01 0.00 0.00 0.00 0.01 0.01 0.00 0.00 0.00 0.00 0.00 0.00 0.00 0.00 0.00 0.00 0.00 0.00 0.00 0.00 0.00 0.00 0.00 0.00 0.00 0.00 0.00 0.00 0.00 0.00 0.00 0.00 0.00 0.00 0.00 0.00 0.00 0.00 0.00 0.00 0.00 0.00 0.00

GFSSW_prec_precacc24_078.txt.gz
Total_Precipitation_Accumulation
0.07 0.08 0.08 0.09 0.10 0.11 0.12 0.11 0.16 0.17 0.14 0.12 0.13 0.12 0.12 0.09 0.04 0.04 0.04 0.03 0.01 0.05 0.18 0.00 0.01 0.03 0.07 0.07 0.10 0.19 0.51 0.15 0.01 0.00 0.00 0.00 0.00 0.00 0.00 0.00 0.00 0.00 0.00 0.00 0.02
0.07 0.08 0.10 0.11 0.10 0.07 0.08 0.16 0.16 0.11 0.13 0.13 0.12 0.13 0.11 0.10 0.02 0.00 0.00 0.03 0.07 0.15 0.15 0.05 0.01 0.03 0.13 0.09 0.17 0.30 0.35 0.17 0.00 0.00 0.02 0.02 0.00 0.00 0.00 0.00 0.01 0.02 0.01 0.02 0.03
0.06 0.09 0.10 0.10 0.12 0.08 0.12 0.17 0.16 0.14 0.17 0.10 0.12 0.14 0.15 0.08 0.01 0.00 0.01 0.02 0.08 0.25 0.21 0.11 0.03 0.06 0.16 0.11 0.09 0.16 0.11 0.00 0.00 0.03 0.08 0.03 0.00 0.00 0.00 0.00 0.00 0.03 0.05 0.06 0.11
0.08 0.10 0.09 0.11 0.11 0.10 0.16 0.14 0.17 0.17 0.18 0.11 0.09 0.15 0.19 0.08 0.02 0.04 0.01 0.03 0.11 0.28 0.25 0.16 0.07 0.06 0.07 0.06 0.02 0.05 0.05 0.01 0.03 0.17 0.15 0.04 0.00 0.00 0.00 0.00 0.00 0.06 0.12 0.14 0.15
0.09 0.10 0.10 0.11 0.09 0.14 0.14 0.17 0.16 0.14 0.14 0.13 0.11 0.19 0.11 0.07 0.01 0.05 0.04 0.10 0.32 0.47 0.16 0.16 0.10 0.03 0.02 0.02 0.02 0.02 0.04 0.05 0.10 0.24 0.09 0.08 0.09 0.00 0.00 0.00 0.00 0.02 0.07 0.13 0.16
0.10 0.10 0.10 0.11 0.12 0.15 0.13 0.14 0.12 0.11 0.18 0.26 0.20 0.11 0.03 0.01 0.00 0.01 0.06 0.13 0.25 0.50 0.24 0.13 0.12 0.01 0.04 0.03 0.04 0.01 0.02 0.13 0.24 0.11 0.04 0.16 0.14 0.04 0.00 0.00 0.00 0.03 0.03 0.09 0.12
0.11 0.11 0.11 0.11 0.14 0.15 0.13 0.09 0.03 0.06 0.12 0.06 0.13 0.07 0.04 0.00 0.03 0.06 0.08 0.07 0.19 0.36 0.19 0.11 0.20 0.04 0.03 0.08 0.08 0.04 0.07 0.14 0.15 0.16 0.15 0.07 0.16 0.22 0.00 0.00 0.00 0.02 0.03 0.01 0.02
0.10 0.09 0.12 0.14 0.14 0.13 0.08 0.03 0.01 0.01 0.04 0.06 0.13 0.11 0.03 0.00 0.00 0.02 0.07 0.09 0.13 0.21 0.22 0.18 0.41 0.07 0.06 0.07 0.16 0.21 0.10 0.06 0.02 0.05 0.18 0.18 0.17 0.06 0.01 0.00 0.00 0.00 0.00 0.00 0.00
0.09 0.08 0.11 0.15 0.12 0.06 0.02 0.00 0.00 0.00 0.00 0.04 0.10 0.09 0.00 0.00 0.00 0.00 0.07 0.18 0.14 0.29 0.32 0.37 0.85 0.19 0.10 0.11 0.15 0.19 0.04 0.00 0.01 0.01 0.02 0.11 0.04 0.03 0.06 0.00 0.00 0.00 0.00 0.00 0.00
0.08 0.07 0.09 0.11 0.11 0.02 0.01 0.00 0.00 0.00 0.02 0.09 0.18 0.12 0.06 0.03 0.04 0.04 0.06 0.30 0.31 0.48 0.82 0.86 1.57 0.39 0.12 0.10 0.05 0.02 0.00 0.00 0.00 0.01 0.00 0.00 0.00 0.01 0.06 0.03 0.00 0.00 0.00 0.00 0.00
0.06 0.06 0.06 0.07 0.07 0.01 0.01 0.01 0.04 0.08 0.06 0.09 0.05 0.03 0.11 0.07 0.16 0.16 0.16 0.41 0.70 0.89 1.04 0.80 1.79 0.41 0.01 0.00 0.00 0.00 0.00 0.00 0.00 0.00 0.00 0.00 0.00 0.01 0.03 0.07 0.01 0.00 0.00 0.00 0.00
0.05 0.04 0.05 0.06 0.03 0.00 0.00 0.01 0.01 0.02 0.02 0.01 0.00 0.00 0.01 0.11 0.32 0.34 0.28 0.60 1.06 1.06 0.92 0.74 0.95 0.23 0.02 0.01 0.00 0.00 0.00 0.00 0.00 0.00 0.00 0.00 0.02 0.01 0.02 0.04 0.03 0.00 0.00 0.00 0.00
0.04 0.03 0.05 0.04 0.00 0.00 0.00 0.00 0.00 0.00 0.05 0.10 0.03 0.01 0.03 0.27 0.45 0.48 0.45 0.67 1.06 0.87 0.80 0.34 0.31 0.29 0.08 0.03 0.01 0.00 0.00 0.00 0.00 0.00 0.00 0.00 0.01 0.02 0.01 0.00 0.02 0.00 0.00 0.00 0.00
0.03 0.03 0.02 0.01 0.00 0.00 0.00 0.00 0.00 0.00 0.16 0.38 0.16 0.16 0.21 0.45 0.63 0.57 0.56 0.76 1.04 0.61 0.58 0.37 0.24 0.31 0.15 0.07 0.00 0.00 0.00 0.00 0.00 0.00 0.00 0.00 0.01 0.00 0.00 0.00 0.00 0.00 0.00 0.00 0.00
0.02 0.03 0.02 0.00 0.00 0.00 0.00 0.00 0.00 0.02 0.35 0.38 0.32 0.31 0.48 0.72 0.51 0.78 0.55 0.85 0.55 0.62 0.74 0.46 0.24 0.29 0.26 0.10 0.02 0.01 0.00 0.00 0.00 0.00 0.00 0.00 0.00 0.00 0.00 0.00 0.00 0.00 0.00 0.00 0.00
0.01 0.02 0.01 0.00 0.00 0.00 0.00 0.00 0.00 0.08 0.57 0.90 0.63 0.50 0.51 0.48 0.52 0.50 0.64 0.86 0.38 0.73 0.67 0.27 0.31 0.37 0.22 0.18 0.03 0.03 0.00 0.00 0.00 0.00 0.01 0.00 0.00 0.00 0.00 0.00 0.00 0.00 0.00 0.00 0.00
0.00 0.00 0.00 0.00 0.00 0.00 0.00 0.01 0.00 0.04 0.13 0.58 0.93 0.53 0.39 0.37 0.30 0.60 0.81 0.58 0.35 0.81 0.92 0.53 0.55 0.39 0.31 0.35 0.08 0.02 0.01 0.04 0.06 0.04 0.01 0.00 0.00 0.00 0.00 0.00 0.00 0.00 0.00 0.00 0.00
0.00 0.00 0.00 0.00 0.00 0.00 0.00 0.00 0.00 0.02 0.04 0.06 0.17 0.24 0.34 0.34 0.51 0.50 0.41 0.17 0.13 0.49 0.53 0.47 0.63 0.51 0.55 0.37 0.16 0.04 0.01 0.03 0.01 0.01 0.00 0.00 0.00 0.00 0.00 0.00 0.00 0.00 0.00 0.00 0.00
0.00 0.00 0.00 0.00 0.00 0.00 0.00 0.00 0.00 0.00 0.00 0.02 0.03 0.09 0.22 0.15 0.26 0.23 0.16 0.05 0.15 0.34 0.22 0.15 0.28 0.24 0.36 0.31 0.16 0.08 0.01 0.00 0.00 0.00 0.00 0.00 0.00 0.00 0.00 0.00 0.00 0.00 0.00 0.00 0.00
0.00 0.00 0.00 0.00 0.00 0.00 0.00 0.00 0.00 0.00 0.00 0.00 0.00 0.01 0.03 0.03 0.03 0.04 0.03 0.01 0.11 0.14 0.02 0.01 0.14 0.16 0.14 0.30 0.23 0.03 0.00 0.00 0.00 0.00 0.00 0.00 0.00 0.00 0.00 0.00 0.00 0.00 0.00 0.00 0.00
0.00 0.00 0.00 0.00 0.00 0.00 0.00 0.00 0.00 0.00 0.00 0.00 0.00 0.00 0.01 0.00 0.00 0.00 0.00 0.01 0.06 0.05 0.00 0.00 0.03 0.14 0.08 0.21 0.21 0.08 0.02 0.00 0.00 0.00 0.00 0.00 0.00 0.00 0.00 0.00 0.00 0.00 0.00 0.00 0.00
0.00 0.00 0.00 0.00 0.00 0.00 0.00 0.00 0.00 0.00 0.00 0.00 0.00 0.00 0.00 0.00 0.00 0.00 0.00 0.00 0.01 0.00 0.00 0.00 0.00 0.04 0.07 0.00 0.01 0.02 0.00 0.00 0.00 0.00 0.00 0.00 0.00 0.00 0.00 0.00 0.00 0.00 0.00 0.00 0.00
0.00 0.00 0.00 0.00 0.00 0.00 0.00 0.00 0.00 0.00 0.00 0.00 0.00 0.00 0.00 0.00 0.00 0.00 0.00 0.00 0.00 0.00 0.00 0.00 0.00 0.02 0.05 0.02 0.01 0.05 0.01 0.00 0.00 0.00 0.00 0.00 0.00 0.00 0.00 0.00 0.00 0.00 0.00 0.00 0.00
0.00 0.00 0.00 0.00 0.00 0.00 0.00 0.00 0.00 0.00 0.00 0.00 0.00 0.00 0.00 0.00 0.00 0.00 0.00 0.00 0.00 0.00 0.00 0.00 0.00 0.00 0.01 0.00 0.00 0.00 0.01 0.00 0.00 0.00 0.00 0.00 0.00 0.00 0.00 0.00 0.00 0.00 0.00 0.00 0.00
0.00 0.00 0.00 0.00 0.00 0.00 0.00 0.00 0.00 0.00 0.00 0.00 0.00 0.00 0.00 0.00 0.00 0.00 0.00 0.00 0.00 0.00 0.00 0.00 0.00 0.00 0.00 0.00 0.00 0.00 0.00 0.00 0.00 0.00 0.00 0.00 0.00 0.00 0.00 0.00 0.00 0.00 0.00 0.00 0.00
0.00 0.00 0.00 0.00 0.00 0.00 0.00 0.00 0.00 0.00 0.00 0.00 0.00 0.00 0.00 0.00 0.00 0.00 0.00 0.00 0.00 0.00 0.00 0.00 0.00 0.00 0.00 0.00 0.00 0.00 0.00 0.00 0.00 0.00 0.00 0.00 0.00 0.00 0.00 0.00 0.00 0.00 0.00 0.00 0.00
0.00 0.00 0.01 0.00 0.00 0.00 0.01 0.01 0.00 0.00 0.00 0.00 0.00 0.00 0.00 0.00 0.00 0.00 0.00 0.00 0.00 0.00 0.00 0.00 0.00 0.00 0.00 0.00 0.00 0.00 0.00 0.00 0.00 0.00 0.00 0.00 0.00 0.00 0.00 0.00 0.00 0.00 0.00 0.00 0.00

GFSSW_prec_precacc24_081.txt.gz
Total_Precipitation_Accumulation
0.07 0.09 0.08 0.09 0.10 0.09 0.11 0.10 0.14 0.14 0.13 0.11 0.12 0.11 0.13 0.10 0.05 0.04 0.04 0.01 0.02 0.07 0.18 0.01 0.01 0.02 0.07 0.11 0.21 0.28 0.60 0.18 0.01 0.00 0.00 0.00 0.00 0.00 0.00 0.00 0.00 0.00 0.00 0.02 0.03
0.06 0.08 0.10 0.11 0.10 0.07 0.07 0.16 0.15 0.09 0.12 0.11 0.09 0.11 0.12 0.12 0.02 0.00 0.00 0.03 0.07 0.21 0.17 0.06 0.01 0.02 0.13 0.11 0.28 0.46 0.45 0.19 0.00 0.00 0.02 0.02 0.00 0.00 0.00 0.00 0.01 0.02 0.01 0.02 0.04
0.06 0.07 0.09 0.10 0.12 0.08 0.11 0.18 0.17 0.13 0.16 0.10 0.10 0.11 0.13 0.08 0.02 0.00 0.02 0.03 0.09 0.27 0.25 0.16 0.05 0.05 0.16 0.13 0.16 0.24 0.18 0.00 0.00 0.03 0.08 0.03 0.00 0.00 0.00 0.00 0.00 0.03 0.05 0.08 0.14
0.08 0.08 0.08 0.11 0.11 0.11 0.15 0.14 0.17 0.16 0.17 0.10 0.08 0.12 0.16 0.08 0.03 0.03 0.01 0.03 0.14 0.34 0.28 0.20 0.12 0.06 0.07 0.06 0.03 0.08 0.05 0.02 0.03 0.17 0.16 0.04 0.00 0.00 0.00 0.00 0.00 0.06 0.12 0.16 0.18
0.09 0.08 0.09 0.09 0.09 0.13 0.13 0.17 0.16 0.13 0.12 0.11 0.08 0.16 0.09 0.06 0.01 0.03 0.02 0.08 0.31 0.54 0.25 0.21 0.18 0.03 0.02 0.03 0.04 0.03 0.05 0.05 0.11 0.26 0.10 0.08 0.09 0.00 0.00 0.00 0.00 0.02 0.07 0.16 0.23
0.09 0.08 0.09 0.09 0.10 0.14 0.12 0.14 0.11 0.08 0.15 0.21 0.15 0.06 0.02 0.01 0.00 0.00 0.01 0.11 0.26 0.55 0.30 0.25 0.23 0.02 0.03 0.03 0.05 0.02 0.04 0.14 0.28 0.14 0.06 0.16 0.14 0.04 0.00 0.00 0.00 0.03 0.03 0.11 0.19
0.09 0.08 0.09 0.10 0.12 0.14 0.12 0.09 0.03 0.04 0.08 0.03 0.03 0.02 0.02 0.00 0.03 0.05 0.01 0.04 0.19 0.42 0.23 0.25 0.47 0.09 0.03 0.07 0.09 0.05 0.10 0.21 0.21 0.22 0.18 0.08 0.19 0.22 0.00 0.00 0.00 0.02 0.03 0.02 0.03
0.08 0.06 0.07 0.09 0.10 0.12 0.07 0.03 0.02 0.00 0.00 0.04 0.09 0.04 0.01 0.00 0.00 0.01 0.01 0.02 0.14 0.28 0.31 0.31 0.72 0.17 0.07 0.07 0.18 0.25 0.14 0.12 0.07 0.10 0.24 0.21 0.18 0.06 0.01 0.00 0.00 0.00 0.00 0.01 0.00
0.06 0.06 0.07 0.08 0.08 0.06 0.02 0.01 0.00 0.00 0.00 0.01 0.05 0.06 0.00 0.00 0.00 0.00 0.04 0.14 0.10 0.28 0.38 0.42 1.07 0.25 0.14 0.12 0.17 0.23 0.05 0.01 0.04 0.04 0.05 0.12 0.05 0.04 0.07 0.00 0.00 0.00 0.00 0.00 0.01
0.07 0.06 0.05 0.05 0.05 0.03 0.02 0.00 0.00 0.00 0.01 0.03 0.12 0.10 0.05 0.01 0.01 0.00 0.04 0.27 0.23 0.45 0.82 0.98 1.75 0.47 0.13 0.10 0.06 0.02 0.00 0.01 0.02 0.03 0.02 0.02 0.01 0.01 0.08 0.03 0.00 0.00 0.00 0.00 0.01
0.06 0.05 0.04 0.02 0.02 0.02 0.02 0.01 0.03 0.06 0.04 0.06 0.04 0.01 0.05 0.00 0.03 0.08 0.14 0.36 0.57 0.92 1.10 0.87 1.68 0.50 0.02 0.00 0.00 0.00 0.01 0.00 0.01 0.00 0.00 0.00 0.01 0.01 0.03 0.07 0.01 0.00 0.00 0.00 0.00
0.05 0.04 0.03 0.03 0.02 0.01 0.00 0.01 0.01 0.01 0.01 0.01 0.00 0.00 0.00 0.01 0.01 0.15 0.26 0.47 0.94 1.14 0.97 0.78 0.81 0.23 0.03 0.01 0.00 0.01 0.01 0.01 0.00 0.00 0.00 0.00 0.02 0.01 0.02 0.04 0.03 0.00 0.00 0.00 0.00
0.04 0.03 0.03 0.03 0.01 0.01 0.00 0.00 0.00 0.00 0.03 0.09 0.02 0.01 0.00 0.07 0.18 0.36 0.40 0.46 0.97 0.91 0.82 0.38 0.31 0.20 0.07 0.03 0.01 0.00 0.00 0.00 0.00 0.00 0.00 0.00 0.01 0.02 0.01 0.00 0.02 0.00 0.00 0.00 0.00
0.03 0.03 0.03 0.01 0.00 0.00 0.00 0.00 0.00 0.00 0.15 0.37 0.14 0.09 0.10 0.30 0.40 0.55 0.47 0.53 0.96 0.62 0.57 0.37 0.28 0.24 0.14 0.06 0.00 0.00 0.00 0.00 0.00 0.00 0.00 0.00 0.01 0.00 0.00 0.00 0.00 0.00 0.00 0.00 0.00
0.02 0.03 0.03 0.00 0.00 0.00 0.00 0.00 0.00 0.02 0.24 0.24 0.12 0.11 0.25 0.54 0.37 0.78 0.32 0.59 0.52 0.62 0.66 0.43 0.22 0.24 0.26 0.10 0.02 0.01 0.00 0.00 0.00 0.00 0.00 0.00 0.00 0.00 0.00 0.00 0.00 0.00 0.00 0.00 0.00
0.00 0.03 0.02 0.00 0.00 0.00 0.00 0.00 0.00 0.06 0.47 0.77 0.50 0.38 0.44 0.42 0.48 0.36 0.39 0.67 0.31 0.59 0.48 0.20 0.17 0.31 0.20 0.19 0.03 0.02 0.00 0.00 0.00 0.00 0.01 0.00 0.00 0.00 0.00 0.00 0.00 0.00 0.00 0.00 0.00
0.00 0.00 0.00 0.00 0.00 0.00 0.00 0.00 0.00 0.02 0.09 0.51 0.86 0.51 0.38 0.36 0.28 0.49 0.64 0.46 0.29 0.73 0.82 0.34 0.36 0.29 0.20 0.33 0.06 0.01 0.00 0.04 0.06 0.05 0.01 0.00 0.00 0.00 0.00 0.00 0.00 0.00 0.00 0.00 0.00
0.00 0.00 0.00 0.00 0.00 0.00 0.00 0.00 0.00 0.01 0.03 0.05 0.16 0.24 0.34 0.32 0.49 0.48 0.39 0.16 0.13 0.53 0.52 0.45 0.60 0.38 0.28 0.27 0.09 0.04 0.01 0.02 0.01 0.01 0.00 0.00 0.00 0.00 0.00 0.00 0.00 0.00 0.00 0.00 0.00
0.00 0.00 0.00 0.00 0.00 0.00 0.00 0.00 0.00 0.00 0.00 0.00 0.02 0.09 0.22 0.15 0.25 0.19 0.13 0.05 0.16 0.35 0.20 0.13 0.25 0.21 0.22 0.22 0.11 0.07 0.01 0.00 0.00 0.00 0.00 0.00 0.00 0.00 0.00 0.00 0.00 0.00 0.00 0.00 0.00
0.00 0.00 0.00 0.00 0.00 0.00 0.00 0.00 0.00 0.00 0.00 0.00 0.01 0.01 0.03 0.03 0.03 0.03 0.03 0.01 0.11 0.14 0.02 0.01 0.14 0.18 0.13 0.28 0.20 0.03 0.01 0.00 0.00 0.00 0.00 0.00 0.00 0.00 0.00 0.00 0.00 0.00 0.00 0.00 0.00
0.00 0.00 0.00 0.00 0.00 0.01 0.00 0.00 0.00 0.00 0.00 0.00 0.00 0.00 0.01 0.00 0.00 0.00 0.00 0.02 0.06 0.05 0.00 0.00 0.04 0.15 0.10 0.24 0.23 0.08 0.02 0.00 0.00 0.00 0.00 0.00 0.00 0.00 0.00 0.00 0.00 0.00 0.00 0.00 0.00
0.00 0.00 0.00 0.00 0.01 0.00 0.00 0.00 0.00 0.00 0.00 0.00 0.00 0.00 0.00 0.00 0.00 0.00 0.00 0.01 0.02 0.00 0.00 0.00 0.00 0.05 0.07 0.01 0.01 0.03 0.00 0.00 0.00 0.00 0.00 0.00 0.00 0.00 0.00 0.00 0.00 0.00 0.00 0.00 0.00
0.00 0.00 0.00 0.01 0.00 0.00 0.00 0.00 0.00 0.00 0.00 0.00 0.00 0.00 0.00 0.00 0.00 0.00 0.00 0.00 0.00 0.00 0.00 0.00 0.00 0.03 0.07 0.03 0.01 0.05 0.01 0.00 0.00 0.00 0.00 0.00 0.00 0.00 0.00 0.00 0.00 0.00 0.00 0.00 0.00
0.00 0.00 0.00 0.00 0.00 0.00 0.00 0.00 0.00 0.00 0.00 0.00 0.00 0.00 0.00 0.00 0.00 0.00 0.00 0.00 0.00 0.00 0.00 0.00 0.00 0.00 0.01 0.01 0.00 0.00 0.01 0.00 0.00 0.00 0.00 0.00 0.00 0.00 0.00 0.00 0.00 0.00 0.00 0.00 0.00
0.00 0.00 0.00 0.00 0.00 0.00 0.00 0.00 0.00 0.00 0.00 0.00 0.00 0.00 0.00 0.00 0.00 0.00 0.00 0.00 0.00 0.00 0.00 0.00 0.00 0.00 0.00 0.00 0.00 0.00 0.00 0.00 0.00 0.00 0.00 0.00 0.00 0.00 0.00 0.00 0.00 0.00 0.00 0.00 0.00
0.00 0.00 0.00 0.00 0.00 0.00 0.00 0.00 0.00 0.00 0.00 0.00 0.00 0.00 0.00 0.00 0.00 0.00 0.00 0.00 0.00 0.00 0.00 0.00 0.00 0.00 0.00 0.00 0.00 0.00 0.00 0.00 0.00 0.00 0.00 0.00 0.00 0.00 0.00 0.00 0.00 0.00 0.00 0.00 0.00
0.00 0.00 0.01 0.00 0.00 0.00 0.00 0.00 0.00 0.00 0.00 0.00 0.00 0.00 0.00 0.00 0.00 0.00 0.00 0.00 0.00 0.00 0.00 0.00 0.00 0.00 0.00 0.00 0.00 0.00 0.00 0.00 0.00 0.00 0.00 0.00 0.00 0.00 0.00 0.00 0.00 0.00 0.00 0.00 0.00

GFSSW_prec_precacc24_084.txt.gz
Total_Precipitation_Accumulation
0.06 0.08 0.07 0.08 0.10 0.10 0.11 0.11 0.15 0.13 0.10 0.10 0.11 0.09 0.10 0.10 0.05 0.04 0.04 0.01 0.02 0.07 0.21 0.01 0.01 0.02 0.07 0.12 0.29 0.37 0.72 0.20 0.01 0.00 0.00 0.00 0.00 0.00 0.00 0.00 0.00 0.00 0.06 0.10 0.03
0.06 0.07 0.07 0.09 0.09 0.07 0.07 0.16 0.15 0.09 0.11 0.11 0.09 0.09 0.09 0.11 0.02 0.00 0.00 0.03 0.07 0.22 0.21 0.07 0.02 0.03 0.12 0.11 0.38 0.60 0.62 0.24 0.00 0.00 0.02 0.02 0.00 0.00 0.00 0.00 0.01 0.02 0.01 0.02 0.06
0.07 0.08 0.08 0.09 0.11 0.09 0.11 0.17 0.16 0.13 0.16 0.09 0.10 0.10 0.10 0.06 0.02 0.02 0.03 0.03 0.06 0.24 0.30 0.19 0.08 0.07 0.15 0.13 0.22 0.38 0.30 0.05 0.00 0.04 0.09 0.03 0.00 0.00 0.00 0.00 0.00 0.03 0.05 0.09 0.17
0.07 0.07 0.07 0.09 0.10 0.10 0.14 0.13 0.17 0.15 0.16 0.10 0.08 0.11 0.14 0.06 0.05 0.02 0.01 0.03 0.13 0.31 0.34 0.27 0.16 0.09 0.08 0.06 0.04 0.13 0.08 0.04 0.05 0.21 0.20 0.05 0.00 0.00 0.00 0.00 0.00 0.06 0.12 0.17 0.22
0.07 0.07 0.07 0.08 0.08 0.11 0.12 0.17 0.15 0.11 0.09 0.09 0.06 0.12 0.07 0.03 0.01 0.03 0.00 0.06 0.29 0.46 0.26 0.33 0.27 0.08 0.03 0.03 0.04 0.04 0.07 0.06 0.18 0.43 0.15 0.09 0.09 0.00 0.00 0.00 0.00 0.02 0.07 0.17 0.26
0.07 0.06 0.05 0.06 0.07 0.09 0.10 0.14 0.10 0.06 0.07 0.11 0.05 0.01 0.01 0.02 0.00 0.00 0.00 0.07 0.19 0.55 0.31 0.29 0.34 0.13 0.05 0.03 0.05 0.02 0.04 0.15 0.35 0.35 0.17 0.19 0.15 0.04 0.00 0.00 0.00 0.03 0.03 0.11 0.22
0.07 0.06 0.06 0.06 0.05 0.05 0.09 0.09 0.05 0.03 0.06 0.02 0.01 0.00 0.00 0.00 0.03 0.03 0.01 0.03 0.11 0.51 0.34 0.28 0.51 0.18 0.04 0.06 0.09 0.06 0.11 0.23 0.30 0.36 0.28 0.11 0.21 0.22 0.00 0.00 0.00 0.02 0.03 0.02 0.03
0.06 0.06 0.05 0.04 0.03 0.03 0.05 0.04 0.03 0.00 0.00 0.01 0.04 0.00 0.00 0.00 0.00 0.01 0.00 0.02 0.11 0.27 0.59 0.40 0.79 0.25 0.07 0.05 0.18 0.30 0.18 0.17 0.13 0.19 0.34 0.23 0.18 0.06 0.01 0.00 0.00 0.00 0.00 0.01 0.01
0.05 0.05 0.05 0.03 0.02 0.02 0.02 0.01 0.00 0.00 0.00 0.01 0.01 0.01 0.00 0.00 0.00 0.00 0.00 0.02 0.08 0.22 0.53 0.53 1.17 0.35 0.14 0.11 0.20 0.28 0.09 0.02 0.08 0.10 0.09 0.13 0.06 0.05 0.07 0.00 0.00 0.00 0.00 0.00 0.01
0.05 0.05 0.04 0.03 0.02 0.02 0.02 0.00 0.00 0.00 0.01 0.01 0.05 0.05 0.04 0.01 0.00 0.00 0.01 0.05 0.12 0.32 0.86 1.15 1.89 0.56 0.13 0.09 0.06 0.04 0.02 0.01 0.03 0.08 0.09 0.04 0.03 0.02 0.08 0.03 0.00 0.00 0.00 0.00 0.01
0.04 0.05 0.04 0.02 0.03 0.02 0.01 0.00 0.01 0.02 0.01 0.03 0.02 0.01 0.01 0.00 0.00 0.06 0.07 0.08 0.20 0.71 1.20 0.99 1.83 0.58 0.03 0.00 0.00 0.00 0.01 0.00 0.01 0.02 0.03 0.02 0.02 0.01 0.03 0.07 0.01 0.00 0.00 0.00 0.00
0.04 0.04 0.03 0.03 0.03 0.01 0.00 0.00 0.00 0.00 0.00 0.00 0.00 0.00 0.00 0.00 0.00 0.10 0.11 0.15 0.35 1.00 1.14 0.79 0.90 0.29 0.06 0.01 0.01 0.01 0.02 0.04 0.04 0.02 0.01 0.01 0.02 0.01 0.02 0.04 0.03 0.00 0.00 0.00 0.00
0.04 0.03 0.03 0.03 0.01 0.00 0.00 0.00 0.00 0.00 0.02 0.08 0.01 0.01 0.00 0.00 0.01 0.13 0.32 0.27 0.60 0.89 0.90 0.42 0.38 0.29 0.08 0.06 0.03 0.01 0.00 0.02 0.01 0.01 0.00 0.00 0.01 0.02 0.01 0.00 0.02 0.00 0.00 0.00 0.00
0.02 0.03 0.03 0.02 0.00 0.00 0.00 0.00 0.00 0.00 0.13 0.37 0.13 0.05 0.03 0.01 0.11 0.38 0.41 0.41 0.77 0.63 0.57 0.39 0.31 0.28 0.08 0.06 0.02 0.02 0.00 0.00 0.00 0.00 0.00 0.00 0.01 0.00 0.00 0.00 0.00 0.00 0.00 0.00 0.00
0.02 0.03 0.03 0.01 0.00 0.00 0.00 0.00 0.00 0.01 0.21 0.21 0.07 0.07 0.11 0.21 0.26 0.74 0.29 0.47 0.46 0.62 0.66 0.44 0.22 0.19 0.08 0.05 0.03 0.02 0.00 0.01 0.00 0.01 0.00 0.00 0.00 0.00 0.00 0.00 0.00 0.00 0.00 0.00 0.00
0.01 0.03 0.02 0.00 0.00 0.00 0.00 0.00 0.00 0.02 0.33 0.57 0.23 0.16 0.20 0.26 0.41 0.31 0.29 0.61 0.33 0.68 0.52 0.22 0.18 0.26 0.08 0.08 0.01 0.03 0.01 0.00 0.00 0.01 0.01 0.00 0.00 0.00 0.00 0.00 0.00 0.00 0.00 0.00 0.00
0.00 0.00 0.00 0.00 0.00 0.00 0.00 0.00 0.00 0.01 0.06 0.39 0.66 0.27 0.18 0.20 0.16 0.28 0.48 0.44 0.32 0.75 0.78 0.33 0.34 0.24 0.08 0.29 0.05 0.01 0.00 0.03 0.05 0.05 0.01 0.00 0.00 0.00 0.00 0.00 0.00 0.00 0.00 0.00 0.00
0.00 0.00 0.00 0.00 0.00 0.00 0.00 0.00 0.00 0.01 0.02 0.04 0.15 0.21 0.28 0.25 0.33 0.28 0.25 0.15 0.12 0.50 0.43 0.37 0.53 0.29 0.13 0.25 0.09 0.03 0.00 0.01 0.01 0.01 0.00 0.00 0.00 0.00 0.00 0.00 0.00 0.00 0.00 0.00 0.00
0.00 0.00 0.00 0.00 0.00 0.00 0.00 0.00 0.00 0.00 0.00 0.00 0.02 0.09 0.20 0.15 0.25 0.15 0.09 0.04 0.15 0.31 0.15 0.08 0.20 0.12 0.10 0.22 0.10 0.06 0.01 0.00 0.00 0.00 0.00 0.00 0.00 0.00 0.00 0.00 0.00 0.00 0.00 0.00 0.00
0.00 0.00 0.00 0.00 0.00 0.00 0.00 0.00 0.00 0.00 0.00 0.00 0.01 0.01 0.03 0.03 0.03 0.02 0.02 0.01 0.11 0.14 0.03 0.01 0.10 0.08 0.08 0.18 0.13 0.03 0.01 0.00 0.00 0.00 0.00 0.00 0.00 0.00 0.00 0.00 0.00 0.00 0.00 0.00 0.00
0.00 0.00 0.00 0.00 0.00 0.01 0.00 0.00 0.00 0.00 0.00 0.00 0.00 0.00 0.01 0.00 0.00 0.00 0.00 0.02 0.06 0.05 0.00 0.00 0.04 0.13 0.10 0.17 0.15 0.06 0.01 0.00 0.00 0.00 0.00 0.00 0.00 0.00 0.00 0.00 0.00 0.00 0.00 0.00 0.00
0.00 0.00 0.00 0.00 0.01 0.00 0.00 0.00 0.00 0.00 0.00 0.00 0.00 0.00 0.00 0.00 0.00 0.00 0.00 0.01 0.02 0.00 0.00 0.00 0.00 0.05 0.08 0.01 0.01 0.03 0.01 0.00 0.00 0.00 0.00 0.00 0.00 0.00 0.00 0.00 0.00 0.00 0.00 0.00 0.00
0.00 0.00 0.00 0.01 0.00 0.00 0.00 0.00 0.00 0.00 0.00 0.00 0.00 0.00 0.00 0.00 0.00 0.00 0.00 0.00 0.00 0.00 0.00 0.00 0.00 0.03 0.07 0.04 0.01 0.05 0.01 0.00 0.00 0.00 0.00 0.00 0.00 0.00 0.00 0.00 0.00 0.00 0.00 0.00 0.00
0.00 0.00 0.00 0.00 0.00 0.00 0.00 0.00 0.00 0.00 0.00 0.00 0.00 0.00 0.00 0.00 0.00 0.00 0.00 0.00 0.00 0.00 0.00 0.00 0.00 0.00 0.02 0.01 0.00 0.00 0.01 0.00 0.00 0.00 0.00 0.00 0.00 0.00 0.00 0.00 0.00 0.00 0.00 0.00 0.00
0.00 0.00 0.00 0.00 0.00 0.00 0.00 0.00 0.00 0.00 0.00 0.00 0.00 0.00 0.00 0.00 0.00 0.00 0.00 0.00 0.00 0.00 0.00 0.00 0.00 0.00 0.00 0.00 0.00 0.00 0.00 0.00 0.00 0.00 0.00 0.00 0.00 0.00 0.00 0.00 0.00 0.00 0.00 0.00 0.00
0.00 0.00 0.00 0.00 0.00 0.00 0.00 0.00 0.00 0.00 0.00 0.00 0.00 0.00 0.00 0.00 0.00 0.00 0.00 0.00 0.00 0.00 0.00 0.00 0.00 0.00 0.00 0.00 0.00 0.00 0.00 0.00 0.00 0.00 0.00 0.00 0.00 0.00 0.00 0.00 0.00 0.00 0.00 0.00 0.00
0.00 0.00 0.00 0.00 0.00 0.00 0.00 0.00 0.00 0.00 0.00 0.00 0.00 0.00 0.00 0.00 0.00 0.00 0.00 0.00 0.00 0.00 0.00 0.00 0.00 0.00 0.00 0.00 0.00 0.00 0.00 0.00 0.00 0.00 0.00 0.00 0.00 0.00 0.00 0.00 0.00 0.00 0.00 0.00 0.00

GFSSW_prec_precacc24_087.txt.gz
Total_Precipitation_Accumulation
0.05 0.07 0.07 0.06 0.08 0.09 0.10 0.10 0.15 0.13 0.10 0.09 0.10 0.08 0.10 0.07 0.04 0.04 0.04 0.01 0.02 0.07 0.22 0.01 0.01 0.01 0.05 0.11 0.32 0.45 0.52 0.13 0.01 0.00 0.02 0.00 0.00 0.00 0.00 0.00 0.00 0.01 0.11 0.14 0.03
0.05 0.08 0.07 0.07 0.08 0.06 0.07 0.15 0.14 0.09 0.11 0.11 0.09 0.09 0.09 0.09 0.01 0.00 0.00 0.04 0.11 0.19 0.21 0.08 0.03 0.03 0.11 0.09 0.45 0.70 0.72 0.16 0.01 0.05 0.05 0.02 0.00 0.00 0.00 0.00 0.01 0.03 0.09 0.03 0.07
0.06 0.06 0.06 0.06 0.08 0.07 0.11 0.17 0.16 0.12 0.15 0.09 0.10 0.09 0.09 0.05 0.01 0.02 0.03 0.04 0.10 0.17 0.30 0.23 0.10 0.10 0.13 0.12 0.26 0.59 0.43 0.06 0.03 0.10 0.13 0.03 0.00 0.00 0.00 0.00 0.00 0.03 0.05 0.09 0.19
0.05 0.06 0.05 0.05 0.07 0.07 0.11 0.13 0.17 0.13 0.15 0.09 0.07 0.08 0.08 0.02 0.04 0.02 0.01 0.03 0.13 0.29 0.30 0.30 0.20 0.13 0.09 0.07 0.05 0.26 0.15 0.06 0.08 0.26 0.22 0.06 0.01 0.00 0.00 0.00 0.00 0.06 0.12 0.17 0.23
0.06 0.07 0.05 0.04 0.04 0.05 0.05 0.14 0.14 0.08 0.08 0.07 0.02 0.02 0.01 0.00 0.01 0.03 0.00 0.06 0.29 0.39 0.23 0.38 0.36 0.14 0.07 0.03 0.04 0.06 0.10 0.08 0.20 0.45 0.17 0.10 0.10 0.00 0.00 0.00 0.00 0.02 0.07 0.18 0.27
0.06 0.06 0.04 0.05 0.04 0.03 0.03 0.10 0.09 0.03 0.01 0.01 0.03 0.01 0.00 0.02 0.00 0.00 0.00 0.07 0.17 0.45 0.24 0.36 0.48 0.20 0.10 0.04 0.05 0.02 0.05 0.16 0.38 0.41 0.24 0.23 0.17 0.04 0.00 0.00 0.00 0.03 0.03 0.11 0.24
0.06 0.05 0.05 0.05 0.03 0.03 0.03 0.07 0.04 0.01 0.01 0.01 0.00 0.00 0.00 0.00 0.01 0.01 0.00 0.03 0.07 0.44 0.33 0.36 0.85 0.28 0.15 0.08 0.09 0.07 0.12 0.28 0.39 0.40 0.36 0.29 0.28 0.23 0.00 0.00 0.00 0.02 0.03 0.02 0.04
0.04 0.05 0.05 0.04 0.03 0.02 0.02 0.04 0.03 0.00 0.00 0.00 0.02 0.00 0.00 0.00 0.00 0.00 0.01 0.04 0.09 0.23 0.60 0.46 1.03 0.30 0.13 0.06 0.17 0.31 0.24 0.21 0.19 0.24 0.39 0.61 0.38 0.07 0.01 0.00 0.00 0.00 0.00 0.01 0.01
0.04 0.05 0.05 0.04 0.03 0.02 0.02 0.01 0.00 0.00 0.00 0.01 0.01 0.00 0.00 0.00 0.00 0.00 0.00 0.03 0.06 0.16 0.52 0.55 1.19 0.44 0.18 0.10 0.19 0.26 0.13 0.03 0.12 0.14 0.19 0.27 0.31 0.14 0.09 0.00 0.00 0.00 0.00 0.00 0.01
0.05 0.05 0.05 0.03 0.02 0.03 0.03 0.00 0.00 0.00 0.01 0.00 0.00 0.02 0.03 0.01 0.00 0.00 0.01 0.05 0.11 0.18 0.78 1.10 1.86 0.69 0.17 0.08 0.07 0.04 0.03 0.02 0.04 0.12 0.15 0.10 0.14 0.09 0.11 0.03 0.00 0.00 0.00 0.00 0.01
0.04 0.05 0.04 0.02 0.03 0.03 0.01 0.00 0.00 0.00 0.00 0.00 0.00 0.00 0.00 0.00 0.00 0.05 0.06 0.08 0.16 0.41 1.01 1.07 1.83 0.68 0.07 0.00 0.00 0.00 0.01 0.01 0.02 0.03 0.11 0.10 0.04 0.03 0.04 0.07 0.01 0.00 0.00 0.00 0.00
0.04 0.04 0.03 0.03 0.03 0.02 0.00 0.00 0.00 0.00 0.00 0.00 0.00 0.00 0.00 0.00 0.00 0.09 0.07 0.09 0.29 0.72 1.02 0.82 0.92 0.31 0.08 0.02 0.01 0.02 0.02 0.05 0.07 0.06 0.02 0.05 0.04 0.02 0.02 0.04 0.03 0.00 0.00 0.00 0.00
0.04 0.03 0.03 0.04 0.01 0.00 0.00 0.00 0.00 0.00 0.02 0.06 0.00 0.00 0.00 0.00 0.01 0.11 0.09 0.06 0.31 0.76 0.93 0.49 0.45 0.30 0.09 0.06 0.05 0.02 0.01 0.08 0.04 0.05 0.06 0.02 0.02 0.02 0.01 0.00 0.02 0.00 0.00 0.00 0.00
0.02 0.02 0.03 0.02 0.00 0.00 0.00 0.00 0.00 0.00 0.11 0.32 0.08 0.02 0.02 0.04 0.14 0.24 0.11 0.05 0.25 0.59 0.63 0.50 0.36 0.28 0.08 0.06 0.03 0.02 0.00 0.04 0.04 0.01 0.05 0.01 0.01 0.00 0.00 0.00 0.00 0.00 0.00 0.00 0.00
0.02 0.02 0.04 0.01 0.00 0.00 0.00 0.00 0.00 0.00 0.16 0.20 0.07 0.05 0.07 0.14 0.20 0.35 0.10 0.09 0.15 0.54 0.72 0.53 0.36 0.28 0.13 0.09 0.04 0.03 0.01 0.02 0.03 0.02 0.02 0.00 0.00 0.00 0.00 0.00 0.00 0.00 0.00 0.00 0.00
0.01 0.03 0.02 0.00 0.00 0.00 0.00 0.00 0.00 0.01 0.17 0.34 0.15 0.08 0.08 0.19 0.29 0.24 0.22 0.36 0.26 0.68 0.53 0.26 0.28 0.41 0.09 0.06 0.01 0.06 0.03 0.03 0.02 0.02 0.01 0.00 0.00 0.00 0.00 0.00 0.00 0.00 0.00 0.00 0.00
0.00 0.00 0.00 0.00 0.00 0.00 0.00 0.00 0.00 0.01 0.04 0.22 0.37 0.19 0.16 0.21 0.16 0.28 0.43 0.40 0.34 0.78 0.78 0.30 0.34 0.24 0.03 0.09 0.03 0.06 0.01 0.04 0.05 0.04 0.01 0.00 0.00 0.00 0.00 0.00 0.00 0.00 0.00 0.00 0.00
0.00 0.00 0.00 0.00 0.00 0.00 0.00 0.00 0.00 0.00 0.01 0.04 0.13 0.19 0.25 0.17 0.19 0.20 0.21 0.14 0.12 0.50 0.42 0.36 0.53 0.26 0.05 0.06 0.04 0.04 0.00 0.01 0.01 0.01 0.00 0.00 0.00 0.00 0.00 0.00 0.00 0.00 0.00 0.00 0.00
0.00 0.00 0.00 0.00 0.00 0.00 0.00 0.00 0.00 0.00 0.00 0.00 0.02 0.08 0.17 0.13 0.15 0.09 0.07 0.04 0.14 0.30 0.12 0.07 0.19 0.12 0.05 0.07 0.06 0.04 0.01 0.00 0.00 0.00 0.00 0.00 0.00 0.00 0.00 0.00 0.00 0.00 0.00 0.00 0.00
0.00 0.00 0.00 0.00 0.00 0.00 0.00 0.00 0.00 0.00 0.00 0.00 0.01 0.01 0.03 0.03 0.02 0.02 0.02 0.01 0.10 0.12 0.01 0.01 0.09 0.06 0.05 0.08 0.10 0.03 0.01 0.00 0.00 0.00 0.00 0.00 0.00 0.00 0.00 0.00 0.00 0.00 0.00 0.00 0.00
0.00 0.01 0.00 0.00 0.00 0.01 0.00 0.00 0.00 0.00 0.00 0.00 0.00 0.00 0.01 0.00 0.00 0.00 0.00 0.02 0.06 0.05 0.00 0.00 0.03 0.08 0.08 0.08 0.10 0.06 0.02 0.00 0.00 0.00 0.00 0.00 0.00 0.00 0.00 0.00 0.00 0.00 0.00 0.00 0.00
0.00 0.00 0.00 0.00 0.01 0.00 0.00 0.00 0.00 0.00 0.00 0.00 0.00 0.00 0.00 0.00 0.00 0.00 0.00 0.01 0.02 0.00 0.00 0.00 0.00 0.04 0.04 0.00 0.01 0.02 0.01 0.00 0.00 0.00 0.00 0.00 0.00 0.00 0.00 0.00 0.00 0.00 0.00 0.00 0.00
0.00 0.00 0.00 0.01 0.00 0.00 0.00 0.00 0.00 0.00 0.00 0.00 0.00 0.00 0.00 0.00 0.00 0.00 0.00 0.00 0.00 0.00 0.00 0.00 0.00 0.03 0.07 0.03 0.01 0.05 0.01 0.00 0.00 0.00 0.00 0.00 0.00 0.00 0.00 0.00 0.00 0.00 0.00 0.00 0.00
0.00 0.00 0.00 0.00 0.00 0.00 0.00 0.00 0.00 0.00 0.00 0.00 0.00 0.00 0.00 0.00 0.00 0.00 0.00 0.00 0.00 0.00 0.00 0.00 0.00 0.00 0.02 0.01 0.00 0.00 0.01 0.00 0.00 0.00 0.00 0.00 0.00 0.00 0.00 0.00 0.00 0.00 0.00 0.00 0.00
0.00 0.00 0.00 0.00 0.00 0.00 0.00 0.00 0.00 0.00 0.00 0.00 0.00 0.00 0.00 0.00 0.00 0.00 0.00 0.00 0.00 0.00 0.00 0.00 0.00 0.00 0.00 0.00 0.00 0.00 0.00 0.00 0.00 0.00 0.00 0.00 0.00 0.00 0.00 0.00 0.00 0.00 0.00 0.00 0.00
0.00 0.00 0.00 0.00 0.00 0.00 0.00 0.00 0.00 0.00 0.00 0.00 0.00 0.00 0.00 0.00 0.00 0.00 0.00 0.00 0.00 0.00 0.00 0.00 0.00 0.00 0.00 0.00 0.00 0.00 0.00 0.00 0.00 0.00 0.00 0.00 0.00 0.00 0.00 0.00 0.00 0.00 0.00 0.00 0.00
0.00 0.00 0.00 0.00 0.00 0.00 0.00 0.00 0.00 0.00 0.00 0.00 0.00 0.00 0.00 0.00 0.00 0.00 0.00 0.00 0.00 0.00 0.00 0.00 0.00 0.00 0.00 0.00 0.00 0.00 0.00 0.00 0.00 0.00 0.00 0.00 0.00 0.00 0.00 0.00 0.00 0.00 0.00 0.00 0.00

GFSSW_prec_precacc24_090.txt.gz
Total_Precipitation_Accumulation
0.04 0.07 0.06 0.06 0.06 0.06 0.09 0.10 0.14 0.13 0.11 0.10 0.10 0.08 0.08 0.05 0.02 0.04 0.04 0.01 0.02 0.07 0.22 0.01 0.01 0.00 0.05 0.11 0.33 0.51 0.51 0.08 0.00 0.00 0.02 0.00 0.00 0.00 0.00 0.00 0.00 0.03 0.14 0.15 0.03
0.04 0.06 0.06 0.05 0.04 0.05 0.05 0.12 0.14 0.09 0.11 0.11 0.09 0.09 0.08 0.07 0.01 0.00 0.00 0.04 0.11 0.22 0.22 0.08 0.04 0.03 0.10 0.08 0.46 0.75 0.75 0.14 0.01 0.06 0.03 0.00 0.00 0.00 0.00 0.00 0.02 0.06 0.17 0.09 0.08
0.05 0.05 0.05 0.05 0.04 0.06 0.05 0.06 0.13 0.11 0.14 0.09 0.10 0.09 0.08 0.03 0.01 0.02 0.03 0.04 0.10 0.21 0.30 0.26 0.13 0.11 0.11 0.10 0.28 0.76 0.55 0.12 0.04 0.14 0.08 0.00 0.00 0.00 0.00 0.00 0.01 0.05 0.07 0.18 0.30
0.05 0.05 0.05 0.04 0.04 0.05 0.04 0.05 0.10 0.12 0.14 0.07 0.05 0.05 0.04 0.01 0.04 0.02 0.01 0.03 0.13 0.37 0.37 0.31 0.23 0.16 0.09 0.07 0.07 0.36 0.31 0.12 0.10 0.26 0.18 0.03 0.00 0.00 0.00 0.00 0.00 0.07 0.18 0.26 0.30
0.05 0.06 0.04 0.04 0.04 0.04 0.03 0.04 0.04 0.07 0.07 0.03 0.00 0.00 0.00 0.00 0.01 0.02 0.00 0.06 0.29 0.40 0.27 0.38 0.39 0.20 0.09 0.03 0.05 0.09 0.20 0.17 0.30 0.47 0.22 0.12 0.09 0.00 0.00 0.00 0.00 0.02 0.07 0.25 0.39
0.06 0.05 0.04 0.05 0.04 0.03 0.03 0.04 0.03 0.03 0.02 0.00 0.00 0.00 0.00 0.02 0.00 0.00 0.00 0.07 0.18 0.46 0.26 0.37 0.52 0.30 0.13 0.07 0.07 0.03 0.10 0.20 0.55 0.45 0.28 0.24 0.18 0.04 0.00 0.00 0.00 0.03 0.03 0.14 0.27
0.05 0.05 0.05 0.05 0.03 0.03 0.03 0.04 0.04 0.01 0.01 0.00 0.00 0.00 0.00 0.00 0.00 0.00 0.01 0.03 0.06 0.41 0.35 0.36 0.92 0.48 0.24 0.12 0.09 0.07 0.16 0.36 0.63 0.54 0.41 0.32 0.29 0.24 0.00 0.00 0.01 0.02 0.04 0.05 0.07
0.04 0.05 0.04 0.04 0.03 0.03 0.02 0.04 0.03 0.00 0.00 0.00 0.02 0.00 0.00 0.00 0.00 0.00 0.00 0.05 0.07 0.19 0.56 0.41 1.27 0.57 0.25 0.10 0.15 0.29 0.30 0.36 0.38 0.39 0.48 0.70 0.42 0.07 0.01 0.00 0.00 0.00 0.00 0.04 0.05
0.04 0.04 0.05 0.04 0.03 0.02 0.02 0.01 0.00 0.00 0.00 0.01 0.01 0.00 0.00 0.00 0.00 0.00 0.00 0.03 0.06 0.15 0.44 0.54 1.28 0.63 0.31 0.17 0.16 0.24 0.15 0.12 0.34 0.25 0.25 0.39 0.39 0.15 0.09 0.00 0.00 0.00 0.00 0.01 0.04
0.04 0.05 0.05 0.03 0.02 0.03 0.03 0.00 0.00 0.00 0.01 0.00 0.00 0.02 0.03 0.01 0.00 0.00 0.01 0.04 0.09 0.13 0.56 1.07 1.83 0.76 0.38 0.19 0.08 0.06 0.05 0.03 0.11 0.23 0.18 0.17 0.21 0.19 0.14 0.04 0.00 0.00 0.00 0.00 0.01
0.04 0.05 0.04 0.02 0.03 0.03 0.01 0.00 0.00 0.00 0.00 0.00 0.00 0.00 0.00 0.00 0.00 0.04 0.05 0.08 0.11 0.31 0.63 0.92 1.81 0.72 0.25 0.07 0.00 0.00 0.01 0.01 0.03 0.04 0.13 0.15 0.09 0.09 0.10 0.10 0.01 0.00 0.00 0.00 0.00
0.04 0.04 0.03 0.03 0.03 0.02 0.00 0.00 0.00 0.00 0.00 0.00 0.00 0.00 0.00 0.00 0.00 0.07 0.06 0.09 0.19 0.61 0.71 0.72 0.92 0.33 0.18 0.06 0.02 0.03 0.03 0.05 0.11 0.10 0.03 0.10 0.07 0.05 0.10 0.08 0.03 0.00 0.00 0.00 0.00
0.04 0.03 0.02 0.04 0.01 0.00 0.00 0.00 0.00 0.00 0.00 0.01 0.00 0.00 0.00 0.01 0.01 0.10 0.08 0.07 0.27 0.73 0.72 0.48 0.47 0.31 0.13 0.10 0.05 0.04 0.02 0.09 0.06 0.14 0.09 0.03 0.03 0.02 0.03 0.01 0.02 0.00 0.00 0.00 0.00
0.02 0.02 0.03 0.02 0.00 0.00 0.00 0.00 0.00 0.00 0.07 0.17 0.02 0.01 0.02 0.05 0.14 0.24 0.10 0.06 0.30 0.62 0.48 0.49 0.36 0.29 0.11 0.07 0.03 0.02 0.00 0.05 0.05 0.05 0.15 0.05 0.02 0.00 0.00 0.00 0.00 0.00 0.00 0.00 0.00
0.01 0.02 0.03 0.01 0.00 0.00 0.00 0.00 0.00 0.00 0.10 0.16 0.05 0.04 0.05 0.07 0.15 0.24 0.05 0.08 0.18 0.39 0.56 0.56 0.38 0.29 0.12 0.09 0.04 0.03 0.01 0.03 0.07 0.04 0.07 0.05 0.02 0.00 0.00 0.00 0.00 0.00 0.00 0.00 0.00
0.01 0.03 0.01 0.00 0.00 0.00 0.00 0.00 0.00 0.01 0.03 0.23 0.13 0.07 0.05 0.07 0.05 0.04 0.09 0.14 0.25 0.59 0.52 0.28 0.27 0.41 0.09 0.06 0.01 0.06 0.04 0.04 0.07 0.07 0.03 0.00 0.00 0.00 0.00 0.00 0.00 0.00 0.00 0.00 0.00
0.00 0.00 0.00 0.00 0.00 0.00 0.00 0.00 0.00 0.00 0.01 0.14 0.34 0.18 0.12 0.10 0.08 0.13 0.15 0.11 0.28 0.67 0.78 0.34 0.45 0.29 0.03 0.08 0.03 0.09 0.03 0.14 0.20 0.17 0.01 0.00 0.00 0.00 0.00 0.00 0.00 0.00 0.00 0.00 0.00
0.00 0.00 0.00 0.00 0.00 0.00 0.00 0.00 0.00 0.00 0.01 0.03 0.12 0.16 0.22 0.15 0.16 0.13 0.11 0.10 0.12 0.51 0.42 0.37 0.54 0.24 0.05 0.06 0.09 0.10 0.02 0.02 0.03 0.01 0.00 0.00 0.00 0.00 0.00 0.00 0.00 0.00 0.00 0.00 0.00
0.00 0.00 0.00 0.00 0.00 0.00 0.00 0.00 0.00 0.00 0.00 0.00 0.02 0.07 0.11 0.07 0.12 0.06 0.06 0.04 0.14 0.30 0.12 0.07 0.19 0.10 0.05 0.05 0.06 0.05 0.01 0.00 0.00 0.00 0.00 0.00 0.00 0.00 0.00 0.00 0.00 0.00 0.00 0.00 0.00
0.00 0.00 0.00 0.00 0.00 0.00 0.00 0.00 0.00 0.00 0.00 0.00 0.01 0.01 0.02 0.02 0.01 0.02 0.02 0.01 0.10 0.12 0.01 0.01 0.09 0.05 0.05 0.03 0.02 0.02 0.01 0.00 0.00 0.00 0.00 0.00 0.00 0.00 0.00 0.00 0.00 0.00 0.00 0.00 0.00
0.00 0.01 0.00 0.00 0.00 0.01 0.00 0.00 0.00 0.00 0.00 0.00 0.00 0.00 0.01 0.00 0.00 0.00 0.00 0.02 0.06 0.05 0.00 0.00 0.03 0.07 0.07 0.05 0.04 0.03 0.01 0.00 0.00 0.00 0.00 0.00 0.00 0.00 0.00 0.00 0.00 0.00 0.00 0.00 0.00
0.00 0.00 0.00 0.00 0.01 0.00 0.00 0.00 0.00 0.00 0.00 0.00 0.00 0.00 0.00 0.00 0.00 0.00 0.00 0.01 0.02 0.00 0.00 0.00 0.00 0.03 0.03 0.00 0.01 0.01 0.01 0.00 0.00 0.00 0.00 0.00 0.00 0.00 0.00 0.00 0.00 0.00 0.00 0.00 0.00
0.00 0.00 0.00 0.01 0.00 0.00 0.00 0.00 0.00 0.00 0.00 0.00 0.00 0.00 0.00 0.00 0.00 0.00 0.00 0.00 0.00 0.00 0.00 0.00 0.00 0.02 0.04 0.02 0.00 0.03 0.01 0.00 0.00 0.00 0.00 0.00 0.00 0.00 0.00 0.00 0.00 0.00 0.00 0.00 0.00
0.00 0.00 0.00 0.00 0.00 0.00 0.00 0.00 0.00 0.00 0.00 0.00 0.00 0.00 0.00 0.00 0.00 0.00 0.00 0.00 0.00 0.00 0.00 0.00 0.00 0.00 0.01 0.01 0.00 0.00 0.01 0.00 0.00 0.00 0.00 0.00 0.00 0.00 0.00 0.00 0.00 0.00 0.00 0.00 0.00
0.00 0.00 0.00 0.00 0.00 0.00 0.00 0.00 0.00 0.00 0.00 0.00 0.00 0.00 0.00 0.00 0.00 0.00 0.00 0.00 0.00 0.00 0.00 0.00 0.00 0.00 0.00 0.00 0.00 0.00 0.00 0.00 0.00 0.00 0.00 0.00 0.00 0.00 0.00 0.00 0.00 0.00 0.00 0.00 0.00
0.00 0.00 0.00 0.00 0.00 0.00 0.00 0.00 0.00 0.00 0.00 0.00 0.00 0.00 0.00 0.00 0.00 0.00 0.00 0.00 0.00 0.00 0.00 0.00 0.00 0.00 0.00 0.00 0.00 0.00 0.00 0.00 0.00 0.00 0.00 0.00 0.00 0.00 0.00 0.00 0.00 0.00 0.00 0.00 0.00
0.00 0.00 0.00 0.00 0.00 0.00 0.00 0.00 0.00 0.00 0.00 0.00 0.00 0.00 0.00 0.00 0.00 0.00 0.00 0.00 0.00 0.00 0.00 0.00 0.00 0.00 0.00 0.00 0.00 0.00 0.00 0.00 0.00 0.00 0.00 0.00 0.00 0.00 0.00 0.00 0.00 0.00 0.00 0.00 0.00

GFSSW_prec_precacc24_093.txt.gz
Total_Precipitation_Accumulation
0.03 0.05 0.05 0.04 0.04 0.03 0.04 0.05 0.07 0.06 0.08 0.10 0.10 0.08 0.08 0.04 0.02 0.02 0.03 0.01 0.02 0.06 0.16 0.01 0.01 0.00 0.04 0.10 0.32 0.56 0.78 0.29 0.00 0.00 0.02 0.00 0.00 0.00 0.00 0.00 0.01 0.03 0.14 0.15 0.06
0.04 0.05 0.05 0.05 0.04 0.03 0.04 0.05 0.05 0.04 0.09 0.10 0.09 0.09 0.08 0.07 0.01 0.00 0.00 0.04 0.12 0.22 0.18 0.08 0.04 0.03 0.07 0.07 0.45 0.80 0.93 0.35 0.01 0.06 0.03 0.00 0.00 0.00 0.00 0.00 0.04 0.08 0.17 0.09 0.09
0.04 0.04 0.05 0.05 0.03 0.04 0.04 0.04 0.04 0.04 0.07 0.08 0.10 0.09 0.08 0.03 0.01 0.02 0.03 0.04 0.10 0.21 0.28 0.25 0.14 0.13 0.09 0.09 0.28 0.74 0.73 0.23 0.06 0.14 0.06 0.00 0.00 0.00 0.00 0.00 0.01 0.06 0.07 0.18 0.29
0.04 0.04 0.04 0.04 0.03 0.04 0.04 0.03 0.03 0.04 0.06 0.04 0.05 0.05 0.04 0.00 0.04 0.02 0.01 0.03 0.12 0.37 0.36 0.29 0.25 0.18 0.10 0.07 0.07 0.36 0.37 0.29 0.21 0.22 0.16 0.03 0.00 0.00 0.00 0.01 0.02 0.08 0.18 0.30 0.34
0.04 0.05 0.04 0.03 0.04 0.03 0.03 0.04 0.03 0.04 0.06 0.00 0.00 0.00 0.00 0.00 0.01 0.02 0.00 0.06 0.28 0.41 0.27 0.35 0.39 0.21 0.11 0.04 0.06 0.11 0.22 0.28 0.50 0.38 0.25 0.08 0.01 0.00 0.00 0.00 0.04 0.09 0.14 0.29 0.46
0.05 0.04 0.04 0.05 0.04 0.03 0.03 0.04 0.02 0.03 0.05 0.00 0.00 0.00 0.00 0.02 0.00 0.00 0.00 0.07 0.18 0.48 0.28 0.38 0.52 0.31 0.16 0.08 0.07 0.03 0.10 0.26 0.85 0.69 0.32 0.17 0.06 0.01 0.00 0.00 0.00 0.08 0.12 0.24 0.37
0.05 0.04 0.04 0.05 0.03 0.03 0.04 0.05 0.04 0.01 0.02 0.01 0.00 0.00 0.00 0.00 0.00 0.00 0.00 0.03 0.06 0.43 0.37 0.39 0.93 0.52 0.29 0.13 0.08 0.07 0.15 0.38 0.92 0.92 0.55 0.34 0.20 0.08 0.00 0.01 0.02 0.04 0.11 0.16 0.21
0.04 0.04 0.04 0.04 0.03 0.03 0.02 0.04 0.03 0.00 0.00 0.00 0.00 0.00 0.00 0.00 0.00 0.00 0.00 0.04 0.07 0.18 0.55 0.41 1.27 0.62 0.39 0.14 0.16 0.27 0.31 0.41 0.50 0.86 0.74 0.72 0.40 0.05 0.01 0.00 0.00 0.01 0.04 0.10 0.17
0.06 0.04 0.04 0.03 0.03 0.02 0.02 0.01 0.00 0.00 0.00 0.00 0.00 0.00 0.00 0.00 0.00 0.00 0.00 0.01 0.05 0.14 0.42 0.49 1.26 0.79 0.50 0.23 0.20 0.23 0.17 0.17 0.44 0.52 0.68 0.49 0.42 0.16 0.09 0.00 0.00 0.00 0.00 0.05 0.12
0.07 0.05 0.04 0.03 0.02 0.03 0.03 0.00 0.00 0.00 0.00 0.00 0.00 0.02 0.03 0.01 0.00 0.00 0.00 0.03 0.08 0.13 0.51 1.04 1.72 0.97 0.59 0.25 0.12 0.07 0.07 0.07 0.32 0.48 0.63 0.41 0.26 0.22 0.15 0.04 0.00 0.00 0.00 0.00 0.03
0.08 0.05 0.03 0.02 0.03 0.03 0.01 0.00 0.00 0.00 0.00 0.00 0.00 0.00 0.00 0.00 0.00 0.02 0.04 0.08 0.09 0.25 0.55 0.78 1.49 0.78 0.34 0.16 0.01 0.01 0.01 0.02 0.13 0.22 0.33 0.36 0.21 0.20 0.13 0.10 0.01 0.00 0.00 0.00 0.00
0.10 0.06 0.03 0.03 0.03 0.02 0.00 0.00 0.00 0.00 0.00 0.00 0.00 0.00 0.00 0.00 0.00 0.06 0.05 0.09 0.16 0.45 0.58 0.48 0.75 0.34 0.25 0.19 0.03 0.05 0.04 0.07 0.16 0.17 0.11 0.21 0.22 0.13 0.19 0.08 0.03 0.00 0.00 0.00 0.00
0.10 0.08 0.02 0.03 0.01 0.00 0.00 0.00 0.00 0.00 0.00 0.00 0.00 0.00 0.00 0.01 0.01 0.09 0.08 0.11 0.28 0.55 0.53 0.32 0.44 0.35 0.36 0.20 0.06 0.06 0.04 0.11 0.10 0.22 0.10 0.05 0.11 0.07 0.06 0.02 0.02 0.00 0.00 0.00 0.00
0.12 0.06 0.03 0.02 0.00 0.00 0.00 0.00 0.00 0.00 0.04 0.09 0.01 0.01 0.01 0.05 0.13 0.23 0.12 0.19 0.41 0.50 0.31 0.36 0.38 0.35 0.39 0.12 0.05 0.03 0.02 0.06 0.07 0.12 0.18 0.06 0.04 0.01 0.00 0.00 0.00 0.00 0.00 0.00 0.00
0.10 0.04 0.03 0.01 0.00 0.00 0.00 0.00 0.00 0.00 0.08 0.14 0.03 0.01 0.01 0.06 0.14 0.24 0.07 0.17 0.25 0.29 0.31 0.45 0.41 0.51 0.30 0.09 0.06 0.04 0.02 0.04 0.07 0.06 0.14 0.11 0.02 0.00 0.00 0.00 0.00 0.00 0.00 0.00 0.00
0.07 0.04 0.01 0.00 0.00 0.00 0.00 0.00 0.00 0.01 0.02 0.20 0.10 0.04 0.02 0.06 0.04 0.05 0.12 0.20 0.22 0.42 0.38 0.26 0.28 0.43 0.09 0.07 0.01 0.07 0.06 0.07 0.08 0.08 0.08 0.04 0.00 0.00 0.00 0.00 0.00 0.00 0.00 0.00 0.00
0.06 0.01 0.00 0.00 0.00 0.00 0.00 0.00 0.00 0.00 0.00 0.12 0.25 0.09 0.05 0.06 0.06 0.08 0.13 0.07 0.16 0.42 0.57 0.32 0.46 0.30 0.04 0.09 0.04 0.10 0.03 0.18 0.25 0.25 0.03 0.00 0.00 0.00 0.00 0.00 0.00 0.00 0.00 0.00 0.00
0.04 0.00 0.00 0.00 0.00 0.00 0.00 0.00 0.00 0.00 0.01 0.02 0.05 0.11 0.20 0.11 0.08 0.02 0.01 0.04 0.09 0.42 0.36 0.40 0.56 0.25 0.05 0.06 0.10 0.10 0.02 0.02 0.05 0.04 0.00 0.00 0.00 0.00 0.00 0.00 0.00 0.00 0.00 0.00 0.00
0.04 0.00 0.00 0.00 0.00 0.00 0.00 0.00 0.00 0.00 0.00 0.00 0.02 0.05 0.09 0.06 0.04 0.02 0.01 0.01 0.14 0.28 0.12 0.07 0.21 0.11 0.05 0.05 0.08 0.05 0.01 0.00 0.00 0.00 0.00 0.00 0.00 0.00 0.00 0.00 0.00 0.00 0.00 0.00 0.00
0.03 0.00 0.00 0.00 0.00 0.00 0.00 0.00 0.00 0.00 0.00 0.00 0.01 0.01 0.02 0.01 0.01 0.02 0.02 0.01 0.10 0.12 0.01 0.01 0.09 0.05 0.05 0.03 0.03 0.02 0.01 0.00 0.00 0.00 0.00 0.00 0.00 0.00 0.00 0.00 0.00 0.00 0.00 0.00 0.00
0.01 0.01 0.00 0.00 0.00 0.01 0.00 0.00 0.00 0.00 0.00 0.00 0.00 0.00 0.01 0.00 0.00 0.00 0.00 0.02 0.06 0.05 0.00 0.00 0.03 0.07 0.07 0.05 0.04 0.02 0.01 0.00 0.00 0.00 0.00 0.00 0.00 0.00 0.00 0.00 0.00 0.00 0.00 0.00 0.00
0.00 0.01 0.00 0.00 0.01 0.00 0.00 0.00 0.00 0.00 0.00 0.00 0.00 0.00 0.00 0.00 0.00 0.00 0.00 0.01 0.02 0.00 0.00 0.00 0.00 0.02 0.03 0.00 0.00 0.01 0.01 0.00 0.00 0.00 0.00 0.00 0.00 0.00 0.00 0.00 0.00 0.00 0.00 0.00 0.00
0.00 0.00 0.00 0.01 0.00 0.00 0.00 0.00 0.00 0.00 0.00 0.00 0.00 0.00 0.00 0.00 0.00 0.00 0.00 0.00 0.00 0.00 0.00 0.00 0.00 0.02 0.03 0.02 0.00 0.00 0.00 0.00 0.00 0.00 0.00 0.00 0.00 0.00 0.00 0.00 0.00 0.00 0.00 0.00 0.00
0.00 0.00 0.00 0.00 0.00 0.00 0.00 0.00 0.00 0.00 0.00 0.00 0.00 0.00 0.00 0.00 0.00 0.00 0.00 0.00 0.00 0.00 0.00 0.00 0.00 0.00 0.01 0.01 0.00 0.00 0.00 0.00 0.00 0.00 0.00 0.00 0.00 0.00 0.00 0.00 0.00 0.00 0.00 0.00 0.00
0.00 0.00 0.00 0.00 0.00 0.00 0.00 0.00 0.00 0.00 0.00 0.00 0.00 0.00 0.00 0.00 0.00 0.00 0.00 0.00 0.00 0.00 0.00 0.00 0.00 0.00 0.00 0.00 0.00 0.00 0.00 0.00 0.00 0.00 0.00 0.00 0.00 0.00 0.00 0.00 0.00 0.00 0.00 0.00 0.00
0.00 0.00 0.00 0.00 0.00 0.00 0.00 0.00 0.00 0.00 0.00 0.00 0.00 0.00 0.00 0.00 0.00 0.00 0.00 0.00 0.00 0.00 0.00 0.00 0.00 0.00 0.00 0.00 0.00 0.00 0.00 0.00 0.00 0.00 0.00 0.00 0.00 0.00 0.00 0.00 0.00 0.00 0.00 0.00 0.00
0.00 0.00 0.00 0.00 0.00 0.00 0.00 0.00 0.00 0.00 0.00 0.00 0.00 0.00 0.00 0.00 0.00 0.00 0.00 0.00 0.00 0.00 0.00 0.00 0.00 0.00 0.00 0.00 0.00 0.00 0.00 0.00 0.00 0.00 0.00 0.00 0.00 0.00 0.00 0.00 0.00 0.00 0.00 0.00 0.00

GFSSW_prec_precacc24_096.txt.gz
Total_Precipitation_Accumulation
0.03 0.04 0.04 0.04 0.04 0.03 0.03 0.04 0.04 0.04 0.03 0.05 0.08 0.07 0.08 0.04 0.02 0.01 0.02 0.01 0.02 0.05 0.09 0.01 0.01 0.00 0.03 0.10 0.29 0.56 0.81 0.40 0.02 0.01 0.02 0.00 0.00 0.00 0.00 0.00 0.01 0.03 0.15 0.16 0.10
0.03 0.04 0.04 0.04 0.03 0.03 0.03 0.04 0.04 0.05 0.02 0.02 0.07 0.08 0.07 0.06 0.01 0.00 0.00 0.04 0.12 0.23 0.13 0.06 0.04 0.03 0.06 0.07 0.42 0.77 0.91 0.42 0.09 0.07 0.04 0.00 0.00 0.00 0.00 0.02 0.06 0.09 0.18 0.11 0.10
0.06 0.04 0.04 0.04 0.03 0.04 0.03 0.03 0.03 0.03 0.03 0.02 0.08 0.08 0.07 0.03 0.01 0.02 0.03 0.04 0.10 0.21 0.27 0.22 0.13 0.13 0.08 0.09 0.28 0.68 0.71 0.25 0.12 0.17 0.09 0.02 0.00 0.00 0.01 0.04 0.01 0.03 0.04 0.16 0.28
0.09 0.08 0.04 0.03 0.03 0.04 0.03 0.03 0.03 0.03 0.04 0.01 0.03 0.04 0.03 0.00 0.04 0.01 0.01 0.03 0.12 0.35 0.36 0.28 0.24 0.18 0.09 0.06 0.08 0.35 0.34 0.29 0.24 0.29 0.24 0.07 0.01 0.00 0.00 0.01 0.03 0.06 0.10 0.23 0.31
0.14 0.12 0.06 0.03 0.04 0.04 0.03 0.04 0.03 0.03 0.05 0.01 0.00 0.00 0.00 0.00 0.01 0.00 0.00 0.05 0.26 0.39 0.27 0.34 0.39 0.21 0.11 0.03 0.06 0.11 0.22 0.27 0.54 0.45 0.32 0.13 0.02 0.01 0.01 0.00 0.08 0.24 0.15 0.24 0.40
0.16 0.11 0.06 0.05 0.04 0.03 0.03 0.04 0.02 0.03 0.06 0.01 0.00 0.00 0.00 0.02 0.00 0.00 0.00 0.07 0.18 0.49 0.28 0.38 0.52 0.32 0.17 0.08 0.06 0.03 0.10 0.23 0.76 0.82 0.46 0.24 0.06 0.02 0.01 0.01 0.16 0.22 0.28 0.26 0.37
0.16 0.11 0.09 0.07 0.04 0.03 0.03 0.05 0.04 0.01 0.02 0.02 0.00 0.00 0.00 0.00 0.00 0.00 0.00 0.03 0.06 0.43 0.38 0.40 0.94 0.59 0.30 0.14 0.06 0.07 0.15 0.36 0.89 1.03 0.95 0.56 0.18 0.03 0.00 0.02 0.06 0.16 0.35 0.31 0.31
0.24 0.15 0.11 0.06 0.04 0.02 0.01 0.03 0.03 0.00 0.00 0.01 0.00 0.00 0.00 0.00 0.00 0.00 0.00 0.04 0.07 0.18 0.56 0.42 1.26 0.73 0.43 0.15 0.17 0.22 0.30 0.42 0.50 0.93 1.25 1.19 0.46 0.02 0.02 0.02 0.03 0.03 0.16 0.39 0.37
0.18 0.11 0.10 0.07 0.04 0.02 0.02 0.01 0.00 0.00 0.00 0.00 0.00 0.00 0.00 0.00 0.00 0.00 0.00 0.01 0.04 0.11 0.42 0.48 1.16 0.83 0.51 0.26 0.25 0.25 0.18 0.17 0.46 0.58 1.09 1.10 0.64 0.14 0.05 0.02 0.01 0.01 0.02 0.13 0.26
0.27 0.22 0.14 0.08 0.04 0.02 0.02 0.00 0.00 0.00 0.00 0.00 0.00 0.02 0.03 0.01 0.00 0.00 0.00 0.01 0.06 0.09 0.49 1.03 1.64 1.00 0.61 0.35 0.20 0.08 0.08 0.08 0.34 0.58 0.84 0.86 0.68 0.27 0.10 0.03 0.00 0.00 0.00 0.01 0.07
0.30 0.24 0.19 0.10 0.04 0.02 0.01 0.00 0.00 0.00 0.00 0.00 0.00 0.00 0.00 0.00 0.00 0.01 0.02 0.02 0.06 0.22 0.56 0.79 1.21 0.76 0.41 0.19 0.04 0.01 0.02 0.02 0.15 0.31 0.50 0.60 0.61 0.39 0.12 0.05 0.01 0.00 0.00 0.00 0.00
0.28 0.22 0.15 0.09 0.05 0.02 0.00 0.00 0.00 0.00 0.00 0.00 0.00 0.00 0.00 0.00 0.00 0.04 0.02 0.05 0.13 0.43 0.54 0.44 0.53 0.31 0.33 0.26 0.05 0.05 0.07 0.09 0.19 0.27 0.23 0.34 0.46 0.40 0.20 0.07 0.03 0.00 0.00 0.00 0.00
0.30 0.27 0.23 0.11 0.02 0.00 0.00 0.00 0.00 0.00 0.00 0.00 0.00 0.00 0.00 0.01 0.01 0.08 0.07 0.10 0.29 0.51 0.48 0.30 0.35 0.32 0.43 0.30 0.07 0.06 0.06 0.13 0.16 0.41 0.16 0.09 0.19 0.30 0.12 0.02 0.02 0.00 0.00 0.00 0.00
0.32 0.24 0.18 0.06 0.01 0.00 0.00 0.00 0.00 0.00 0.03 0.04 0.00 0.00 0.01 0.05 0.13 0.22 0.12 0.25 0.47 0.50 0.31 0.40 0.36 0.34 0.51 0.16 0.05 0.03 0.06 0.10 0.09 0.18 0.22 0.07 0.06 0.14 0.12 0.00 0.00 0.00 0.00 0.00 0.00
0.29 0.24 0.16 0.04 0.00 0.00 0.00 0.00 0.00 0.00 0.05 0.09 0.02 0.01 0.01 0.05 0.14 0.24 0.09 0.19 0.27 0.24 0.28 0.49 0.51 0.68 0.43 0.10 0.06 0.05 0.06 0.08 0.09 0.06 0.16 0.14 0.07 0.03 0.09 0.02 0.00 0.00 0.00 0.00 0.00
0.34 0.26 0.15 0.05 0.00 0.00 0.00 0.00 0.00 0.01 0.01 0.10 0.06 0.01 0.01 0.04 0.03 0.07 0.12 0.19 0.24 0.37 0.24 0.37 0.67 0.71 0.14 0.08 0.03 0.09 0.07 0.08 0.08 0.08 0.09 0.05 0.02 0.01 0.01 0.01 0.00 0.00 0.00 0.00 0.00
0.34 0.23 0.13 0.03 0.00 0.00 0.00 0.00 0.00 0.00 0.00 0.09 0.12 0.05 0.02 0.03 0.03 0.06 0.12 0.07 0.13 0.24 0.30 0.24 0.44 0.31 0.08 0.11 0.08 0.14 0.03 0.17 0.24 0.25 0.03 0.00 0.00 0.00 0.00 0.00 0.00 0.00 0.00 0.00 0.00
0.30 0.24 0.12 0.02 0.00 0.00 0.00 0.00 0.00 0.00 0.01 0.02 0.03 0.08 0.13 0.06 0.05 0.01 0.01 0.03 0.03 0.13 0.16 0.31 0.50 0.26 0.07 0.07 0.12 0.13 0.02 0.02 0.06 0.04 0.00 0.00 0.00 0.00 0.00 0.00 0.00 0.00 0.00 0.00 0.00
0.33 0.22 0.10 0.01 0.00 0.00 0.00 0.00 0.00 0.00 0.00 0.00 0.01 0.05 0.08 0.02 0.01 0.01 0.00 0.01 0.12 0.20 0.10 0.07 0.24 0.11 0.05 0.06 0.10 0.09 0.01 0.00 0.00 0.00 0.00 0.00 0.00 0.00 0.00 0.00 0.00 0.00 0.00 0.00 0.00
0.26 0.19 0.07 0.00 0.00 0.00 0.00 0.00 0.00 0.00 0.00 0.00 0.01 0.01 0.02 0.01 0.01 0.01 0.01 0.00 0.10 0.11 0.01 0.01 0.09 0.05 0.05 0.04 0.04 0.02 0.01 0.00 0.00 0.00 0.00 0.00 0.00 0.00 0.00 0.00 0.00 0.00 0.00 0.00 0.00
0.21 0.15 0.04 0.00 0.00 0.01 0.00 0.00 0.00 0.00 0.00 0.00 0.00 0.00 0.01 0.00 0.00 0.00 0.00 0.01 0.06 0.05 0.00 0.00 0.03 0.06 0.07 0.06 0.05 0.02 0.01 0.00 0.00 0.00 0.00 0.00 0.00 0.00 0.00 0.00 0.00 0.00 0.00 0.00 0.00
0.11 0.07 0.01 0.00 0.01 0.00 0.00 0.00 0.00 0.00 0.00 0.00 0.00 0.00 0.00 0.00 0.00 0.00 0.00 0.01 0.02 0.00 0.00 0.00 0.00 0.02 0.02 0.00 0.00 0.01 0.01 0.00 0.00 0.00 0.00 0.00 0.00 0.00 0.00 0.00 0.00 0.00 0.00 0.00 0.00
0.12 0.05 0.00 0.01 0.00 0.00 0.00 0.00 0.00 0.00 0.00 0.00 0.00 0.00 0.00 0.00 0.00 0.00 0.00 0.00 0.00 0.00 0.00 0.00 0.00 0.01 0.03 0.02 0.00 0.00 0.00 0.00 0.00 0.00 0.00 0.00 0.00 0.00 0.00 0.00 0.00 0.00 0.00 0.00 0.00
0.11 0.02 0.01 0.01 0.00 0.00 0.00 0.00 0.00 0.00 0.00 0.00 0.00 0.00 0.00 0.00 0.00 0.00 0.00 0.00 0.00 0.00 0.00 0.00 0.00 0.00 0.01 0.01 0.00 0.00 0.00 0.00 0.00 0.00 0.00 0.00 0.00 0.00 0.00 0.00 0.00 0.00 0.00 0.00 0.00
0.04 0.00 0.00 0.01 0.00 0.00 0.00 0.00 0.00 0.00 0.00 0.00 0.00 0.00 0.00 0.00 0.00 0.00 0.00 0.00 0.00 0.00 0.00 0.00 0.00 0.00 0.00 0.00 0.00 0.00 0.00 0.00 0.00 0.00 0.00 0.00 0.00 0.00 0.00 0.00 0.00 0.00 0.00 0.00 0.00
0.00 0.00 0.00 0.00 0.00 0.00 0.00 0.00 0.00 0.00 0.00 0.00 0.00 0.00 0.00 0.00 0.00 0.00 0.00 0.00 0.00 0.00 0.00 0.00 0.00 0.00 0.00 0.00 0.00 0.00 0.00 0.00 0.00 0.00 0.00 0.00 0.00 0.00 0.00 0.00 0.00 0.00 0.00 0.00 0.00
0.00 0.00 0.00 0.00 0.00 0.00 0.00 0.00 0.00 0.00 0.00 0.00 0.00 0.00 0.00 0.00 0.00 0.00 0.00 0.00 0.00 0.00 0.00 0.00 0.00 0.00 0.00 0.00 0.00 0.00 0.00 0.00 0.00 0.00 0.00 0.00 0.00 0.00 0.00 0.00 0.00 0.00 0.00 0.00 0.00

GFSSW_prec_precacc24_099.txt.gz
Total_Precipitation_Accumulation
0.04 0.05 0.05 0.04 0.04 0.03 0.03 0.03 0.03 0.03 0.03 0.01 0.00 0.03 0.05 0.03 0.02 0.00 0.00 0.00 0.02 0.05 0.07 0.01 0.01 0.00 0.01 0.08 0.26 0.52 0.81 0.41 0.03 0.03 0.04 0.00 0.00 0.00 0.00 0.00 0.01 0.03 0.15 0.17 0.13
0.05 0.06 0.06 0.06 0.04 0.03 0.03 0.03 0.03 0.04 0.03 0.00 0.01 0.04 0.04 0.06 0.01 0.00 0.00 0.01 0.07 0.22 0.13 0.05 0.04 0.03 0.05 0.07 0.38 0.68 0.87 0.41 0.09 0.08 0.04 0.00 0.00 0.00 0.01 0.05 0.08 0.09 0.17 0.11 0.12
0.15 0.09 0.09 0.08 0.05 0.04 0.03 0.03 0.03 0.03 0.03 0.01 0.03 0.05 0.06 0.02 0.01 0.02 0.02 0.04 0.07 0.17 0.27 0.20 0.13 0.13 0.08 0.10 0.27 0.66 0.67 0.25 0.12 0.17 0.11 0.03 0.01 0.00 0.02 0.07 0.02 0.04 0.04 0.13 0.24
0.19 0.19 0.14 0.09 0.05 0.04 0.03 0.03 0.03 0.03 0.04 0.02 0.01 0.01 0.01 0.00 0.04 0.01 0.01 0.02 0.10 0.28 0.36 0.26 0.21 0.18 0.09 0.06 0.08 0.36 0.34 0.28 0.24 0.29 0.26 0.08 0.03 0.00 0.00 0.01 0.05 0.08 0.16 0.20 0.25
0.24 0.22 0.16 0.08 0.06 0.05 0.05 0.04 0.03 0.03 0.05 0.02 0.00 0.00 0.00 0.00 0.01 0.00 0.00 0.01 0.18 0.31 0.27 0.32 0.36 0.21 0.10 0.02 0.06 0.11 0.21 0.26 0.52 0.44 0.32 0.16 0.04 0.03 0.01 0.01 0.11 0.32 0.19 0.23 0.35
0.26 0.19 0.16 0.16 0.09 0.06 0.04 0.04 0.03 0.03 0.06 0.02 0.00 0.00 0.00 0.02 0.00 0.00 0.00 0.04 0.17 0.46 0.28 0.37 0.51 0.32 0.17 0.07 0.07 0.03 0.10 0.21 0.72 0.80 0.47 0.30 0.11 0.04 0.01 0.01 0.24 0.47 0.42 0.29 0.35
0.22 0.27 0.29 0.21 0.11 0.06 0.05 0.04 0.04 0.01 0.02 0.04 0.01 0.00 0.00 0.00 0.00 0.00 0.00 0.03 0.05 0.43 0.38 0.39 0.92 0.60 0.33 0.14 0.04 0.07 0.15 0.34 0.88 0.96 0.91 0.65 0.29 0.05 0.01 0.05 0.15 0.27 0.51 0.40 0.36
0.30 0.28 0.23 0.14 0.09 0.08 0.03 0.03 0.02 0.00 0.00 0.01 0.01 0.00 0.00 0.00 0.00 0.00 0.00 0.04 0.05 0.18 0.56 0.43 1.22 0.81 0.51 0.18 0.21 0.21 0.31 0.43 0.50 0.92 1.14 1.21 0.57 0.06 0.04 0.08 0.14 0.16 0.29 0.51 0.60
0.21 0.19 0.25 0.20 0.18 0.12 0.03 0.01 0.00 0.01 0.00 0.00 0.00 0.00 0.00 0.00 0.00 0.00 0.00 0.01 0.03 0.09 0.40 0.47 1.03 1.02 0.68 0.31 0.30 0.32 0.20 0.19 0.47 0.59 1.12 1.14 0.83 0.27 0.08 0.07 0.11 0.14 0.16 0.21 0.42
0.27 0.31 0.33 0.25 0.20 0.12 0.05 0.01 0.00 0.00 0.00 0.00 0.00 0.02 0.03 0.01 0.00 0.00 0.00 0.01 0.05 0.07 0.41 1.01 1.48 0.99 0.64 0.38 0.23 0.16 0.09 0.09 0.36 0.59 0.87 0.94 0.93 0.44 0.13 0.06 0.07 0.11 0.17 0.14 0.11
0.32 0.36 0.31 0.22 0.17 0.13 0.06 0.01 0.00 0.00 0.00 0.00 0.00 0.00 0.00 0.00 0.00 0.01 0.01 0.01 0.05 0.18 0.51 0.84 1.10 0.68 0.41 0.19 0.06 0.07 0.02 0.03 0.16 0.35 0.51 0.63 0.82 0.62 0.19 0.07 0.04 0.06 0.11 0.16 0.08
0.30 0.30 0.24 0.18 0.15 0.12 0.05 0.00 0.00 0.00 0.00 0.00 0.00 0.00 0.00 0.00 0.00 0.03 0.00 0.03 0.08 0.34 0.54 0.41 0.41 0.25 0.34 0.26 0.07 0.11 0.08 0.15 0.24 0.29 0.24 0.38 0.61 0.64 0.37 0.09 0.02 0.02 0.06 0.07 0.08
0.33 0.39 0.34 0.24 0.18 0.16 0.04 0.00 0.00 0.00 0.00 0.00 0.00 0.00 0.00 0.01 0.01 0.06 0.05 0.08 0.18 0.43 0.47 0.31 0.35 0.24 0.46 0.30 0.12 0.08 0.07 0.16 0.17 0.44 0.22 0.14 0.23 0.41 0.32 0.06 0.01 0.00 0.02 0.03 0.05
0.35 0.40 0.28 0.21 0.22 0.13 0.03 0.00 0.00 0.00 0.03 0.03 0.00 0.00 0.00 0.05 0.13 0.19 0.10 0.23 0.40 0.49 0.34 0.49 0.39 0.34 0.62 0.17 0.07 0.03 0.09 0.19 0.13 0.23 0.28 0.10 0.07 0.17 0.25 0.13 0.01 0.00 0.00 0.00 0.01
0.33 0.40 0.26 0.15 0.14 0.09 0.01 0.00 0.00 0.00 0.04 0.06 0.01 0.00 0.00 0.04 0.15 0.24 0.09 0.20 0.29 0.36 0.45 0.54 0.49 0.71 0.51 0.09 0.07 0.05 0.07 0.16 0.15 0.09 0.16 0.15 0.09 0.05 0.11 0.14 0.03 0.00 0.00 0.00 0.00
0.38 0.37 0.26 0.21 0.17 0.04 0.00 0.00 0.00 0.01 0.01 0.04 0.03 0.00 0.01 0.03 0.03 0.07 0.12 0.22 0.33 0.61 0.63 0.63 0.80 0.75 0.17 0.10 0.05 0.10 0.09 0.13 0.10 0.08 0.09 0.05 0.02 0.01 0.01 0.06 0.02 0.00 0.00 0.00 0.00
0.41 0.38 0.24 0.18 0.11 0.01 0.00 0.00 0.00 0.00 0.00 0.05 0.03 0.01 0.00 0.02 0.02 0.06 0.12 0.07 0.14 0.25 0.36 0.33 0.51 0.29 0.13 0.15 0.14 0.19 0.05 0.18 0.24 0.24 0.03 0.00 0.00 0.00 0.00 0.01 0.01 0.00 0.00 0.00 0.00
0.43 0.44 0.25 0.14 0.05 0.00 0.00 0.00 0.00 0.00 0.01 0.01 0.01 0.02 0.01 0.00 0.01 0.00 0.01 0.03 0.02 0.05 0.13 0.25 0.35 0.24 0.11 0.08 0.12 0.14 0.02 0.02 0.05 0.04 0.00 0.00 0.00 0.00 0.00 0.00 0.00 0.00 0.00 0.00 0.00
0.56 0.38 0.20 0.12 0.02 0.00 0.00 0.00 0.00 0.00 0.00 0.00 0.01 0.04 0.04 0.01 0.01 0.00 0.00 0.01 0.02 0.02 0.04 0.03 0.13 0.11 0.07 0.07 0.13 0.09 0.01 0.00 0.00 0.00 0.00 0.00 0.00 0.00 0.00 0.00 0.00 0.00 0.00 0.00 0.00
0.48 0.31 0.20 0.06 0.00 0.00 0.00 0.00 0.00 0.00 0.00 0.00 0.01 0.01 0.01 0.00 0.00 0.00 0.00 0.00 0.01 0.00 0.01 0.01 0.09 0.07 0.06 0.07 0.07 0.02 0.01 0.00 0.00 0.00 0.00 0.00 0.00 0.00 0.00 0.00 0.00 0.00 0.00 0.00 0.00
0.35 0.37 0.20 0.03 0.00 0.00 0.00 0.00 0.00 0.00 0.00 0.00 0.00 0.00 0.01 0.00 0.00 0.00 0.00 0.01 0.05 0.02 0.00 0.00 0.03 0.06 0.07 0.06 0.05 0.02 0.01 0.00 0.00 0.00 0.00 0.00 0.00 0.00 0.00 0.00 0.00 0.00 0.00 0.00 0.00
0.24 0.22 0.12 0.01 0.01 0.00 0.00 0.00 0.00 0.00 0.00 0.00 0.00 0.00 0.00 0.00 0.00 0.00 0.00 0.01 0.02 0.00 0.00 0.00 0.00 0.02 0.02 0.00 0.00 0.01 0.01 0.00 0.00 0.00 0.00 0.00 0.00 0.00 0.00 0.00 0.00 0.00 0.00 0.00 0.00
0.23 0.22 0.12 0.01 0.00 0.00 0.00 0.00 0.00 0.00 0.00 0.00 0.00 0.00 0.00 0.00 0.00 0.00 0.00 0.00 0.00 0.00 0.00 0.00 0.00 0.01 0.03 0.02 0.00 0.00 0.00 0.00 0.00 0.00 0.00 0.00 0.00 0.00 0.00 0.00 0.00 0.00 0.00 0.00 0.00
0.16 0.16 0.10 0.02 0.00 0.00 0.00 0.00 0.00 0.00 0.00 0.00 0.00 0.00 0.00 0.00 0.00 0.00 0.00 0.00 0.00 0.00 0.00 0.00 0.00 0.00 0.01 0.01 0.00 0.00 0.00 0.00 0.00 0.00 0.00 0.00 0.00 0.00 0.00 0.00 0.00 0.00 0.00 0.00 0.00
0.09 0.02 0.01 0.01 0.00 0.00 0.00 0.00 0.00 0.00 0.00 0.00 0.00 0.00 0.00 0.00 0.00 0.00 0.00 0.00 0.00 0.00 0.00 0.00 0.00 0.00 0.00 0.00 0.00 0.00 0.00 0.00 0.00 0.00 0.00 0.00 0.00 0.00 0.00 0.00 0.00 0.00 0.00 0.00 0.00
0.02 0.00 0.00 0.00 0.00 0.00 0.00 0.00 0.00 0.00 0.00 0.00 0.00 0.00 0.00 0.00 0.00 0.00 0.00 0.00 0.00 0.00 0.00 0.00 0.00 0.00 0.00 0.00 0.00 0.00 0.00 0.00 0.00 0.00 0.00 0.00 0.00 0.00 0.00 0.00 0.00 0.00 0.00 0.00 0.00
0.00 0.00 0.00 0.00 0.00 0.00 0.00 0.00 0.00 0.00 0.00 0.00 0.00 0.00 0.00 0.00 0.00 0.00 0.00 0.00 0.00 0.00 0.00 0.00 0.00 0.00 0.00 0.00 0.00 0.00 0.00 0.00 0.00 0.00 0.00 0.00 0.00 0.00 0.00 0.00 0.00 0.00 0.00 0.00 0.00

GFSSW_prec_precacc24_102.txt.gz
Total_Precipitation_Accumulation
0.10 0.08 0.06 0.05 0.04 0.03 0.03 0.03 0.03 0.03 0.02 0.02 0.00 0.00 0.01 0.01 0.00 0.00 0.00 0.00 0.01 0.04 0.06 0.01 0.01 0.00 0.01 0.05 0.24 0.51 0.78 0.40 0.03 0.04 0.05 0.00 0.00 0.00 0.00 0.01 0.01 0.03 0.15 0.18 0.24
0.11 0.13 0.13 0.07 0.05 0.03 0.03 0.03 0.03 0.04 0.03 0.02 0.00 0.00 0.02 0.02 0.00 0.00 0.00 0.01 0.06 0.16 0.11 0.03 0.03 0.03 0.03 0.05 0.32 0.64 0.85 0.41 0.09 0.08 0.04 0.00 0.00 0.00 0.01 0.05 0.09 0.09 0.17 0.11 0.18
0.19 0.15 0.17 0.11 0.07 0.05 0.03 0.03 0.03 0.03 0.03 0.02 0.01 0.00 0.00 0.00 0.01 0.02 0.02 0.03 0.05 0.12 0.22 0.16 0.11 0.13 0.06 0.07 0.24 0.64 0.66 0.25 0.12 0.17 0.11 0.06 0.03 0.00 0.03 0.07 0.02 0.04 0.06 0.15 0.29
0.19 0.22 0.20 0.13 0.07 0.04 0.04 0.03 0.02 0.03 0.04 0.03 0.02 0.00 0.00 0.00 0.04 0.01 0.01 0.01 0.04 0.21 0.30 0.23 0.18 0.18 0.08 0.04 0.06 0.34 0.33 0.28 0.22 0.28 0.26 0.12 0.08 0.06 0.01 0.01 0.05 0.09 0.27 0.25 0.29
0.23 0.22 0.20 0.12 0.08 0.08 0.06 0.06 0.03 0.03 0.05 0.03 0.01 0.00 0.00 0.00 0.01 0.00 0.00 0.00 0.06 0.19 0.21 0.28 0.31 0.20 0.10 0.01 0.04 0.10 0.18 0.23 0.48 0.42 0.32 0.17 0.07 0.10 0.04 0.01 0.11 0.34 0.31 0.26 0.31
0.24 0.19 0.19 0.22 0.17 0.11 0.07 0.07 0.03 0.04 0.06 0.03 0.00 0.00 0.00 0.02 0.00 0.00 0.00 0.02 0.11 0.32 0.23 0.34 0.43 0.32 0.17 0.07 0.06 0.02 0.09 0.14 0.65 0.79 0.46 0.31 0.13 0.09 0.05 0.02 0.24 0.50 0.56 0.36 0.34
0.21 0.27 0.32 0.28 0.17 0.10 0.09 0.07 0.05 0.02 0.02 0.05 0.03 0.00 0.00 0.00 0.00 0.00 0.00 0.02 0.03 0.36 0.35 0.38 0.83 0.59 0.33 0.14 0.03 0.05 0.15 0.29 0.78 0.92 0.88 0.65 0.30 0.06 0.02 0.06 0.16 0.28 0.60 0.53 0.41
0.29 0.28 0.26 0.28 0.17 0.11 0.08 0.07 0.06 0.00 0.01 0.03 0.02 0.00 0.00 0.00 0.00 0.00 0.00 0.04 0.04 0.17 0.54 0.41 1.08 0.81 0.53 0.20 0.22 0.21 0.32 0.43 0.49 0.90 1.14 1.21 0.56 0.07 0.05 0.08 0.15 0.18 0.40 0.67 0.68
0.20 0.18 0.25 0.28 0.23 0.20 0.12 0.07 0.02 0.02 0.02 0.02 0.00 0.00 0.00 0.00 0.00 0.00 0.00 0.01 0.01 0.08 0.38 0.44 0.91 1.01 0.79 0.39 0.34 0.35 0.22 0.20 0.47 0.59 1.13 1.14 0.82 0.27 0.09 0.07 0.12 0.15 0.23 0.40 0.55
0.26 0.30 0.34 0.28 0.23 0.17 0.11 0.08 0.02 0.01 0.00 0.00 0.00 0.02 0.03 0.01 0.00 0.00 0.00 0.00 0.03 0.05 0.34 0.93 1.33 1.00 0.74 0.47 0.26 0.18 0.11 0.10 0.39 0.59 0.87 0.94 0.93 0.45 0.16 0.07 0.07 0.12 0.19 0.27 0.33
0.31 0.36 0.49 0.30 0.18 0.16 0.14 0.09 0.01 0.00 0.00 0.00 0.00 0.00 0.00 0.00 0.00 0.01 0.01 0.01 0.04 0.14 0.40 0.71 0.98 0.70 0.46 0.21 0.10 0.19 0.05 0.06 0.21 0.37 0.51 0.63 0.81 0.62 0.23 0.08 0.04 0.07 0.13 0.24 0.27
0.29 0.29 0.32 0.29 0.19 0.14 0.10 0.05 0.00 0.00 0.00 0.00 0.00 0.00 0.00 0.00 0.00 0.03 0.00 0.03 0.08 0.31 0.48 0.38 0.37 0.23 0.34 0.26 0.08 0.28 0.12 0.19 0.33 0.37 0.27 0.38 0.61 0.64 0.38 0.11 0.03 0.04 0.07 0.12 0.23
0.32 0.38 0.41 0.33 0.21 0.20 0.13 0.03 0.00 0.00 0.00 0.00 0.00 0.00 0.00 0.01 0.01 0.01 0.03 0.08 0.18 0.42 0.43 0.34 0.43 0.31 0.48 0.29 0.15 0.18 0.08 0.19 0.20 0.49 0.24 0.14 0.24 0.42 0.33 0.10 0.03 0.02 0.03 0.05 0.12
0.35 0.42 0.46 0.28 0.24 0.21 0.17 0.01 0.00 0.00 0.03 0.02 0.00 0.00 0.00 0.05 0.12 0.07 0.04 0.24 0.41 0.51 0.40 0.55 0.39 0.35 0.63 0.16 0.09 0.04 0.10 0.25 0.14 0.26 0.29 0.11 0.10 0.18 0.27 0.19 0.05 0.02 0.02 0.02 0.03
0.33 0.42 0.43 0.17 0.15 0.17 0.07 0.00 0.00 0.00 0.03 0.01 0.00 0.00 0.00 0.04 0.14 0.19 0.07 0.22 0.50 0.55 0.57 0.55 0.48 0.66 0.49 0.08 0.06 0.06 0.08 0.26 0.25 0.16 0.17 0.15 0.10 0.10 0.16 0.23 0.12 0.03 0.02 0.01 0.02
0.38 0.38 0.47 0.21 0.20 0.11 0.01 0.00 0.00 0.01 0.00 0.00 0.00 0.00 0.01 0.03 0.03 0.07 0.12 0.20 0.48 0.88 0.62 0.62 0.75 0.66 0.17 0.10 0.05 0.12 0.17 0.22 0.16 0.11 0.10 0.06 0.03 0.05 0.06 0.14 0.20 0.04 0.02 0.01 0.01
0.42 0.41 0.32 0.18 0.13 0.08 0.00 0.00 0.00 0.00 0.00 0.01 0.00 0.00 0.00 0.02 0.02 0.06 0.11 0.07 0.15 0.31 0.40 0.40 0.45 0.24 0.14 0.17 0.16 0.20 0.10 0.22 0.24 0.24 0.03 0.00 0.00 0.01 0.00 0.02 0.10 0.06 0.00 0.00 0.00
0.43 0.60 0.30 0.16 0.08 0.03 0.00 0.00 0.00 0.00 0.01 0.00 0.00 0.00 0.00 0.00 0.00 0.00 0.01 0.03 0.02 0.06 0.10 0.28 0.40 0.20 0.15 0.09 0.14 0.15 0.02 0.02 0.06 0.04 0.00 0.00 0.01 0.01 0.00 0.00 0.01 0.03 0.00 0.00 0.00
0.61 0.48 0.21 0.16 0.06 0.01 0.00 0.00 0.00 0.00 0.00 0.00 0.00 0.01 0.00 0.00 0.00 0.00 0.00 0.01 0.02 0.02 0.03 0.04 0.16 0.13 0.08 0.06 0.13 0.09 0.01 0.00 0.00 0.00 0.00 0.00 0.00 0.00 0.00 0.00 0.00 0.00 0.00 0.00 0.00
0.62 0.35 0.24 0.11 0.04 0.00 0.00 0.00 0.00 0.00 0.00 0.00 0.01 0.00 0.00 0.00 0.00 0.00 0.00 0.00 0.00 0.00 0.01 0.01 0.12 0.10 0.11 0.10 0.07 0.02 0.01 0.00 0.00 0.00 0.00 0.00 0.00 0.00 0.00 0.00 0.00 0.00 0.00 0.00 0.00
0.39 0.40 0.29 0.08 0.01 0.00 0.00 0.00 0.00 0.00 0.00 0.00 0.00 0.00 0.00 0.00 0.00 0.00 0.00 0.00 0.00 0.00 0.00 0.00 0.03 0.04 0.07 0.05 0.04 0.02 0.01 0.00 0.00 0.00 0.00 0.00 0.00 0.00 0.00 0.00 0.00 0.00 0.00 0.00 0.00
0.25 0.28 0.21 0.04 0.02 0.00 0.00 0.00 0.00 0.00 0.00 0.00 0.00 0.00 0.00 0.00 0.00 0.00 0.00 0.01 0.00 0.00 0.00 0.00 0.00 0.01 0.01 0.00 0.00 0.01 0.01 0.00 0.00 0.00 0.00 0.00 0.00 0.00 0.00 0.00 0.00 0.00 0.00 0.00 0.00
0.25 0.29 0.21 0.02 0.01 0.00 0.00 0.00 0.00 0.00 0.00 0.00 0.00 0.00 0.00 0.00 0.00 0.00 0.00 0.00 0.00 0.00 0.00 0.00 0.00 0.01 0.02 0.01 0.00 0.00 0.00 0.00 0.00 0.00 0.00 0.00 0.00 0.00 0.00 0.00 0.00 0.00 0.00 0.00 0.00
0.17 0.21 0.18 0.05 0.01 0.00 0.00 0.00 0.00 0.00 0.00 0.00 0.00 0.00 0.00 0.00 0.00 0.00 0.00 0.00 0.00 0.00 0.00 0.00 0.00 0.00 0.01 0.01 0.00 0.00 0.00 0.00 0.00 0.00 0.00 0.00 0.00 0.00 0.00 0.00 0.00 0.00 0.00 0.00 0.00
0.09 0.02 0.01 0.02 0.00 0.00 0.00 0.00 0.00 0.00 0.00 0.00 0.00 0.00 0.00 0.00 0.00 0.00 0.00 0.00 0.00 0.00 0.00 0.00 0.00 0.00 0.00 0.00 0.00 0.00 0.00 0.00 0.00 0.00 0.00 0.00 0.00 0.00 0.00 0.00 0.00 0.00 0.00 0.00 0.00
0.02 0.00 0.00 0.00 0.00 0.00 0.00 0.00 0.00 0.00 0.00 0.00 0.00 0.00 0.00 0.00 0.00 0.00 0.00 0.00 0.00 0.00 0.00 0.00 0.00 0.00 0.00 0.00 0.00 0.00 0.00 0.00 0.00 0.00 0.00 0.00 0.00 0.00 0.00 0.00 0.00 0.00 0.00 0.00 0.00
0.00 0.00 0.00 0.00 0.00 0.00 0.00 0.00 0.00 0.00 0.00 0.00 0.00 0.00 0.00 0.00 0.00 0.00 0.00 0.00 0.00 0.00 0.00 0.00 0.00 0.00 0.00 0.00 0.00 0.00 0.00 0.00 0.00 0.00 0.00 0.00 0.00 0.00 0.00 0.00 0.00 0.00 0.00 0.00 0.00

GFSSW_prec_precacc24_105.txt.gz
Total_Precipitation_Accumulation
0.10 0.08 0.07 0.07 0.04 0.03 0.02 0.03 0.03 0.03 0.02 0.02 0.01 0.00 0.00 0.00 0.00 0.00 0.00 0.00 0.00 0.02 0.06 0.00 0.00 0.00 0.00 0.01 0.13 0.42 0.69 0.36 0.03 0.04 0.05 0.00 0.00 0.00 0.00 0.01 0.01 0.03 0.15 0.17 0.23
0.11 0.13 0.14 0.11 0.06 0.04 0.03 0.03 0.03 0.04 0.03 0.02 0.01 0.00 0.00 0.00 0.00 0.00 0.00 0.01 0.05 0.11 0.08 0.02 0.02 0.02 0.02 0.03 0.22 0.49 0.75 0.39 0.09 0.08 0.04 0.00 0.00 0.00 0.01 0.05 0.09 0.09 0.18 0.11 0.16
0.18 0.15 0.17 0.14 0.08 0.05 0.04 0.03 0.03 0.03 0.03 0.02 0.01 0.00 0.00 0.00 0.00 0.01 0.01 0.02 0.05 0.10 0.18 0.11 0.08 0.11 0.05 0.05 0.17 0.56 0.60 0.24 0.12 0.17 0.11 0.06 0.03 0.01 0.03 0.08 0.03 0.04 0.06 0.22 0.27
0.17 0.22 0.20 0.15 0.09 0.07 0.07 0.04 0.02 0.03 0.04 0.03 0.02 0.00 0.00 0.00 0.03 0.01 0.00 0.00 0.01 0.14 0.26 0.19 0.13 0.15 0.07 0.03 0.06 0.32 0.33 0.27 0.21 0.28 0.26 0.12 0.09 0.07 0.03 0.02 0.05 0.09 0.28 0.36 0.27
0.22 0.21 0.20 0.14 0.13 0.16 0.08 0.06 0.03 0.03 0.05 0.03 0.01 0.00 0.00 0.00 0.01 0.00 0.00 0.00 0.00 0.08 0.13 0.23 0.22 0.19 0.10 0.01 0.03 0.08 0.17 0.23 0.47 0.39 0.31 0.17 0.07 0.11 0.07 0.03 0.14 0.35 0.32 0.33 0.28
0.23 0.18 0.20 0.23 0.25 0.19 0.08 0.07 0.04 0.04 0.06 0.03 0.00 0.00 0.00 0.02 0.00 0.00 0.00 0.02 0.06 0.22 0.17 0.22 0.31 0.31 0.17 0.06 0.05 0.01 0.07 0.12 0.62 0.76 0.45 0.31 0.13 0.10 0.07 0.03 0.24 0.51 0.56 0.41 0.37
0.20 0.26 0.31 0.29 0.24 0.14 0.10 0.07 0.05 0.02 0.02 0.05 0.04 0.00 0.00 0.00 0.00 0.00 0.00 0.02 0.02 0.26 0.30 0.24 0.57 0.53 0.33 0.14 0.03 0.05 0.12 0.22 0.72 0.86 0.84 0.64 0.27 0.07 0.02 0.07 0.16 0.28 0.60 0.53 0.47
0.28 0.27 0.25 0.30 0.44 0.18 0.11 0.08 0.06 0.00 0.01 0.04 0.04 0.00 0.00 0.00 0.00 0.00 0.00 0.04 0.00 0.05 0.45 0.26 0.76 0.71 0.52 0.20 0.20 0.19 0.31 0.38 0.44 0.85 1.08 1.20 0.55 0.08 0.05 0.08 0.15 0.18 0.41 0.66 0.70
0.19 0.17 0.24 0.29 0.32 0.22 0.13 0.08 0.03 0.02 0.03 0.04 0.01 0.00 0.00 0.00 0.00 0.00 0.00 0.01 0.01 0.04 0.31 0.30 0.56 0.92 0.76 0.38 0.35 0.34 0.22 0.20 0.44 0.56 1.10 1.14 0.81 0.27 0.09 0.07 0.12 0.15 0.23 0.40 0.57
0.25 0.29 0.33 0.29 0.25 0.18 0.12 0.10 0.03 0.02 0.01 0.00 0.00 0.02 0.02 0.01 0.00 0.00 0.00 0.00 0.03 0.03 0.28 0.68 0.99 0.84 0.71 0.48 0.29 0.24 0.13 0.12 0.38 0.58 0.86 0.94 0.92 0.46 0.15 0.07 0.07 0.12 0.19 0.27 0.33
0.31 0.35 0.62 0.59 0.22 0.16 0.15 0.10 0.01 0.00 0.00 0.00 0.00 0.00 0.00 0.00 0.00 0.00 0.00 0.00 0.03 0.07 0.31 0.56 0.80 0.54 0.45 0.23 0.13 0.23 0.07 0.09 0.22 0.39 0.51 0.63 0.81 0.62 0.23 0.08 0.04 0.07 0.13 0.24 0.27
0.28 0.29 0.34 0.49 0.39 0.23 0.13 0.05 0.00 0.00 0.00 0.00 0.00 0.00 0.00 0.00 0.00 0.01 0.00 0.02 0.06 0.20 0.40 0.30 0.31 0.17 0.34 0.30 0.12 0.34 0.15 0.21 0.39 0.40 0.27 0.38 0.61 0.64 0.38 0.11 0.04 0.04 0.07 0.12 0.24
0.31 0.38 0.41 0.42 0.26 0.29 0.14 0.04 0.00 0.00 0.00 0.00 0.00 0.00 0.00 0.01 0.00 0.00 0.03 0.08 0.17 0.39 0.44 0.37 0.41 0.34 0.49 0.29 0.15 0.19 0.09 0.23 0.43 0.52 0.28 0.14 0.25 0.43 0.34 0.10 0.03 0.02 0.03 0.06 0.16
0.34 0.42 0.57 0.32 0.28 0.22 0.20 0.02 0.00 0.00 0.02 0.02 0.00 0.00 0.00 0.05 0.08 0.00 0.03 0.24 0.42 0.51 0.46 0.59 0.34 0.36 0.62 0.16 0.09 0.04 0.10 0.41 0.30 0.31 0.34 0.12 0.16 0.23 0.28 0.19 0.05 0.02 0.02 0.04 0.08
0.33 0.42 0.71 0.17 0.16 0.19 0.11 0.00 0.00 0.00 0.01 0.01 0.00 0.00 0.00 0.03 0.09 0.05 0.05 0.24 0.58 0.56 0.56 0.52 0.44 0.66 0.49 0.07 0.07 0.06 0.08 0.28 0.34 0.31 0.25 0.20 0.15 0.12 0.16 0.23 0.13 0.03 0.02 0.03 0.07
0.38 0.38 0.68 0.21 0.21 0.14 0.02 0.00 0.00 0.00 0.00 0.00 0.00 0.00 0.01 0.03 0.02 0.06 0.08 0.20 0.52 0.85 0.59 0.61 0.73 0.63 0.16 0.09 0.05 0.16 0.20 0.39 0.29 0.24 0.14 0.07 0.05 0.07 0.09 0.19 0.22 0.06 0.02 0.03 0.03
0.42 0.42 0.38 0.18 0.15 0.09 0.00 0.00 0.00 0.00 0.00 0.00 0.00 0.00 0.00 0.02 0.02 0.03 0.05 0.07 0.16 0.29 0.34 0.36 0.38 0.18 0.13 0.16 0.23 0.60 0.26 0.35 0.31 0.29 0.04 0.00 0.02 0.08 0.09 0.08 0.17 0.13 0.01 0.02 0.01
0.43 0.62 0.31 0.16 0.10 0.06 0.00 0.00 0.00 0.00 0.00 0.00 0.00 0.00 0.00 0.00 0.00 0.00 0.01 0.05 0.05 0.04 0.06 0.23 0.47 0.32 0.15 0.12 0.24 0.35 0.09 0.05 0.09 0.06 0.00 0.01 0.10 0.14 0.03 0.02 0.10 0.11 0.01 0.01 0.01
0.63 0.50 0.23 0.20 0.10 0.04 0.00 0.00 0.00 0.00 0.00 0.00 0.00 0.00 0.00 0.00 0.00 0.00 0.00 0.01 0.01 0.01 0.04 0.06 0.20 0.09 0.07 0.06 0.15 0.10 0.00 0.00 0.00 0.00 0.00 0.01 0.05 0.06 0.00 0.01 0.07 0.07 0.01 0.00 0.00
0.65 0.37 0.29 0.16 0.08 0.01 0.00 0.00 0.00 0.00 0.00 0.00 0.00 0.00 0.00 0.00 0.00 0.00 0.00 0.00 0.00 0.00 0.01 0.02 0.13 0.08 0.11 0.11 0.07 0.02 0.00 0.00 0.00 0.00 0.00 0.00 0.02 0.04 0.00 0.00 0.01 0.01 0.00 0.00 0.00
0.42 0.42 0.35 0.13 0.04 0.00 0.00 0.00 0.00 0.00 0.00 0.00 0.00 0.00 0.00 0.00 0.00 0.00 0.00 0.00 0.00 0.00 0.00 0.00 0.04 0.07 0.06 0.03 0.02 0.02 0.01 0.00 0.00 0.00 0.00 0.00 0.00 0.00 0.00 0.00 0.00 0.00 0.00 0.00 0.00
0.26 0.30 0.26 0.06 0.02 0.00 0.00 0.00 0.00 0.00 0.00 0.00 0.00 0.00 0.00 0.00 0.00 0.00 0.00 0.00 0.00 0.00 0.00 0.00 0.00 0.01 0.01 0.00 0.00 0.01 0.01 0.00 0.00 0.00 0.00 0.00 0.00 0.00 0.00 0.00 0.00 0.00 0.00 0.00 0.00
0.26 0.34 0.25 0.02 0.01 0.00 0.00 0.00 0.00 0.00 0.00 0.00 0.00 0.00 0.00 0.00 0.00 0.00 0.00 0.00 0.00 0.00 0.00 0.00 0.00 0.00 0.01 0.00 0.00 0.00 0.00 0.00 0.00 0.00 0.00 0.00 0.00 0.00 0.00 0.00 0.00 0.00 0.00 0.00 0.00
0.17 0.22 0.20 0.06 0.01 0.00 0.00 0.00 0.00 0.00 0.00 0.00 0.00 0.00 0.00 0.00 0.00 0.00 0.00 0.00 0.00 0.00 0.00 0.00 0.00 0.00 0.00 0.00 0.00 0.00 0.00 0.00 0.00 0.00 0.00 0.00 0.00 0.00 0.00 0.00 0.00 0.00 0.00 0.00 0.00
0.09 0.02 0.02 0.03 0.00 0.00 0.00 0.00 0.00 0.00 0.00 0.00 0.00 0.00 0.00 0.00 0.00 0.00 0.00 0.00 0.00 0.00 0.00 0.00 0.00 0.00 0.00 0.00 0.00 0.00 0.00 0.00 0.00 0.00 0.00 0.00 0.00 0.00 0.00 0.00 0.00 0.00 0.00 0.00 0.00
0.02 0.00 0.00 0.00 0.00 0.00 0.00 0.00 0.00 0.00 0.00 0.00 0.00 0.00 0.00 0.00 0.00 0.00 0.00 0.00 0.00 0.00 0.00 0.00 0.00 0.00 0.00 0.00 0.00 0.00 0.00 0.00 0.00 0.00 0.00 0.00 0.00 0.00 0.00 0.00 0.00 0.00 0.00 0.00 0.00
0.00 0.00 0.00 0.00 0.00 0.00 0.00 0.00 0.00 0.00 0.00 0.00 0.00 0.00 0.00 0.00 0.00 0.00 0.00 0.00 0.00 0.00 0.00 0.00 0.00 0.00 0.00 0.00 0.00 0.00 0.00 0.00 0.00 0.00 0.00 0.00 0.00 0.00 0.00 0.00 0.00 0.00 0.00 0.00 0.00

GFSSW_prec_precacc24_108.txt.gz
Total_Precipitation_Accumulation
0.10 0.08 0.07 0.07 0.04 0.05 0.04 0.04 0.03 0.03 0.02 0.02 0.01 0.00 0.00 0.00 0.00 0.00 0.00 0.00 0.00 0.01 0.03 0.00 0.00 0.00 0.00 0.00 0.06 0.33 0.57 0.34 0.03 0.03 0.04 0.00 0.00 0.00 0.00 0.01 0.01 0.03 0.09 0.09 0.23
0.10 0.13 0.15 0.11 0.10 0.08 0.07 0.04 0.03 0.04 0.03 0.02 0.01 0.00 0.00 0.00 0.00 0.00 0.00 0.01 0.05 0.08 0.04 0.01 0.01 0.02 0.02 0.02 0.12 0.34 0.59 0.34 0.09 0.07 0.04 0.00 0.00 0.00 0.01 0.05 0.09 0.09 0.18 0.12 0.16
0.17 0.14 0.17 0.14 0.09 0.06 0.05 0.04 0.03 0.03 0.03 0.02 0.01 0.00 0.00 0.00 0.00 0.00 0.00 0.02 0.05 0.09 0.12 0.08 0.06 0.08 0.04 0.05 0.11 0.42 0.47 0.20 0.12 0.16 0.10 0.06 0.03 0.01 0.03 0.08 0.03 0.04 0.06 0.26 0.34
0.17 0.20 0.19 0.15 0.10 0.11 0.12 0.05 0.03 0.04 0.04 0.03 0.02 0.00 0.00 0.00 0.00 0.00 0.00 0.00 0.01 0.13 0.18 0.10 0.09 0.11 0.06 0.03 0.05 0.27 0.30 0.25 0.19 0.24 0.22 0.12 0.09 0.07 0.03 0.02 0.05 0.09 0.28 0.36 0.33
0.22 0.20 0.20 0.14 0.13 0.25 0.19 0.05 0.04 0.04 0.06 0.03 0.01 0.00 0.00 0.00 0.00 0.00 0.00 0.00 0.00 0.07 0.10 0.10 0.13 0.14 0.08 0.01 0.03 0.08 0.16 0.22 0.40 0.22 0.26 0.16 0.07 0.11 0.07 0.03 0.14 0.35 0.32 0.32 0.30
0.22 0.17 0.19 0.22 0.25 0.25 0.13 0.07 0.03 0.04 0.06 0.03 0.01 0.00 0.00 0.00 0.00 0.00 0.00 0.01 0.02 0.13 0.13 0.18 0.21 0.20 0.15 0.06 0.04 0.01 0.07 0.12 0.55 0.55 0.34 0.28 0.12 0.10 0.07 0.03 0.24 0.51 0.56 0.40 0.35
0.19 0.25 0.31 0.28 0.24 0.16 0.10 0.07 0.03 0.02 0.02 0.05 0.04 0.00 0.00 0.00 0.00 0.00 0.00 0.02 0.01 0.06 0.17 0.21 0.52 0.43 0.31 0.13 0.03 0.04 0.11 0.19 0.63 0.72 0.75 0.61 0.25 0.07 0.02 0.07 0.16 0.28 0.61 0.54 0.47
0.28 0.26 0.25 0.29 0.59 0.38 0.13 0.09 0.08 0.01 0.01 0.04 0.05 0.00 0.00 0.00 0.00 0.00 0.00 0.03 0.00 0.01 0.13 0.16 0.69 0.63 0.51 0.20 0.19 0.15 0.26 0.32 0.38 0.77 0.98 1.18 0.55 0.08 0.05 0.08 0.15 0.18 0.41 0.66 0.70
0.19 0.17 0.24 0.28 0.34 0.35 0.27 0.14 0.03 0.03 0.03 0.04 0.01 0.00 0.00 0.00 0.00 0.00 0.00 0.00 0.01 0.03 0.10 0.18 0.43 0.78 0.74 0.38 0.31 0.28 0.19 0.20 0.40 0.50 1.06 1.13 0.81 0.27 0.09 0.07 0.12 0.15 0.23 0.40 0.57
0.25 0.29 0.33 0.29 0.26 0.23 0.15 0.14 0.04 0.02 0.01 0.00 0.00 0.00 0.00 0.00 0.00 0.00 0.00 0.00 0.02 0.03 0.12 0.46 0.75 0.67 0.66 0.47 0.29 0.24 0.19 0.15 0.37 0.52 0.79 0.94 0.92 0.47 0.17 0.07 0.07 0.13 0.19 0.27 0.33
0.30 0.35 0.62 0.80 0.22 0.18 0.18 0.16 0.02 0.01 0.00 0.00 0.00 0.00 0.00 0.00 0.00 0.00 0.00 0.00 0.01 0.04 0.15 0.40 0.60 0.44 0.44 0.23 0.14 0.25 0.08 0.10 0.22 0.37 0.50 0.63 0.81 0.64 0.30 0.12 0.05 0.07 0.13 0.24 0.27
0.28 0.28 0.35 0.88 0.49 0.29 0.22 0.09 0.00 0.00 0.00 0.00 0.00 0.00 0.00 0.00 0.00 0.00 0.00 0.01 0.05 0.09 0.24 0.29 0.22 0.11 0.31 0.31 0.13 0.37 0.16 0.18 0.37 0.38 0.29 0.40 0.64 0.64 0.39 0.13 0.04 0.04 0.07 0.12 0.24
0.31 0.37 0.41 0.51 0.35 0.44 0.27 0.06 0.00 0.00 0.00 0.00 0.00 0.00 0.00 0.01 0.00 0.00 0.02 0.07 0.16 0.35 0.44 0.37 0.34 0.24 0.45 0.27 0.14 0.18 0.09 0.22 0.58 0.56 0.31 0.16 0.29 0.44 0.34 0.10 0.03 0.02 0.03 0.06 0.16
0.34 0.42 0.57 0.33 0.29 0.29 0.22 0.04 0.00 0.00 0.01 0.01 0.00 0.00 0.00 0.05 0.05 0.00 0.03 0.24 0.44 0.51 0.46 0.56 0.28 0.25 0.60 0.15 0.08 0.02 0.11 0.50 0.42 0.33 0.43 0.14 0.18 0.26 0.29 0.20 0.05 0.02 0.02 0.04 0.10
0.33 0.44 0.85 0.18 0.18 0.19 0.15 0.03 0.00 0.00 0.00 0.00 0.00 0.00 0.00 0.02 0.03 0.02 0.05 0.25 0.60 0.56 0.56 0.51 0.43 0.64 0.47 0.07 0.06 0.05 0.15 0.34 0.46 0.41 0.32 0.22 0.30 0.24 0.18 0.24 0.14 0.03 0.02 0.04 0.12
0.38 0.39 0.79 0.23 0.23 0.16 0.05 0.00 0.00 0.00 0.00 0.00 0.00 0.00 0.00 0.01 0.01 0.04 0.07 0.19 0.48 0.76 0.55 0.59 0.71 0.63 0.15 0.10 0.05 0.14 0.24 0.48 0.63 0.50 0.38 0.26 0.31 0.23 0.12 0.21 0.23 0.07 0.02 0.05 0.14
0.42 0.42 0.41 0.19 0.18 0.12 0.00 0.00 0.00 0.00 0.00 0.00 0.00 0.00 0.00 0.01 0.01 0.01 0.02 0.06 0.13 0.23 0.32 0.36 0.36 0.17 0.14 0.17 0.25 0.65 0.51 0.60 0.51 0.33 0.09 0.10 0.08 0.17 0.11 0.09 0.18 0.14 0.02 0.06 0.07
0.43 0.62 0.32 0.16 0.12 0.08 0.00 0.00 0.00 0.00 0.00 0.00 0.00 0.00 0.00 0.00 0.00 0.00 0.00 0.03 0.04 0.04 0.06 0.21 0.45 0.30 0.15 0.26 0.49 0.42 0.15 0.14 0.16 0.09 0.04 0.02 0.16 0.26 0.11 0.08 0.15 0.13 0.04 0.05 0.06
0.63 0.50 0.23 0.21 0.13 0.05 0.00 0.00 0.00 0.00 0.00 0.00 0.00 0.00 0.00 0.00 0.00 0.00 0.00 0.00 0.00 0.00 0.07 0.09 0.21 0.08 0.06 0.06 0.19 0.11 0.02 0.01 0.05 0.01 0.03 0.11 0.16 0.13 0.12 0.16 0.25 0.12 0.03 0.07 0.11
0.65 0.38 0.32 0.19 0.11 0.01 0.00 0.00 0.00 0.00 0.00 0.00 0.00 0.00 0.00 0.00 0.00 0.00 0.00 0.00 0.00 0.00 0.01 0.02 0.12 0.07 0.07 0.10 0.07 0.01 0.00 0.00 0.02 0.02 0.06 0.08 0.08 0.16 0.12 0.27 0.18 0.08 0.01 0.06 0.06
0.42 0.42 0.38 0.14 0.05 0.00 0.00 0.00 0.00 0.00 0.00 0.00 0.00 0.00 0.00 0.00 0.00 0.00 0.00 0.00 0.00 0.00 0.00 0.00 0.04 0.06 0.04 0.02 0.01 0.00 0.00 0.00 0.00 0.00 0.00 0.00 0.03 0.03 0.05 0.10 0.07 0.02 0.00 0.00 0.00
0.26 0.30 0.27 0.06 0.02 0.00 0.00 0.00 0.00 0.00 0.00 0.00 0.00 0.00 0.00 0.00 0.00 0.00 0.00 0.00 0.00 0.00 0.00 0.00 0.00 0.01 0.00 0.00 0.00 0.00 0.00 0.00 0.00 0.00 0.00 0.00 0.02 0.00 0.00 0.00 0.00 0.00 0.00 0.00 0.00
0.27 0.34 0.25 0.03 0.01 0.00 0.00 0.00 0.00 0.00 0.00 0.00 0.00 0.00 0.00 0.00 0.00 0.00 0.00 0.00 0.00 0.00 0.00 0.00 0.00 0.00 0.00 0.00 0.00 0.00 0.00 0.00 0.00 0.00 0.00 0.00 0.01 0.00 0.00 0.00 0.00 0.00 0.00 0.00 0.00
0.17 0.22 0.20 0.06 0.01 0.00 0.00 0.00 0.00 0.00 0.00 0.00 0.00 0.00 0.00 0.00 0.00 0.00 0.00 0.00 0.00 0.00 0.00 0.00 0.00 0.00 0.00 0.00 0.00 0.00 0.00 0.00 0.00 0.00 0.00 0.00 0.00 0.00 0.00 0.00 0.00 0.00 0.00 0.00 0.00
0.09 0.03 0.02 0.03 0.01 0.00 0.00 0.00 0.00 0.00 0.00 0.00 0.00 0.00 0.00 0.00 0.00 0.00 0.00 0.00 0.00 0.00 0.00 0.00 0.00 0.00 0.00 0.00 0.00 0.00 0.00 0.00 0.00 0.00 0.00 0.00 0.00 0.00 0.00 0.00 0.00 0.00 0.00 0.00 0.00
0.02 0.00 0.00 0.00 0.00 0.00 0.00 0.00 0.00 0.00 0.00 0.00 0.00 0.00 0.00 0.00 0.00 0.00 0.00 0.00 0.00 0.00 0.00 0.00 0.00 0.00 0.00 0.00 0.00 0.00 0.00 0.00 0.00 0.00 0.00 0.00 0.00 0.00 0.00 0.00 0.00 0.00 0.00 0.00 0.00
0.00 0.00 0.00 0.00 0.00 0.00 0.00 0.00 0.00 0.00 0.00 0.00 0.00 0.00 0.00 0.00 0.00 0.00 0.00 0.00 0.00 0.00 0.00 0.00 0.00 0.00 0.00 0.00 0.00 0.00 0.00 0.00 0.00 0.00 0.00 0.00 0.00 0.00 0.00 0.00 0.00 0.00 0.00 0.00 0.00

GFSSW_prec_precacc24_111.txt.gz
Total_Precipitation_Accumulation
0.10 0.07 0.07 0.07 0.04 0.05 0.08 0.05 0.05 0.04 0.02 0.02 0.01 0.00 0.00 0.00 0.00 0.00 0.00 0.00 0.00 0.00 0.01 0.00 0.00 0.00 0.00 0.00 0.03 0.23 0.50 0.34 0.03 0.03 0.03 0.00 0.00 0.00 0.00 0.01 0.01 0.02 0.04 0.05 0.22
0.10 0.12 0.14 0.11 0.10 0.10 0.13 0.07 0.04 0.04 0.03 0.02 0.01 0.00 0.00 0.00 0.00 0.00 0.00 0.00 0.01 0.07 0.02 0.00 0.01 0.01 0.01 0.02 0.04 0.24 0.44 0.33 0.09 0.02 0.01 0.00 0.00 0.00 0.01 0.05 0.09 0.08 0.10 0.11 0.15
0.18 0.14 0.16 0.14 0.09 0.08 0.11 0.08 0.04 0.03 0.03 0.02 0.01 0.00 0.00 0.00 0.00 0.00 0.00 0.00 0.01 0.06 0.08 0.03 0.03 0.05 0.03 0.04 0.05 0.21 0.35 0.18 0.09 0.09 0.06 0.05 0.03 0.01 0.03 0.08 0.03 0.04 0.05 0.27 0.33
0.18 0.20 0.19 0.15 0.10 0.11 0.17 0.12 0.03 0.04 0.04 0.03 0.02 0.00 0.00 0.00 0.00 0.00 0.00 0.00 0.00 0.09 0.15 0.06 0.05 0.06 0.04 0.02 0.03 0.14 0.23 0.23 0.16 0.18 0.19 0.11 0.08 0.07 0.03 0.02 0.05 0.09 0.28 0.36 0.34
0.22 0.20 0.19 0.14 0.13 0.25 0.25 0.15 0.04 0.04 0.06 0.03 0.01 0.00 0.00 0.00 0.00 0.00 0.00 0.00 0.00 0.02 0.07 0.04 0.04 0.08 0.05 0.01 0.03 0.06 0.13 0.20 0.39 0.20 0.24 0.15 0.06 0.11 0.07 0.03 0.14 0.35 0.32 0.32 0.30
0.23 0.17 0.19 0.21 0.25 0.24 0.16 0.14 0.09 0.04 0.06 0.03 0.01 0.00 0.00 0.00 0.00 0.00 0.00 0.00 0.01 0.06 0.08 0.09 0.06 0.13 0.10 0.05 0.04 0.01 0.06 0.10 0.51 0.49 0.27 0.24 0.10 0.10 0.07 0.03 0.24 0.51 0.56 0.40 0.34
0.19 0.25 0.30 0.28 0.24 0.15 0.13 0.13 0.06 0.02 0.02 0.05 0.04 0.00 0.00 0.00 0.00 0.00 0.00 0.01 0.01 0.03 0.09 0.12 0.18 0.33 0.20 0.11 0.03 0.03 0.10 0.15 0.54 0.68 0.67 0.43 0.18 0.05 0.02 0.07 0.16 0.28 0.61 0.54 0.47
0.30 0.26 0.24 0.29 0.59 0.57 0.19 0.13 0.12 0.02 0.01 0.04 0.05 0.00 0.00 0.00 0.00 0.00 0.00 0.00 0.00 0.00 0.01 0.08 0.45 0.57 0.44 0.18 0.19 0.12 0.21 0.29 0.31 0.72 0.93 0.80 0.35 0.07 0.05 0.08 0.15 0.18 0.41 0.66 0.70
0.20 0.16 0.23 0.28 0.33 0.45 0.62 0.17 0.05 0.03 0.03 0.04 0.01 0.00 0.00 0.00 0.00 0.00 0.00 0.00 0.01 0.03 0.02 0.12 0.38 0.68 0.68 0.37 0.28 0.25 0.15 0.18 0.36 0.46 0.96 0.99 0.56 0.18 0.07 0.07 0.12 0.15 0.23 0.40 0.57
0.25 0.28 0.32 0.28 0.26 0.28 0.30 0.19 0.09 0.02 0.02 0.00 0.00 0.00 0.00 0.00 0.00 0.00 0.00 0.00 0.01 0.02 0.05 0.36 0.72 0.51 0.61 0.46 0.27 0.23 0.18 0.15 0.36 0.49 0.73 0.87 0.81 0.40 0.14 0.07 0.07 0.13 0.19 0.27 0.33
0.30 0.34 0.62 0.88 0.23 0.18 0.20 0.20 0.06 0.01 0.01 0.00 0.00 0.00 0.00 0.00 0.00 0.00 0.00 0.00 0.01 0.04 0.08 0.28 0.59 0.33 0.40 0.23 0.14 0.25 0.08 0.10 0.21 0.36 0.43 0.55 0.79 0.62 0.34 0.18 0.07 0.07 0.13 0.24 0.27
0.28 0.28 0.35 1.19 0.51 0.29 0.24 0.20 0.02 0.00 0.00 0.00 0.00 0.00 0.00 0.00 0.00 0.00 0.00 0.01 0.04 0.08 0.11 0.22 0.21 0.09 0.30 0.30 0.13 0.38 0.18 0.18 0.33 0.34 0.28 0.36 0.62 0.64 0.42 0.24 0.07 0.05 0.07 0.12 0.24
0.31 0.37 0.43 0.77 0.47 0.48 0.33 0.15 0.00 0.00 0.00 0.00 0.00 0.00 0.00 0.01 0.00 0.00 0.02 0.07 0.16 0.28 0.30 0.32 0.27 0.24 0.46 0.27 0.14 0.18 0.09 0.16 0.56 0.51 0.25 0.15 0.30 0.44 0.34 0.12 0.05 0.03 0.04 0.06 0.16
0.34 0.42 0.57 0.35 0.34 0.33 0.34 0.05 0.00 0.00 0.00 0.00 0.00 0.00 0.00 0.01 0.00 0.00 0.03 0.24 0.43 0.42 0.37 0.44 0.23 0.25 0.60 0.16 0.07 0.02 0.11 0.47 0.39 0.33 0.38 0.16 0.21 0.27 0.30 0.22 0.07 0.02 0.02 0.04 0.11
0.33 0.46 0.86 0.18 0.18 0.22 0.19 0.04 0.00 0.00 0.00 0.00 0.00 0.00 0.00 0.00 0.01 0.02 0.05 0.24 0.59 0.54 0.49 0.40 0.28 0.55 0.42 0.03 0.03 0.04 0.15 0.38 0.47 0.42 0.35 0.24 0.43 0.28 0.23 0.30 0.19 0.04 0.02 0.04 0.16
0.38 0.39 0.79 0.24 0.24 0.17 0.06 0.00 0.00 0.00 0.00 0.00 0.00 0.00 0.00 0.00 0.00 0.03 0.07 0.19 0.48 0.73 0.53 0.50 0.59 0.48 0.12 0.09 0.05 0.10 0.24 0.48 0.68 0.72 0.69 0.31 0.51 0.43 0.28 0.26 0.24 0.07 0.03 0.07 0.22
0.42 0.42 0.43 0.19 0.19 0.12 0.00 0.00 0.00 0.00 0.00 0.00 0.00 0.00 0.00 0.00 0.00 0.00 0.02 0.05 0.11 0.20 0.31 0.34 0.34 0.16 0.14 0.18 0.26 0.66 0.72 0.82 0.66 0.58 0.42 0.35 0.24 0.35 0.27 0.11 0.19 0.15 0.05 0.19 0.39
0.43 0.62 0.32 0.16 0.12 0.08 0.00 0.00 0.00 0.00 0.00 0.00 0.00 0.00 0.00 0.00 0.00 0.00 0.00 0.03 0.04 0.04 0.06 0.21 0.45 0.30 0.15 0.33 0.69 0.54 0.35 0.25 0.27 0.16 0.12 0.06 0.23 0.39 0.17 0.10 0.16 0.14 0.33 0.50 0.40
0.63 0.50 0.23 0.21 0.13 0.05 0.00 0.00 0.00 0.00 0.00 0.00 0.00 0.00 0.00 0.00 0.00 0.00 0.00 0.00 0.00 0.00 0.07 0.10 0.21 0.08 0.06 0.08 0.32 0.19 0.09 0.06 0.16 0.07 0.06 0.21 0.29 0.28 0.26 0.26 0.37 0.41 0.50 0.17 0.24
0.65 0.38 0.32 0.19 0.11 0.01 0.00 0.00 0.00 0.00 0.00 0.00 0.00 0.00 0.00 0.00 0.00 0.00 0.00 0.00 0.00 0.00 0.01 0.02 0.12 0.07 0.07 0.10 0.07 0.01 0.00 0.01 0.07 0.07 0.14 0.16 0.17 0.39 0.41 0.61 0.41 0.29 0.12 0.24 0.23
0.42 0.42 0.39 0.14 0.05 0.00 0.00 0.00 0.00 0.00 0.00 0.00 0.00 0.00 0.00 0.00 0.00 0.00 0.00 0.00 0.00 0.00 0.00 0.00 0.04 0.06 0.02 0.02 0.01 0.00 0.00 0.00 0.00 0.00 0.03 0.04 0.28 0.36 0.45 0.39 0.14 0.09 0.14 0.10 0.02
0.26 0.30 0.27 0.06 0.02 0.00 0.00 0.00 0.00 0.00 0.00 0.00 0.00 0.00 0.00 0.00 0.00 0.00 0.00 0.00 0.00 0.00 0.00 0.00 0.00 0.01 0.00 0.00 0.00 0.00 0.00 0.00 0.00 0.00 0.00 0.01 0.15 0.04 0.04 0.04 0.02 0.01 0.00 0.00 0.00
0.27 0.34 0.25 0.03 0.01 0.00 0.00 0.00 0.00 0.00 0.00 0.00 0.00 0.00 0.00 0.00 0.00 0.00 0.00 0.00 0.00 0.00 0.00 0.00 0.00 0.00 0.00 0.00 0.00 0.00 0.00 0.00 0.00 0.00 0.00 0.00 0.06 0.00 0.00 0.00 0.00 0.00 0.00 0.00 0.00
0.17 0.22 0.20 0.06 0.01 0.00 0.00 0.00 0.00 0.00 0.00 0.00 0.00 0.00 0.00 0.00 0.00 0.00 0.00 0.00 0.00 0.00 0.00 0.00 0.00 0.00 0.00 0.00 0.00 0.00 0.00 0.00 0.00 0.00 0.00 0.00 0.00 0.00 0.00 0.00 0.00 0.00 0.00 0.00 0.00
0.09 0.03 0.02 0.03 0.01 0.00 0.00 0.00 0.00 0.00 0.00 0.00 0.00 0.00 0.00 0.00 0.00 0.00 0.00 0.00 0.00 0.00 0.00 0.00 0.00 0.00 0.00 0.00 0.00 0.00 0.00 0.00 0.00 0.00 0.00 0.00 0.00 0.00 0.00 0.00 0.00 0.00 0.00 0.00 0.00
0.02 0.00 0.00 0.00 0.00 0.00 0.00 0.00 0.00 0.00 0.00 0.00 0.00 0.00 0.00 0.00 0.00 0.00 0.00 0.00 0.00 0.00 0.00 0.00 0.00 0.00 0.00 0.00 0.00 0.00 0.00 0.00 0.00 0.00 0.00 0.00 0.00 0.00 0.00 0.00 0.00 0.00 0.00 0.00 0.00
0.00 0.00 0.00 0.00 0.00 0.00 0.00 0.00 0.00 0.00 0.00 0.00 0.00 0.00 0.00 0.00 0.00 0.00 0.00 0.00 0.00 0.00 0.00 0.00 0.00 0.00 0.00 0.00 0.00 0.00 0.00 0.00 0.00 0.00 0.00 0.00 0.00 0.00 0.00 0.00 0.00 0.00 0.00 0.00 0.00

GFSSW_prec_precacc24_114.txt.gz
Total_Precipitation_Accumulation
0.10 0.07 0.06 0.06 0.04 0.05 0.11 0.15 0.08 0.04 0.03 0.02 0.01 0.00 0.00 0.00 0.00 0.00 0.00 0.00 0.00 0.00 0.01 0.00 0.00 0.00 0.00 0.00 0.01 0.12 0.36 0.33 0.03 0.03 0.03 0.00 0.00 0.00 0.00 0.01 0.01 0.00 0.01 0.04 0.22
0.10 0.12 0.13 0.10 0.10 0.10 0.14 0.12 0.08 0.06 0.03 0.02 0.01 0.00 0.00 0.00 0.00 0.00 0.00 0.00 0.01 0.03 0.00 0.00 0.00 0.00 0.01 0.01 0.01 0.14 0.24 0.29 0.09 0.01 0.00 0.00 0.00 0.00 0.01 0.05 0.09 0.05 0.03 0.06 0.14
0.20 0.14 0.16 0.13 0.09 0.08 0.11 0.16 0.10 0.06 0.04 0.02 0.01 0.00 0.00 0.00 0.00 0.00 0.00 0.00 0.01 0.00 0.00 0.00 0.00 0.02 0.01 0.02 0.02 0.04 0.20 0.13 0.08 0.05 0.05 0.05 0.03 0.01 0.03 0.08 0.02 0.02 0.05 0.20 0.24
0.20 0.21 0.19 0.15 0.10 0.10 0.18 0.17 0.12 0.04 0.04 0.03 0.02 0.00 0.00 0.00 0.00 0.00 0.00 0.00 0.00 0.00 0.00 0.01 0.02 0.02 0.02 0.01 0.01 0.04 0.07 0.17 0.15 0.11 0.15 0.10 0.08 0.07 0.03 0.02 0.05 0.08 0.22 0.28 0.30
0.25 0.21 0.19 0.13 0.12 0.24 0.25 0.18 0.09 0.04 0.05 0.03 0.01 0.00 0.00 0.00 0.00 0.00 0.00 0.00 0.00 0.01 0.01 0.01 0.01 0.01 0.02 0.01 0.01 0.03 0.02 0.11 0.29 0.17 0.16 0.12 0.06 0.11 0.07 0.03 0.14 0.35 0.31 0.25 0.17
0.28 0.20 0.19 0.20 0.24 0.24 0.16 0.16 0.20 0.05 0.04 0.03 0.01 0.00 0.00 0.00 0.00 0.00 0.00 0.00 0.00 0.04 0.02 0.04 0.02 0.03 0.06 0.02 0.03 0.00 0.01 0.06 0.34 0.45 0.23 0.20 0.09 0.10 0.07 0.03 0.24 0.51 0.56 0.37 0.31
0.25 0.27 0.31 0.27 0.24 0.15 0.13 0.19 0.17 0.14 0.01 0.05 0.04 0.00 0.00 0.00 0.00 0.00 0.00 0.00 0.00 0.03 0.03 0.05 0.10 0.13 0.10 0.06 0.02 0.02 0.05 0.04 0.29 0.54 0.62 0.40 0.18 0.05 0.02 0.06 0.15 0.28 0.60 0.50 0.44
0.37 0.30 0.24 0.28 0.59 0.61 0.33 0.23 0.15 0.11 0.02 0.04 0.05 0.00 0.00 0.00 0.00 0.00 0.00 0.00 0.00 0.00 0.01 0.05 0.14 0.29 0.30 0.13 0.18 0.11 0.13 0.11 0.12 0.56 0.84 0.71 0.32 0.06 0.05 0.08 0.15 0.18 0.41 0.63 0.65
0.24 0.17 0.23 0.28 0.33 0.51 0.79 0.20 0.06 0.03 0.03 0.04 0.01 0.00 0.00 0.00 0.00 0.00 0.00 0.00 0.01 0.03 0.02 0.09 0.20 0.49 0.55 0.29 0.27 0.22 0.12 0.09 0.14 0.35 0.90 0.88 0.48 0.16 0.07 0.07 0.12 0.15 0.23 0.39 0.54
0.25 0.28 0.32 0.28 0.28 0.42 0.35 0.21 0.10 0.03 0.02 0.00 0.00 0.00 0.00 0.00 0.00 0.00 0.00 0.00 0.01 0.02 0.05 0.27 0.67 0.43 0.40 0.34 0.25 0.21 0.16 0.13 0.30 0.38 0.70 0.80 0.74 0.30 0.11 0.06 0.07 0.13 0.19 0.27 0.32
0.30 0.34 0.62 0.89 0.24 0.30 0.25 0.22 0.09 0.01 0.01 0.00 0.00 0.00 0.00 0.00 0.00 0.00 0.00 0.00 0.00 0.03 0.07 0.25 0.58 0.28 0.22 0.16 0.14 0.25 0.09 0.10 0.20 0.35 0.41 0.50 0.75 0.56 0.28 0.16 0.06 0.07 0.13 0.24 0.27
0.28 0.30 0.46 1.24 0.54 0.38 0.25 0.20 0.02 0.00 0.00 0.00 0.00 0.00 0.00 0.00 0.00 0.00 0.00 0.00 0.02 0.05 0.08 0.19 0.20 0.07 0.19 0.26 0.12 0.37 0.18 0.17 0.30 0.31 0.27 0.31 0.59 0.61 0.33 0.21 0.07 0.05 0.07 0.12 0.24
0.31 0.38 0.56 0.83 0.47 0.48 0.34 0.20 0.00 0.00 0.00 0.00 0.00 0.00 0.00 0.00 0.00 0.00 0.02 0.06 0.11 0.16 0.21 0.31 0.26 0.22 0.43 0.24 0.14 0.17 0.08 0.15 0.53 0.42 0.22 0.14 0.29 0.43 0.32 0.11 0.04 0.03 0.04 0.06 0.16
0.34 0.43 0.60 0.36 0.37 0.34 0.36 0.07 0.00 0.00 0.00 0.00 0.00 0.00 0.00 0.00 0.00 0.00 0.03 0.23 0.31 0.22 0.30 0.42 0.22 0.24 0.58 0.15 0.07 0.02 0.11 0.47 0.38 0.32 0.30 0.12 0.19 0.27 0.30 0.22 0.07 0.02 0.02 0.04 0.11
0.33 0.46 0.86 0.18 0.19 0.22 0.20 0.04 0.00 0.00 0.00 0.00 0.00 0.00 0.00 0.00 0.01 0.02 0.05 0.23 0.52 0.46 0.44 0.32 0.26 0.54 0.42 0.03 0.03 0.04 0.15 0.38 0.45 0.44 0.32 0.19 0.44 0.28 0.23 0.30 0.19 0.05 0.02 0.04 0.16
0.38 0.39 0.79 0.24 0.24 0.17 0.06 0.00 0.00 0.00 0.00 0.00 0.00 0.00 0.00 0.00 0.00 0.03 0.07 0.17 0.39 0.62 0.51 0.48 0.59 0.47 0.12 0.09 0.05 0.11 0.23 0.47 0.65 0.69 0.69 0.31 0.53 0.49 0.30 0.27 0.24 0.08 0.03 0.07 0.23
0.42 0.42 0.43 0.19 0.19 0.12 0.00 0.00 0.00 0.00 0.00 0.00 0.00 0.00 0.00 0.00 0.00 0.00 0.02 0.05 0.10 0.19 0.27 0.29 0.23 0.11 0.14 0.20 0.30 0.76 0.82 0.81 0.62 0.54 0.53 0.40 0.33 0.44 0.44 0.16 0.19 0.16 0.07 0.28 0.50
0.43 0.62 0.32 0.16 0.12 0.08 0.00 0.00 0.00 0.00 0.00 0.00 0.00 0.00 0.00 0.00 0.00 0.00 0.01 0.03 0.03 0.03 0.06 0.18 0.41 0.30 0.16 0.42 0.81 0.62 0.51 0.40 0.36 0.23 0.20 0.16 0.34 0.57 0.32 0.14 0.17 0.18 0.46 0.89 1.15
0.63 0.50 0.23 0.21 0.13 0.05 0.00 0.00 0.00 0.00 0.00 0.00 0.00 0.00 0.00 0.00 0.00 0.00 0.00 0.00 0.00 0.00 0.07 0.10 0.21 0.08 0.06 0.10 0.33 0.21 0.16 0.14 0.25 0.08 0.08 0.28 0.35 0.37 0.33 0.34 0.49 0.69 1.17 0.86 0.61
0.65 0.38 0.32 0.19 0.11 0.01 0.00 0.00 0.00 0.00 0.00 0.00 0.00 0.00 0.00 0.00 0.00 0.00 0.00 0.00 0.00 0.00 0.01 0.02 0.12 0.07 0.07 0.10 0.07 0.02 0.02 0.03 0.09 0.09 0.17 0.17 0.24 0.59 0.63 0.91 0.90 0.94 0.48 0.36 0.36
0.42 0.42 0.38 0.14 0.05 0.00 0.00 0.00 0.00 0.00 0.00 0.00 0.00 0.00 0.00 0.00 0.00 0.00 0.00 0.00 0.00 0.00 0.00 0.00 0.04 0.06 0.02 0.02 0.01 0.00 0.00 0.00 0.00 0.02 0.08 0.07 0.44 0.64 0.84 0.75 0.42 0.27 0.22 0.16 0.07
0.26 0.30 0.27 0.06 0.02 0.00 0.00 0.00 0.00 0.00 0.00 0.00 0.00 0.00 0.00 0.00 0.00 0.00 0.00 0.00 0.00 0.00 0.00 0.00 0.00 0.01 0.00 0.00 0.00 0.00 0.00 0.00 0.00 0.00 0.00 0.03 0.26 0.15 0.13 0.17 0.13 0.07 0.02 0.00 0.00
0.27 0.34 0.25 0.03 0.01 0.00 0.00 0.00 0.00 0.00 0.00 0.00 0.00 0.00 0.00 0.00 0.00 0.00 0.00 0.00 0.00 0.00 0.00 0.00 0.00 0.00 0.00 0.00 0.00 0.00 0.00 0.00 0.00 0.00 0.00 0.00 0.07 0.00 0.00 0.00 0.00 0.00 0.00 0.00 0.00
0.17 0.22 0.20 0.06 0.01 0.00 0.00 0.00 0.00 0.00 0.00 0.00 0.00 0.00 0.00 0.00 0.00 0.00 0.00 0.00 0.00 0.00 0.00 0.00 0.00 0.00 0.00 0.00 0.00 0.00 0.00 0.00 0.00 0.00 0.00 0.00 0.00 0.00 0.00 0.00 0.00 0.00 0.00 0.00 0.00
0.09 0.03 0.02 0.02 0.01 0.00 0.00 0.00 0.00 0.00 0.00 0.00 0.00 0.00 0.00 0.00 0.00 0.00 0.00 0.00 0.00 0.00 0.00 0.00 0.00 0.00 0.00 0.00 0.00 0.00 0.00 0.00 0.00 0.00 0.00 0.00 0.00 0.00 0.00 0.00 0.00 0.00 0.00 0.00 0.00
0.02 0.00 0.00 0.00 0.00 0.00 0.00 0.00 0.00 0.00 0.00 0.00 0.00 0.00 0.00 0.00 0.00 0.00 0.00 0.00 0.00 0.00 0.00 0.00 0.00 0.00 0.00 0.00 0.00 0.00 0.00 0.00 0.00 0.00 0.00 0.00 0.00 0.00 0.00 0.00 0.00 0.00 0.00 0.00 0.00
0.00 0.00 0.00 0.00 0.00 0.00 0.00 0.00 0.00 0.00 0.00 0.00 0.00 0.00 0.00 0.00 0.00 0.00 0.00 0.00 0.00 0.00 0.00 0.00 0.00 0.00 0.00 0.00 0.00 0.00 0.00 0.00 0.00 0.00 0.00 0.00 0.00 0.00 0.00 0.00 0.00 0.00 0.00 0.00 0.00

GFSSW_prec_precacc24_117.txt.gz
Total_Precipitation_Accumulation
0.11 0.07 0.07 0.05 0.04 0.05 0.11 0.17 0.34 0.09 0.02 0.02 0.01 0.00 0.00 0.00 0.00 0.00 0.00 0.00 0.00 0.00 0.01 0.00 0.00 0.00 0.00 0.00 0.00 0.06 0.09 0.13 0.03 0.03 0.03 0.00 0.00 0.00 0.00 0.01 0.00 0.00 0.01 0.04 0.20
0.16 0.13 0.14 0.09 0.09 0.10 0.14 0.12 0.16 0.15 0.04 0.03 0.01 0.00 0.00 0.00 0.00 0.00 0.00 0.00 0.01 0.02 0.00 0.00 0.00 0.00 0.00 0.01 0.01 0.04 0.03 0.07 0.08 0.01 0.00 0.00 0.00 0.00 0.01 0.05 0.07 0.03 0.02 0.06 0.14
0.27 0.17 0.17 0.13 0.09 0.07 0.11 0.16 0.18 0.08 0.06 0.02 0.01 0.00 0.00 0.00 0.00 0.00 0.00 0.00 0.01 0.00 0.00 0.00 0.00 0.00 0.00 0.02 0.01 0.02 0.01 0.02 0.06 0.03 0.05 0.05 0.03 0.01 0.03 0.07 0.02 0.01 0.05 0.20 0.24
0.23 0.22 0.21 0.14 0.09 0.10 0.18 0.18 0.18 0.07 0.04 0.03 0.02 0.00 0.00 0.00 0.00 0.00 0.00 0.00 0.00 0.00 0.00 0.00 0.00 0.00 0.00 0.00 0.01 0.02 0.00 0.00 0.03 0.07 0.10 0.09 0.08 0.07 0.03 0.01 0.03 0.04 0.19 0.23 0.24
0.35 0.24 0.22 0.13 0.12 0.23 0.25 0.18 0.12 0.15 0.03 0.03 0.01 0.00 0.00 0.00 0.00 0.00 0.00 0.00 0.00 0.00 0.00 0.00 0.00 0.00 0.00 0.00 0.01 0.01 0.00 0.00 0.06 0.09 0.08 0.10 0.06 0.11 0.07 0.02 0.10 0.27 0.23 0.20 0.11
0.44 0.24 0.21 0.21 0.24 0.23 0.16 0.16 0.29 0.14 0.03 0.03 0.01 0.00 0.00 0.00 0.00 0.00 0.00 0.00 0.00 0.01 0.01 0.01 0.01 0.01 0.02 0.01 0.02 0.00 0.00 0.00 0.01 0.17 0.17 0.16 0.08 0.09 0.06 0.03 0.24 0.44 0.47 0.27 0.20
0.29 0.29 0.31 0.27 0.23 0.15 0.13 0.25 0.31 0.16 0.02 0.05 0.04 0.00 0.00 0.00 0.00 0.00 0.00 0.00 0.00 0.01 0.00 0.01 0.05 0.08 0.05 0.04 0.02 0.01 0.03 0.01 0.00 0.16 0.47 0.36 0.16 0.04 0.02 0.06 0.14 0.25 0.52 0.39 0.30
0.39 0.31 0.24 0.28 0.59 0.63 0.41 0.29 0.21 0.21 0.05 0.04 0.05 0.00 0.00 0.00 0.00 0.00 0.00 0.00 0.00 0.00 0.01 0.02 0.08 0.25 0.16 0.08 0.16 0.10 0.09 0.06 0.01 0.09 0.58 0.66 0.29 0.06 0.05 0.08 0.15 0.17 0.37 0.57 0.54
0.23 0.17 0.23 0.28 0.34 0.68 0.90 0.25 0.10 0.13 0.06 0.04 0.01 0.00 0.00 0.00 0.00 0.00 0.00 0.00 0.00 0.00 0.01 0.06 0.10 0.32 0.35 0.22 0.22 0.20 0.08 0.04 0.04 0.08 0.47 0.78 0.46 0.16 0.07 0.07 0.12 0.15 0.23 0.36 0.46
0.22 0.27 0.32 0.30 0.35 0.60 0.41 0.23 0.10 0.03 0.02 0.00 0.00 0.00 0.00 0.00 0.00 0.00 0.00 0.00 0.00 0.00 0.03 0.17 0.46 0.20 0.18 0.27 0.21 0.20 0.14 0.10 0.09 0.13 0.24 0.57 0.69 0.28 0.11 0.06 0.07 0.13 0.19 0.27 0.31
0.26 0.34 0.63 0.91 0.37 0.39 0.29 0.22 0.09 0.01 0.01 0.00 0.00 0.00 0.00 0.00 0.00 0.00 0.00 0.00 0.00 0.01 0.06 0.17 0.49 0.21 0.13 0.07 0.13 0.24 0.08 0.09 0.10 0.18 0.21 0.29 0.62 0.46 0.25 0.16 0.06 0.07 0.13 0.24 0.27
0.28 0.38 0.48 1.28 0.79 0.48 0.26 0.20 0.02 0.00 0.00 0.00 0.00 0.00 0.00 0.00 0.00 0.00 0.00 0.00 0.01 0.02 0.06 0.17 0.17 0.05 0.12 0.12 0.12 0.35 0.17 0.16 0.25 0.23 0.20 0.19 0.44 0.53 0.25 0.20 0.07 0.05 0.07 0.12 0.24
0.29 0.40 0.59 0.88 0.57 0.49 0.34 0.20 0.00 0.00 0.00 0.00 0.00 0.00 0.00 0.00 0.00 0.00 0.02 0.02 0.05 0.11 0.19 0.30 0.25 0.18 0.20 0.14 0.13 0.15 0.07 0.13 0.49 0.35 0.21 0.12 0.21 0.39 0.29 0.11 0.04 0.03 0.04 0.06 0.16
0.25 0.42 0.60 0.36 0.37 0.34 0.36 0.07 0.00 0.00 0.00 0.00 0.00 0.00 0.00 0.00 0.00 0.00 0.01 0.09 0.16 0.15 0.28 0.41 0.19 0.17 0.30 0.11 0.06 0.02 0.09 0.46 0.37 0.27 0.27 0.12 0.18 0.25 0.30 0.22 0.07 0.02 0.03 0.05 0.11
0.25 0.44 0.86 0.18 0.19 0.22 0.20 0.04 0.00 0.00 0.00 0.00 0.00 0.00 0.00 0.00 0.01 0.02 0.02 0.13 0.43 0.42 0.43 0.29 0.23 0.32 0.24 0.02 0.02 0.03 0.14 0.36 0.46 0.45 0.27 0.14 0.44 0.29 0.23 0.30 0.19 0.05 0.05 0.08 0.18
0.32 0.38 0.79 0.24 0.24 0.17 0.06 0.00 0.00 0.00 0.00 0.00 0.00 0.00 0.00 0.00 0.00 0.02 0.02 0.09 0.35 0.62 0.50 0.47 0.59 0.44 0.12 0.08 0.05 0.09 0.22 0.45 0.65 0.68 0.64 0.29 0.55 0.50 0.31 0.28 0.24 0.08 0.04 0.09 0.25
0.36 0.42 0.43 0.19 0.19 0.12 0.00 0.00 0.00 0.00 0.00 0.00 0.00 0.00 0.00 0.00 0.00 0.00 0.01 0.04 0.08 0.18 0.26 0.28 0.22 0.10 0.14 0.20 0.30 0.78 0.90 0.81 0.60 0.47 0.53 0.47 0.39 0.50 0.50 0.20 0.20 0.16 0.08 0.29 0.51
0.39 0.61 0.32 0.16 0.12 0.08 0.00 0.00 0.00 0.00 0.00 0.00 0.00 0.00 0.00 0.00 0.00 0.00 0.01 0.03 0.03 0.03 0.06 0.13 0.37 0.29 0.15 0.42 0.82 0.65 0.59 0.46 0.37 0.23 0.23 0.20 0.38 0.65 0.42 0.22 0.21 0.20 0.49 0.97 1.33
0.58 0.50 0.23 0.21 0.13 0.05 0.00 0.00 0.00 0.00 0.00 0.00 0.00 0.00 0.00 0.00 0.00 0.00 0.00 0.00 0.00 0.00 0.07 0.10 0.19 0.08 0.06 0.09 0.32 0.23 0.21 0.18 0.28 0.10 0.09 0.32 0.37 0.41 0.36 0.40 0.53 0.73 1.33 1.11 1.07
0.62 0.38 0.32 0.19 0.11 0.01 0.00 0.00 0.00 0.00 0.00 0.00 0.00 0.00 0.00 0.00 0.00 0.00 0.00 0.00 0.00 0.00 0.01 0.02 0.12 0.07 0.07 0.10 0.06 0.02 0.03 0.06 0.11 0.11 0.19 0.18 0.28 0.71 0.75 1.06 1.12 1.29 0.99 0.87 0.73
0.41 0.42 0.38 0.14 0.05 0.00 0.00 0.00 0.00 0.00 0.00 0.00 0.00 0.00 0.00 0.00 0.00 0.00 0.00 0.00 0.00 0.00 0.00 0.00 0.04 0.06 0.02 0.02 0.00 0.00 0.00 0.00 0.00 0.02 0.08 0.08 0.52 0.78 1.10 1.10 0.84 0.68 0.56 0.35 0.15
0.26 0.30 0.26 0.06 0.02 0.00 0.00 0.00 0.00 0.00 0.00 0.00 0.00 0.00 0.00 0.00 0.00 0.00 0.00 0.00 0.00 0.00 0.00 0.00 0.00 0.01 0.00 0.00 0.00 0.00 0.00 0.00 0.00 0.00 0.00 0.04 0.31 0.18 0.22 0.35 0.28 0.12 0.02 0.00 0.00
0.26 0.34 0.25 0.03 0.01 0.00 0.00 0.00 0.00 0.00 0.00 0.00 0.00 0.00 0.00 0.00 0.00 0.00 0.00 0.00 0.00 0.00 0.00 0.00 0.00 0.00 0.00 0.00 0.00 0.00 0.00 0.00 0.00 0.00 0.00 0.00 0.08 0.00 0.01 0.01 0.00 0.00 0.00 0.00 0.00
0.17 0.22 0.19 0.06 0.01 0.00 0.00 0.00 0.00 0.00 0.00 0.00 0.00 0.00 0.00 0.00 0.00 0.00 0.00 0.00 0.00 0.00 0.00 0.00 0.00 0.00 0.00 0.00 0.00 0.00 0.00 0.00 0.00 0.00 0.00 0.00 0.00 0.00 0.00 0.00 0.00 0.00 0.00 0.00 0.00
0.09 0.03 0.02 0.02 0.01 0.00 0.00 0.00 0.00 0.00 0.00 0.00 0.00 0.00 0.00 0.00 0.00 0.00 0.00 0.00 0.00 0.00 0.00 0.00 0.00 0.00 0.00 0.00 0.00 0.00 0.00 0.00 0.00 0.00 0.00 0.00 0.00 0.00 0.00 0.00 0.00 0.00 0.00 0.00 0.00
0.02 0.00 0.00 0.00 0.00 0.00 0.00 0.00 0.00 0.00 0.00 0.00 0.00 0.00 0.00 0.00 0.00 0.00 0.00 0.00 0.00 0.00 0.00 0.00 0.00 0.00 0.00 0.00 0.00 0.00 0.00 0.00 0.00 0.00 0.00 0.00 0.00 0.00 0.00 0.00 0.00 0.00 0.00 0.00 0.00
0.00 0.00 0.00 0.00 0.00 0.00 0.00 0.00 0.00 0.00 0.00 0.00 0.00 0.00 0.00 0.00 0.00 0.00 0.00 0.00 0.00 0.00 0.00 0.00 0.00 0.00 0.00 0.00 0.00 0.00 0.00 0.00 0.00 0.00 0.00 0.00 0.00 0.00 0.00 0.00 0.00 0.00 0.00 0.00 0.00

GFSSW_prec_precacc24_120.txt.gz
Total_Precipitation_Accumulation
0.22 0.14 0.07 0.05 0.03 0.05 0.12 0.19 0.49 0.15 0.03 0.02 0.01 0.00 0.00 0.00 0.00 0.00 0.00 0.00 0.00 0.00 0.01 0.00 0.00 0.00 0.00 0.00 0.00 0.04 0.05 0.01 0.01 0.03 0.03 0.00 0.00 0.00 0.00 0.01 0.00 0.00 0.00 0.02 0.15
0.23 0.20 0.14 0.09 0.08 0.09 0.14 0.14 0.18 0.52 0.11 0.03 0.01 0.00 0.00 0.00 0.00 0.00 0.00 0.00 0.00 0.01 0.00 0.00 0.00 0.00 0.00 0.01 0.00 0.03 0.02 0.00 0.00 0.00 0.00 0.00 0.00 0.00 0.01 0.03 0.03 0.01 0.01 0.04 0.14
0.31 0.23 0.18 0.14 0.08 0.07 0.11 0.17 0.22 0.31 0.20 0.03 0.01 0.00 0.00 0.00 0.00 0.00 0.00 0.00 0.01 0.00 0.00 0.00 0.00 0.00 0.00 0.01 0.01 0.01 0.00 0.00 0.00 0.00 0.02 0.04 0.03 0.01 0.02 0.04 0.01 0.01 0.04 0.20 0.23
0.27 0.27 0.25 0.15 0.09 0.09 0.17 0.17 0.19 0.22 0.09 0.05 0.02 0.00 0.00 0.00 0.00 0.00 0.00 0.00 0.00 0.00 0.00 0.00 0.00 0.00 0.00 0.00 0.01 0.01 0.00 0.00 0.00 0.00 0.02 0.05 0.08 0.07 0.03 0.01 0.02 0.03 0.19 0.23 0.23
0.34 0.30 0.25 0.13 0.11 0.23 0.25 0.18 0.13 0.28 0.01 0.02 0.01 0.00 0.00 0.00 0.00 0.00 0.00 0.00 0.00 0.00 0.00 0.00 0.00 0.00 0.00 0.00 0.00 0.00 0.00 0.00 0.00 0.00 0.00 0.04 0.05 0.10 0.06 0.02 0.05 0.11 0.17 0.18 0.11
0.42 0.21 0.19 0.20 0.23 0.23 0.16 0.17 0.32 0.32 0.05 0.02 0.01 0.00 0.00 0.00 0.00 0.00 0.00 0.00 0.00 0.00 0.00 0.00 0.00 0.00 0.01 0.00 0.01 0.00 0.00 0.00 0.00 0.01 0.02 0.06 0.07 0.08 0.06 0.02 0.08 0.29 0.28 0.20 0.14
0.32 0.22 0.26 0.24 0.23 0.15 0.13 0.26 0.47 0.23 0.06 0.03 0.03 0.00 0.00 0.00 0.00 0.00 0.00 0.00 0.00 0.00 0.00 0.00 0.00 0.01 0.04 0.02 0.01 0.01 0.02 0.01 0.00 0.00 0.02 0.12 0.13 0.04 0.02 0.05 0.09 0.12 0.26 0.23 0.19
0.21 0.19 0.17 0.25 0.58 0.64 0.44 0.38 0.35 0.23 0.07 0.03 0.04 0.00 0.00 0.00 0.00 0.00 0.00 0.00 0.00 0.00 0.00 0.00 0.02 0.13 0.11 0.07 0.12 0.09 0.08 0.04 0.00 0.00 0.03 0.13 0.15 0.06 0.03 0.06 0.11 0.15 0.25 0.29 0.33
0.11 0.10 0.16 0.23 0.35 0.76 0.97 0.33 0.15 0.14 0.06 0.04 0.01 0.00 0.00 0.00 0.00 0.00 0.00 0.00 0.00 0.00 0.00 0.03 0.06 0.28 0.33 0.17 0.17 0.16 0.07 0.04 0.03 0.01 0.05 0.12 0.22 0.15 0.06 0.05 0.11 0.14 0.21 0.28 0.32
0.02 0.10 0.22 0.28 0.56 0.72 0.50 0.31 0.11 0.04 0.02 0.00 0.00 0.00 0.00 0.00 0.00 0.00 0.00 0.00 0.00 0.00 0.02 0.09 0.22 0.15 0.16 0.17 0.13 0.18 0.13 0.09 0.07 0.03 0.04 0.11 0.27 0.22 0.10 0.05 0.07 0.13 0.19 0.26 0.27
0.04 0.16 0.64 1.07 0.86 0.52 0.35 0.24 0.10 0.01 0.01 0.00 0.00 0.00 0.00 0.00 0.00 0.00 0.00 0.00 0.00 0.00 0.02 0.11 0.29 0.16 0.06 0.04 0.09 0.24 0.08 0.09 0.08 0.08 0.04 0.05 0.22 0.26 0.23 0.15 0.06 0.07 0.13 0.24 0.27
0.13 0.22 0.43 1.45 1.01 0.52 0.27 0.20 0.02 0.00 0.00 0.00 0.00 0.00 0.00 0.00 0.00 0.00 0.00 0.00 0.00 0.00 0.05 0.15 0.12 0.04 0.04 0.05 0.09 0.35 0.15 0.14 0.22 0.13 0.07 0.06 0.18 0.24 0.22 0.20 0.07 0.05 0.07 0.12 0.24
0.12 0.21 0.40 0.86 0.59 0.52 0.34 0.20 0.00 0.00 0.00 0.00 0.00 0.00 0.00 0.00 0.00 0.00 0.00 0.00 0.02 0.09 0.17 0.28 0.24 0.18 0.12 0.04 0.12 0.15 0.05 0.11 0.44 0.16 0.15 0.08 0.12 0.14 0.23 0.11 0.04 0.03 0.04 0.06 0.16
0.09 0.24 0.44 0.31 0.37 0.34 0.36 0.07 0.00 0.00 0.00 0.00 0.00 0.00 0.00 0.00 0.00 0.00 0.00 0.03 0.09 0.11 0.26 0.34 0.17 0.15 0.17 0.06 0.06 0.02 0.05 0.42 0.34 0.23 0.24 0.10 0.17 0.13 0.19 0.22 0.07 0.02 0.03 0.05 0.11
0.06 0.24 0.72 0.14 0.18 0.22 0.20 0.04 0.00 0.00 0.00 0.00 0.00 0.00 0.00 0.00 0.01 0.01 0.00 0.09 0.39 0.39 0.40 0.19 0.08 0.10 0.10 0.02 0.01 0.02 0.10 0.32 0.44 0.46 0.28 0.11 0.42 0.26 0.15 0.28 0.19 0.05 0.07 0.13 0.22
0.05 0.16 0.66 0.19 0.24 0.17 0.06 0.00 0.00 0.00 0.00 0.00 0.00 0.00 0.00 0.00 0.00 0.00 0.00 0.08 0.31 0.53 0.45 0.31 0.17 0.14 0.07 0.07 0.03 0.08 0.21 0.44 0.64 0.70 0.64 0.29 0.59 0.51 0.33 0.32 0.26 0.08 0.08 0.20 0.34
0.08 0.20 0.30 0.16 0.19 0.12 0.00 0.00 0.00 0.00 0.00 0.00 0.00 0.00 0.00 0.00 0.00 0.00 0.01 0.03 0.07 0.14 0.23 0.27 0.17 0.07 0.10 0.17 0.25 0.75 0.92 0.81 0.60 0.47 0.53 0.50 0.47 0.55 0.55 0.27 0.29 0.23 0.13 0.34 0.59
0.13 0.38 0.20 0.14 0.12 0.08 0.00 0.00 0.00 0.00 0.00 0.00 0.00 0.00 0.00 0.00 0.00 0.00 0.01 0.03 0.03 0.03 0.05 0.12 0.35 0.27 0.14 0.41 0.80 0.62 0.60 0.47 0.38 0.25 0.24 0.20 0.40 0.68 0.47 0.30 0.25 0.22 0.51 0.98 1.34
0.30 0.29 0.13 0.20 0.13 0.05 0.00 0.00 0.00 0.00 0.00 0.00 0.00 0.00 0.00 0.00 0.00 0.00 0.00 0.00 0.00 0.00 0.07 0.09 0.15 0.07 0.06 0.09 0.30 0.19 0.22 0.19 0.30 0.11 0.10 0.33 0.38 0.43 0.41 0.47 0.62 0.78 1.38 1.15 1.21
0.39 0.19 0.26 0.19 0.11 0.01 0.00 0.00 0.00 0.00 0.00 0.00 0.00 0.00 0.00 0.00 0.00 0.00 0.00 0.00 0.00 0.00 0.01 0.02 0.11 0.07 0.07 0.09 0.05 0.02 0.03 0.06 0.12 0.13 0.20 0.19 0.29 0.77 0.80 1.14 1.27 1.52 1.24 1.11 1.09
0.21 0.27 0.35 0.14 0.05 0.00 0.00 0.00 0.00 0.00 0.00 0.00 0.00 0.00 0.00 0.00 0.00 0.00 0.00 0.00 0.00 0.00 0.00 0.00 0.04 0.06 0.02 0.01 0.00 0.00 0.00 0.00 0.00 0.02 0.08 0.08 0.53 0.82 1.21 1.22 0.99 0.87 0.79 0.57 0.30
0.15 0.24 0.25 0.06 0.02 0.00 0.00 0.00 0.00 0.00 0.00 0.00 0.00 0.00 0.00 0.00 0.00 0.00 0.00 0.00 0.00 0.00 0.00 0.00 0.00 0.01 0.00 0.00 0.00 0.00 0.00 0.00 0.00 0.00 0.00 0.04 0.34 0.20 0.26 0.38 0.30 0.12 0.02 0.00 0.00
0.15 0.30 0.25 0.03 0.01 0.00 0.00 0.00 0.00 0.00 0.00 0.00 0.00 0.00 0.00 0.00 0.00 0.00 0.00 0.00 0.00 0.00 0.00 0.00 0.00 0.00 0.00 0.00 0.00 0.00 0.00 0.00 0.00 0.00 0.00 0.01 0.09 0.00 0.01 0.01 0.00 0.00 0.00 0.00 0.00
0.06 0.19 0.19 0.05 0.01 0.00 0.00 0.00 0.00 0.00 0.00 0.00 0.00 0.00 0.00 0.00 0.00 0.00 0.00 0.00 0.00 0.00 0.00 0.00 0.00 0.00 0.00 0.00 0.00 0.00 0.00 0.00 0.00 0.00 0.00 0.00 0.00 0.00 0.00 0.00 0.00 0.00 0.00 0.00 0.00
0.05 0.02 0.01 0.02 0.01 0.00 0.00 0.00 0.00 0.00 0.00 0.00 0.00 0.00 0.00 0.00 0.00 0.00 0.00 0.00 0.00 0.00 0.00 0.00 0.00 0.00 0.00 0.00 0.00 0.00 0.00 0.00 0.00 0.00 0.00 0.00 0.00 0.00 0.00 0.00 0.00 0.00 0.00 0.00 0.00
0.02 0.00 0.00 0.00 0.00 0.00 0.00 0.00 0.00 0.00 0.00 0.00 0.00 0.00 0.00 0.00 0.00 0.00 0.00 0.00 0.00 0.00 0.00 0.00 0.00 0.00 0.00 0.00 0.00 0.00 0.00 0.00 0.00 0.00 0.00 0.00 0.00 0.00 0.00 0.00 0.00 0.00 0.00 0.00 0.00
0.00 0.00 0.00 0.00 0.00 0.00 0.00 0.00 0.00 0.00 0.00 0.00 0.00 0.00 0.00 0.00 0.00 0.00 0.00 0.00 0.00 0.00 0.00 0.00 0.00 0.00 0.00 0.00 0.00 0.00 0.00 0.00 0.00 0.00 0.00 0.00 0.00 0.00 0.00 0.00 0.00 0.00 0.00 0.00 0.00

GFSSW_prec_precacc24_123.txt.gz
Total_Precipitation_Accumulation
0.25 0.24 0.11 0.05 0.03 0.04 0.11 0.19 0.59 0.49 0.03 0.01 0.01 0.00 0.00 0.00 0.00 0.00 0.00 0.00 0.00 0.00 0.00 0.00 0.00 0.00 0.00 0.00 0.00 0.02 0.02 0.00 0.00 0.00 0.00 0.00 0.00 0.00 0.00 0.00 0.00 0.00 0.00 0.01 0.12
0.25 0.22 0.15 0.08 0.08 0.09 0.13 0.14 0.19 0.83 0.12 0.03 0.01 0.00 0.00 0.00 0.00 0.00 0.00 0.00 0.00 0.01 0.00 0.00 0.00 0.00 0.00 0.00 0.00 0.01 0.01 0.00 0.00 0.00 0.00 0.00 0.00 0.00 0.00 0.00 0.01 0.01 0.01 0.03 0.11
0.25 0.23 0.14 0.11 0.07 0.06 0.10 0.18 0.23 0.56 0.41 0.04 0.01 0.00 0.00 0.00 0.00 0.00 0.00 0.00 0.01 0.00 0.00 0.00 0.00 0.00 0.00 0.00 0.01 0.00 0.00 0.00 0.00 0.00 0.00 0.02 0.02 0.01 0.01 0.00 0.01 0.00 0.02 0.20 0.22
0.27 0.21 0.17 0.09 0.08 0.09 0.17 0.19 0.24 0.45 0.34 0.15 0.03 0.00 0.00 0.00 0.00 0.00 0.00 0.00 0.00 0.00 0.00 0.00 0.00 0.00 0.00 0.00 0.00 0.00 0.00 0.00 0.00 0.00 0.01 0.04 0.06 0.07 0.03 0.00 0.00 0.01 0.12 0.22 0.21
0.36 0.31 0.27 0.09 0.09 0.22 0.23 0.18 0.16 0.65 0.21 0.14 0.02 0.00 0.00 0.00 0.00 0.00 0.00 0.00 0.00 0.00 0.00 0.00 0.00 0.00 0.00 0.00 0.00 0.00 0.00 0.00 0.00 0.00 0.00 0.01 0.03 0.08 0.06 0.02 0.03 0.03 0.13 0.16 0.10
0.41 0.22 0.16 0.08 0.17 0.20 0.14 0.17 0.34 0.82 0.20 0.05 0.01 0.00 0.00 0.00 0.00 0.00 0.00 0.00 0.00 0.00 0.00 0.00 0.00 0.00 0.00 0.00 0.00 0.00 0.00 0.00 0.00 0.00 0.00 0.00 0.02 0.06 0.05 0.02 0.00 0.04 0.14 0.15 0.13
0.36 0.08 0.06 0.09 0.15 0.12 0.11 0.28 0.58 0.47 0.09 0.02 0.02 0.00 0.00 0.00 0.00 0.00 0.00 0.00 0.00 0.00 0.00 0.00 0.00 0.00 0.01 0.01 0.00 0.00 0.01 0.00 0.00 0.00 0.01 0.01 0.01 0.01 0.01 0.01 0.00 0.01 0.10 0.15 0.13
0.16 0.05 0.04 0.16 0.52 0.58 0.44 0.49 0.47 0.28 0.07 0.02 0.04 0.00 0.00 0.00 0.00 0.00 0.00 0.00 0.00 0.00 0.00 0.00 0.00 0.02 0.03 0.03 0.04 0.06 0.05 0.02 0.00 0.00 0.01 0.04 0.01 0.01 0.01 0.00 0.00 0.02 0.12 0.17 0.11
0.06 0.01 0.01 0.10 0.22 0.67 1.04 0.49 0.24 0.14 0.06 0.03 0.01 0.00 0.00 0.00 0.00 0.00 0.00 0.00 0.00 0.00 0.00 0.01 0.03 0.05 0.15 0.12 0.11 0.09 0.05 0.02 0.02 0.00 0.01 0.03 0.01 0.02 0.02 0.00 0.01 0.01 0.08 0.19 0.16
0.01 0.01 0.08 0.24 0.60 0.86 0.60 0.45 0.13 0.04 0.02 0.00 0.00 0.00 0.00 0.00 0.00 0.00 0.00 0.00 0.00 0.00 0.01 0.04 0.07 0.09 0.13 0.14 0.09 0.10 0.12 0.08 0.05 0.01 0.01 0.03 0.02 0.05 0.07 0.02 0.00 0.01 0.02 0.14 0.22
0.05 0.26 0.76 1.56 1.20 0.58 0.39 0.26 0.10 0.01 0.01 0.00 0.00 0.00 0.00 0.00 0.00 0.00 0.00 0.00 0.00 0.00 0.00 0.02 0.07 0.08 0.06 0.04 0.08 0.18 0.08 0.08 0.07 0.04 0.03 0.02 0.01 0.03 0.16 0.11 0.03 0.01 0.01 0.08 0.19
0.13 0.18 0.48 1.54 1.02 0.48 0.23 0.20 0.02 0.00 0.00 0.00 0.00 0.00 0.00 0.00 0.00 0.00 0.00 0.00 0.00 0.00 0.04 0.13 0.09 0.03 0.03 0.05 0.07 0.30 0.13 0.08 0.17 0.11 0.06 0.03 0.03 0.00 0.05 0.15 0.05 0.02 0.01 0.04 0.16
0.13 0.13 0.32 0.75 0.45 0.37 0.30 0.20 0.00 0.00 0.00 0.00 0.00 0.00 0.00 0.00 0.00 0.00 0.00 0.00 0.02 0.09 0.17 0.24 0.17 0.15 0.09 0.03 0.07 0.13 0.03 0.08 0.42 0.13 0.09 0.03 0.08 0.03 0.03 0.06 0.04 0.03 0.02 0.03 0.11
0.06 0.08 0.34 0.17 0.18 0.21 0.33 0.07 0.00 0.00 0.00 0.00 0.00 0.00 0.00 0.00 0.00 0.00 0.00 0.02 0.08 0.10 0.20 0.22 0.09 0.09 0.06 0.03 0.04 0.02 0.02 0.32 0.30 0.19 0.18 0.07 0.16 0.10 0.05 0.09 0.06 0.01 0.03 0.05 0.10
0.02 0.07 0.62 0.04 0.04 0.13 0.19 0.04 0.00 0.00 0.00 0.00 0.00 0.00 0.00 0.00 0.00 0.01 0.00 0.08 0.36 0.27 0.19 0.10 0.06 0.03 0.02 0.01 0.00 0.02 0.09 0.24 0.38 0.46 0.30 0.10 0.42 0.24 0.13 0.16 0.16 0.06 0.08 0.13 0.26
0.01 0.04 0.54 0.03 0.07 0.12 0.06 0.00 0.00 0.00 0.00 0.00 0.00 0.00 0.00 0.00 0.00 0.00 0.00 0.04 0.22 0.29 0.06 0.04 0.02 0.02 0.03 0.03 0.01 0.07 0.19 0.38 0.62 0.71 0.65 0.29 0.61 0.51 0.35 0.41 0.33 0.12 0.10 0.27 0.39
0.00 0.05 0.19 0.02 0.08 0.11 0.00 0.00 0.00 0.00 0.00 0.00 0.00 0.00 0.00 0.00 0.00 0.00 0.01 0.03 0.05 0.12 0.15 0.13 0.05 0.02 0.04 0.12 0.19 0.70 0.91 0.80 0.60 0.47 0.53 0.50 0.49 0.56 0.59 0.34 0.41 0.31 0.20 0.43 0.65
0.00 0.18 0.07 0.02 0.07 0.07 0.00 0.00 0.00 0.00 0.00 0.00 0.00 0.00 0.00 0.00 0.00 0.00 0.01 0.03 0.03 0.03 0.05 0.11 0.29 0.24 0.09 0.40 0.79 0.61 0.61 0.49 0.39 0.25 0.24 0.20 0.42 0.72 0.57 0.39 0.36 0.28 0.59 1.04 1.44
0.07 0.13 0.03 0.09 0.11 0.05 0.00 0.00 0.00 0.00 0.00 0.00 0.00 0.00 0.00 0.00 0.00 0.00 0.00 0.00 0.00 0.00 0.07 0.09 0.13 0.06 0.03 0.08 0.27 0.19 0.22 0.20 0.32 0.12 0.11 0.33 0.38 0.46 0.49 0.56 0.76 0.93 1.46 1.24 1.26
0.16 0.07 0.12 0.14 0.10 0.01 0.00 0.00 0.00 0.00 0.00 0.00 0.00 0.00 0.00 0.00 0.00 0.00 0.00 0.00 0.00 0.00 0.01 0.02 0.10 0.05 0.06 0.06 0.02 0.02 0.03 0.06 0.12 0.13 0.20 0.19 0.30 0.80 0.84 1.21 1.38 1.65 1.37 1.22 1.33
0.07 0.06 0.18 0.11 0.05 0.00 0.00 0.00 0.00 0.00 0.00 0.00 0.00 0.00 0.00 0.00 0.00 0.00 0.00 0.00 0.00 0.00 0.00 0.00 0.04 0.05 0.02 0.01 0.00 0.00 0.00 0.00 0.00 0.02 0.08 0.08 0.55 0.86 1.26 1.26 1.05 0.92 0.86 0.64 0.34
0.02 0.09 0.15 0.05 0.02 0.00 0.00 0.00 0.00 0.00 0.00 0.00 0.00 0.00 0.00 0.00 0.00 0.00 0.00 0.00 0.00 0.00 0.00 0.00 0.00 0.01 0.00 0.00 0.00 0.00 0.00 0.00 0.00 0.00 0.00 0.04 0.34 0.21 0.27 0.38 0.30 0.13 0.03 0.00 0.00
0.04 0.13 0.14 0.02 0.01 0.00 0.00 0.00 0.00 0.00 0.00 0.00 0.00 0.00 0.00 0.00 0.00 0.00 0.00 0.00 0.00 0.00 0.00 0.00 0.00 0.00 0.00 0.00 0.00 0.00 0.00 0.00 0.00 0.00 0.00 0.01 0.09 0.00 0.01 0.01 0.00 0.00 0.00 0.00 0.00
0.01 0.06 0.10 0.04 0.00 0.00 0.00 0.00 0.00 0.00 0.00 0.00 0.00 0.00 0.00 0.00 0.00 0.00 0.00 0.00 0.00 0.00 0.00 0.00 0.00 0.00 0.00 0.00 0.00 0.00 0.00 0.00 0.00 0.00 0.00 0.00 0.00 0.00 0.00 0.00 0.00 0.00 0.00 0.00 0.00
0.00 0.00 0.01 0.01 0.00 0.00 0.00 0.00 0.00 0.00 0.00 0.00 0.00 0.00 0.00 0.00 0.00 0.00 0.00 0.00 0.00 0.00 0.00 0.00 0.00 0.00 0.00 0.00 0.00 0.00 0.00 0.00 0.00 0.00 0.00 0.00 0.00 0.00 0.00 0.00 0.00 0.00 0.00 0.00 0.00
0.00 0.00 0.00 0.00 0.00 0.00 0.00 0.00 0.00 0.00 0.00 0.00 0.00 0.00 0.00 0.00 0.00 0.00 0.00 0.00 0.00 0.00 0.00 0.00 0.00 0.00 0.00 0.00 0.00 0.00 0.00 0.00 0.00 0.00 0.00 0.00 0.00 0.00 0.00 0.00 0.00 0.00 0.00 0.00 0.00
0.00 0.00 0.00 0.00 0.00 0.00 0.00 0.00 0.00 0.00 0.00 0.00 0.00 0.00 0.00 0.00 0.00 0.00 0.00 0.00 0.00 0.00 0.00 0.00 0.00 0.00 0.00 0.00 0.00 0.00 0.00 0.00 0.00 0.00 0.00 0.00 0.00 0.00 0.00 0.00 0.00 0.00 0.00 0.00 0.00

GFSSW_prec_precacc24_126.txt.gz
Total_Precipitation_Accumulation
0.19 0.24 0.12 0.05 0.03 0.05 0.16 0.30 0.93 0.61 0.03 0.00 0.00 0.00 0.00 0.00 0.00 0.00 0.00 0.00 0.00 0.00 0.00 0.00 0.00 0.00 0.00 0.00 0.00 0.00 0.01 0.00 0.00 0.00 0.00 0.00 0.00 0.00 0.00 0.00 0.00 0.00 0.00 0.00 0.01
0.22 0.17 0.08 0.06 0.07 0.08 0.15 0.20 0.31 1.24 0.18 0.01 0.00 0.00 0.00 0.00 0.00 0.00 0.00 0.00 0.00 0.00 0.00 0.00 0.00 0.00 0.00 0.00 0.00 0.00 0.01 0.00 0.00 0.00 0.00 0.00 0.00 0.00 0.00 0.00 0.00 0.00 0.01 0.02 0.04
0.23 0.21 0.07 0.06 0.05 0.05 0.10 0.20 0.27 0.86 0.70 0.04 0.00 0.00 0.00 0.00 0.00 0.00 0.00 0.00 0.00 0.00 0.00 0.00 0.00 0.00 0.00 0.00 0.00 0.00 0.00 0.00 0.00 0.00 0.00 0.00 0.00 0.00 0.00 0.00 0.00 0.00 0.01 0.17 0.15
0.32 0.23 0.12 0.05 0.06 0.09 0.16 0.18 0.26 0.57 0.64 0.18 0.01 0.00 0.00 0.00 0.00 0.00 0.00 0.00 0.00 0.00 0.00 0.00 0.00 0.00 0.00 0.00 0.00 0.00 0.00 0.00 0.00 0.00 0.00 0.00 0.00 0.01 0.01 0.00 0.00 0.00 0.01 0.16 0.16
0.45 0.32 0.24 0.05 0.06 0.18 0.21 0.16 0.22 0.72 0.46 0.22 0.02 0.00 0.00 0.00 0.00 0.00 0.00 0.00 0.00 0.00 0.00 0.00 0.00 0.00 0.00 0.00 0.00 0.00 0.00 0.00 0.00 0.00 0.00 0.00 0.00 0.01 0.02 0.01 0.03 0.01 0.00 0.10 0.10
0.46 0.24 0.19 0.03 0.08 0.15 0.11 0.14 0.39 0.94 0.37 0.11 0.01 0.00 0.00 0.00 0.00 0.00 0.00 0.00 0.00 0.00 0.00 0.00 0.00 0.00 0.00 0.00 0.00 0.00 0.00 0.00 0.00 0.00 0.00 0.00 0.00 0.01 0.02 0.01 0.00 0.00 0.00 0.07 0.11
0.38 0.09 0.03 0.01 0.07 0.07 0.07 0.25 0.67 0.70 0.24 0.03 0.01 0.00 0.00 0.00 0.00 0.00 0.00 0.00 0.00 0.00 0.00 0.00 0.00 0.00 0.00 0.00 0.00 0.00 0.00 0.00 0.00 0.00 0.00 0.00 0.00 0.00 0.00 0.00 0.00 0.00 0.00 0.01 0.07
0.15 0.05 0.00 0.02 0.43 0.54 0.39 0.50 0.57 0.46 0.10 0.01 0.02 0.00 0.00 0.00 0.00 0.00 0.00 0.00 0.00 0.00 0.00 0.00 0.00 0.01 0.01 0.01 0.01 0.02 0.02 0.01 0.00 0.00 0.00 0.02 0.00 0.00 0.01 0.00 0.00 0.00 0.00 0.01 0.02
0.06 0.01 0.00 0.02 0.18 0.63 1.08 0.60 0.38 0.18 0.04 0.01 0.01 0.00 0.00 0.00 0.00 0.00 0.00 0.00 0.00 0.00 0.00 0.00 0.02 0.02 0.02 0.02 0.04 0.03 0.02 0.01 0.00 0.00 0.00 0.02 0.00 0.01 0.01 0.00 0.00 0.00 0.00 0.00 0.03
0.03 0.09 0.16 0.31 0.80 1.07 0.77 0.51 0.15 0.03 0.02 0.00 0.00 0.00 0.00 0.00 0.00 0.00 0.00 0.00 0.00 0.00 0.01 0.02 0.04 0.02 0.02 0.04 0.06 0.08 0.10 0.06 0.01 0.01 0.01 0.03 0.01 0.04 0.03 0.00 0.00 0.00 0.00 0.00 0.01
0.07 0.35 0.83 1.74 1.44 0.69 0.36 0.18 0.09 0.01 0.01 0.00 0.00 0.00 0.00 0.00 0.00 0.00 0.00 0.00 0.00 0.00 0.00 0.01 0.03 0.01 0.01 0.03 0.04 0.05 0.04 0.05 0.02 0.02 0.03 0.02 0.01 0.02 0.12 0.10 0.03 0.00 0.00 0.00 0.00
0.14 0.24 0.48 1.51 1.02 0.48 0.18 0.16 0.02 0.00 0.00 0.00 0.00 0.00 0.00 0.00 0.00 0.00 0.00 0.00 0.00 0.00 0.03 0.10 0.05 0.01 0.03 0.05 0.06 0.12 0.09 0.03 0.07 0.03 0.04 0.03 0.03 0.00 0.04 0.13 0.04 0.01 0.00 0.00 0.01
0.13 0.13 0.25 0.65 0.42 0.33 0.21 0.17 0.00 0.00 0.00 0.00 0.00 0.00 0.00 0.00 0.00 0.00 0.00 0.00 0.02 0.08 0.16 0.18 0.06 0.05 0.06 0.02 0.03 0.03 0.02 0.05 0.40 0.08 0.07 0.03 0.07 0.02 0.01 0.02 0.02 0.01 0.00 0.00 0.04
0.06 0.06 0.15 0.09 0.15 0.13 0.19 0.06 0.00 0.00 0.00 0.00 0.00 0.00 0.00 0.00 0.00 0.00 0.00 0.01 0.05 0.04 0.11 0.12 0.01 0.02 0.04 0.02 0.01 0.01 0.01 0.27 0.30 0.16 0.17 0.07 0.14 0.09 0.04 0.03 0.01 0.00 0.01 0.03 0.08
0.01 0.04 0.44 0.01 0.04 0.05 0.13 0.04 0.00 0.00 0.00 0.00 0.00 0.00 0.00 0.00 0.00 0.01 0.00 0.05 0.11 0.05 0.05 0.04 0.02 0.01 0.01 0.00 0.00 0.01 0.08 0.15 0.28 0.39 0.31 0.10 0.41 0.19 0.08 0.08 0.08 0.03 0.06 0.13 0.25
0.00 0.02 0.33 0.03 0.04 0.06 0.05 0.00 0.00 0.00 0.00 0.00 0.00 0.00 0.00 0.00 0.00 0.00 0.00 0.02 0.06 0.01 0.01 0.01 0.00 0.01 0.01 0.02 0.01 0.04 0.11 0.30 0.58 0.69 0.64 0.28 0.60 0.47 0.33 0.35 0.18 0.13 0.12 0.30 0.41
0.00 0.01 0.11 0.02 0.06 0.04 0.00 0.00 0.00 0.00 0.00 0.00 0.00 0.00 0.00 0.00 0.00 0.00 0.01 0.03 0.04 0.05 0.03 0.01 0.01 0.01 0.02 0.08 0.17 0.68 0.86 0.77 0.59 0.46 0.52 0.51 0.50 0.57 0.62 0.35 0.39 0.33 0.31 0.54 0.87
0.00 0.02 0.02 0.00 0.04 0.05 0.00 0.00 0.00 0.00 0.00 0.00 0.00 0.00 0.00 0.00 0.00 0.00 0.01 0.03 0.03 0.03 0.03 0.04 0.20 0.17 0.03 0.38 0.77 0.61 0.61 0.50 0.40 0.25 0.24 0.20 0.43 0.76 0.62 0.43 0.44 0.39 0.83 1.19 1.61
0.01 0.02 0.02 0.05 0.07 0.04 0.00 0.00 0.00 0.00 0.00 0.00 0.00 0.00 0.00 0.00 0.00 0.00 0.00 0.00 0.00 0.00 0.07 0.09 0.07 0.01 0.02 0.08 0.26 0.19 0.22 0.20 0.35 0.12 0.12 0.34 0.38 0.48 0.52 0.59 0.84 1.09 1.56 1.37 1.29
0.03 0.03 0.08 0.09 0.07 0.01 0.00 0.00 0.00 0.00 0.00 0.00 0.00 0.00 0.00 0.00 0.00 0.00 0.00 0.00 0.00 0.00 0.01 0.02 0.03 0.01 0.00 0.02 0.02 0.02 0.03 0.06 0.13 0.13 0.20 0.19 0.30 0.81 0.85 1.22 1.41 1.68 1.40 1.24 1.35
0.03 0.03 0.10 0.07 0.04 0.00 0.00 0.00 0.00 0.00 0.00 0.00 0.00 0.00 0.00 0.00 0.00 0.00 0.00 0.00 0.00 0.00 0.00 0.00 0.03 0.04 0.01 0.00 0.00 0.00 0.00 0.00 0.00 0.02 0.08 0.08 0.55 0.86 1.27 1.27 1.06 0.94 0.87 0.65 0.35
0.01 0.03 0.05 0.02 0.01 0.00 0.00 0.00 0.00 0.00 0.00 0.00 0.00 0.00 0.00 0.00 0.00 0.00 0.00 0.00 0.00 0.00 0.00 0.00 0.00 0.01 0.00 0.00 0.00 0.00 0.00 0.00 0.00 0.00 0.00 0.04 0.34 0.21 0.27 0.38 0.30 0.13 0.03 0.00 0.00
0.01 0.05 0.04 0.01 0.01 0.00 0.00 0.00 0.00 0.00 0.00 0.00 0.00 0.00 0.00 0.00 0.00 0.00 0.00 0.00 0.00 0.00 0.00 0.00 0.00 0.00 0.00 0.00 0.00 0.00 0.00 0.00 0.00 0.00 0.00 0.01 0.09 0.00 0.01 0.01 0.00 0.00 0.00 0.00 0.00
0.00 0.01 0.02 0.01 0.00 0.00 0.00 0.00 0.00 0.00 0.00 0.00 0.00 0.00 0.00 0.00 0.00 0.00 0.00 0.00 0.00 0.00 0.00 0.00 0.00 0.00 0.00 0.00 0.00 0.00 0.00 0.00 0.00 0.00 0.00 0.00 0.00 0.00 0.00 0.00 0.00 0.00 0.00 0.00 0.00
0.00 0.00 0.00 0.00 0.00 0.00 0.00 0.00 0.00 0.00 0.00 0.00 0.00 0.00 0.00 0.00 0.00 0.00 0.00 0.00 0.00 0.00 0.00 0.00 0.00 0.00 0.00 0.00 0.00 0.00 0.00 0.00 0.00 0.00 0.00 0.00 0.00 0.00 0.00 0.00 0.00 0.00 0.00 0.00 0.00
0.00 0.00 0.00 0.00 0.00 0.00 0.00 0.00 0.00 0.00 0.00 0.00 0.00 0.00 0.00 0.00 0.00 0.00 0.00 0.00 0.00 0.00 0.00 0.00 0.00 0.00 0.00 0.00 0.00 0.00 0.00 0.00 0.00 0.00 0.00 0.00 0.00 0.00 0.00 0.00 0.00 0.00 0.00 0.00 0.00
0.00 0.00 0.00 0.00 0.00 0.00 0.00 0.00 0.00 0.00 0.00 0.00 0.00 0.00 0.00 0.00 0.00 0.00 0.00 0.00 0.00 0.00 0.00 0.00 0.00 0.00 0.00 0.00 0.00 0.00 0.00 0.00 0.00 0.00 0.00 0.00 0.00 0.00 0.00 0.00 0.00 0.00 0.00 0.00 0.00

GFSSW_prec_precacc24_129.txt.gz
Total_Precipitation_Accumulation
0.26 0.28 0.12 0.02 0.03 0.12 0.27 0.58 1.82 0.69 0.03 0.00 0.00 0.00 0.00 0.00 0.00 0.00 0.00 0.00 0.00 0.00 0.00 0.00 0.00 0.00 0.00 0.00 0.00 0.00 0.00 0.00 0.00 0.00 0.00 0.00 0.00 0.00 0.00 0.00 0.00 0.00 0.00 0.00 0.01
0.28 0.21 0.07 0.01 0.04 0.10 0.20 0.36 1.04 1.62 0.19 0.01 0.00 0.00 0.00 0.00 0.00 0.00 0.00 0.00 0.00 0.00 0.00 0.00 0.00 0.00 0.00 0.00 0.00 0.00 0.00 0.00 0.00 0.00 0.00 0.00 0.00 0.00 0.00 0.00 0.00 0.00 0.00 0.01 0.04
0.30 0.23 0.07 0.05 0.03 0.05 0.12 0.26 0.58 1.36 0.77 0.05 0.00 0.00 0.00 0.00 0.00 0.00 0.00 0.00 0.00 0.00 0.00 0.00 0.00 0.00 0.00 0.00 0.00 0.00 0.00 0.00 0.00 0.00 0.00 0.00 0.00 0.00 0.00 0.00 0.00 0.00 0.00 0.09 0.14
0.37 0.26 0.14 0.05 0.04 0.05 0.14 0.20 0.54 0.88 0.77 0.19 0.01 0.00 0.00 0.00 0.00 0.00 0.00 0.00 0.00 0.00 0.00 0.00 0.00 0.00 0.00 0.00 0.00 0.00 0.00 0.00 0.00 0.00 0.00 0.00 0.00 0.00 0.00 0.00 0.00 0.00 0.00 0.02 0.14
0.49 0.33 0.24 0.03 0.01 0.09 0.19 0.19 0.39 0.83 0.54 0.23 0.02 0.00 0.00 0.00 0.00 0.00 0.00 0.00 0.00 0.00 0.00 0.00 0.00 0.00 0.00 0.00 0.00 0.00 0.00 0.00 0.00 0.00 0.00 0.00 0.00 0.00 0.00 0.00 0.00 0.00 0.00 0.00 0.06
0.47 0.24 0.18 0.02 0.00 0.06 0.09 0.26 0.61 0.99 0.40 0.11 0.01 0.00 0.00 0.00 0.00 0.00 0.00 0.00 0.00 0.00 0.00 0.00 0.00 0.00 0.00 0.00 0.00 0.00 0.00 0.00 0.00 0.00 0.00 0.00 0.00 0.00 0.00 0.00 0.00 0.00 0.00 0.00 0.01
0.38 0.09 0.03 0.00 0.01 0.03 0.06 0.49 0.85 0.72 0.24 0.03 0.00 0.00 0.00 0.00 0.00 0.00 0.00 0.00 0.00 0.00 0.00 0.00 0.00 0.00 0.00 0.00 0.00 0.00 0.00 0.00 0.00 0.00 0.00 0.00 0.00 0.00 0.00 0.00 0.00 0.00 0.00 0.00 0.00
0.15 0.05 0.00 0.00 0.17 0.47 0.40 0.75 0.64 0.46 0.10 0.00 0.00 0.00 0.00 0.00 0.00 0.00 0.00 0.00 0.00 0.00 0.00 0.00 0.00 0.00 0.00 0.00 0.00 0.00 0.00 0.00 0.00 0.00 0.00 0.00 0.00 0.00 0.00 0.00 0.00 0.00 0.00 0.00 0.00
0.07 0.02 0.00 0.01 0.09 0.62 1.14 0.66 0.41 0.18 0.04 0.00 0.00 0.00 0.00 0.00 0.00 0.00 0.00 0.00 0.00 0.00 0.00 0.00 0.00 0.00 0.01 0.01 0.01 0.00 0.00 0.00 0.00 0.00 0.00 0.00 0.00 0.00 0.00 0.00 0.00 0.00 0.00 0.00 0.00
0.06 0.12 0.18 0.34 0.88 1.25 0.79 0.52 0.16 0.03 0.01 0.00 0.00 0.00 0.00 0.00 0.00 0.00 0.00 0.00 0.00 0.00 0.00 0.01 0.01 0.01 0.01 0.02 0.02 0.01 0.08 0.04 0.01 0.00 0.00 0.02 0.01 0.02 0.03 0.00 0.00 0.00 0.00 0.00 0.00
0.08 0.35 0.71 1.63 1.67 0.81 0.39 0.18 0.09 0.01 0.00 0.00 0.00 0.00 0.00 0.00 0.00 0.00 0.00 0.00 0.00 0.00 0.00 0.01 0.02 0.00 0.00 0.00 0.01 0.01 0.02 0.01 0.00 0.00 0.02 0.02 0.01 0.02 0.12 0.10 0.03 0.00 0.00 0.00 0.00
0.15 0.25 0.53 1.39 0.86 0.41 0.16 0.16 0.02 0.00 0.00 0.00 0.00 0.00 0.00 0.00 0.00 0.00 0.00 0.00 0.00 0.00 0.03 0.07 0.02 0.00 0.00 0.01 0.02 0.05 0.06 0.01 0.01 0.00 0.03 0.02 0.03 0.00 0.04 0.13 0.03 0.01 0.00 0.00 0.00
0.14 0.13 0.25 0.56 0.37 0.24 0.20 0.16 0.00 0.00 0.00 0.00 0.00 0.00 0.00 0.00 0.00 0.00 0.00 0.00 0.02 0.06 0.11 0.10 0.02 0.00 0.02 0.02 0.03 0.01 0.01 0.01 0.16 0.04 0.03 0.02 0.05 0.01 0.00 0.02 0.01 0.01 0.00 0.00 0.00
0.06 0.05 0.03 0.05 0.12 0.12 0.16 0.04 0.00 0.00 0.00 0.00 0.00 0.00 0.00 0.00 0.00 0.00 0.00 0.01 0.03 0.02 0.03 0.04 0.00 0.01 0.02 0.02 0.01 0.01 0.01 0.11 0.14 0.12 0.12 0.06 0.08 0.03 0.03 0.02 0.01 0.00 0.01 0.02 0.04
0.01 0.04 0.15 0.01 0.03 0.03 0.09 0.04 0.00 0.00 0.00 0.00 0.00 0.00 0.00 0.00 0.00 0.01 0.00 0.01 0.02 0.01 0.01 0.02 0.01 0.00 0.00 0.00 0.00 0.00 0.08 0.12 0.20 0.25 0.24 0.05 0.37 0.17 0.08 0.07 0.08 0.03 0.06 0.12 0.20
0.00 0.01 0.12 0.02 0.03 0.03 0.04 0.00 0.00 0.00 0.00 0.00 0.00 0.00 0.00 0.00 0.00 0.00 0.00 0.00 0.00 0.00 0.01 0.00 0.00 0.00 0.00 0.01 0.00 0.01 0.08 0.14 0.45 0.56 0.61 0.27 0.59 0.45 0.29 0.31 0.16 0.11 0.12 0.28 0.40
0.00 0.01 0.05 0.01 0.04 0.02 0.00 0.00 0.00 0.00 0.00 0.00 0.00 0.00 0.00 0.00 0.00 0.00 0.01 0.01 0.01 0.00 0.00 0.00 0.00 0.00 0.01 0.05 0.08 0.29 0.70 0.63 0.52 0.41 0.51 0.50 0.48 0.50 0.54 0.30 0.32 0.26 0.32 0.59 0.93
0.00 0.00 0.01 0.00 0.02 0.01 0.00 0.00 0.00 0.00 0.00 0.00 0.00 0.00 0.00 0.00 0.00 0.00 0.01 0.01 0.00 0.00 0.01 0.01 0.02 0.00 0.02 0.31 0.66 0.40 0.54 0.48 0.37 0.24 0.24 0.19 0.35 0.63 0.59 0.42 0.36 0.33 0.89 1.26 1.63
0.00 0.00 0.00 0.01 0.03 0.01 0.00 0.00 0.00 0.00 0.00 0.00 0.00 0.00 0.00 0.00 0.00 0.00 0.00 0.00 0.00 0.00 0.05 0.05 0.03 0.00 0.01 0.07 0.24 0.17 0.23 0.21 0.35 0.13 0.12 0.32 0.33 0.42 0.52 0.58 0.78 1.02 1.57 1.39 1.29
0.00 0.01 0.03 0.03 0.02 0.00 0.00 0.00 0.00 0.00 0.00 0.00 0.00 0.00 0.00 0.00 0.00 0.00 0.00 0.00 0.00 0.00 0.00 0.00 0.00 0.00 0.00 0.01 0.01 0.02 0.03 0.06 0.13 0.14 0.20 0.18 0.28 0.77 0.85 1.21 1.40 1.67 1.40 1.24 1.35
0.00 0.01 0.03 0.02 0.01 0.00 0.00 0.00 0.00 0.00 0.00 0.00 0.00 0.00 0.00 0.00 0.00 0.00 0.00 0.00 0.00 0.00 0.00 0.00 0.00 0.00 0.00 0.00 0.00 0.00 0.00 0.00 0.00 0.02 0.08 0.08 0.55 0.86 1.27 1.27 1.06 0.94 0.87 0.65 0.35
0.00 0.01 0.01 0.00 0.00 0.00 0.00 0.00 0.00 0.00 0.00 0.00 0.00 0.00 0.00 0.00 0.00 0.00 0.00 0.00 0.00 0.00 0.00 0.00 0.00 0.00 0.00 0.00 0.00 0.00 0.00 0.00 0.00 0.00 0.00 0.04 0.34 0.21 0.27 0.38 0.30 0.13 0.03 0.00 0.00
0.00 0.01 0.00 0.00 0.00 0.00 0.00 0.00 0.00 0.00 0.00 0.00 0.00 0.00 0.00 0.00 0.00 0.00 0.00 0.00 0.00 0.00 0.00 0.00 0.00 0.00 0.00 0.00 0.00 0.00 0.00 0.00 0.00 0.00 0.00 0.01 0.09 0.00 0.01 0.01 0.00 0.00 0.00 0.00 0.00
0.00 0.00 0.00 0.00 0.00 0.00 0.00 0.00 0.00 0.00 0.00 0.00 0.00 0.00 0.00 0.00 0.00 0.00 0.00 0.00 0.00 0.00 0.00 0.00 0.00 0.00 0.00 0.00 0.00 0.00 0.00 0.00 0.00 0.00 0.00 0.00 0.00 0.00 0.00 0.00 0.00 0.00 0.00 0.00 0.00
0.00 0.00 0.00 0.00 0.00 0.00 0.00 0.00 0.00 0.00 0.00 0.00 0.00 0.00 0.00 0.00 0.00 0.00 0.00 0.00 0.00 0.00 0.00 0.00 0.00 0.00 0.00 0.00 0.00 0.00 0.00 0.00 0.00 0.00 0.00 0.00 0.00 0.00 0.00 0.00 0.00 0.00 0.00 0.00 0.00
0.00 0.00 0.00 0.00 0.00 0.00 0.00 0.00 0.00 0.00 0.00 0.00 0.00 0.00 0.00 0.00 0.00 0.00 0.00 0.00 0.00 0.00 0.00 0.00 0.00 0.00 0.00 0.00 0.00 0.00 0.00 0.00 0.00 0.00 0.00 0.00 0.00 0.00 0.00 0.00 0.00 0.00 0.00 0.00 0.00
0.00 0.00 0.00 0.00 0.00 0.00 0.00 0.00 0.00 0.00 0.00 0.00 0.00 0.00 0.00 0.00 0.00 0.00 0.00 0.00 0.00 0.00 0.00 0.00 0.00 0.00 0.00 0.00 0.00 0.00 0.00 0.00 0.00 0.00 0.00 0.00 0.00 0.00 0.00 0.00 0.00 0.00 0.00 0.00 0.00

GFSSW_prec_precacc24_132.txt.gz
Total_Precipitation_Accumulation
0.45 0.49 0.18 0.07 0.14 0.24 0.46 0.96 2.31 0.76 0.03 0.00 0.00 0.00 0.00 0.00 0.00 0.00 0.00 0.00 0.00 0.00 0.00 0.00 0.00 0.00 0.00 0.00 0.00 0.00 0.00 0.00 0.00 0.00 0.00 0.00 0.00 0.00 0.00 0.00 0.00 0.00 0.00 0.00 0.00
0.40 0.34 0.10 0.03 0.07 0.12 0.32 0.57 1.59 1.73 0.19 0.01 0.00 0.00 0.00 0.00 0.00 0.00 0.00 0.00 0.00 0.00 0.00 0.00 0.00 0.00 0.00 0.00 0.00 0.00 0.00 0.00 0.00 0.00 0.00 0.00 0.00 0.00 0.00 0.00 0.00 0.00 0.00 0.01 0.03
0.34 0.27 0.09 0.06 0.04 0.08 0.26 0.57 1.15 1.60 0.78 0.05 0.00 0.00 0.00 0.00 0.00 0.00 0.00 0.00 0.00 0.00 0.00 0.00 0.00 0.00 0.00 0.00 0.00 0.00 0.00 0.00 0.00 0.00 0.00 0.00 0.00 0.00 0.00 0.00 0.00 0.00 0.00 0.04 0.04
0.42 0.30 0.17 0.05 0.03 0.04 0.20 0.35 0.97 1.14 0.78 0.19 0.00 0.00 0.00 0.00 0.00 0.00 0.00 0.00 0.00 0.00 0.00 0.00 0.00 0.00 0.00 0.00 0.00 0.00 0.00 0.00 0.00 0.00 0.00 0.00 0.00 0.00 0.00 0.00 0.00 0.00 0.00 0.01 0.04
0.54 0.36 0.25 0.03 0.00 0.02 0.17 0.33 0.56 0.98 0.56 0.23 0.02 0.00 0.00 0.00 0.00 0.00 0.00 0.00 0.00 0.00 0.00 0.00 0.00 0.00 0.00 0.00 0.00 0.00 0.00 0.00 0.00 0.00 0.00 0.00 0.00 0.00 0.00 0.00 0.00 0.00 0.00 0.00 0.00
0.48 0.24 0.19 0.02 0.00 0.02 0.12 0.42 0.74 1.12 0.42 0.11 0.00 0.00 0.00 0.00 0.00 0.00 0.00 0.00 0.00 0.00 0.00 0.00 0.00 0.00 0.00 0.00 0.00 0.00 0.00 0.00 0.00 0.00 0.00 0.00 0.00 0.00 0.00 0.00 0.00 0.00 0.00 0.00 0.00
0.39 0.10 0.03 0.00 0.00 0.03 0.19 0.72 0.96 0.77 0.24 0.03 0.00 0.00 0.00 0.00 0.00 0.00 0.00 0.00 0.00 0.00 0.00 0.00 0.00 0.00 0.00 0.00 0.00 0.00 0.00 0.00 0.00 0.00 0.00 0.00 0.00 0.00 0.00 0.00 0.00 0.00 0.00 0.00 0.00
0.15 0.05 0.00 0.00 0.02 0.42 0.85 0.99 0.67 0.47 0.10 0.00 0.00 0.00 0.00 0.00 0.00 0.00 0.00 0.00 0.00 0.00 0.00 0.00 0.00 0.00 0.00 0.00 0.00 0.00 0.00 0.00 0.00 0.00 0.00 0.00 0.00 0.00 0.00 0.00 0.00 0.00 0.00 0.00 0.00
0.07 0.02 0.00 0.01 0.14 0.69 1.27 0.72 0.43 0.18 0.03 0.00 0.00 0.00 0.00 0.00 0.00 0.00 0.00 0.00 0.00 0.00 0.00 0.00 0.00 0.00 0.00 0.00 0.00 0.00 0.00 0.00 0.00 0.00 0.00 0.00 0.00 0.00 0.00 0.00 0.00 0.00 0.00 0.00 0.00
0.08 0.12 0.19 0.34 0.91 1.24 0.78 0.48 0.14 0.02 0.01 0.00 0.00 0.00 0.00 0.00 0.00 0.00 0.00 0.00 0.00 0.00 0.00 0.00 0.00 0.00 0.00 0.01 0.00 0.00 0.00 0.00 0.00 0.00 0.00 0.00 0.00 0.00 0.00 0.00 0.00 0.00 0.00 0.00 0.00
0.08 0.35 0.71 1.46 1.69 0.79 0.35 0.13 0.07 0.00 0.00 0.00 0.00 0.00 0.00 0.00 0.00 0.00 0.00 0.00 0.00 0.00 0.00 0.00 0.01 0.00 0.00 0.00 0.00 0.00 0.01 0.00 0.00 0.00 0.00 0.00 0.00 0.00 0.05 0.06 0.02 0.00 0.00 0.00 0.00
0.15 0.27 0.58 1.02 0.75 0.34 0.06 0.12 0.02 0.00 0.00 0.00 0.00 0.00 0.00 0.00 0.00 0.00 0.00 0.00 0.00 0.00 0.00 0.01 0.01 0.00 0.00 0.00 0.00 0.03 0.04 0.01 0.00 0.00 0.00 0.00 0.00 0.00 0.03 0.12 0.03 0.01 0.00 0.00 0.00
0.14 0.14 0.26 0.47 0.27 0.09 0.07 0.14 0.00 0.00 0.00 0.00 0.00 0.00 0.00 0.00 0.00 0.00 0.00 0.00 0.00 0.01 0.02 0.03 0.00 0.00 0.02 0.01 0.02 0.01 0.01 0.00 0.00 0.00 0.00 0.01 0.01 0.00 0.00 0.02 0.01 0.01 0.00 0.00 0.00
0.06 0.05 0.03 0.03 0.10 0.06 0.15 0.02 0.00 0.00 0.00 0.00 0.00 0.00 0.00 0.00 0.00 0.00 0.00 0.00 0.01 0.00 0.01 0.01 0.00 0.00 0.01 0.01 0.01 0.01 0.00 0.01 0.01 0.09 0.03 0.04 0.06 0.00 0.01 0.02 0.01 0.00 0.01 0.02 0.03
0.01 0.02 0.01 0.00 0.01 0.02 0.05 0.01 0.00 0.00 0.00 0.00 0.00 0.00 0.00 0.00 0.00 0.00 0.00 0.00 0.00 0.00 0.01 0.00 0.00 0.00 0.00 0.00 0.00 0.00 0.01 0.05 0.08 0.15 0.16 0.02 0.22 0.04 0.05 0.06 0.06 0.03 0.06 0.12 0.15
0.00 0.00 0.00 0.01 0.01 0.01 0.01 0.00 0.00 0.00 0.00 0.00 0.00 0.00 0.00 0.00 0.00 0.00 0.00 0.00 0.00 0.00 0.01 0.00 0.00 0.00 0.00 0.00 0.00 0.01 0.03 0.03 0.11 0.29 0.36 0.08 0.33 0.29 0.27 0.29 0.15 0.10 0.12 0.27 0.30
0.00 0.00 0.02 0.00 0.00 0.00 0.00 0.00 0.00 0.00 0.00 0.00 0.00 0.00 0.00 0.00 0.00 0.00 0.00 0.00 0.00 0.00 0.00 0.00 0.00 0.00 0.00 0.03 0.07 0.24 0.45 0.38 0.31 0.37 0.46 0.40 0.43 0.42 0.52 0.29 0.31 0.25 0.31 0.55 0.87
0.00 0.00 0.00 0.00 0.00 0.00 0.00 0.00 0.00 0.00 0.00 0.00 0.00 0.00 0.00 0.00 0.00 0.00 0.00 0.00 0.00 0.00 0.00 0.00 0.00 0.00 0.00 0.16 0.41 0.33 0.48 0.40 0.30 0.20 0.20 0.18 0.29 0.51 0.51 0.36 0.31 0.31 0.85 1.22 1.57
0.00 0.00 0.00 0.00 0.00 0.00 0.00 0.00 0.00 0.00 0.00 0.00 0.00 0.00 0.00 0.00 0.00 0.00 0.00 0.00 0.00 0.00 0.00 0.00 0.00 0.00 0.00 0.03 0.18 0.16 0.21 0.19 0.31 0.12 0.09 0.23 0.23 0.35 0.41 0.42 0.59 0.97 1.55 1.32 1.19
0.00 0.00 0.00 0.00 0.00 0.00 0.00 0.00 0.00 0.00 0.00 0.00 0.00 0.00 0.00 0.00 0.00 0.00 0.00 0.00 0.00 0.00 0.00 0.00 0.00 0.00 0.00 0.00 0.00 0.02 0.03 0.07 0.12 0.12 0.14 0.10 0.21 0.65 0.73 0.95 1.23 1.60 1.38 1.19 1.30
0.00 0.00 0.00 0.00 0.00 0.00 0.00 0.00 0.00 0.00 0.00 0.00 0.00 0.00 0.00 0.00 0.00 0.00 0.00 0.00 0.00 0.00 0.00 0.00 0.00 0.00 0.00 0.00 0.00 0.00 0.00 0.00 0.00 0.02 0.08 0.08 0.52 0.83 1.22 1.17 0.99 0.92 0.87 0.65 0.35
0.00 0.00 0.00 0.00 0.00 0.00 0.00 0.00 0.00 0.00 0.00 0.00 0.00 0.00 0.00 0.00 0.00 0.00 0.00 0.00 0.00 0.00 0.00 0.00 0.00 0.00 0.00 0.00 0.00 0.00 0.00 0.00 0.00 0.00 0.00 0.04 0.33 0.21 0.27 0.38 0.30 0.13 0.03 0.00 0.00
0.00 0.00 0.00 0.00 0.00 0.00 0.00 0.00 0.00 0.00 0.00 0.00 0.00 0.00 0.00 0.00 0.00 0.00 0.00 0.00 0.00 0.00 0.00 0.00 0.00 0.00 0.00 0.00 0.00 0.00 0.00 0.00 0.00 0.00 0.00 0.01 0.08 0.00 0.01 0.01 0.00 0.00 0.00 0.00 0.00
0.00 0.00 0.00 0.00 0.00 0.00 0.00 0.00 0.00 0.00 0.00 0.00 0.00 0.00 0.00 0.00 0.00 0.00 0.00 0.00 0.00 0.00 0.00 0.00 0.00 0.00 0.00 0.00 0.00 0.00 0.00 0.00 0.00 0.00 0.00 0.00 0.00 0.00 0.00 0.00 0.00 0.00 0.00 0.00 0.00
0.00 0.00 0.00 0.00 0.00 0.00 0.00 0.00 0.00 0.00 0.00 0.00 0.00 0.00 0.00 0.00 0.00 0.00 0.00 0.00 0.00 0.00 0.00 0.00 0.00 0.00 0.00 0.00 0.00 0.00 0.00 0.00 0.00 0.00 0.00 0.00 0.00 0.00 0.00 0.00 0.00 0.00 0.00 0.00 0.00
0.00 0.00 0.00 0.00 0.00 0.00 0.00 0.00 0.00 0.00 0.00 0.00 0.00 0.00 0.00 0.00 0.00 0.00 0.00 0.00 0.00 0.00 0.00 0.00 0.00 0.00 0.00 0.00 0.00 0.00 0.00 0.00 0.00 0.00 0.00 0.00 0.00 0.00 0.00 0.00 0.00 0.00 0.00 0.00 0.00
0.00 0.00 0.00 0.00 0.00 0.00 0.00 0.00 0.00 0.00 0.00 0.00 0.00 0.00 0.00 0.00 0.00 0.00 0.00 0.00 0.00 0.00 0.00 0.00 0.00 0.00 0.00 0.00 0.00 0.00 0.00 0.00 0.00 0.00 0.00 0.00 0.00 0.00 0.00 0.00 0.00 0.00 0.00 0.00 0.00

GFSSW_prec_precacc24_135.txt.gz
Total_Precipitation_Accumulation
0.68 0.90 0.41 0.24 0.47 0.63 0.71 1.18 2.40 0.76 0.03 0.00 0.00 0.00 0.00 0.00 0.00 0.00 0.00 0.00 0.00 0.00 0.00 0.00 0.00 0.00 0.00 0.00 0.00 0.00 0.00 0.00 0.00 0.00 0.00 0.00 0.00 0.00 0.00 0.00 0.00 0.00 0.00 0.00 0.00
0.62 0.61 0.17 0.09 0.25 0.42 0.44 0.88 1.71 1.77 0.19 0.01 0.00 0.00 0.00 0.00 0.00 0.00 0.00 0.00 0.00 0.00 0.00 0.00 0.00 0.00 0.00 0.00 0.00 0.00 0.00 0.00 0.00 0.00 0.00 0.00 0.00 0.00 0.00 0.00 0.00 0.00 0.00 0.01 0.03
0.43 0.35 0.12 0.09 0.27 0.39 0.58 1.09 1.31 1.61 0.78 0.05 0.00 0.00 0.00 0.00 0.00 0.00 0.00 0.00 0.00 0.00 0.00 0.00 0.00 0.00 0.00 0.00 0.00 0.00 0.00 0.00 0.00 0.00 0.00 0.00 0.00 0.00 0.00 0.00 0.00 0.00 0.00 0.03 0.02
0.48 0.32 0.18 0.07 0.28 0.33 0.54 0.78 1.20 1.15 0.78 0.19 0.00 0.00 0.00 0.00 0.00 0.00 0.00 0.00 0.00 0.00 0.00 0.00 0.00 0.00 0.00 0.00 0.00 0.00 0.00 0.00 0.00 0.00 0.00 0.00 0.00 0.00 0.00 0.00 0.00 0.00 0.00 0.00 0.02
0.56 0.36 0.25 0.05 0.12 0.25 0.31 0.41 0.68 0.99 0.56 0.23 0.02 0.00 0.00 0.00 0.00 0.00 0.00 0.00 0.00 0.00 0.00 0.00 0.00 0.00 0.00 0.00 0.00 0.00 0.00 0.00 0.00 0.00 0.00 0.00 0.00 0.00 0.00 0.00 0.00 0.00 0.00 0.00 0.00
0.48 0.24 0.18 0.03 0.05 0.17 0.24 0.47 0.74 1.13 0.42 0.11 0.00 0.00 0.00 0.00 0.00 0.00 0.00 0.00 0.00 0.00 0.00 0.00 0.00 0.00 0.00 0.00 0.00 0.00 0.00 0.00 0.00 0.00 0.00 0.00 0.00 0.00 0.00 0.00 0.00 0.00 0.00 0.00 0.00
0.38 0.10 0.03 0.01 0.04 0.10 0.29 0.77 0.97 0.77 0.24 0.03 0.00 0.00 0.00 0.00 0.00 0.00 0.00 0.00 0.00 0.00 0.00 0.00 0.00 0.00 0.00 0.00 0.00 0.00 0.00 0.00 0.00 0.00 0.00 0.00 0.00 0.00 0.00 0.00 0.00 0.00 0.00 0.00 0.00
0.13 0.05 0.00 0.00 0.05 0.38 0.90 1.01 0.64 0.46 0.10 0.00 0.00 0.00 0.00 0.00 0.00 0.00 0.00 0.00 0.00 0.00 0.00 0.00 0.00 0.00 0.00 0.00 0.00 0.00 0.00 0.00 0.00 0.00 0.00 0.00 0.00 0.00 0.00 0.00 0.00 0.00 0.00 0.00 0.00
0.06 0.02 0.05 0.13 0.33 0.65 0.92 0.69 0.40 0.17 0.03 0.00 0.00 0.00 0.00 0.00 0.00 0.00 0.00 0.00 0.00 0.00 0.00 0.00 0.00 0.00 0.00 0.00 0.00 0.00 0.00 0.00 0.00 0.00 0.00 0.00 0.00 0.00 0.00 0.00 0.00 0.00 0.00 0.00 0.00
0.08 0.16 0.32 0.48 0.97 1.20 0.62 0.43 0.09 0.02 0.00 0.00 0.00 0.00 0.00 0.00 0.00 0.00 0.00 0.00 0.00 0.00 0.00 0.00 0.00 0.00 0.00 0.00 0.00 0.00 0.00 0.00 0.00 0.00 0.00 0.00 0.00 0.00 0.00 0.00 0.00 0.00 0.00 0.00 0.00
0.09 0.37 0.73 1.41 1.69 0.78 0.32 0.08 0.03 0.00 0.00 0.00 0.00 0.00 0.00 0.00 0.00 0.00 0.00 0.00 0.00 0.00 0.00 0.00 0.00 0.00 0.00 0.00 0.00 0.00 0.00 0.00 0.00 0.00 0.00 0.00 0.00 0.00 0.00 0.00 0.00 0.00 0.00 0.00 0.00
0.15 0.27 0.57 0.71 0.73 0.33 0.04 0.01 0.00 0.00 0.00 0.00 0.00 0.00 0.00 0.00 0.00 0.00 0.00 0.00 0.00 0.00 0.00 0.00 0.00 0.00 0.00 0.00 0.00 0.00 0.01 0.00 0.00 0.00 0.00 0.00 0.00 0.00 0.00 0.00 0.00 0.00 0.00 0.00 0.00
0.14 0.14 0.24 0.21 0.16 0.05 0.01 0.05 0.00 0.00 0.00 0.00 0.00 0.00 0.00 0.00 0.00 0.00 0.00 0.00 0.00 0.00 0.00 0.00 0.00 0.00 0.01 0.00 0.01 0.00 0.00 0.00 0.00 0.00 0.00 0.00 0.00 0.00 0.00 0.00 0.00 0.00 0.00 0.00 0.00
0.06 0.05 0.02 0.01 0.05 0.01 0.02 0.01 0.00 0.00 0.00 0.00 0.00 0.00 0.00 0.00 0.00 0.00 0.00 0.00 0.00 0.00 0.00 0.00 0.00 0.00 0.00 0.00 0.00 0.00 0.00 0.00 0.00 0.08 0.03 0.01 0.03 0.00 0.00 0.00 0.00 0.00 0.01 0.02 0.02
0.01 0.00 0.00 0.00 0.00 0.00 0.00 0.00 0.00 0.00 0.00 0.00 0.00 0.00 0.00 0.00 0.00 0.00 0.00 0.00 0.00 0.00 0.00 0.00 0.00 0.00 0.00 0.00 0.00 0.00 0.00 0.00 0.03 0.13 0.12 0.00 0.09 0.00 0.00 0.00 0.01 0.02 0.06 0.12 0.11
0.00 0.00 0.00 0.00 0.00 0.00 0.00 0.00 0.00 0.00 0.00 0.00 0.00 0.00 0.00 0.00 0.00 0.00 0.00 0.00 0.00 0.00 0.00 0.00 0.00 0.00 0.00 0.00 0.00 0.00 0.01 0.01 0.04 0.07 0.05 0.02 0.12 0.09 0.10 0.23 0.14 0.10 0.11 0.24 0.22
0.00 0.00 0.00 0.00 0.00 0.00 0.00 0.00 0.00 0.00 0.00 0.00 0.00 0.00 0.00 0.00 0.00 0.00 0.00 0.00 0.00 0.00 0.00 0.00 0.00 0.00 0.00 0.02 0.05 0.17 0.23 0.15 0.16 0.12 0.14 0.16 0.27 0.23 0.36 0.26 0.30 0.24 0.28 0.42 0.56
0.00 0.00 0.00 0.00 0.00 0.00 0.00 0.00 0.00 0.00 0.00 0.00 0.00 0.00 0.00 0.00 0.00 0.00 0.00 0.00 0.00 0.00 0.00 0.00 0.00 0.00 0.00 0.10 0.20 0.19 0.29 0.29 0.19 0.13 0.13 0.14 0.21 0.37 0.45 0.34 0.30 0.30 0.56 0.77 1.24
0.00 0.00 0.00 0.00 0.00 0.00 0.00 0.00 0.00 0.00 0.00 0.00 0.00 0.00 0.00 0.00 0.00 0.00 0.00 0.00 0.00 0.00 0.00 0.00 0.00 0.00 0.00 0.01 0.05 0.07 0.14 0.15 0.19 0.06 0.06 0.12 0.10 0.20 0.26 0.33 0.47 0.69 1.08 1.22 1.05
0.00 0.00 0.00 0.00 0.00 0.00 0.00 0.00 0.00 0.00 0.00 0.00 0.00 0.00 0.00 0.00 0.00 0.00 0.00 0.00 0.00 0.00 0.00 0.00 0.00 0.00 0.00 0.00 0.00 0.01 0.03 0.05 0.06 0.07 0.06 0.03 0.13 0.42 0.45 0.61 1.00 1.40 1.28 1.01 1.12
0.00 0.00 0.00 0.00 0.00 0.00 0.00 0.00 0.00 0.00 0.00 0.00 0.00 0.00 0.00 0.00 0.00 0.00 0.00 0.00 0.00 0.00 0.00 0.00 0.00 0.00 0.00 0.00 0.00 0.00 0.00 0.00 0.00 0.02 0.05 0.04 0.27 0.50 0.82 0.88 0.92 0.85 0.73 0.55 0.33
0.00 0.00 0.00 0.00 0.00 0.00 0.00 0.00 0.00 0.00 0.00 0.00 0.00 0.00 0.00 0.00 0.00 0.00 0.00 0.00 0.00 0.00 0.00 0.00 0.00 0.00 0.00 0.00 0.00 0.00 0.00 0.00 0.00 0.00 0.00 0.03 0.20 0.17 0.23 0.34 0.28 0.12 0.02 0.00 0.00
0.00 0.00 0.00 0.00 0.00 0.00 0.00 0.00 0.00 0.00 0.00 0.00 0.00 0.00 0.00 0.00 0.00 0.00 0.00 0.00 0.00 0.00 0.00 0.00 0.00 0.00 0.00 0.00 0.00 0.00 0.00 0.00 0.00 0.00 0.00 0.00 0.03 0.00 0.01 0.01 0.00 0.00 0.00 0.00 0.00
0.00 0.00 0.00 0.00 0.00 0.00 0.00 0.00 0.00 0.00 0.00 0.00 0.00 0.00 0.00 0.00 0.00 0.00 0.00 0.00 0.00 0.00 0.00 0.00 0.00 0.00 0.00 0.00 0.00 0.00 0.00 0.00 0.00 0.00 0.00 0.00 0.00 0.00 0.00 0.00 0.00 0.00 0.00 0.00 0.00
0.00 0.00 0.00 0.00 0.00 0.00 0.00 0.00 0.00 0.00 0.00 0.00 0.00 0.00 0.00 0.00 0.00 0.00 0.00 0.00 0.00 0.00 0.00 0.00 0.00 0.00 0.00 0.00 0.00 0.00 0.00 0.00 0.00 0.00 0.00 0.00 0.00 0.00 0.00 0.00 0.00 0.00 0.00 0.00 0.00
0.00 0.00 0.00 0.00 0.00 0.00 0.00 0.00 0.00 0.00 0.00 0.00 0.00 0.00 0.00 0.00 0.00 0.00 0.00 0.00 0.00 0.00 0.00 0.00 0.00 0.00 0.00 0.00 0.00 0.00 0.00 0.00 0.00 0.00 0.00 0.00 0.00 0.00 0.00 0.00 0.00 0.00 0.00 0.00 0.00
0.00 0.00 0.00 0.00 0.00 0.00 0.00 0.00 0.00 0.00 0.00 0.00 0.00 0.00 0.00 0.00 0.00 0.00 0.00 0.00 0.00 0.00 0.00 0.00 0.00 0.00 0.00 0.00 0.00 0.00 0.00 0.00 0.00 0.00 0.00 0.00 0.00 0.00 0.00 0.00 0.00 0.00 0.00 0.00 0.00

GFSSW_prec_precacc24_138.txt.gz
Total_Precipitation_Accumulation
0.72 1.05 0.58 0.45 0.81 1.20 1.28 1.16 2.38 0.75 0.03 0.00 0.00 0.00 0.00 0.00 0.00 0.00 0.00 0.00 0.00 0.00 0.00 0.00 0.00 0.00 0.00 0.00 0.00 0.00 0.00 0.00 0.00 0.00 0.00 0.00 0.00 0.00 0.00 0.00 0.00 0.00 0.00 0.00 0.00
1.33 0.91 0.26 0.20 0.44 0.72 0.82 1.00 1.68 1.75 0.18 0.01 0.00 0.00 0.00 0.00 0.00 0.00 0.00 0.00 0.00 0.00 0.00 0.00 0.00 0.00 0.00 0.00 0.00 0.00 0.00 0.00 0.00 0.00 0.00 0.00 0.00 0.00 0.00 0.00 0.00 0.00 0.00 0.00 0.01
0.75 0.46 0.15 0.11 0.43 0.67 0.94 1.19 1.26 1.58 0.77 0.05 0.00 0.00 0.00 0.00 0.00 0.00 0.00 0.00 0.00 0.00 0.00 0.00 0.00 0.00 0.00 0.00 0.00 0.00 0.00 0.00 0.00 0.00 0.00 0.00 0.00 0.00 0.00 0.00 0.00 0.00 0.00 0.00 0.00
0.49 0.35 0.22 0.18 0.55 0.75 1.05 0.81 1.12 1.14 0.78 0.19 0.00 0.00 0.00 0.00 0.00 0.00 0.00 0.00 0.00 0.00 0.00 0.00 0.00 0.00 0.00 0.00 0.00 0.00 0.00 0.00 0.00 0.00 0.00 0.00 0.00 0.00 0.00 0.00 0.00 0.00 0.00 0.00 0.00
0.53 0.36 0.32 0.22 0.40 0.69 0.61 0.42 0.62 0.98 0.56 0.23 0.02 0.00 0.00 0.00 0.00 0.00 0.00 0.00 0.00 0.00 0.00 0.00 0.00 0.00 0.00 0.00 0.00 0.00 0.00 0.00 0.00 0.00 0.00 0.00 0.00 0.00 0.00 0.00 0.00 0.00 0.00 0.00 0.00
0.42 0.22 0.28 0.20 0.23 0.32 0.32 0.45 0.62 1.10 0.42 0.11 0.00 0.00 0.00 0.00 0.00 0.00 0.00 0.00 0.00 0.00 0.00 0.00 0.00 0.00 0.00 0.00 0.00 0.00 0.00 0.00 0.00 0.00 0.00 0.00 0.00 0.00 0.00 0.00 0.00 0.00 0.00 0.00 0.00
0.32 0.08 0.11 0.14 0.17 0.18 0.35 0.72 0.85 0.65 0.24 0.03 0.00 0.00 0.00 0.00 0.00 0.00 0.00 0.00 0.00 0.00 0.00 0.00 0.00 0.00 0.00 0.00 0.00 0.00 0.00 0.00 0.00 0.00 0.00 0.00 0.00 0.00 0.00 0.00 0.00 0.00 0.00 0.00 0.00
0.06 0.02 0.05 0.06 0.15 0.40 0.82 0.91 0.61 0.36 0.09 0.00 0.00 0.00 0.00 0.00 0.00 0.00 0.00 0.00 0.00 0.00 0.00 0.00 0.00 0.00 0.00 0.00 0.00 0.00 0.00 0.00 0.00 0.00 0.00 0.00 0.00 0.00 0.00 0.00 0.00 0.00 0.00 0.00 0.00
0.06 0.07 0.12 0.20 0.40 0.61 0.77 0.66 0.39 0.17 0.03 0.00 0.00 0.00 0.00 0.00 0.00 0.00 0.00 0.00 0.00 0.00 0.00 0.00 0.00 0.00 0.00 0.00 0.00 0.00 0.00 0.00 0.00 0.00 0.00 0.00 0.00 0.00 0.00 0.00 0.00 0.00 0.00 0.00 0.00
0.21 0.33 0.40 0.50 0.94 1.06 0.58 0.41 0.09 0.02 0.00 0.00 0.00 0.00 0.00 0.00 0.00 0.00 0.00 0.00 0.00 0.00 0.00 0.00 0.00 0.00 0.00 0.00 0.00 0.00 0.00 0.00 0.00 0.00 0.00 0.00 0.00 0.00 0.00 0.00 0.00 0.00 0.00 0.00 0.00
0.10 0.37 0.72 1.40 1.67 0.66 0.28 0.06 0.00 0.00 0.00 0.00 0.00 0.00 0.00 0.00 0.00 0.00 0.00 0.00 0.00 0.00 0.00 0.00 0.00 0.00 0.00 0.00 0.00 0.00 0.00 0.00 0.00 0.00 0.00 0.00 0.00 0.00 0.00 0.00 0.00 0.00 0.00 0.00 0.00
0.15 0.25 0.46 0.66 0.69 0.25 0.03 0.00 0.00 0.00 0.00 0.00 0.00 0.00 0.00 0.00 0.00 0.00 0.00 0.00 0.00 0.00 0.00 0.00 0.00 0.00 0.00 0.00 0.00 0.00 0.00 0.00 0.00 0.00 0.00 0.00 0.00 0.00 0.00 0.00 0.00 0.00 0.00 0.00 0.00
0.14 0.13 0.10 0.14 0.16 0.05 0.00 0.00 0.00 0.00 0.00 0.00 0.00 0.00 0.00 0.00 0.00 0.00 0.00 0.00 0.00 0.00 0.00 0.00 0.00 0.00 0.00 0.00 0.00 0.00 0.00 0.00 0.00 0.00 0.00 0.00 0.00 0.00 0.00 0.00 0.00 0.00 0.00 0.00 0.00
0.05 0.03 0.00 0.01 0.02 0.00 0.00 0.00 0.00 0.00 0.00 0.00 0.00 0.00 0.00 0.00 0.00 0.00 0.00 0.00 0.00 0.00 0.00 0.00 0.00 0.00 0.00 0.00 0.00 0.00 0.00 0.00 0.00 0.06 0.02 0.01 0.03 0.00 0.00 0.00 0.00 0.00 0.01 0.02 0.02
0.01 0.00 0.00 0.00 0.00 0.00 0.00 0.00 0.00 0.00 0.00 0.00 0.00 0.00 0.00 0.00 0.00 0.00 0.00 0.00 0.00 0.00 0.00 0.00 0.00 0.00 0.00 0.00 0.00 0.00 0.00 0.00 0.02 0.08 0.10 0.00 0.07 0.00 0.00 0.00 0.01 0.02 0.06 0.12 0.11
0.00 0.00 0.00 0.00 0.00 0.00 0.00 0.00 0.00 0.00 0.00 0.00 0.00 0.00 0.00 0.00 0.00 0.00 0.00 0.00 0.00 0.00 0.00 0.00 0.00 0.00 0.00 0.00 0.00 0.00 0.00 0.01 0.02 0.05 0.03 0.02 0.11 0.03 0.09 0.22 0.14 0.09 0.11 0.24 0.20
0.00 0.00 0.00 0.00 0.00 0.00 0.00 0.00 0.00 0.00 0.00 0.00 0.00 0.00 0.00 0.00 0.00 0.00 0.00 0.00 0.00 0.00 0.00 0.00 0.00 0.00 0.00 0.00 0.00 0.03 0.12 0.06 0.03 0.02 0.02 0.11 0.18 0.15 0.19 0.21 0.30 0.23 0.26 0.33 0.44
0.00 0.00 0.00 0.00 0.00 0.00 0.00 0.00 0.00 0.00 0.00 0.00 0.00 0.00 0.00 0.00 0.00 0.00 0.00 0.00 0.00 0.00 0.00 0.00 0.00 0.00 0.00 0.00 0.01 0.04 0.10 0.13 0.07 0.05 0.04 0.04 0.11 0.20 0.30 0.31 0.29 0.26 0.44 0.38 0.49
0.00 0.00 0.00 0.00 0.00 0.00 0.00 0.00 0.00 0.00 0.00 0.00 0.00 0.00 0.00 0.00 0.00 0.00 0.00 0.00 0.00 0.00 0.00 0.00 0.00 0.00 0.00 0.00 0.00 0.03 0.07 0.07 0.11 0.04 0.04 0.06 0.04 0.11 0.20 0.25 0.35 0.40 0.41 0.52 0.69
0.00 0.00 0.00 0.00 0.00 0.00 0.00 0.00 0.00 0.00 0.00 0.00 0.00 0.00 0.00 0.00 0.00 0.00 0.00 0.00 0.00 0.00 0.00 0.00 0.00 0.00 0.00 0.00 0.00 0.00 0.01 0.03 0.04 0.04 0.03 0.01 0.06 0.22 0.22 0.31 0.50 0.75 0.92 0.88 1.00
0.00 0.00 0.00 0.00 0.00 0.00 0.00 0.00 0.00 0.00 0.00 0.00 0.00 0.00 0.00 0.00 0.00 0.00 0.00 0.00 0.00 0.00 0.00 0.00 0.00 0.00 0.00 0.00 0.00 0.00 0.00 0.00 0.00 0.00 0.00 0.01 0.11 0.22 0.43 0.52 0.63 0.67 0.65 0.48 0.28
0.00 0.00 0.00 0.00 0.00 0.00 0.00 0.00 0.00 0.00 0.00 0.00 0.00 0.00 0.00 0.00 0.00 0.00 0.00 0.00 0.00 0.00 0.00 0.00 0.00 0.00 0.00 0.00 0.00 0.00 0.00 0.00 0.00 0.00 0.00 0.01 0.08 0.06 0.14 0.21 0.17 0.06 0.01 0.00 0.00
0.00 0.00 0.00 0.00 0.00 0.00 0.00 0.00 0.00 0.00 0.00 0.00 0.00 0.00 0.00 0.00 0.00 0.00 0.00 0.00 0.00 0.00 0.00 0.00 0.00 0.00 0.00 0.00 0.00 0.00 0.00 0.00 0.00 0.00 0.00 0.00 0.02 0.00 0.00 0.01 0.00 0.00 0.00 0.00 0.00
0.00 0.00 0.00 0.00 0.00 0.00 0.00 0.00 0.00 0.00 0.00 0.00 0.00 0.00 0.00 0.00 0.00 0.00 0.00 0.00 0.00 0.00 0.00 0.00 0.00 0.00 0.00 0.00 0.00 0.00 0.00 0.00 0.00 0.00 0.00 0.00 0.00 0.00 0.00 0.00 0.00 0.00 0.00 0.00 0.00
0.00 0.00 0.00 0.00 0.00 0.00 0.00 0.00 0.00 0.00 0.00 0.00 0.00 0.00 0.00 0.00 0.00 0.00 0.00 0.00 0.00 0.00 0.00 0.00 0.00 0.00 0.00 0.00 0.00 0.00 0.00 0.00 0.00 0.00 0.00 0.00 0.00 0.00 0.00 0.00 0.00 0.00 0.00 0.00 0.00
0.00 0.00 0.00 0.00 0.00 0.00 0.00 0.00 0.00 0.00 0.00 0.00 0.00 0.00 0.00 0.00 0.00 0.00 0.00 0.00 0.00 0.00 0.00 0.00 0.00 0.00 0.00 0.00 0.00 0.00 0.00 0.00 0.00 0.00 0.00 0.00 0.00 0.00 0.00 0.00 0.00 0.00 0.00 0.00 0.00
0.00 0.00 0.00 0.00 0.00 0.00 0.00 0.00 0.00 0.00 0.00 0.00 0.00 0.00 0.00 0.00 0.00 0.00 0.00 0.00 0.00 0.00 0.00 0.00 0.00 0.00 0.00 0.00 0.00 0.00 0.00 0.00 0.00 0.00 0.00 0.00 0.00 0.00 0.00 0.00 0.00 0.00 0.00 0.00 0.00

GFSSW_prec_precacc24_141.txt.gz
Total_Precipitation_Accumulation
0.71 1.05 0.62 0.59 1.12 1.35 1.75 1.19 2.10 0.70 0.03 0.00 0.00 0.00 0.00 0.00 0.00 0.00 0.00 0.00 0.00 0.00 0.00 0.00 0.00 0.00 0.00 0.00 0.00 0.00 0.00 0.00 0.00 0.00 0.00 0.00 0.00 0.00 0.00 0.00 0.00 0.00 0.00 0.00 0.00
1.31 0.98 0.40 0.35 0.67 0.95 1.39 1.07 1.59 1.64 0.18 0.01 0.00 0.00 0.00 0.00 0.00 0.00 0.00 0.00 0.00 0.00 0.00 0.00 0.00 0.00 0.00 0.00 0.00 0.00 0.00 0.00 0.00 0.00 0.00 0.00 0.00 0.00 0.00 0.00 0.00 0.00 0.00 0.00 0.00
0.92 0.54 0.19 0.12 0.62 0.86 1.32 1.28 1.18 1.54 0.75 0.05 0.00 0.00 0.00 0.00 0.00 0.00 0.00 0.00 0.00 0.00 0.00 0.00 0.00 0.00 0.00 0.00 0.00 0.00 0.00 0.00 0.00 0.00 0.00 0.00 0.00 0.00 0.00 0.00 0.00 0.00 0.00 0.00 0.00
0.55 0.38 0.23 0.19 0.76 0.98 1.42 0.84 1.06 1.10 0.77 0.19 0.00 0.00 0.00 0.00 0.00 0.00 0.00 0.00 0.00 0.00 0.00 0.00 0.00 0.00 0.00 0.00 0.00 0.00 0.00 0.00 0.00 0.00 0.00 0.00 0.00 0.00 0.00 0.00 0.00 0.00 0.00 0.00 0.00
0.53 0.37 0.32 0.28 0.74 0.97 0.70 0.43 0.59 0.86 0.56 0.23 0.02 0.00 0.00 0.00 0.00 0.00 0.00 0.00 0.00 0.00 0.00 0.00 0.00 0.00 0.00 0.00 0.00 0.00 0.00 0.00 0.00 0.00 0.00 0.00 0.00 0.00 0.00 0.00 0.00 0.00 0.00 0.00 0.00
0.34 0.23 0.30 0.31 0.42 0.39 0.33 0.45 0.54 1.01 0.41 0.11 0.00 0.00 0.00 0.00 0.00 0.00 0.00 0.00 0.00 0.00 0.00 0.00 0.00 0.00 0.00 0.00 0.00 0.00 0.00 0.00 0.00 0.00 0.00 0.00 0.00 0.00 0.00 0.00 0.00 0.00 0.00 0.00 0.00
0.33 0.10 0.14 0.18 0.19 0.18 0.35 0.66 0.72 0.63 0.23 0.03 0.00 0.00 0.00 0.00 0.00 0.00 0.00 0.00 0.00 0.00 0.00 0.00 0.00 0.00 0.00 0.00 0.00 0.00 0.00 0.00 0.00 0.00 0.00 0.00 0.00 0.00 0.00 0.00 0.00 0.00 0.00 0.00 0.00
0.06 0.04 0.08 0.08 0.15 0.39 0.73 0.85 0.55 0.27 0.06 0.00 0.00 0.00 0.00 0.00 0.00 0.00 0.00 0.00 0.00 0.00 0.00 0.00 0.00 0.00 0.00 0.00 0.00 0.00 0.00 0.00 0.00 0.00 0.00 0.00 0.00 0.00 0.00 0.00 0.00 0.00 0.00 0.00 0.00
0.10 0.12 0.16 0.23 0.40 0.44 0.65 0.61 0.36 0.08 0.01 0.00 0.00 0.00 0.00 0.00 0.00 0.00 0.00 0.00 0.00 0.00 0.00 0.00 0.00 0.00 0.00 0.00 0.00 0.00 0.00 0.00 0.00 0.00 0.00 0.00 0.00 0.00 0.00 0.00 0.00 0.00 0.00 0.00 0.00
0.27 0.40 0.45 0.50 0.87 0.88 0.51 0.39 0.08 0.01 0.00 0.00 0.00 0.00 0.00 0.00 0.00 0.00 0.00 0.00 0.00 0.00 0.00 0.00 0.00 0.00 0.00 0.00 0.00 0.00 0.00 0.00 0.00 0.00 0.00 0.00 0.00 0.00 0.00 0.00 0.00 0.00 0.00 0.00 0.00
0.10 0.36 0.71 1.38 1.55 0.58 0.24 0.06 0.00 0.00 0.00 0.00 0.00 0.00 0.00 0.00 0.00 0.00 0.00 0.00 0.00 0.00 0.00 0.00 0.00 0.00 0.00 0.00 0.00 0.00 0.00 0.00 0.00 0.00 0.00 0.00 0.00 0.00 0.00 0.00 0.00 0.00 0.00 0.00 0.00
0.08 0.15 0.44 0.62 0.44 0.14 0.02 0.00 0.00 0.00 0.00 0.00 0.00 0.00 0.00 0.00 0.00 0.00 0.00 0.00 0.00 0.00 0.00 0.00 0.00 0.00 0.00 0.00 0.00 0.00 0.00 0.00 0.00 0.00 0.00 0.00 0.00 0.00 0.00 0.00 0.00 0.00 0.00 0.00 0.00
0.09 0.07 0.07 0.09 0.05 0.03 0.00 0.00 0.00 0.00 0.00 0.00 0.00 0.00 0.00 0.00 0.00 0.00 0.00 0.00 0.00 0.00 0.00 0.00 0.00 0.00 0.00 0.00 0.00 0.00 0.00 0.00 0.00 0.00 0.00 0.00 0.00 0.00 0.00 0.00 0.00 0.00 0.00 0.00 0.00
0.04 0.01 0.00 0.01 0.02 0.00 0.00 0.00 0.00 0.00 0.00 0.00 0.00 0.00 0.00 0.00 0.00 0.00 0.00 0.00 0.00 0.00 0.00 0.00 0.00 0.00 0.00 0.00 0.00 0.00 0.00 0.00 0.00 0.04 0.01 0.01 0.03 0.00 0.00 0.00 0.00 0.00 0.00 0.01 0.02
0.01 0.00 0.00 0.00 0.00 0.00 0.00 0.00 0.00 0.00 0.00 0.00 0.00 0.00 0.00 0.00 0.00 0.00 0.00 0.00 0.00 0.00 0.00 0.00 0.00 0.00 0.00 0.00 0.00 0.00 0.00 0.00 0.01 0.05 0.07 0.00 0.06 0.00 0.00 0.00 0.01 0.01 0.03 0.07 0.09
0.00 0.00 0.00 0.00 0.00 0.00 0.00 0.00 0.00 0.00 0.00 0.00 0.00 0.00 0.00 0.00 0.00 0.00 0.00 0.00 0.00 0.00 0.00 0.00 0.00 0.00 0.00 0.00 0.00 0.00 0.00 0.00 0.01 0.04 0.03 0.01 0.09 0.02 0.07 0.22 0.14 0.09 0.10 0.22 0.19
0.00 0.00 0.00 0.00 0.00 0.00 0.00 0.00 0.00 0.00 0.00 0.00 0.00 0.00 0.00 0.00 0.00 0.00 0.00 0.00 0.00 0.00 0.00 0.00 0.00 0.00 0.00 0.00 0.00 0.00 0.03 0.01 0.01 0.01 0.00 0.03 0.11 0.08 0.13 0.18 0.29 0.23 0.25 0.32 0.44
0.00 0.00 0.00 0.00 0.00 0.00 0.00 0.00 0.00 0.00 0.00 0.00 0.00 0.00 0.00 0.00 0.00 0.00 0.00 0.00 0.00 0.00 0.00 0.00 0.00 0.00 0.00 0.00 0.00 0.01 0.03 0.06 0.03 0.02 0.01 0.00 0.07 0.12 0.20 0.22 0.25 0.24 0.40 0.30 0.30
0.00 0.00 0.00 0.00 0.00 0.00 0.00 0.00 0.00 0.00 0.00 0.00 0.00 0.00 0.00 0.00 0.00 0.00 0.00 0.00 0.00 0.00 0.00 0.00 0.00 0.00 0.00 0.00 0.00 0.01 0.01 0.03 0.08 0.02 0.03 0.01 0.01 0.07 0.16 0.19 0.31 0.36 0.25 0.27 0.23
0.00 0.00 0.00 0.00 0.00 0.00 0.00 0.00 0.00 0.00 0.00 0.00 0.00 0.00 0.00 0.00 0.00 0.00 0.00 0.00 0.00 0.00 0.00 0.00 0.00 0.00 0.00 0.00 0.00 0.00 0.00 0.01 0.03 0.02 0.01 0.00 0.01 0.10 0.10 0.16 0.29 0.39 0.41 0.38 0.62
0.00 0.00 0.00 0.00 0.00 0.00 0.00 0.00 0.00 0.00 0.00 0.00 0.00 0.00 0.00 0.00 0.00 0.00 0.00 0.00 0.00 0.00 0.00 0.00 0.00 0.00 0.00 0.00 0.00 0.00 0.00 0.00 0.00 0.00 0.00 0.00 0.03 0.08 0.17 0.16 0.22 0.26 0.31 0.29 0.20
0.00 0.00 0.00 0.00 0.00 0.00 0.00 0.00 0.00 0.00 0.00 0.00 0.00 0.00 0.00 0.00 0.00 0.00 0.00 0.00 0.00 0.00 0.00 0.00 0.00 0.00 0.00 0.00 0.00 0.00 0.00 0.00 0.00 0.00 0.00 0.00 0.04 0.03 0.04 0.03 0.02 0.01 0.00 0.00 0.00
0.00 0.00 0.00 0.00 0.00 0.00 0.00 0.00 0.00 0.00 0.00 0.00 0.00 0.00 0.00 0.00 0.00 0.00 0.00 0.00 0.00 0.00 0.00 0.00 0.00 0.00 0.00 0.00 0.00 0.00 0.00 0.00 0.00 0.00 0.00 0.00 0.01 0.00 0.00 0.00 0.00 0.00 0.00 0.00 0.00
0.00 0.00 0.00 0.00 0.00 0.00 0.00 0.00 0.00 0.00 0.00 0.00 0.00 0.00 0.00 0.00 0.00 0.00 0.00 0.00 0.00 0.00 0.00 0.00 0.00 0.00 0.00 0.00 0.00 0.00 0.00 0.00 0.00 0.00 0.00 0.00 0.00 0.00 0.00 0.00 0.00 0.00 0.00 0.00 0.00
0.00 0.00 0.00 0.00 0.00 0.00 0.00 0.00 0.00 0.00 0.00 0.00 0.00 0.00 0.00 0.00 0.00 0.00 0.00 0.00 0.00 0.00 0.00 0.00 0.00 0.00 0.00 0.00 0.00 0.00 0.00 0.00 0.00 0.00 0.00 0.00 0.00 0.00 0.00 0.00 0.00 0.00 0.00 0.00 0.00
0.00 0.00 0.00 0.00 0.00 0.00 0.00 0.00 0.00 0.00 0.00 0.00 0.00 0.00 0.00 0.00 0.00 0.00 0.00 0.00 0.00 0.00 0.00 0.00 0.00 0.00 0.00 0.00 0.00 0.00 0.00 0.00 0.00 0.00 0.00 0.00 0.00 0.00 0.00 0.00 0.00 0.00 0.00 0.00 0.00
0.00 0.00 0.00 0.00 0.00 0.00 0.00 0.00 0.00 0.00 0.00 0.00 0.00 0.00 0.00 0.00 0.00 0.00 0.00 0.00 0.00 0.00 0.00 0.00 0.00 0.00 0.00 0.00 0.00 0.00 0.00 0.00 0.00 0.00 0.00 0.00 0.00 0.00 0.00 0.00 0.00 0.00 0.00 0.00 0.00